# Wetter Temperatur Luftdruck Luftfeuchtigkeit Sichtweite Windgeschwindigkeit Windrichtung Zeit
1 -273 0 0 0 0 0 20:39 17.10.2019
2 Clear 15 1019 82 10000 1 0 20:19 17.10.2019
3 Clear 15 1018 77 10000 2.1 200 19:56 17.10.2019
4 Clear 15 1018 77 10000 2.1 200 19:38 17.10.2019
5 Clear 16 1018 72 10000 2.6 200 19:18 17.10.2019
6 Clouds 17 1018 68 10000 3.1 200 18:42 17.10.2019
7 Clouds 17 1018 59 10000 3.1 200 18:21 17.10.2019
8 Clouds 18 1018 59 10000 3.1 200 17:55 17.10.2019
9 Clouds 18 1018 63 10000 3.1 200 17:37 17.10.2019
10 Clouds 18 1018 56 10000 2.1 200 17:19 17.10.2019
11 Clouds 19 1018 56 10000 2.1 200 16:55 17.10.2019
12 Clouds 19 1018 59 10000 2.1 190 16:36 17.10.2019
13 Clouds 19 1019 56 10000 2.1 220 16:18 17.10.2019
14 Clouds 19 1019 59 10000 2.1 190 15:41 17.10.2019
15 Clouds 19 1019 59 10000 2.1 220 15:21 17.10.2019
16 Clouds 19 1019 56 10000 1 0 14:58 17.10.2019
17 Clouds 19 1019 56 10000 1 0 14:39 17.10.2019
18 Clouds 19 1019 63 10000 1 0 14:21 17.10.2019
19 Clouds 19 1020 59 10000 0.5 0 13:42 17.10.2019
20 Clouds 18 1020 63 10000 1 0 13:21 17.10.2019
21 Clouds 17 1020 67 10000 0.5 0 12:58 17.10.2019
22 Clouds 17 1020 67 10000 0.5 0 12:40 17.10.2019
23 Clouds 17 1020 67 10000 0.5 0 12:20 17.10.2019
24 Clouds 17 1020 67 10000 0.5 0 12:20 17.10.2019
25 Clouds 16 1020 67 10000 0.5 0 11:57 17.10.2019
26 Clouds 16 1021 72 10000 1 0 11:38 17.10.2019
27 Clouds 15 1021 72 10000 0.5 0 11:18 17.10.2019
28 Clouds 15 1020 82 10000 1 0 10:42 17.10.2019
29 Clouds 14 1020 93 10000 2.1 40 10:20 17.10.2019
30 Clouds 13 1020 93 10000 2.1 40 09:58 17.10.2019
31 Clouds 13 1020 87 10000 2.1 10 09:39 17.10.2019
32 Clouds 12 1020 93 10000 1.5 20 09:20 17.10.2019
33 -273 0 0 0 0 0 08:58 17.10.2019
34 Clouds 11 1020 87 10000 3.1 10 08:38 17.10.2019
35 Clouds 10 1019 93 10000 2.6 10 08:18 17.10.2019
36 Clouds 10 1019 93 10000 3.6 360 07:48 17.10.2019
37 Clouds 10 1019 93 10000 2.6 10 07:21 17.10.2019
38 Clouds 10 1019 93 10000 2.6 10 07:21 17.10.2019
39 Clouds 11 1019 93 10000 2.6 10 06:58 17.10.2019
40 Clouds 11 1019 93 10000 4.1 360 06:39 17.10.2019
41 Clouds 11 1019 93 10000 3.1 360 06:19 17.10.2019
42 Clouds 11 1019 100 10000 3.1 10 05:41 17.10.2019
43 Clouds 11 1019 93 10000 3.6 360 05:20 17.10.2019
44 Clouds 11 1019 100 10000 2.6 10 04:50 17.10.2019
45 Clouds 11 1019 93 10000 3.6 10 03:49 17.10.2019
46 Clouds 11 1020 100 10000 3.6 10 02:35 17.10.2019
47 Clouds 11 1019 100 10000 2.6 360 00:43 17.10.2019
48 Clouds 11 1019 93 10000 2.6 20 00:21 17.10.2019
49 Clouds 11 1019 93 10000 2.6 20 23:59 16.10.2019
50 Clouds 12 1019 93 10000 2.6 10 23:41 16.10.2019
51 Clouds 12 1019 87 10000 1 0 23:19 16.10.2019
52 Clouds 11 1019 87 10000 1 0 23:19 16.10.2019
53 Clouds 12 1019 100 10000 3.1 10 22:54 16.10.2019
54 Clouds 12 1019 100 10000 3.1 10 22:36 16.10.2019
55 Clouds 12 1018 100 10000 2.1 10 22:18 16.10.2019
56 Clouds 12 1018 100 10000 2.1 10 21:55 16.10.2019
57 Clouds 12 1018 100 10000 2.1 10 21:54 16.10.2019
58 Clouds 12 1018 100 10000 2.1 10 21:54 16.10.2019
59 Clouds 12 1018 100 10000 2.1 10 21:54 16.10.2019
60 Clouds 12 1018 100 10000 2.1 30 21:36 16.10.2019
61 Clouds 12 1018 87 10000 1.5 20 21:18 16.10.2019
62 -273 0 0 0 0 0 20:54 16.10.2019
63 Clouds 13 1018 93 10000 1 20 20:36 16.10.2019
64 Clouds 13 1017 87 10000 1 360 20:18 16.10.2019
65 Clouds 15 1017 87 10000 0.5 0 19:40 16.10.2019
66 Clouds 15 1017 67 10000 0.5 0 19:21 16.10.2019
67 Clouds 16 1017 67 10000 0.5 0 18:57 16.10.2019
68 Clouds 17 1016 55 10000 1 0 18:37 16.10.2019
69 Clear 18 1016 52 10000 1.5 290 18:18 16.10.2019
70 Clear 19 1016 52 10000 1.5 290 17:55 16.10.2019
71 Clear 19 1016 52 10000 1 0 17:36 16.10.2019
72 Clear 19 1016 55 10000 2.6 250 17:18 16.10.2019
73 Clear 19 1016 59 10000 3.1 210 16:43 16.10.2019
74 Clear 19 1016 59 10000 3.1 210 16:23 16.10.2019
75 Clear 19 1016 52 10000 2.1 200 15:59 16.10.2019
76 Clear 19 1016 55 10000 3.1 220 15:39 16.10.2019
77 Clear 19 1016 55 10000 3.1 220 15:39 16.10.2019
78 Clear 19 1016 52 10000 1.5 0 15:19 16.10.2019
79 Clear 19 1016 55 10000 2.6 240 14:58 16.10.2019
80 Clear 19 1016 55 10000 2.6 240 14:39 16.10.2019
81 Clear 19 1017 55 10000 2.1 240 14:20 16.10.2019
82 Clear 18 1017 55 10000 2.1 240 13:57 16.10.2019
83 Clear 18 1017 59 10000 1 0 13:39 16.10.2019
84 Clear 18 1017 63 10000 1.5 0 13:20 16.10.2019
85 Clear 18 1017 72 10000 2.1 0 12:42 16.10.2019
86 Clear 17 1017 77 10000 3.1 290 12:20 16.10.2019
87 Clear 16 1017 72 10000 2.6 280 11:45 16.10.2019
88 Clear 15 1017 82 10000 1.5 260 11:19 16.10.2019
89 Clear 15 1017 87 10000 2.1 270 10:56 16.10.2019
90 Clear 15 1017 87 10000 2.1 270 10:36 16.10.2019
91 Clear 14 1016 82 10000 1 0 10:18 16.10.2019
92 Clear 12 1016 93 10000 0.5 0 09:40 16.10.2019
93 Clear 12 1016 93 10000 0.5 0 09:40 16.10.2019
94 Clouds 11 1015 87 10000 1 0 09:21 16.10.2019
95 -273 0 0 0 0 0 08:46 16.10.2019
96 Fog 10 1015 93 10000 3.1 350 08:26 16.10.2019
97 Fog 9 1015 100 10000 2.6 340 07:59 16.10.2019
98 Clear 9 1014 100 10000 3.1 350 07:41 16.10.2019
99 Clear 10 1014 100 10000 3.1 350 07:22 16.10.2019
100 Clear 10 1014 93 10000 2.1 10 06:46 16.10.2019
101 Clear 10 1014 93 10000 2.1 10 06:27 16.10.2019
102 Clear 11 1014 100 10000 3.6 350 04:24 16.10.2019
103 Rain 12 1013 93 10000 2.1 350 02:50 16.10.2019
104 Rain 12 1012 100 10000 3.6 10 01:20 16.10.2019
105 Rain 12 1012 100 10000 3.6 10 00:58 16.10.2019
106 Rain 12 1012 100 10000 2.6 20 00:39 16.10.2019
107 Thunderstorm 13 1011 100 10000 8.7 10 23:42 15.10.2019
108 Thunderstorm 14 1011 100 10000 8.7 10 23:23 15.10.2019
109 Clouds 15 1011 100 3000 12.3 340 22:59 15.10.2019
110 Thunderstorm 16 1010 100 3000 5.1 100 22:40 15.10.2019
111 Mist 15 1009 100 5000 7.2 120 22:21 15.10.2019
112 Mist 16 1009 100 5000 7.2 120 21:57 15.10.2019
113 Mist 16 1008 100 5000 7.2 110 21:38 15.10.2019
114 Mist 16 1008 100 5000 7.2 120 21:20 15.10.2019
115 Clouds 16 1009 87 10000 2.1 100 21:20 15.10.2019
116 Mist 16 1008 100 5000 7.2 120 20:58 15.10.2019
117 Mist 16 1008 100 5000 5.7 120 20:40 15.10.2019
118 Mist 16 1008 100 5000 5.7 120 20:40 15.10.2019
119 Rain 16 1008 88 2500 5.1 100 20:21 15.10.2019
120 Rain 16 1008 100 5000 6.2 140 19:59 15.10.2019
121 Rain 17 1008 100 5000 8.2 130 19:41 15.10.2019
122 Rain 17 1008 100 5000 6.7 120 19:20 15.10.2019
123 Rain 17 1008 100 5000 6.7 120 18:55 15.10.2019
124 Rain 17 1008 100 5000 3.1 140 18:36 15.10.2019
125 Clouds 17 1008 100 8000 3.6 120 18:18 15.10.2019
126 Mist 17 1008 100 5000 5.7 110 17:41 15.10.2019
127 Mist 17 1008 100 5000 5.7 110 17:41 15.10.2019
128 Rain 17 1009 100 4000 5.1 110 17:21 15.10.2019
129 Rain 17 1009 100 4000 5.1 110 16:59 15.10.2019
130 Rain 17 1009 100 4000 5.1 110 16:59 15.10.2019
131 Rain 17 1008 100 5000 3.6 110 16:40 15.10.2019
132 Rain 17 1009 100 5000 2.6 130 16:21 15.10.2019
133 Rain 17 1010 93 3500 4.6 110 15:55 15.10.2019
134 Thunderstorm 16 1010 100 1800 6.7 190 15:37 15.10.2019
135 Rain 17 1009 100 1500 9.3 120 15:19 15.10.2019
136 Rain 17 1009 100 1800 8.2 120 14:38 15.10.2019
137 Rain 17 1009 100 1800 8.2 120 14:38 15.10.2019
138 Rain 17 1009 93 1100 6.7 110 14:20 15.10.2019
139 Rain 17 1009 100 2500 9.3 110 13:58 15.10.2019
140 Rain 17 1010 100 2000 5.1 100 13:40 15.10.2019
141 Rain 17 1010 100 2000 5.1 100 13:19 15.10.2019
142 Rain 16 1012 100 2000 4.6 100 12:44 15.10.2019
143 Rain 16 1012 100 2000 4.6 100 12:44 15.10.2019
144 Rain 16 1012 100 2000 7.7 110 12:22 15.10.2019
145 Rain 16 1012 100 2000 7.7 110 11:57 15.10.2019
146 Rain 16 1012 100 2500 7.7 110 11:38 15.10.2019
147 Rain 16 1013 100 2500 8.2 110 11:19 15.10.2019
148 Rain 16 1013 100 2500 7.2 100 10:45 15.10.2019
149 Rain 16 1013 100 2000 6.7 90 10:22 15.10.2019
150 Rain 16 1013 100 2000 6.7 90 09:58 15.10.2019
151 Rain 16 1014 100 2500 5.1 100 09:39 15.10.2019
152 Rain 16 1015 82 4000 0.5 0 09:20 15.10.2019
153 Rain 16 1015 100 3000 4.6 110 08:57 15.10.2019
154 Rain 15 1014 100 2000 4.6 120 08:37 15.10.2019
155 Rain 15 1014 100 1800 3.6 100 08:18 15.10.2019
156 -273 0 0 0 0 0 07:42 15.10.2019
157 Rain 15 1015 100 2000 3.1 70 07:21 15.10.2019
158 Rain 15 1015 100 2000 3.1 70 06:54 15.10.2019
159 Rain 15 1015 100 2000 3.6 60 06:36 15.10.2019
160 Rain 15 1016 100 2000 2.6 40 05:54 15.10.2019
161 Rain 15 1016 93 4000 2.1 70 05:35 15.10.2019
162 Mist 15 1016 100 7000 2.6 20 04:39 15.10.2019
163 Rain 15 1017 100 10000 2.6 10 03:57 15.10.2019
164 Rain 15 1018 100 10000 1.5 350 03:27 15.10.2019
165 Rain 16 1019 87 10000 1.5 70 01:51 15.10.2019
166 Rain 16 1019 87 10000 0.5 0 01:23 15.10.2019
167 Rain 16 1019 87 10000 1.5 50 00:50 15.10.2019
168 Rain 16 1019 93 10000 1 0 00:22 15.10.2019
169 Rain 16 1019 93 10000 2.1 30 23:46 14.10.2019
170 Rain 16 1019 93 10000 2.1 30 23:21 14.10.2019
171 Clouds 16 1020 87 10000 1 0 22:59 14.10.2019
172 Clouds 16 1020 87 10000 1 0 22:38 14.10.2019
173 Clouds 16 1020 82 10000 0.5 0 22:19 14.10.2019
174 Clouds 16 1020 82 10000 0.5 0 21:56 14.10.2019
175 Clouds 16 1019 93 10000 1.5 350 21:37 14.10.2019
176 Mist 16 1019 87 10000 0.5 0 21:19 14.10.2019
177 Mist 16 1019 87 10000 0.5 0 20:55 14.10.2019
178 Mist 16 1019 87 10000 0.5 0 20:55 14.10.2019
179 -273 0 0 0 0 0 20:54 14.10.2019
180 -273 0 0 0 0 0 20:54 14.10.2019
181 Mist 17 1019 87 10000 0.5 0 20:36 14.10.2019
182 Mist 17 1020 82 10000 1 50 20:18 14.10.2019
183 Clouds 17 1019 82 10000 1.5 40 19:41 14.10.2019
184 Clouds 17 1019 82 10000 1.5 40 19:41 14.10.2019
185 Clouds 17 1019 82 10000 1.5 40 19:23 14.10.2019
186 Mist 17 1020 72 10000 1 0 19:23 14.10.2019
187 Mist 18 1020 72 10000 1 0 18:58 14.10.2019
188 Mist 19 1019 72 10000 1 50 18:39 14.10.2019
189 Clouds 19 1020 72 10000 1 0 18:19 14.10.2019
190 Clouds 19 1020 72 10000 1 0 17:56 14.10.2019
191 Clouds 19 1020 64 10000 1 0 17:37 14.10.2019
192 Clouds 20 1020 64 10000 0.5 0 17:19 14.10.2019
193 Clouds 20 1020 60 10000 0.5 0 16:40 14.10.2019
194 Clouds 20 1020 64 10000 1.5 50 16:21 14.10.2019
195 Clouds 20 1021 64 10000 1.5 40 15:42 14.10.2019
196 Clouds 20 1021 68 10000 1 0 15:22 14.10.2019
197 Clouds 19 1021 68 10000 1 0 14:56 14.10.2019
198 Clouds 19 1021 68 10000 1 0 14:56 14.10.2019
199 Clouds 19 1021 68 10000 1.5 290 14:38 14.10.2019
200 Mist 19 1022 68 10000 1 0 14:19 14.10.2019
201 Mist 18 1022 68 10000 1.5 30 13:43 14.10.2019
202 Mist 18 1023 72 10000 1.5 10 13:21 14.10.2019
203 Mist 18 1023 77 10000 2.1 350 12:55 14.10.2019
204 Mist 18 1023 77 10000 2.1 350 12:36 14.10.2019
205 Mist 18 1023 72 10000 3.1 340 12:18 14.10.2019
206 Mist 18 1023 72 10000 3.1 340 12:18 14.10.2019
207 Mist 17 1023 72 10000 2.1 340 11:43 14.10.2019
208 Mist 17 1023 72 10000 2.1 340 11:24 14.10.2019
209 Mist 17 1023 77 10000 2.6 350 10:55 14.10.2019
210 Mist 16 1023 77 10000 2.6 350 10:37 14.10.2019
211 Mist 16 1023 82 10000 2.1 360 10:18 14.10.2019
212 Mist 15 1023 87 10000 1 0 09:41 14.10.2019
213 Clouds 15 1023 93 10000 1 0 09:21 14.10.2019
214 Clouds 14 1023 87 10000 0.5 20 08:50 14.10.2019
215 Clouds 14 1023 87 10000 0.5 20 08:50 14.10.2019
216 Clouds 14 1023 87 10000 2.1 20 08:23 14.10.2019
217 Clouds 14 1023 93 10000 1.5 30 07:47 14.10.2019
218 Clouds 14 1023 93 10000 2.1 10 07:25 14.10.2019
219 Clouds 14 1023 93 10000 2.1 10 06:58 14.10.2019
220 Clouds 13 1023 93 8000 1.5 20 06:28 14.10.2019
221 Clouds 13 1023 93 8000 1 20 05:56 14.10.2019
222 Clouds 13 1023 93 8000 1.5 10 05:25 14.10.2019
223 Mist 14 1023 93 7000 2.1 10 03:50 14.10.2019
224 Mist 14 1024 87 7000 2.1 360 03:23 14.10.2019
225 Mist 14 1024 87 6000 2.1 360 02:25 14.10.2019
226 Mist 14 1024 87 6000 1 40 01:19 14.10.2019
227 Mist 14 1024 87 6000 2.1 10 00:41 14.10.2019
228 Mist 14 1024 87 7000 2.1 10 00:18 14.10.2019
229 Mist 14 1024 87 10000 2.1 360 23:40 13.10.2019
230 Clouds 14 1024 87 8000 2.1 20 23:19 13.10.2019
231 Clouds 14 1024 87 8000 2.1 20 22:55 13.10.2019
232 Clouds 14 1024 87 8000 2.1 20 22:55 13.10.2019
233 Clouds 14 1024 87 8000 2.1 20 22:55 13.10.2019
234 Clouds 15 1024 87 8000 3.1 10 22:37 13.10.2019
235 Clouds 14 1024 87 10000 2.6 10 22:19 13.10.2019
236 Clouds 14 1024 87 10000 2.6 10 22:19 13.10.2019
237 Clouds 14 1024 87 10000 2.6 10 21:55 13.10.2019
238 Clouds 15 1024 87 10000 1.5 360 21:36 13.10.2019
239 Mist 15 1024 82 10000 2.1 310 21:18 13.10.2019
240 Mist 15 1024 82 10000 2.1 310 21:18 13.10.2019
241 -273 0 0 0 0 0 20:55 13.10.2019
242 Mist 15 1024 77 10000 2.1 250 20:55 13.10.2019
243 Mist 15 1024 77 10000 2.1 250 20:37 13.10.2019
244 Mist 15 1024 77 10000 2.1 220 20:18 13.10.2019
245 Mist 16 1024 77 10000 2.1 220 19:54 13.10.2019
246 Mist 16 1023 77 10000 2.6 210 19:36 13.10.2019
247 Mist 16 1023 77 10000 2.6 210 19:36 13.10.2019
248 Clouds 16 1023 77 7000 2.1 210 19:18 13.10.2019
249 Clouds 17 1023 72 8000 3.6 200 18:39 13.10.2019
250 Clouds 18 1023 68 8000 3.6 200 18:20 13.10.2019
251 Clear 18 1023 68 10000 3.6 200 17:59 13.10.2019
252 Clear 19 1023 68 10000 3.6 200 17:40 13.10.2019
253 Clear 19 1023 60 10000 2.1 240 17:22 13.10.2019
254 Clear 19 1023 64 10000 2.1 190 16:43 13.10.2019
255 Clear 19 1023 56 10000 1 0 16:19 13.10.2019
256 Clear 19 1023 56 10000 1 0 15:57 13.10.2019
257 Clear 20 1023 56 10000 2.1 0 15:39 13.10.2019
258 Clear 19 1024 56 10000 1.5 190 15:20 13.10.2019
259 Clear 19 1024 56 10000 1.5 190 15:20 13.10.2019
260 Clouds 19 1024 64 10000 1.5 0 14:57 13.10.2019
261 Clouds 19 1024 64 10000 1.5 0 14:39 13.10.2019
262 Clouds 19 1024 63 10000 1.5 150 14:20 13.10.2019
263 Clear 19 1024 64 10000 1 0 13:42 13.10.2019
264 Clear 18 1025 68 10000 1.5 130 13:23 13.10.2019
265 Clear 18 1025 68 10000 1.5 130 12:59 13.10.2019
266 Clear 18 1025 63 10000 1 0 12:39 13.10.2019
267 Clear 17 1025 77 10000 1 0 12:21 13.10.2019
268 Clear 16 1025 77 10000 1 0 11:59 13.10.2019
269 Clear 16 1025 82 10000 1.5 20 11:39 13.10.2019
270 Clear 15 1025 87 10000 2.6 20 11:21 13.10.2019
271 Clear 15 1025 93 10000 3.1 10 10:59 13.10.2019
272 Clear 15 1025 93 10000 3.1 10 10:39 13.10.2019
273 Clear 13 1024 100 10000 1.5 20 10:20 13.10.2019
274 Clear 12 1024 100 10000 1.5 360 09:39 13.10.2019
275 Clouds 11 1024 100 8000 2.1 10 09:21 13.10.2019
276 Clouds 11 1024 100 8000 2.1 10 09:21 13.10.2019
277 Fog 11 1024 100 8000 2.6 10 08:51 13.10.2019
278 Fog 10 1024 100 8000 2.6 10 08:27 13.10.2019
279 Fog 10 1024 100 8000 2.6 20 07:52 13.10.2019
280 Fog 10 1024 100 8000 2.6 360 07:33 13.10.2019
281 Fog 11 1023 100 6000 3.1 360 06:54 13.10.2019
282 -273 0 0 0 0 0 06:54 13.10.2019
283 Fog 10 1023 100 6000 3.1 20 06:24 13.10.2019
284 Fog 11 1023 100 6000 3.1 360 06:24 13.10.2019
285 Fog 11 1023 100 6000 2.6 20 05:27 13.10.2019
286 Fog 11 1023 100 6000 2.6 20 05:27 13.10.2019
287 Fog 11 1024 100 6000 3.1 350 04:35 13.10.2019
288 Fog 11 1024 100 5000 2.1 10 03:34 13.10.2019
289 Fog 11 1024 100 5000 2.1 20 02:31 13.10.2019
290 Fog 11 1024 100 5000 2.1 20 02:31 13.10.2019
291 Fog 12 1024 100 6000 1 30 01:37 13.10.2019
292 Fog 12 1024 100 6000 1.5 30 00:56 13.10.2019
293 Fog 12 1024 100 6000 1.5 30 00:56 13.10.2019
294 Fog 12 1024 100 6000 1.5 30 00:38 13.10.2019
295 Fog 12 1024 100 6000 2.6 10 00:19 13.10.2019
296 Fog 12 1024 100 6000 2.6 20 23:42 12.10.2019
297 Fog 13 1024 100 6000 2.6 10 23:23 12.10.2019
298 Fog 13 1024 100 6000 2.6 10 22:58 12.10.2019
299 Fog 13 1024 100 6000 2.1 10 22:40 12.10.2019
300 Fog 13 1024 93 9000 1.5 30 22:22 12.10.2019
301 Clear 13 1024 93 10000 1 0 21:58 12.10.2019
302 Fog 13 1024 93 9000 1.5 30 21:58 12.10.2019
303 Clear 14 1024 93 10000 1 0 21:39 12.10.2019
304 Clear 14 1024 93 10000 1 40 21:21 12.10.2019
305 Clear 14 1024 87 10000 1 20 20:46 12.10.2019
306 Clear 14 1024 87 10000 1 20 20:46 12.10.2019
307 Clear 15 1024 82 10000 0.5 0 20:28 12.10.2019
308 Mist 16 1023 77 10000 0.5 0 19:57 12.10.2019
309 Mist 16 1023 77 10000 0.5 0 19:36 12.10.2019
310 Mist 17 1023 63 10000 1.5 200 19:18 12.10.2019
311 Mist 18 1023 68 10000 1.5 190 18:41 12.10.2019
312 Mist 18 1023 59 10000 0.5 0 18:23 12.10.2019
313 Mist 18 1023 59 10000 1.5 210 17:45 12.10.2019
314 Mist 19 1023 56 10000 1.5 0 17:21 12.10.2019
315 Mist 19 1023 63 10000 1.5 0 16:58 12.10.2019
316 Mist 19 1023 63 10000 1.5 0 16:58 12.10.2019
317 Mist 19 1023 63 10000 1.5 0 16:40 12.10.2019
318 Mist 19 1023 64 10000 1.5 230 16:19 12.10.2019
319 Mist 19 1023 63 10000 1.5 250 15:45 12.10.2019
320 Mist 19 1023 63 10000 1.5 250 15:26 12.10.2019
321 Mist 19 1023 59 10000 1.5 270 14:59 12.10.2019
322 Mist 19 1024 63 10000 2.1 260 14:38 12.10.2019
323 Clear 19 1024 72 10000 2.1 230 14:19 12.10.2019
324 Clear 18 1024 72 10000 1 0 13:45 12.10.2019
325 Clear 18 1024 72 10000 1 0 13:27 12.10.2019
326 Clear 18 1024 68 10000 0.5 0 12:55 12.10.2019
327 Clear 17 1024 68 10000 0.5 0 12:36 12.10.2019
328 Clear 17 1024 72 10000 1 0 12:18 12.10.2019
329 Clear 16 1025 77 10000 1 0 11:40 12.10.2019
330 Clear 16 1024 82 10000 1 0 11:22 12.10.2019
331 Clear 15 1024 87 10000 1 0 10:56 12.10.2019
332 -273 0 0 0 0 0 10:56 12.10.2019
333 Clear 15 1024 87 10000 1 0 10:37 12.10.2019
334 -273 0 0 0 0 0 10:18 12.10.2019
335 Clear 13 1024 100 10000 2.6 20 09:56 12.10.2019
336 Clear 13 1024 100 10000 1.5 20 09:55 12.10.2019
337 Clear 13 1024 100 10000 2.6 20 09:37 12.10.2019
338 Fog 10 1024 100 10000 2.6 10 09:18 12.10.2019
339 Fog 10 1024 100 10000 3.1 20 08:41 12.10.2019
340 Fog 9 1024 100 10000 3.1 20 08:41 12.10.2019
341 Fog 9 1023 100 6000 2.6 20 08:20 12.10.2019
342 Fog 9 1023 100 6000 2.6 20 08:20 12.10.2019
343 Fog 9 1023 100 6000 2.6 20 07:36 12.10.2019
344 Fog 9 1023 100 6000 3.1 10 06:59 12.10.2019
345 Fog 9 1023 100 6000 2.6 20 05:49 12.10.2019
346 Fog 10 1023 100 6000 2.1 10 05:24 12.10.2019
347 Fog 10 1023 100 6000 2.6 20 04:26 12.10.2019
348 Fog 10 1024 100 6000 2.6 10 03:41 12.10.2019
349 Fog 10 1024 100 7000 2.1 20 01:56 12.10.2019
350 Fog 11 1024 100 7000 1.5 30 01:24 12.10.2019
351 Fog 11 1024 100 7000 1.5 20 00:43 12.10.2019
352 Fog 11 1024 100 7000 1.5 30 00:19 12.10.2019
353 Fog 12 1024 100 7000 1 10 23:40 11.10.2019
354 Fog 12 1024 100 7000 1.5 30 23:20 11.10.2019
355 Fog 12 1024 93 7000 1 30 22:41 11.10.2019
356 Clear 12 1024 93 10000 0.5 0 22:22 11.10.2019
357 Clear 13 1024 93 10000 0.5 0 21:58 11.10.2019
358 Clear 13 1024 82 10000 2.1 260 21:39 11.10.2019
359 Mist 13 1023 77 10000 2.1 250 21:21 11.10.2019
360 Mist 14 1023 77 10000 2.6 230 20:45 11.10.2019
361 Mist 14 1023 77 10000 3.1 210 20:27 11.10.2019
362 Mist 14 1023 77 10000 3.1 210 20:27 11.10.2019
363 Mist 15 1023 77 10000 2.1 200 19:59 11.10.2019
364 Mist 15 1023 77 10000 2.1 200 19:39 11.10.2019
365 Mist 15 1023 77 10000 2.1 200 19:39 11.10.2019
366 Clear 16 1023 72 10000 2.1 210 19:18 11.10.2019
367 Clear 16 1023 72 10000 2.1 210 19:18 11.10.2019
368 Clear 16 1023 72 10000 2.1 210 19:18 11.10.2019
369 Clear 16 1023 72 10000 2.1 210 19:18 11.10.2019
370 Clear 17 1023 72 10000 2.1 210 18:59 11.10.2019
371 Clear 17 1023 72 10000 2.1 210 18:59 11.10.2019
372 Clear 17 1023 68 10000 2.6 210 18:38 11.10.2019
373 Clear 18 1023 63 10000 2.6 210 18:19 11.10.2019
374 Clear 18 1023 63 10000 2.6 210 18:19 11.10.2019
375 Clear 18 1023 63 10000 2.6 210 17:58 11.10.2019
376 Clear 19 1023 63 10000 2.1 200 17:38 11.10.2019
377 Clouds 19 1023 60 10000 1.5 200 17:19 11.10.2019
378 Clouds 19 1023 63 10000 1.5 210 16:58 11.10.2019
379 Clouds 19 1023 63 10000 1.5 210 16:39 11.10.2019
380 Clouds 19 1023 68 10000 1.5 190 16:19 11.10.2019
381 Clouds 19 1024 60 10000 1.5 180 15:41 11.10.2019
382 Clouds 19 1024 63 10000 1.5 170 15:20 11.10.2019
383 Clouds 19 1024 63 10000 1.5 170 14:58 11.10.2019
384 Clouds 19 1024 63 10000 1.5 170 14:58 11.10.2019
385 Clouds 19 1024 68 10000 1 0 14:37 11.10.2019
386 Clouds 18 1025 63 10000 1 0 14:19 11.10.2019
387 Clouds 18 1025 72 10000 1 0 13:43 11.10.2019
388 Clear 18 1025 72 10000 1 0 13:24 11.10.2019
389 Clouds 17 1026 82 10000 0.5 0 12:56 11.10.2019
390 Clouds 17 1026 82 10000 0.5 0 12:38 11.10.2019
391 Clouds 16 1025 77 10000 0.5 0 12:20 11.10.2019
392 Clouds 16 1026 77 10000 0.5 0 11:57 11.10.2019
393 Clouds 16 1026 77 10000 0.5 0 11:38 11.10.2019
394 Clouds 15 1025 82 10000 2.1 10 11:20 11.10.2019
395 Clouds 14 1025 87 10000 2.6 20 10:42 11.10.2019
396 Clouds 13 1025 93 10000 3.1 10 10:23 11.10.2019
397 Clouds 13 1025 93 10000 3.1 10 09:59 11.10.2019
398 Clouds 12 1025 93 10000 3.1 10 09:40 11.10.2019
399 Clouds 11 1024 100 10000 2.6 10 09:20 11.10.2019
400 Clouds 11 1024 100 10000 2.1 10 08:56 11.10.2019
401 Clouds 11 1024 100 10000 2.1 10 08:37 11.10.2019
402 Clouds 10 1024 100 10000 2.1 20 08:19 11.10.2019
403 Clouds 10 1023 100 10000 3.1 10 07:45 11.10.2019
404 Clear 10 1023 100 10000 2.6 10 07:27 11.10.2019
405 Clear 10 1023 100 10000 3.6 10 06:49 11.10.2019
406 Clear 10 1023 100 10000 3.1 20 06:24 11.10.2019
407 Clear 10 1023 100 10000 2.6 10 05:41 11.10.2019
408 Clear 10 1023 100 10000 2.1 10 05:20 11.10.2019
409 Rain 10 1023 100 10000 3.6 20 04:28 11.10.2019
410 Fog 10 1022 100 8000 1 0 02:41 11.10.2019
411 Fog 11 1021 100 8000 1.5 360 00:51 11.10.2019
412 Fog 11 1021 100 8000 1.5 20 00:29 11.10.2019
413 Fog 11 1020 100 8000 1.5 40 23:46 10.10.2019
414 Fog 11 1020 100 10000 1 30 23:23 10.10.2019
415 Fog 12 1020 93 10000 1.5 20 22:58 10.10.2019
416 Fog 12 1020 93 10000 1.5 20 22:39 10.10.2019
417 Fog 12 1019 93 10000 0.5 0 22:21 10.10.2019
418 Fog 13 1019 100 10000 0.5 0 21:58 10.10.2019
419 Fog 13 1019 100 10000 0.5 0 21:39 10.10.2019
420 Fog 13 1019 93 10000 1.5 60 21:21 10.10.2019
421 Fog 13 1019 93 10000 1.5 60 21:21 10.10.2019
422 Clear 14 1018 82 10000 1 0 20:43 10.10.2019
423 Clear 14 1018 82 10000 2.1 200 20:22 10.10.2019
424 Clear 15 1017 72 10000 2.6 210 19:59 10.10.2019
425 Clear 16 1017 72 10000 2.6 210 19:41 10.10.2019
426 Clear 16 1017 77 10000 2.6 200 19:21 10.10.2019
427 Clear 16 1017 77 10000 1 190 18:59 10.10.2019
428 Clear 17 1017 77 10000 1 190 18:39 10.10.2019
429 Clear 17 1016 68 10000 2.6 220 18:20 10.10.2019
430 Clear 18 1016 68 10000 3.1 230 17:55 10.10.2019
431 Clear 18 1016 68 10000 3.1 230 17:55 10.10.2019
432 Clear 18 1016 68 10000 3.1 230 17:37 10.10.2019
433 Clear 18 1016 68 10000 4.1 230 17:18 10.10.2019
434 Clear 18 1016 68 10000 4.6 240 16:44 10.10.2019
435 Clear 18 1016 68 10000 4.6 240 16:44 10.10.2019
436 Clear 19 1016 68 10000 4.6 240 16:26 10.10.2019
437 Clear 19 1016 68 10000 3.6 230 15:54 10.10.2019
438 Clear 19 1016 68 10000 3.6 230 15:36 10.10.2019
439 Clear 19 1016 68 10000 3.6 230 15:36 10.10.2019
440 Clear 18 1016 63 10000 3.6 210 15:18 10.10.2019
441 Clear 18 1016 68 10000 2.6 270 14:54 10.10.2019
442 Clear 18 1016 68 10000 2.6 270 14:36 10.10.2019
443 Clear 18 1016 68 10000 2.6 280 14:18 10.10.2019
444 Clear 17 1017 68 10000 1.5 0 13:41 10.10.2019
445 Clear 18 1017 68 10000 1.5 0 13:41 10.10.2019
446 Clear 17 1017 77 10000 2.1 330 13:23 10.10.2019
447 Clouds 16 1017 77 10000 2.1 310 12:57 10.10.2019
448 Clouds 16 1017 77 10000 2.1 310 12:39 10.10.2019
449 Clouds 16 1017 82 10000 2.1 340 12:19 10.10.2019
450 Clouds 15 1017 93 10000 1.5 320 11:55 10.10.2019
451 Clouds 15 1017 93 10000 1.5 320 11:37 10.10.2019
452 Clear 14 1017 100 10000 1.5 360 11:18 10.10.2019
453 Clear 14 1017 100 10000 2.6 350 10:44 10.10.2019
454 Clear 13 1017 100 10000 2.6 350 10:25 10.10.2019
455 Mist 12 1017 100 10000 3.1 360 09:55 10.10.2019
456 Mist 12 1016 100 8000 2.6 360 09:37 10.10.2019
457 Fog 11 1016 100 8000 2.1 10 09:19 10.10.2019
458 Mist 10 1016 100 5000 2.6 350 08:41 10.10.2019
459 Fog 10 1015 100 1200 3.1 20 08:22 10.10.2019
460 Fog 10 1015 100 8000 3.6 360 07:58 10.10.2019
461 Fog 10 1015 100 8000 3.6 360 07:37 10.10.2019
462 Fog 10 1015 100 8000 1 0 07:19 10.10.2019
463 Fog 10 1015 100 7000 2.6 360 06:40 10.10.2019
464 Fog 11 1015 100 6000 2.1 360 05:57 10.10.2019
465 Fog 11 1015 100 5000 1.5 10 05:22 10.10.2019
466 Fog 11 1015 100 5000 1.5 10 05:22 10.10.2019
467 Fog 11 1015 100 4000 1.5 360 04:36 10.10.2019
468 Mist 12 1015 100 3500 2.1 340 02:46 10.10.2019
469 Mist 13 1015 100 4000 2.1 270 01:39 10.10.2019
470 Mist 13 1015 100 4000 2.1 270 01:39 10.10.2019
471 Mist 13 1015 100 4000 1.5 250 01:21 10.10.2019
472 Mist 13 1015 100 4000 0.5 0 00:41 10.10.2019
473 Rain 13 1015 100 4000 2.1 300 23:57 09.10.2019
474 Rain 13 1015 100 4000 2.1 300 23:36 09.10.2019
475 Rain 13 1015 100 4000 1 0 23:18 09.10.2019
476 Mist 13 1015 100 4000 2.1 260 22:41 09.10.2019
477 Mist 13 1015 100 4000 2.6 290 22:22 09.10.2019
478 Mist 13 1015 100 4000 2.1 270 21:58 09.10.2019
479 Mist 13 1015 100 4000 2.1 270 21:39 09.10.2019
480 Mist 13 1015 100 4000 2.1 270 21:39 09.10.2019
481 Mist 13 1015 100 4000 2.1 270 21:39 09.10.2019
482 Mist 13 1015 100 4000 2.1 260 21:19 09.10.2019
483 Mist 13 1015 100 3500 2.1 240 20:55 09.10.2019
484 Mist 13 1015 100 3500 2.1 240 20:37 09.10.2019
485 Mist 13 1015 100 4000 1.5 210 20:18 09.10.2019
486 Mist 13 1015 100 4000 1.5 210 20:18 09.10.2019
487 Rain 13 1015 100 6000 0.5 0 19:44 09.10.2019
488 Rain 13 1015 100 6000 0.5 0 19:23 09.10.2019
489 Rain 13 1015 100 3500 2.1 70 18:56 09.10.2019
490 Rain 13 1015 100 3500 2.1 70 18:37 09.10.2019
491 Rain 13 1015 100 1200 1.5 80 18:18 09.10.2019
492 Rain 14 1015 100 600 2.1 20 17:40 09.10.2019
493 Rain 14 1015 100 800 2.6 20 17:22 09.10.2019
494 Rain 14 1015 100 700 1 0 16:58 09.10.2019
495 Rain 14 1015 100 700 1 0 16:40 09.10.2019
496 Rain 14 1015 100 800 1.5 80 16:21 09.10.2019
497 Rain 14 1015 100 800 1.5 80 15:57 09.10.2019
498 Rain 14 1015 100 800 1.5 80 15:38 09.10.2019
499 Rain 14 1015 100 800 1.5 80 15:38 09.10.2019
500 Rain 14 1016 100 800 3.1 120 15:19 09.10.2019
501 Rain 14 1016 100 800 2.6 140 14:55 09.10.2019
502 Rain 14 1016 100 800 2.6 140 14:36 09.10.2019
503 Rain 14 1016 100 800 2.6 140 14:36 09.10.2019
504 Rain 14 1016 100 4000 4.1 120 14:18 09.10.2019
505 Rain 14 1016 100 2000 3.6 90 13:38 09.10.2019
506 Rain 14 1018 100 2000 1 0 13:19 09.10.2019
507 Rain 14 1018 93 3500 1 0 12:55 09.10.2019
508 Rain 14 1018 93 3500 1 0 12:37 09.10.2019
509 Mist 15 1018 87 7000 2.1 140 12:18 09.10.2019
510 Mist 15 1018 87 6000 2.1 160 11:40 09.10.2019
511 Mist 15 1018 82 8000 2.1 140 11:21 09.10.2019
512 Clouds 15 1018 82 8000 2.1 120 10:59 09.10.2019
513 Clouds 14 1018 82 8000 2.1 120 10:40 09.10.2019
514 Clouds 14 1018 82 8000 2.1 90 10:19 09.10.2019
515 Clouds 14 1018 82 8000 2.1 90 09:43 09.10.2019
516 Clouds 14 1018 87 6000 2.1 100 09:21 09.10.2019
517 Clouds 14 1018 87 6000 2.1 80 08:58 09.10.2019
518 Clouds 13 1018 87 6000 2.1 80 08:39 09.10.2019
519 Clouds 13 1018 87 7000 2.1 50 08:20 09.10.2019
520 Clouds 13 1018 87 10000 1.5 30 07:47 09.10.2019
521 Clouds 13 1018 87 10000 1 0 07:25 09.10.2019
522 Clouds 13 1018 87 10000 1 0 06:58 09.10.2019
523 Clouds 13 1018 93 10000 0.5 0 06:35 09.10.2019
524 Clouds 13 1018 87 10000 0.5 60 05:52 09.10.2019
525 Clouds 13 1018 87 10000 1 10 04:56 09.10.2019
526 Clouds 13 1018 93 10000 2.1 10 03:48 09.10.2019
527 Clouds 13 1019 100 10000 1.5 10 02:27 09.10.2019
528 Clouds 13 1019 93 10000 1 40 01:39 09.10.2019
529 Clouds 13 1019 93 10000 1.5 20 01:18 09.10.2019
530 Clouds 13 1019 93 10000 1 30 00:41 09.10.2019
531 Clouds 13 1019 87 10000 1.5 350 00:23 09.10.2019
532 Clouds 13 1019 87 10000 1.5 350 23:58 08.10.2019
533 Clouds 13 1019 93 10000 1 0 23:38 08.10.2019
534 Clouds 13 1019 100 10000 1 40 23:18 08.10.2019
535 Clouds 13 1019 100 10000 1 40 23:18 08.10.2019
536 Clouds 13 1019 100 10000 0.5 0 22:41 08.10.2019
537 Clouds 13 1019 93 10000 1 360 22:22 08.10.2019
538 Clear 13 1018 93 10000 1 0 21:58 08.10.2019
539 Clear 14 1018 93 10000 1 0 21:39 08.10.2019
540 Clear 13 1018 82 10000 1.5 30 21:20 08.10.2019
541 Clear 14 1018 82 10000 1.5 30 20:58 08.10.2019
542 Clear 14 1018 87 10000 1.5 50 20:39 08.10.2019
543 Clear 14 1018 77 10000 1.5 30 20:21 08.10.2019
544 Clear 15 1018 72 10000 0.5 0 19:59 08.10.2019
545 Clear 16 1018 72 10000 0.5 0 19:41 08.10.2019
546 Clear 16 1018 63 10000 0.5 0 19:23 08.10.2019
547 Clouds 17 1018 59 10000 1 0 18:55 08.10.2019
548 Clouds 17 1018 59 10000 1 0 18:55 08.10.2019
549 Clouds 17 1018 59 10000 1 0 18:37 08.10.2019
550 Clouds 18 1018 55 10000 1 0 18:19 08.10.2019
551 Clouds 18 1018 59 10000 1.5 240 17:55 08.10.2019
552 Clouds 18 1018 59 10000 1.5 240 17:55 08.10.2019
553 Clouds 18 1018 59 10000 1.5 240 17:36 08.10.2019
554 Clouds 18 1018 59 10000 1.5 240 17:36 08.10.2019
555 Clouds 18 1018 63 10000 1 0 17:18 08.10.2019
556 Clouds 18 1018 59 10000 1.5 0 16:40 08.10.2019
557 Clouds 18 1018 63 10000 1 0 16:22 08.10.2019
558 Clouds 18 1018 63 10000 1.5 0 15:41 08.10.2019
559 Clouds 18 1019 63 10000 2.1 140 15:22 08.10.2019
560 Clouds 18 1019 63 10000 2.1 140 15:22 08.10.2019
561 Clouds 18 1019 63 10000 2.1 140 14:58 08.10.2019
562 Clouds 18 1019 63 10000 2.1 190 14:39 08.10.2019
563 Clouds 17 1019 67 10000 2.6 150 14:21 08.10.2019
564 Clouds 17 1020 63 10000 2.6 0 13:57 08.10.2019
565 Clouds 17 1020 63 10000 2.6 0 13:38 08.10.2019
566 Clouds 17 1020 67 10000 1 0 13:19 08.10.2019
567 Clouds 17 1020 67 10000 1 0 12:58 08.10.2019
568 Clouds 17 1020 67 10000 1 0 12:38 08.10.2019
569 Clouds 16 1020 67 10000 2.1 180 12:18 08.10.2019
570 Clouds 16 1020 67 10000 1 0 11:42 08.10.2019
571 Clouds 15 1020 72 10000 1.5 190 11:24 08.10.2019
572 Clouds 15 1020 72 10000 2.1 0 10:56 08.10.2019
573 Clouds 14 1020 72 10000 2.1 0 10:37 08.10.2019
574 Clouds 14 1020 87 10000 2.1 20 10:19 08.10.2019
575 Clouds 13 1020 87 10000 2.1 30 09:55 08.10.2019
576 Clouds 13 1020 87 10000 2.1 30 09:37 08.10.2019
577 Clouds 13 1020 93 10000 1.5 40 09:19 08.10.2019
578 Clouds 12 1020 100 10000 1.5 30 08:42 08.10.2019
579 Clouds 12 1019 93 10000 2.1 20 08:23 08.10.2019
580 Clouds 12 1019 93 10000 2.1 20 08:23 08.10.2019
581 Mist 11 1019 100 10000 2.6 20 07:44 08.10.2019
582 Clouds 11 1019 100 10000 2.6 10 07:21 08.10.2019
583 Clouds 11 1019 100 10000 2.6 10 06:50 08.10.2019
584 Mist 11 1019 100 10000 3.1 360 06:28 08.10.2019
585 Clouds 11 1019 100 10000 3.1 360 05:46 08.10.2019
586 Clouds 11 1019 100 10000 3.1 360 05:46 08.10.2019
587 Clouds 11 1019 100 10000 2.1 20 05:25 08.10.2019
588 Clear 11 1019 100 10000 3.1 20 03:57 08.10.2019
589 Fog 11 1019 100 10000 4.1 360 03:24 08.10.2019
590 Clear 11 1019 100 10000 2.6 350 02:35 08.10.2019
591 Clear 11 1018 100 10000 1.5 10 01:45 08.10.2019
592 Clear 12 1018 100 10000 2.1 10 01:26 08.10.2019
593 Clear 12 1018 100 10000 1.5 30 00:45 08.10.2019
594 Clear 12 1018 100 10000 2.1 20 00:20 08.10.2019
595 Clear 12 1017 100 10000 2.6 30 23:39 07.10.2019
596 Clear 12 1017 93 10000 1.5 10 23:20 07.10.2019
597 Clear 13 1017 93 10000 2.1 20 22:56 07.10.2019
598 Clear 13 1017 93 10000 2.1 20 22:37 07.10.2019
599 Clear 13 1016 87 10000 1 30 22:19 07.10.2019
600 Clear 13 1016 87 10000 1 30 21:55 07.10.2019
601 Clear 14 1016 82 10000 0.5 0 21:37 07.10.2019
602 Clear 14 1016 77 10000 1.5 140 21:18 07.10.2019
603 Clear 14 1015 77 10000 1.5 160 20:56 07.10.2019
604 Clear 14 1015 77 10000 1.5 160 20:38 07.10.2019
605 Clear 14 1015 77 10000 1.5 160 20:38 07.10.2019
606 Clear 15 1015 72 10000 1.5 180 20:19 07.10.2019
607 Clear 16 1015 72 10000 1.5 180 19:54 07.10.2019
608 Clear 16 1015 72 10000 1.5 180 19:36 07.10.2019
609 Clear 17 1015 67 10000 1.5 180 19:18 07.10.2019
610 Clear 18 1015 55 10000 2.6 190 18:42 07.10.2019
611 Clear 19 1014 49 10000 3.6 210 18:19 07.10.2019
612 Clear 19 1014 49 10000 3.6 210 17:59 07.10.2019
613 Clear 19 1014 46 10000 3.1 200 17:40 07.10.2019
614 Clear 19 1014 46 10000 3.1 200 17:40 07.10.2019
615 Clear 19 1014 46 10000 3.1 200 17:40 07.10.2019
616 Clear 19 1014 43 10000 2.6 210 17:19 07.10.2019
617 Clear 20 1014 46 10000 2.6 240 16:46 07.10.2019
618 Clear 20 1014 46 10000 2.6 240 16:46 07.10.2019
619 Clear 20 1013 46 10000 2.6 220 16:28 07.10.2019
620 Clear 20 1013 46 10000 2.1 210 15:58 07.10.2019
621 Clear 20 1013 46 10000 2.1 210 15:39 07.10.2019
622 Clear 19 1013 52 10000 2.6 230 15:21 07.10.2019
623 Clear 19 1013 59 10000 2.6 0 14:41 07.10.2019
624 Clear 19 1014 59 10000 2.1 200 14:23 07.10.2019
625 Clear 18 1014 63 10000 2.1 0 13:45 07.10.2019
626 Clear 18 1014 68 10000 2.1 250 13:21 07.10.2019
627 Clear 18 1014 72 10000 3.1 250 12:58 07.10.2019
628 Clear 18 1014 72 10000 3.1 250 12:40 07.10.2019
629 Clouds 17 1014 77 10000 2.6 250 12:21 07.10.2019
630 Clouds 16 1014 87 10000 3.1 250 11:59 07.10.2019
631 Clouds 16 1014 87 10000 3.1 250 11:40 07.10.2019
632 Clouds 16 1014 93 10000 2.1 200 11:21 07.10.2019
633 Clouds 15 1013 87 10000 1 0 10:56 07.10.2019
634 Clouds 15 1013 87 10000 1 0 10:37 07.10.2019
635 Clouds 14 1013 100 10000 1 0 10:19 07.10.2019
636 Clear 13 1013 100 10000 1.5 20 09:38 07.10.2019
637 Clear 12 1012 100 10000 1.5 360 09:20 07.10.2019
638 Fog 12 1011 100 8000 1 130 08:44 07.10.2019
639 Fog 11 1010 100 8000 2.1 140 08:21 07.10.2019
640 Fog 11 1010 100 8000 2.1 140 07:55 07.10.2019
641 Fog 12 1010 100 10000 0.5 0 07:28 07.10.2019
642 Clear 12 1009 100 10000 0.5 0 06:58 07.10.2019
643 Clear 12 1009 100 10000 0.5 0 06:39 07.10.2019
644 Clear 12 1009 100 10000 2.1 30 06:20 07.10.2019
645 Rain 12 1008 100 10000 1.5 80 05:26 07.10.2019
646 Rain 12 1009 100 10000 2.6 340 04:50 07.10.2019
647 Rain 13 1008 100 8000 5.1 110 03:48 07.10.2019
648 Rain 13 1008 100 8000 5.1 110 03:48 07.10.2019
649 Rain 13 1008 100 8000 5.1 110 03:30 07.10.2019
650 Rain 13 1010 100 4000 4.1 30 02:39 07.10.2019
651 Rain 13 1010 100 5000 2.6 350 02:19 07.10.2019
652 Rain 13 1010 100 6000 3.6 60 01:23 07.10.2019
653 Rain 13 1010 100 6000 3.1 70 00:53 07.10.2019
654 Rain 14 1010 100 5000 3.1 100 00:26 07.10.2019
655 Rain 14 1011 93 3500 3.1 80 23:59 06.10.2019
656 Rain 14 1011 93 3500 3.1 80 23:40 06.10.2019
657 Rain 15 1011 93 4000 3.6 90 23:20 06.10.2019
658 Drizzle 15 1011 87 10000 2.1 80 22:56 06.10.2019
659 Drizzle 15 1011 87 10000 2.1 80 22:37 06.10.2019
660 Drizzle 15 1011 87 10000 2.1 80 22:37 06.10.2019
661 Rain 15 1011 87 10000 1 0 22:19 06.10.2019
662 Rain 16 1012 77 10000 0.5 0 21:55 06.10.2019
663 Rain 16 1012 77 10000 0.5 0 21:55 06.10.2019
664 Rain 16 1012 77 10000 0.5 0 21:36 06.10.2019
665 Rain 16 1012 72 10000 0.5 0 21:18 06.10.2019
666 Rain 16 1012 72 10000 0.5 0 20:54 06.10.2019
667 Rain 16 1012 72 10000 0.5 0 20:54 06.10.2019
668 Rain 16 1012 72 10000 0.5 0 20:36 06.10.2019
669 Rain 16 1012 72 10000 0.5 0 20:18 06.10.2019
670 Rain 16 1012 72 8000 1 0 19:55 06.10.2019
671 Clouds 16 1012 72 8000 1 0 19:36 06.10.2019
672 Clouds 17 1013 72 8000 1.5 190 19:18 06.10.2019
673 Clouds 17 1013 68 10000 1.5 170 18:54 06.10.2019
674 Clouds 17 1013 68 10000 1.5 170 18:54 06.10.2019
675 Clouds 17 1013 68 10000 1.5 170 18:36 06.10.2019
676 Clouds 18 1013 68 10000 1.5 170 18:18 06.10.2019
677 Clouds 18 1013 63 10000 2.6 130 17:42 06.10.2019
678 Clouds 18 1013 59 10000 2.6 150 17:20 06.10.2019
679 Clouds 19 1013 59 10000 2.6 150 16:55 06.10.2019
680 Clouds 19 1013 59 10000 2.6 150 16:36 06.10.2019
681 Clouds 19 1014 59 10000 3.1 150 16:18 06.10.2019
682 Clouds 19 1014 59 10000 2.6 100 15:42 06.10.2019
683 Clouds 19 1014 56 10000 1.5 0 15:19 06.10.2019
684 Clouds 19 1014 56 10000 1.5 0 15:19 06.10.2019
685 Clouds 19 1014 56 10000 1.5 0 15:19 06.10.2019
686 Clouds 19 1014 56 10000 1.5 0 15:19 06.10.2019
687 Clouds 19 1014 56 10000 1.5 0 15:19 06.10.2019
688 Clouds 19 1014 59 10000 2.1 0 14:44 06.10.2019
689 Clouds 19 1015 59 10000 3.1 110 14:25 06.10.2019
690 Clouds 19 1015 59 10000 1.5 0 13:58 06.10.2019
691 Clouds 18 1015 59 10000 1.5 0 13:39 06.10.2019
692 Clouds 18 1016 63 10000 2.1 120 13:21 06.10.2019
693 Clouds 18 1016 68 10000 1.5 0 12:57 06.10.2019
694 Clouds 17 1016 68 10000 1.5 0 12:39 06.10.2019
695 Clear 17 1015 67 10000 2.1 50 12:20 06.10.2019
696 Clear 17 1015 67 10000 1.5 60 11:57 06.10.2019
697 Clear 17 1015 67 10000 1.5 60 11:38 06.10.2019
698 Clouds 16 1016 67 10000 1 0 11:20 06.10.2019
699 Clouds 16 1016 77 9000 1.5 360 10:44 06.10.2019
700 Clouds 15 1015 82 8000 2.1 20 10:26 06.10.2019
701 Clouds 15 1015 82 8000 2.1 20 09:58 06.10.2019
702 Clouds 14 1015 93 8000 2.6 20 09:39 06.10.2019
703 Clouds 13 1015 93 6000 2.6 10 09:19 06.10.2019
704 Mist 12 1015 100 4500 3.1 20 08:43 06.10.2019
705 Mist 11 1015 93 4000 3.1 20 08:21 06.10.2019
706 Mist 11 1014 93 4000 4.1 360 07:56 06.10.2019
707 Mist 11 1014 93 4000 4.1 360 07:56 06.10.2019
708 Clouds 11 1014 93 6000 3.6 360 07:33 06.10.2019
709 Clear 11 1014 93 6000 3.1 60 06:20 06.10.2019
710 Clear 12 1014 93 6000 2.1 60 05:34 06.10.2019
711 Clear 12 1013 87 10000 3.1 70 03:56 06.10.2019
712 Clear 13 1013 82 10000 3.1 90 02:43 06.10.2019
713 Clouds 13 1013 76 10000 2.6 40 02:22 06.10.2019
714 Clear 13 1013 87 10000 4.1 70 01:45 06.10.2019
715 Clear 13 1012 87 10000 3.6 360 01:27 06.10.2019
716 Clear 13 1012 87 10000 2.6 360 00:52 06.10.2019
717 Clear 13 1012 93 10000 2.6 10 00:26 06.10.2019
718 Clear 14 1012 87 10000 2.6 10 23:44 05.10.2019
719 Clear 14 1011 87 10000 2.6 30 23:22 05.10.2019
720 Clear 14 1011 87 10000 2.6 30 22:58 05.10.2019
721 Clear 14 1011 82 10000 3.6 10 22:40 05.10.2019
722 Clear 14 1011 82 10000 3.6 10 22:40 05.10.2019
723 Clear 15 1011 76 10000 4.1 340 22:20 05.10.2019
724 Clear 15 1011 76 10000 4.1 340 22:20 05.10.2019
725 Clear 15 1011 72 10000 1.5 340 21:56 05.10.2019
726 Clear 15 1011 72 10000 1.5 340 21:37 05.10.2019
727 Clear 15 1010 72 10000 2.1 20 21:18 05.10.2019
728 Clear 16 1010 67 10000 1.5 40 20:55 05.10.2019
729 Clear 16 1010 67 10000 1.5 40 20:55 05.10.2019
730 Clear 16 1010 67 10000 1.5 40 20:36 05.10.2019
731 Clear 17 1010 48 10000 3.1 300 20:18 05.10.2019
732 Clear 18 1010 45 10000 3.1 300 19:37 05.10.2019
733 Clear 18 1009 52 10000 1.5 160 19:19 05.10.2019
734 Clear 19 1009 43 10000 4.1 280 18:55 05.10.2019
735 Clear 19 1009 43 10000 4.1 280 18:37 05.10.2019
736 Clear 19 1009 43 10000 4.1 280 18:37 05.10.2019
737 Clear 20 1009 37 10000 4.1 280 18:19 05.10.2019
738 Clear 21 1009 43 10000 3.1 260 17:43 05.10.2019
739 Clear 21 1009 43 10000 4.1 250 17:23 05.10.2019
740 Clear 21 1009 43 10000 4.1 250 16:57 05.10.2019
741 Clear 21 1009 40 10000 4.1 260 16:39 05.10.2019
742 Clear 21 1009 46 10000 3.6 230 16:20 05.10.2019
743 Clear 21 1009 46 10000 3.6 230 16:20 05.10.2019
744 Clear 21 1009 43 10000 2.6 270 15:56 05.10.2019
745 Clear 21 1009 43 10000 2.6 270 15:38 05.10.2019
746 Clear 21 1009 46 10000 2.1 300 15:19 05.10.2019
747 Clear 20 1009 49 10000 1.5 220 14:43 05.10.2019
748 Clear 20 1010 49 10000 2.1 240 14:24 05.10.2019
749 Clear 20 1010 52 10000 2.1 250 13:58 05.10.2019
750 Clear 19 1010 52 10000 2.1 250 13:39 05.10.2019
751 Clear 19 1010 55 10000 2.6 250 13:18 05.10.2019
752 Clear 18 1011 63 10000 2.1 240 12:42 05.10.2019
753 Clear 17 1010 59 10000 1 0 12:19 05.10.2019
754 Clear 16 1011 63 10000 2.1 250 11:41 05.10.2019
755 Clear 16 1011 67 10000 1.5 210 11:20 05.10.2019
756 Clear 15 1010 67 10000 0.5 0 10:57 05.10.2019
757 Clear 15 1010 67 10000 0.5 0 10:38 05.10.2019
758 Clear 15 1010 67 10000 0.5 0 10:38 05.10.2019
759 Clear 14 1010 76 10000 0.5 0 10:20 05.10.2019
760 Clear 13 1010 87 10000 0.5 0 09:41 05.10.2019
761 Clear 11 1010 100 10000 1.5 340 09:23 05.10.2019
762 Fog 10 1010 100 10000 1.5 20 08:43 05.10.2019
763 Fog 9 1009 100 10000 2.1 30 08:23 05.10.2019
764 Fog 9 1009 100 10000 2.1 30 07:59 05.10.2019
765 Fog 9 1009 100 10000 1.5 60 07:39 05.10.2019
766 Fog 9 1009 100 10000 1.5 10 07:20 05.10.2019
767 Fog 9 1009 100 10000 2.1 10 06:52 05.10.2019
768 Fog 9 1009 100 10000 2.1 10 06:52 05.10.2019
769 Fog 9 1009 100 10000 1.5 350 06:20 05.10.2019
770 Fog 10 1009 100 10000 2.6 20 04:46 05.10.2019
771 Fog 10 1009 93 10000 2.1 20 03:31 05.10.2019
772 Clear 11 1010 93 10000 3.1 10 02:25 05.10.2019
773 Clear 11 1010 93 10000 2.6 360 01:25 05.10.2019
774 Clear 11 1010 93 10000 2.6 360 01:25 05.10.2019
775 Clear 11 1010 93 10000 3.1 10 00:47 05.10.2019
776 Clear 11 1010 93 10000 3.1 10 00:47 05.10.2019
777 Clear 11 1010 100 10000 2.6 10 00:27 05.10.2019
778 Clear 12 1010 93 10000 2.1 20 23:55 04.10.2019
779 Clear 12 1010 93 10000 2.1 20 23:37 04.10.2019
780 Clear 12 1011 87 10000 2.1 30 23:18 04.10.2019
781 Clear 12 1011 93 10000 1 0 22:41 04.10.2019
782 Clear 12 1011 81 10000 1 30 22:23 04.10.2019
783 Clear 13 1011 81 10000 1.5 30 21:58 04.10.2019
784 Clear 13 1011 81 10000 1.5 30 21:40 04.10.2019
785 Clear 13 1011 67 10000 1.5 230 21:21 04.10.2019
786 Clear 13 1011 71 10000 2.1 220 20:58 04.10.2019
787 Clear 13 1011 71 10000 2.1 220 20:39 04.10.2019
788 Clear 14 1011 71 10000 3.1 210 20:21 04.10.2019
789 Clear 14 1011 71 10000 3.1 200 19:55 04.10.2019
790 Clear 15 1011 71 10000 3.1 200 19:37 04.10.2019
791 Clear 15 1011 67 10000 1.5 180 19:18 04.10.2019
792 Clear 16 1011 63 10000 2.6 160 18:39 04.10.2019
793 Clear 16 1011 55 10000 1.5 110 18:19 04.10.2019
794 Clear 16 1011 55 10000 1.5 110 17:58 04.10.2019
795 Clear 17 1011 59 10000 2.1 60 17:39 04.10.2019
796 Clear 17 1011 59 10000 3.1 140 17:20 04.10.2019
797 Clear 17 1011 55 10000 3.6 130 16:55 04.10.2019
798 Clear 17 1011 55 10000 3.6 130 16:55 04.10.2019
799 Clear 17 1011 55 10000 3.6 130 16:37 04.10.2019
800 Clouds 17 1012 52 10000 3.1 110 16:18 04.10.2019
801 Clouds 17 1012 55 10000 3.6 130 15:55 04.10.2019
802 Clouds 17 1012 55 10000 3.6 130 15:55 04.10.2019
803 Clouds 17 1012 55 10000 3.6 130 15:36 04.10.2019
804 Clouds 17 1013 63 10000 3.6 150 15:18 04.10.2019
805 Clouds 16 1013 59 10000 3.1 160 14:42 04.10.2019
806 Clouds 16 1013 59 10000 2.6 160 14:22 04.10.2019
807 Clouds 16 1013 59 10000 2.6 160 13:59 04.10.2019
808 Clouds 17 1014 55 10000 2.1 130 13:40 04.10.2019
809 Clouds 17 1014 48 10000 1 0 13:19 04.10.2019
810 Clear 17 1014 51 10000 3.1 110 12:45 04.10.2019
811 Clear 17 1014 51 10000 3.1 110 12:27 04.10.2019
812 Clear 16 1015 51 10000 2.6 130 12:27 04.10.2019
813 Clear 16 1015 55 10000 1.5 0 11:55 04.10.2019
814 Clear 16 1015 55 10000 1.5 0 11:37 04.10.2019
815 Clear 15 1015 59 10000 2.6 100 11:18 04.10.2019
816 Clear 15 1015 67 10000 2.6 20 10:39 04.10.2019
817 Clear 14 1015 71 10000 3.6 20 10:20 04.10.2019
818 Clear 14 1015 71 10000 3.6 20 10:20 04.10.2019
819 Clear 13 1015 81 10000 3.6 20 09:44 04.10.2019
820 Clear 12 1015 87 10000 3.1 20 09:26 04.10.2019
821 Clear 12 1015 81 10000 3.6 20 09:26 04.10.2019
822 Clear 10 1015 93 10000 3.1 20 08:55 04.10.2019
823 Clear 10 1015 93 10000 3.1 20 08:37 04.10.2019
824 Clear 10 1015 93 10000 3.1 20 08:37 04.10.2019
825 Clear 9 1015 93 10000 3.1 10 08:18 04.10.2019
826 Clear 9 1015 93 10000 3.1 20 07:42 04.10.2019
827 Clear 9 1014 93 10000 3.1 20 07:20 04.10.2019
828 Clear 9 1015 87 10000 3.1 20 06:41 04.10.2019
829 Clear 9 1015 93 10000 3.1 10 06:22 04.10.2019
830 Clear 9 1015 87 10000 3.1 10 05:23 04.10.2019
831 Clear 9 1015 87 10000 3.1 20 04:54 04.10.2019
832 Clear 10 1015 87 10000 2.6 30 03:42 04.10.2019
833 Clear 11 1015 81 10000 2.6 10 02:53 04.10.2019
834 Clear 12 1015 81 10000 2.6 360 01:54 04.10.2019
835 Clear 12 1015 81 10000 2.6 10 01:27 04.10.2019
836 Clear 12 1015 76 10000 2.1 360 00:44 04.10.2019
837 Clear 12 1015 76 10000 2.6 10 23:41 03.10.2019
838 Clear 12 1015 76 10000 2.1 10 23:22 03.10.2019
839 Clear 12 1015 76 10000 2.1 10 23:22 03.10.2019
840 Clear 13 1015 66 10000 2.1 60 22:58 03.10.2019
841 Clear 13 1015 66 10000 2.1 60 22:40 03.10.2019
842 Clear 13 1015 66 10000 2.1 60 22:39 03.10.2019
843 Clear 13 1015 58 10000 2.1 100 22:21 03.10.2019
844 Clear 14 1014 58 10000 2.6 110 21:59 03.10.2019
845 Clear 14 1014 58 10000 2.6 110 21:40 03.10.2019
846 Clear 14 1014 51 10000 3.1 140 21:20 03.10.2019
847 Clear 15 1013 51 10000 3.1 140 20:58 03.10.2019
848 Clear 15 1013 51 10000 3.1 140 20:40 03.10.2019
849 Clear 15 1013 51 10000 2.1 160 20:21 03.10.2019
850 Clear 16 1013 44 10000 2.6 150 19:57 03.10.2019
851 Clear 16 1013 44 10000 2.6 150 19:39 03.10.2019
852 Clear 17 1012 39 10000 3.6 160 19:20 03.10.2019
853 Clear 17 1012 39 10000 3.6 160 19:20 03.10.2019
854 Clear 17 1012 39 10000 3.6 160 18:56 03.10.2019
855 Clear 19 1012 34 10000 5.1 150 18:38 03.10.2019
856 Clear 19 1012 34 10000 5.1 150 18:38 03.10.2019
857 Clear 18 1012 34 10000 5.1 160 18:18 03.10.2019
858 Clear 19 1012 24 10000 2.6 170 17:42 03.10.2019
859 Clear 20 1012 24 10000 2.6 180 17:22 03.10.2019
860 Clear 20 1012 26 10000 2.1 0 16:57 03.10.2019
861 Clear 20 1012 26 10000 2.1 0 16:39 03.10.2019
862 Clear 21 1012 15 10000 2.1 320 16:20 03.10.2019
863 Clear 22 1012 13 10000 1 0 15:44 03.10.2019
864 Clear 21 1012 12 10000 1.5 0 15:24 03.10.2019
865 Clear 21 1012 17 10000 2.6 10 14:58 03.10.2019
866 Clear 21 1012 17 10000 2.6 10 14:37 03.10.2019
867 Clear 21 1013 17 10000 3.1 350 14:18 03.10.2019
868 Clear 21 1013 15 10000 5.1 20 13:44 03.10.2019
869 Clear 21 1013 16 10000 5.1 40 13:25 03.10.2019
870 Clear 21 1013 16 10000 5.1 40 13:25 03.10.2019
871 Clear 20 1013 16 10000 5.1 40 12:58 03.10.2019
872 Clear 20 1013 18 10000 4.1 40 12:39 03.10.2019
873 Clear 20 1013 18 10000 4.1 40 12:39 03.10.2019
874 Clear 20 1013 19 10000 4.6 30 12:20 03.10.2019
875 Clear 20 1013 19 10000 4.6 30 11:58 03.10.2019
876 Clear 19 1013 18 10000 5.7 60 11:39 03.10.2019
877 Clear 19 1013 20 10000 5.1 40 11:21 03.10.2019
878 Clear 19 1012 20 10000 5.7 30 10:57 03.10.2019
879 Clear 18 1012 20 10000 5.7 30 10:38 03.10.2019
880 Clear 18 1012 25 10000 4.1 50 10:18 03.10.2019
881 Clear 17 1012 25 10000 4.1 50 09:56 03.10.2019
882 Clear 17 1011 25 10000 6.7 50 09:37 03.10.2019
883 Clear 16 1011 26 10000 3.6 90 09:19 03.10.2019
884 Clear 15 1011 28 10000 4.6 60 08:42 03.10.2019
885 Clear 15 1010 28 10000 6.7 50 08:23 03.10.2019
886 Clear 15 1010 30 10000 5.1 40 07:42 03.10.2019
887 Clear 15 1009 30 10000 7.2 40 07:20 03.10.2019
888 Clear 15 1009 30 10000 7.7 50 06:52 03.10.2019
889 Clear 15 1009 30 10000 6.7 70 06:26 03.10.2019
890 Clear 15 1009 30 10000 5.1 70 05:47 03.10.2019
891 Clear 16 1009 26 10000 7.2 30 05:25 03.10.2019
892 Clear 17 1009 25 10000 9.3 20 04:39 03.10.2019
893 Clear 17 1008 36 10000 10.8 20 03:30 03.10.2019
894 Clouds 17 1008 41 10000 6.7 40 02:45 03.10.2019
895 Thunderstorm 17 1008 55 10000 6.7 20 02:19 03.10.2019
896 Clouds 17 1007 48 10000 2.6 30 01:37 03.10.2019
897 Clear 16 1007 72 10000 3.6 30 00:51 03.10.2019
898 Clear 16 1007 87 10000 3.1 20 00:26 03.10.2019
899 Clear 16 1007 82 10000 2.6 10 23:44 02.10.2019
900 Clear 16 1006 87 10000 4.1 10 23:22 02.10.2019
901 Clear 17 1006 87 10000 3.6 10 22:47 02.10.2019
902 Clear 17 1006 87 10000 3.1 10 22:23 02.10.2019
903 Clear 18 1006 87 10000 3.1 10 21:58 02.10.2019
904 Clear 18 1005 77 10000 2.1 360 21:39 02.10.2019
905 Clear 18 1005 77 10000 2.6 360 21:20 02.10.2019
906 Clear 18 1005 77 10000 2.6 350 20:57 02.10.2019
907 Clear 18 1005 77 10000 2.6 350 20:39 02.10.2019
908 Clear 19 1004 60 10000 1.5 290 20:20 02.10.2019
909 Clear 20 1004 60 10000 1.5 290 19:57 02.10.2019
910 Clear 21 1004 60 10000 3.1 290 19:39 02.10.2019
911 Clear 21 1004 56 10000 3.1 280 19:20 02.10.2019
912 Clear 22 1004 56 10000 3.1 280 18:56 02.10.2019
913 Clear 23 1004 50 10000 3.1 290 18:38 02.10.2019
914 Clear 23 1004 44 10000 2.6 300 18:19 02.10.2019
915 Clear 24 1003 44 10000 3.1 270 17:43 02.10.2019
916 Clear 24 1003 44 10000 2.6 300 17:21 02.10.2019
917 Clear 24 1003 44 10000 2.6 300 17:21 02.10.2019
918 Clear 25 1003 44 10000 2.6 300 16:59 02.10.2019
919 Clouds 25 1003 53 10000 3.1 230 16:41 02.10.2019
920 Clouds 25 1003 53 10000 2.1 190 16:21 02.10.2019
921 Clear 24 1003 47 10000 3.1 270 15:57 02.10.2019
922 Clouds 24 1003 53 10000 3.1 230 15:38 02.10.2019
923 Clouds 24 1003 53 10000 3.1 230 15:18 02.10.2019
924 Clouds 24 1004 53 10000 2.1 0 14:55 02.10.2019
925 Clouds 24 1004 53 10000 2.1 160 14:36 02.10.2019
926 Clouds 24 1004 53 10000 2.1 160 14:36 02.10.2019
927 Clouds 23 1004 53 10000 2.1 160 14:18 02.10.2019
928 Clouds 23 1004 56 10000 1.5 330 13:41 02.10.2019
929 Clouds 22 1004 56 10000 1.5 330 13:22 02.10.2019
930 Clouds 22 1004 60 10000 1.5 0 12:54 02.10.2019
931 Clouds 21 1004 60 10000 1 0 12:36 02.10.2019
932 Clouds 21 1005 72 10000 1.5 200 12:18 02.10.2019
933 Clouds 21 1004 60 10000 1 0 12:18 02.10.2019
934 Clouds 21 1004 72 10000 1.5 340 11:41 02.10.2019
935 Clouds 20 1004 72 10000 1.5 340 11:21 02.10.2019
936 Clouds 19 1004 82 10000 3.6 360 10:40 02.10.2019
937 Clouds 18 1004 82 10000 3.6 360 10:19 02.10.2019
938 Clouds 17 1004 100 10000 1.5 40 09:42 02.10.2019
939 Clouds 17 1004 100 10000 1.5 350 09:20 02.10.2019
940 Fog 16 1004 100 10000 1.5 30 08:57 02.10.2019
941 Fog 16 1005 100 10000 0.5 0 08:38 02.10.2019
942 Fog 16 1003 93 10000 2.6 10 08:20 02.10.2019
943 Clouds 16 1004 100 10000 3.1 360 07:43 02.10.2019
944 Clouds 16 1003 100 10000 2.1 330 07:24 02.10.2019
945 Clear 16 1003 100 10000 2.1 20 06:58 02.10.2019
946 Clouds 16 1003 100 10000 2.1 30 06:27 02.10.2019
947 Rain 16 1004 100 10000 3.1 10 05:49 02.10.2019
948 Rain 16 1004 100 10000 2.6 10 05:20 02.10.2019
949 Thunderstorm 16 1005 100 10000 2.1 340 03:53 02.10.2019
950 Rain 17 1006 100 10000 1.5 80 03:24 02.10.2019
951 Thunderstorm 17 1007 100 10000 1 0 02:26 02.10.2019
952 Thunderstorm 18 1006 100 8000 2.1 100 01:56 02.10.2019
953 Rain 18 1007 100 10000 1 350 00:52 02.10.2019
954 Rain 18 1007 100 10000 2.1 360 00:29 02.10.2019
955 Thunderstorm 18 1007 100 10000 0.5 0 23:54 01.10.2019
956 Clouds 19 1008 100 10000 1.5 10 23:36 01.10.2019
957 Clouds 19 1008 100 10000 1.5 10 23:18 01.10.2019
958 Rain 19 1008 100 10000 3.1 360 22:57 01.10.2019
959 Clouds 19 1008 100 10000 4.1 340 22:36 01.10.2019
960 Clouds 19 1008 100 10000 4.1 340 22:18 01.10.2019
961 Thunderstorm 20 1009 93 10000 3.1 340 21:42 01.10.2019
962 Thunderstorm 20 1009 93 10000 3.1 340 21:22 01.10.2019
963 Rain 20 1009 77 10000 2.6 350 20:57 01.10.2019
964 Clouds 21 1009 73 10000 1 0 20:38 01.10.2019
965 Clouds 21 1009 73 10000 1 0 20:20 01.10.2019
966 Clouds 21 1009 73 10000 2.1 350 19:56 01.10.2019
967 Clouds 21 1009 73 10000 1.5 360 19:38 01.10.2019
968 Clouds 22 1010 77 10000 1 0 19:19 01.10.2019
969 Clouds 22 1010 77 10000 1 0 18:41 01.10.2019
970 Clouds 22 1009 64 10000 3.6 330 18:23 01.10.2019
971 Clouds 23 1010 64 10000 4.1 360 17:59 01.10.2019
972 Clouds 24 1010 73 10000 1.5 200 17:40 01.10.2019
973 Clouds 23 1010 53 10000 1 0 17:20 01.10.2019
974 Clouds 23 1010 53 10000 1 0 17:20 01.10.2019
975 Clouds 24 1010 57 10000 3.1 240 16:58 01.10.2019
976 Clouds 24 1010 53 10000 2.6 150 16:40 01.10.2019
977 Clouds 24 1010 53 10000 2.6 150 16:21 01.10.2019
978 Clouds 24 1011 57 10000 3.1 250 15:46 01.10.2019
979 Clouds 24 1011 53 10000 2.6 0 15:23 01.10.2019
980 Clouds 24 1012 57 10000 2.6 240 14:55 01.10.2019
981 Clouds 24 1012 60 10000 2.6 160 14:37 01.10.2019
982 Clouds 24 1012 60 10000 2.6 160 14:18 01.10.2019
983 Clouds 23 1012 64 10000 1.5 0 13:40 01.10.2019
984 Clouds 23 1012 64 10000 1.5 0 13:21 01.10.2019
985 Clouds 22 1014 69 10000 1.5 0 12:59 01.10.2019
986 Clouds 22 1014 69 10000 1.5 0 12:59 01.10.2019
987 Clouds 22 1013 68 10000 1 0 12:40 01.10.2019
988 Clouds 22 1013 68 10000 1 0 12:19 01.10.2019
989 Clouds 21 1014 73 10000 1.5 350 11:58 01.10.2019
990 Clouds 21 1014 82 10000 1.5 10 11:38 01.10.2019
991 Clouds 21 1014 82 10000 1.5 10 11:19 01.10.2019
992 Clouds 20 1014 82 10000 1.5 50 10:49 01.10.2019
993 Clouds 20 1013 82 10000 2.1 30 10:29 01.10.2019
994 Clouds 19 1014 100 10000 2.6 20 09:57 01.10.2019
995 Clouds 18 1014 100 10000 2.1 20 09:39 01.10.2019
996 Clouds 18 1014 100 10000 2.1 20 09:21 01.10.2019
997 Clouds 17 1013 93 10000 2.1 350 08:42 01.10.2019
998 Clouds 16 1013 93 10000 2.1 350 08:24 01.10.2019
999 Clouds 16 1014 100 10000 2.6 20 07:48 01.10.2019
1000 Clouds 16 1013 100 10000 1.5 360 07:25 01.10.2019
1001 Clouds 16 1014 93 10000 1 350 06:48 01.10.2019
1002 Clouds 16 1014 87 10000 0.5 0 06:19 01.10.2019
1003 Clear 16 1013 100 10000 2.1 10 05:46 01.10.2019
1004 Clear 16 1013 100 10000 2.1 10 05:18 01.10.2019
1005 Clear 16 1013 100 10000 3.1 20 04:29 01.10.2019
1006 Clear 16 1013 100 10000 2.1 10 02:28 01.10.2019
1007 Clear 17 1013 100 10000 1 0 01:58 01.10.2019
1008 Clear 17 1013 100 10000 1 0 00:57 01.10.2019
1009 Clear 17 1013 87 10000 0.5 0 00:28 01.10.2019
1010 Clear 18 1012 88 10000 0.5 0 23:56 30.09.2019
1011 Clear 18 1012 87 10000 0.5 0 23:38 30.09.2019
1012 Clear 18 1012 87 10000 0.5 0 23:19 30.09.2019
1013 Clear 19 1013 88 10000 0.5 0 22:43 30.09.2019
1014 Clear 19 1012 88 10000 1 0 22:24 30.09.2019
1015 Clear 19 1011 82 10000 1 0 21:57 30.09.2019
1016 Clear 20 1012 77 10000 1.5 0 21:38 30.09.2019
1017 Clear 20 1011 72 10000 1 0 21:19 30.09.2019
1018 Clear 20 1011 72 10000 1 0 21:19 30.09.2019
1019 Clear 20 1011 64 10000 0.5 0 20:57 30.09.2019
1020 Clouds 21 1010 68 10000 0.5 340 20:38 30.09.2019
1021 Clouds 21 1010 68 10000 0.5 340 20:20 30.09.2019
1022 Clear 22 1010 53 10000 2.1 260 19:56 30.09.2019
1023 Clouds 23 1009 57 10000 1.5 250 19:38 30.09.2019
1024 Clouds 24 1009 57 10000 1.5 250 19:19 30.09.2019
1025 Clear 25 1010 50 10000 4.6 240 18:56 30.09.2019
1026 Clear 25 1010 50 10000 4.6 240 18:56 30.09.2019
1027 Clouds 25 1009 50 10000 3.1 230 18:37 30.09.2019
1028 Clouds 25 1009 50 10000 3.1 230 18:37 30.09.2019
1029 Clouds 25 1009 50 10000 3.1 230 18:19 30.09.2019
1030 Clear 26 1009 57 10000 2.1 200 17:41 30.09.2019
1031 Clouds 27 1009 47 10000 3.6 240 17:22 30.09.2019
1032 Clear 27 1010 44 10000 3.6 220 16:56 30.09.2019
1033 Clouds 27 1010 47 10000 2.6 220 16:38 30.09.2019
1034 Clouds 27 1010 47 10000 2.6 220 16:19 30.09.2019
1035 Clear 27 1010 44 10000 2.6 260 15:57 30.09.2019
1036 Clouds 27 1010 54 10000 2.6 220 15:37 30.09.2019
1037 Clouds 26 1010 54 10000 2.6 220 15:19 30.09.2019
1038 Clear 26 1011 50 10000 3.1 260 14:57 30.09.2019
1039 Clouds 26 1011 54 10000 2.6 240 14:37 30.09.2019
1040 Clouds 26 1011 54 10000 2.6 240 14:18 30.09.2019
1041 Clear 25 1011 57 10000 3.1 260 13:55 30.09.2019
1042 Clouds 25 1011 57 10000 2.6 240 13:36 30.09.2019
1043 Clouds 25 1011 57 10000 2.6 240 13:18 30.09.2019
1044 Clear 24 1012 64 10000 3.1 170 12:41 30.09.2019
1045 Clear 23 1012 68 10000 2.6 170 12:21 30.09.2019
1046 Clear 23 1012 73 10000 2.6 180 11:44 30.09.2019
1047 Clouds 22 1011 73 10000 2.1 240 11:23 30.09.2019
1048 Clear 21 1012 82 10000 1.5 340 10:59 30.09.2019
1049 Clouds 20 1011 82 10000 1 0 10:40 30.09.2019
1050 Clouds 20 1011 82 10000 1 0 10:19 30.09.2019
1051 Clear 19 1012 100 10000 1.5 10 09:58 30.09.2019
1052 Clouds 18 1011 93 10000 1.5 290 09:39 30.09.2019
1053 Clouds 18 1011 93 10000 1.5 290 09:20 30.09.2019
1054 Clear 16 1011 100 10000 2.6 20 08:46 30.09.2019
1055 Clouds 15 1011 100 10000 1 0 08:28 30.09.2019
1056 Clear 15 1011 100 10000 0.5 0 07:44 30.09.2019
1057 Clouds 15 1010 93 10000 1 0 07:26 30.09.2019
1058 Clear 15 1011 100 10000 2.6 10 06:56 30.09.2019
1059 Clear 15 1011 100 10000 1.5 30 06:33 30.09.2019
1060 Clear 15 1011 100 10000 2.1 20 05:47 30.09.2019
1061 Clear 15 1011 100 10000 2.1 20 05:47 30.09.2019
1062 Clouds 16 1012 100 10000 0.5 0 03:45 30.09.2019
1063 Clear 16 1012 93 10000 2.1 30 02:48 30.09.2019
1064 Clouds 17 1013 82 10000 1.5 200 01:36 30.09.2019
1065 Clouds 18 1013 77 10000 1.5 330 00:42 30.09.2019
1066 Clouds 18 1013 77 10000 1.5 330 00:21 30.09.2019
1067 Clouds 18 1014 77 10000 1 0 23:46 29.09.2019
1068 Clouds 18 1014 72 10000 2.6 210 23:23 29.09.2019
1069 Clouds 19 1014 72 10000 3.6 210 22:55 29.09.2019
1070 Clouds 19 1014 68 10000 5.1 210 22:37 29.09.2019
1071 Clouds 19 1014 68 10000 5.1 210 22:37 29.09.2019
1072 Clouds 19 1014 68 10000 5.1 210 22:19 29.09.2019
1073 Clouds 19 1014 68 10000 5.1 210 21:56 29.09.2019
1074 Clouds 20 1013 68 10000 6.2 210 21:37 29.09.2019
1075 Clouds 19 1014 88 10000 0.5 0 21:19 29.09.2019
1076 Clouds 20 1013 73 10000 1 0 20:44 29.09.2019
1077 Clouds 20 1013 73 10000 1 0 20:20 29.09.2019
1078 Clear 20 1013 56 10000 1.5 260 19:58 29.09.2019
1079 Clear 21 1013 56 10000 2.1 250 19:37 29.09.2019
1080 Clouds 22 1013 77 10000 0.5 0 19:19 29.09.2019
1081 Clear 22 1013 56 10000 2.6 250 18:56 29.09.2019
1082 Clear 23 1013 56 10000 2.6 250 18:56 29.09.2019
1083 Clear 23 1013 53 10000 3.1 250 18:37 29.09.2019
1084 Clear 23 1013 53 10000 3.1 250 18:19 29.09.2019
1085 Clouds 24 1014 47 10000 3.1 250 17:56 29.09.2019
1086 Clouds 24 1014 50 10000 3.6 250 17:38 29.09.2019
1087 Clouds 24 1014 50 10000 3.6 250 17:19 29.09.2019
1088 Clouds 24 1014 53 10000 3.6 230 16:57 29.09.2019
1089 Clouds 24 1014 60 10000 1.5 160 16:39 29.09.2019
1090 Clouds 24 1014 60 10000 1.5 160 16:18 29.09.2019
1091 Clouds 24 1015 60 10000 1.5 0 15:41 29.09.2019
1092 Clouds 24 1015 60 10000 1.5 0 15:19 29.09.2019
1093 Clouds 24 1015 69 10000 2.6 190 14:59 29.09.2019
1094 Clouds 24 1016 69 10000 1 0 14:39 29.09.2019
1095 Clouds 24 1016 69 10000 1 0 14:20 29.09.2019
1096 Clouds 24 1016 69 10000 2.6 260 13:57 29.09.2019
1097 Clouds 24 1017 73 10000 2.6 250 13:39 29.09.2019
1098 Clouds 23 1017 73 10000 2.6 250 13:19 29.09.2019
1099 Clouds 23 1017 73 10000 2.6 250 13:19 29.09.2019
1100 Clouds 23 1017 73 10000 2.6 240 12:57 29.09.2019
1101 Clouds 23 1017 73 10000 0.5 0 12:39 29.09.2019
1102 Clouds 22 1017 73 10000 1 0 12:21 29.09.2019
1103 Clouds 22 1017 77 10000 1 0 11:55 29.09.2019
1104 Clouds 22 1017 73 10000 1 0 11:36 29.09.2019
1105 Clouds 21 1017 73 10000 1 0 11:18 29.09.2019
1106 Clouds 21 1017 82 10000 1 0 10:55 29.09.2019
1107 Clouds 20 1017 93 10000 1 0 10:36 29.09.2019
1108 Clouds 20 1017 93 10000 1 0 10:18 29.09.2019
1109 Clouds 20 1017 93 10000 1 0 10:18 29.09.2019
1110 Clouds 18 1017 100 10000 1.5 10 09:42 29.09.2019
1111 Clouds 17 1017 100 10000 1.5 10 09:20 29.09.2019
1112 Clouds 16 1016 100 10000 1.5 30 08:43 29.09.2019
1113 Clouds 16 1017 100 10000 1.5 40 08:22 29.09.2019
1114 Clouds 15 1016 100 10000 2.1 20 07:46 29.09.2019
1115 Clouds 15 1016 100 10000 2.6 30 07:27 29.09.2019
1116 Clouds 15 1016 100 10000 2.1 360 06:57 29.09.2019
1117 Fog 15 1016 100 10000 1 80 06:34 29.09.2019
1118 Clouds 16 1016 100 10000 2.1 20 04:54 29.09.2019
1119 Mist 16 1016 100 10000 1.5 30 04:24 29.09.2019
1120 Clouds 16 1016 100 10000 2.6 20 03:47 29.09.2019
1121 Clouds 16 1017 100 10000 2.1 30 02:28 29.09.2019
1122 Clear 16 1017 100 10000 2.1 10 01:46 29.09.2019
1123 Clear 17 1017 100 10000 1.5 20 01:23 29.09.2019
1124 Clouds 17 1018 100 9000 0.5 0 00:41 29.09.2019
1125 Clear 17 1017 93 10000 1.5 340 00:19 29.09.2019
1126 Clouds 18 1017 88 10000 0.5 0 23:40 28.09.2019
1127 Clouds 18 1017 88 10000 0.5 0 23:21 28.09.2019
1128 Clouds 19 1016 88 10000 1.5 20 22:42 28.09.2019
1129 Clouds 19 1016 88 10000 1.5 20 22:23 28.09.2019
1130 Clouds 19 1016 88 10000 2.6 20 21:59 28.09.2019
1131 Clear 19 1016 82 10000 1.5 30 21:40 28.09.2019
1132 Clear 19 1016 82 10000 1.5 30 21:21 28.09.2019
1133 Clear 19 1016 77 10000 1 0 20:59 28.09.2019
1134 Clear 20 1016 77 10000 1 50 20:40 28.09.2019
1135 Clear 20 1016 77 10000 1 50 20:20 28.09.2019
1136 Clear 21 1016 60 10000 2.1 270 19:57 28.09.2019
1137 Clear 22 1016 60 10000 1.5 250 19:39 28.09.2019
1138 Clear 23 1016 60 10000 1.5 250 19:21 28.09.2019
1139 Clear 23 1016 57 10000 1 0 18:57 28.09.2019
1140 Clear 24 1016 60 10000 2.1 200 18:39 28.09.2019
1141 Clouds 24 1016 69 10000 1 0 18:20 28.09.2019
1142 Clouds 24 1016 53 10000 2.1 190 17:56 28.09.2019
1143 Clouds 24 1016 53 10000 2.6 210 17:38 28.09.2019
1144 Clouds 25 1016 53 10000 2.6 210 17:19 28.09.2019
1145 Clouds 25 1016 53 10000 2.6 210 17:19 28.09.2019
1146 Clouds 25 1016 53 10000 3.1 230 16:43 28.09.2019
1147 Clouds 25 1016 53 10000 3.1 230 16:25 28.09.2019
1148 Clouds 24 1016 69 10000 2.1 190 15:42 28.09.2019
1149 Clouds 24 1016 60 10000 3.1 200 15:42 28.09.2019
1150 Clouds 24 1016 69 10000 2.1 190 15:42 28.09.2019
1151 Clouds 24 1016 60 10000 1.5 0 15:23 28.09.2019
1152 Clouds 24 1016 60 10000 1.5 0 15:23 28.09.2019
1153 Clouds 24 1016 60 10000 3.1 200 14:58 28.09.2019
1154 Clouds 24 1016 64 10000 3.1 190 14:39 28.09.2019
1155 Clouds 24 1017 64 10000 1.5 0 14:21 28.09.2019
1156 Clouds 24 1017 64 10000 3.6 230 13:57 28.09.2019
1157 Clouds 24 1017 73 10000 1 0 13:38 28.09.2019
1158 Clouds 23 1017 73 10000 1 0 13:19 28.09.2019
1159 Clouds 22 1017 78 10000 2.6 190 12:44 28.09.2019
1160 Clouds 22 1017 78 10000 2.6 190 12:19 28.09.2019
1161 Mist 22 1017 78 8000 1.5 150 11:55 28.09.2019
1162 Mist 21 1017 83 8000 1 0 11:36 28.09.2019
1163 Mist 21 1017 83 8000 1 0 11:18 28.09.2019
1164 Mist 20 1017 94 6000 1 0 10:40 28.09.2019
1165 Mist 20 1017 94 6000 1 0 10:20 28.09.2019
1166 Mist 19 1017 100 5000 1.5 30 09:54 28.09.2019
1167 Mist 18 1016 100 4000 1.5 20 09:36 28.09.2019
1168 Mist 18 1016 100 4000 1.5 20 09:18 28.09.2019
1169 Mist 17 1017 100 3000 0.5 0 08:42 28.09.2019
1170 Mist 17 1016 100 4000 1.5 30 08:23 28.09.2019
1171 Mist 17 1017 100 3500 1 30 07:45 28.09.2019
1172 Mist 17 1017 100 4000 1 0 07:21 28.09.2019
1173 Mist 17 1016 100 4000 1.5 20 06:53 28.09.2019
1174 Mist 17 1016 100 5000 1.5 0 06:31 28.09.2019
1175 Mist 17 1016 100 5000 1.5 60 05:47 28.09.2019
1176 Mist 17 1016 100 5000 1 60 05:20 28.09.2019
1177 Mist 17 1016 100 5000 0.5 0 04:39 28.09.2019
1178 Mist 17 1016 100 5000 1 20 03:55 28.09.2019
1179 Mist 17 1017 100 5000 0.5 0 03:21 28.09.2019
1180 Mist 18 1017 100 5000 1.5 100 02:45 28.09.2019
1181 Mist 18 1017 100 5000 1 0 02:27 28.09.2019
1182 Mist 18 1017 93 5000 1 0 01:48 28.09.2019
1183 Mist 18 1017 93 5000 1 50 01:26 28.09.2019
1184 Mist 18 1017 93 5000 1.5 40 00:52 28.09.2019
1185 Mist 18 1017 93 10000 2.6 10 00:31 28.09.2019
1186 Mist 18 1017 93 10000 2.6 10 00:31 28.09.2019
1187 Mist 18 1017 88 10000 1 10 23:55 27.09.2019
1188 Mist 18 1017 93 10000 1 20 23:36 27.09.2019
1189 Mist 18 1017 93 10000 1 20 23:18 27.09.2019
1190 Mist 19 1017 93 10000 2.1 20 22:41 27.09.2019
1191 Mist 19 1017 93 5000 0.5 0 22:19 27.09.2019
1192 Mist 19 1017 93 5000 0.5 0 22:19 27.09.2019
1193 Mist 19 1017 93 10000 1.5 10 21:55 27.09.2019
1194 Mist 19 1017 82 10000 2.1 30 21:37 27.09.2019
1195 Mist 19 1017 82 10000 2.1 30 21:18 27.09.2019
1196 Mist 20 1016 77 10000 1 0 20:55 27.09.2019
1197 Mist 20 1016 83 6000 1 110 20:36 27.09.2019
1198 Mist 20 1017 93 5000 1 0 20:18 27.09.2019
1199 Mist 21 1017 88 5000 1 10 19:42 27.09.2019
1200 Mist 21 1016 73 8000 2.6 100 19:23 27.09.2019
1201 Mist 22 1016 64 10000 1.5 190 18:56 27.09.2019
1202 Mist 22 1016 69 8000 1.5 140 18:37 27.09.2019
1203 Mist 22 1016 69 8000 1.5 140 18:19 27.09.2019
1204 Mist 23 1016 69 6000 2.6 90 17:40 27.09.2019
1205 Mist 23 1016 69 6000 2.6 90 17:22 27.09.2019
1206 Mist 23 1016 69 6000 2.6 90 17:22 27.09.2019
1207 Mist 23 1016 64 8000 1.5 160 16:59 27.09.2019
1208 Mist 23 1016 64 8000 1.5 160 16:59 27.09.2019
1209 Mist 23 1016 64 6000 3.1 120 16:41 27.09.2019
1210 Mist 23 1016 64 6000 3.1 120 16:20 27.09.2019
1211 Mist 23 1016 64 6000 3.1 120 16:20 27.09.2019
1212 Mist 23 1016 69 7000 1 0 15:55 27.09.2019
1213 Mist 23 1016 69 6000 2.1 140 15:37 27.09.2019
1214 Mist 23 1016 69 6000 2.1 140 15:19 27.09.2019
1215 Mist 22 1017 73 6000 1 0 14:55 27.09.2019
1216 Mist 22 1017 73 6000 1.5 180 14:37 27.09.2019
1217 Mist 22 1018 77 9000 1.5 0 14:18 27.09.2019
1218 Mist 22 1017 73 4000 1.5 110 13:41 27.09.2019
1219 Mist 22 1017 73 4000 1.5 110 13:21 27.09.2019
1220 Mist 22 1018 77 5000 1.5 170 12:57 27.09.2019
1221 Mist 21 1017 77 4000 1.5 0 12:38 27.09.2019
1222 -273 0 0 0 0 0 12:19 27.09.2019
1223 Mist 20 1018 82 5000 0.5 0 11:39 27.09.2019
1224 Mist 19 1018 82 5000 0.5 0 11:21 27.09.2019
1225 Mist 19 1018 88 5000 1.5 90 10:57 27.09.2019
1226 Mist 19 1017 77 4000 2.1 60 10:38 27.09.2019
1227 Mist 19 1017 77 4000 2.1 60 10:38 27.09.2019
1228 Mist 19 1017 77 4000 2.1 60 10:20 27.09.2019
1229 Mist 18 1018 88 10000 0.5 0 09:42 27.09.2019
1230 Mist 17 1017 88 4000 1.5 30 09:21 27.09.2019
1231 Mist 17 1017 100 7000 2.1 360 08:57 27.09.2019
1232 Mist 17 1017 93 4000 2.1 360 08:38 27.09.2019
1233 Mist 17 1017 93 4000 2.1 360 08:19 27.09.2019
1234 Mist 17 1017 93 4000 2.1 360 08:19 27.09.2019
1235 Mist 16 1017 100 7000 2.1 20 07:45 27.09.2019
1236 Mist 16 1017 93 5000 1.5 20 07:22 27.09.2019
1237 Mist 16 1017 100 7000 2.1 20 06:42 27.09.2019
1238 Mist 16 1017 100 7000 2.1 20 06:23 27.09.2019
1239 Mist 16 1017 100 7000 1 20 05:49 27.09.2019
1240 Mist 16 1017 100 7000 2.1 20 05:31 27.09.2019
1241 Mist 16 1017 100 6000 3.1 360 03:54 27.09.2019
1242 Mist 16 1017 100 8000 2.1 10 01:59 27.09.2019
1243 Mist 16 1017 100 10000 2.1 10 01:37 27.09.2019
1244 Mist 17 1018 100 10000 2.1 10 00:59 27.09.2019
1245 Mist 17 1017 100 10000 2.1 20 00:19 27.09.2019
1246 Clear 17 1017 100 10000 1.5 10 23:55 26.09.2019
1247 Clear 17 1017 100 10000 1.5 10 23:55 26.09.2019
1248 Clear 17 1017 100 10000 1.5 30 23:37 26.09.2019
1249 Clear 17 1017 100 10000 1.5 30 23:18 26.09.2019
1250 Clear 17 1017 100 10000 1.5 30 23:18 26.09.2019
1251 Clear 17 1017 93 10000 1 0 22:55 26.09.2019
1252 Mist 18 1017 88 10000 0.5 0 22:36 26.09.2019
1253 Mist 18 1017 88 10000 0.5 0 22:18 26.09.2019
1254 Mist 18 1017 82 10000 0.5 0 21:54 26.09.2019
1255 Mist 18 1017 82 10000 0.5 0 21:54 26.09.2019
1256 Mist 19 1016 77 10000 2.6 230 21:36 26.09.2019
1257 Mist 19 1016 77 10000 2.6 230 21:36 26.09.2019
1258 Mist 19 1016 77 10000 2.6 230 21:18 26.09.2019
1259 Mist 19 1016 73 10000 2.6 220 20:55 26.09.2019
1260 Clouds 19 1015 82 6000 2.1 210 20:37 26.09.2019
1261 Clouds 19 1015 82 6000 2.1 210 20:19 26.09.2019
1262 Clouds 20 1016 82 9000 0.5 0 20:19 26.09.2019
1263 Clouds 20 1016 77 9000 1.5 140 19:40 26.09.2019
1264 Clear 21 1015 64 10000 3.1 240 19:18 26.09.2019
1265 Clear 22 1015 60 10000 2.1 230 18:58 26.09.2019
1266 Clouds 23 1015 64 8000 3.1 240 18:38 26.09.2019
1267 Clouds 22 1015 64 8000 3.1 240 18:38 26.09.2019
1268 Clouds 22 1015 64 8000 3.1 240 18:20 26.09.2019
1269 Clouds 23 1015 60 8000 1.5 0 17:39 26.09.2019
1270 Clouds 23 1015 60 8000 1.5 0 17:19 26.09.2019
1271 Clear 23 1015 64 8000 2.6 240 16:59 26.09.2019
1272 Clouds 23 1014 60 7000 2.6 190 16:39 26.09.2019
1273 Clouds 23 1014 60 7000 2.6 190 16:20 26.09.2019
1274 Clouds 23 1014 60 7000 2.6 190 16:20 26.09.2019
1275 Clouds 23 1015 64 8000 2.6 200 15:57 26.09.2019
1276 Clouds 23 1015 68 6000 2.1 130 15:37 26.09.2019
1277 Clouds 23 1015 68 6000 2.1 130 15:18 26.09.2019
1278 Mist 22 1015 64 8000 3.1 210 14:42 26.09.2019
1279 Mist 22 1015 77 5000 3.1 180 14:23 26.09.2019
1280 Mist 22 1015 77 5000 3.1 180 14:23 26.09.2019
1281 Mist 22 1016 73 9000 1.5 240 13:58 26.09.2019
1282 Mist 22 1016 73 9000 1.5 240 13:58 26.09.2019
1283 Mist 21 1016 73 9000 1.5 240 13:58 26.09.2019
1284 Mist 21 1015 60 10000 2.6 190 13:40 26.09.2019
1285 Mist 21 1016 60 10000 2.6 190 13:19 26.09.2019
1286 Mist 21 1016 77 6000 1 0 12:56 26.09.2019
1287 Mist 20 1015 77 3800 1 0 12:38 26.09.2019
1288 Mist 20 1015 77 3800 1 0 12:19 26.09.2019
1289 Mist 19 1016 63 10000 1 0 11:42 26.09.2019
1290 Mist 19 1015 82 3500 2.1 70 11:21 26.09.2019
1291 Mist 19 1015 82 3500 2.1 70 11:21 26.09.2019
1292 Mist 18 1016 93 7000 1.5 110 10:55 26.09.2019
1293 Mist 18 1014 88 3200 2.1 30 10:37 26.09.2019
1294 Mist 17 1016 77 10000 1 360 10:19 26.09.2019
1295 Mist 17 1014 93 3500 2.6 30 09:43 26.09.2019
1296 Mist 17 1014 93 3500 2.6 30 09:43 26.09.2019
1297 Mist 17 1014 93 3500 2.6 30 09:25 26.09.2019
1298 Mist 16 1014 100 9000 2.1 30 08:54 26.09.2019
1299 Mist 16 1013 93 10000 2.1 10 08:33 26.09.2019
1300 Mist 16 1013 100 10000 3.1 20 07:59 26.09.2019
1301 Clouds 15 1012 93 10000 2.6 350 07:41 26.09.2019
1302 Clouds 15 1012 93 10000 2.6 350 07:20 26.09.2019
1303 Clouds 15 1013 93 10000 1.5 20 06:43 26.09.2019
1304 Clear 15 1013 100 10000 2.6 10 06:43 26.09.2019
1305 Clouds 15 1012 93 10000 2.1 350 06:24 26.09.2019
1306 Clear 15 1012 100 10000 1.5 20 05:44 26.09.2019
1307 Clear 15 1012 100 10000 1.5 20 05:21 26.09.2019
1308 Clear 15 1011 100 10000 2.1 30 02:47 26.09.2019
1309 Clear 15 1011 100 10000 2.1 20 01:49 26.09.2019
1310 Clear 15 1011 93 10000 3.1 360 01:28 26.09.2019
1311 Clear 15 1011 93 10000 3.1 10 00:55 26.09.2019
1312 Clear 15 1011 87 10000 2.1 10 00:37 26.09.2019
1313 Clear 15 1011 93 10000 1.74 121.128 23:47 25.09.2019
1314 Clear 16 1010 93 10000 1 0 23:28 25.09.2019
1315 Clear 16 1010 87 10000 2.1 20 22:57 25.09.2019
1316 Clear 16 1010 87 10000 2.6 20 22:38 25.09.2019
1317 Clear 17 1010 87 10000 2.6 20 22:20 25.09.2019
1318 Clear 17 1010 77 10000 0.5 0 21:56 25.09.2019
1319 Clear 17 1009 72 10000 1.5 20 21:38 25.09.2019
1320 Clear 18 1009 72 10000 1.5 20 21:18 25.09.2019
1321 Clear 18 1009 64 10000 2.1 210 20:56 25.09.2019
1322 Clear 18 1008 68 10000 1.78 138.436 20:37 25.09.2019
1323 Clear 19 1008 68 10000 1.78 138.436 20:19 25.09.2019
1324 Clouds 20 1009 82 10000 1 0 19:41 25.09.2019
1325 Clouds 20 1009 82 10000 1 0 19:41 25.09.2019
1326 Clear 21 1008 56 10000 1.5 180 19:21 25.09.2019
1327 Clear 22 1008 46 10000 2.6 200 18:57 25.09.2019
1328 Clouds 22 1008 50 10000 3.1 130 18:39 25.09.2019
1329 Clouds 23 1008 56 10000 1.5 0 18:20 25.09.2019
1330 Clear 23 1008 47 10000 1 0 17:58 25.09.2019
1331 Clouds 23 1008 44 10000 2.6 250 17:36 25.09.2019
1332 Clouds 23 1008 44 10000 2.6 250 17:18 25.09.2019
1333 Clouds 23 1008 44 10000 2.6 260 16:44 25.09.2019
1334 Clouds 24 1008 47 10000 2.1 110 16:26 25.09.2019
1335 Clouds 24 1009 47 10000 1.5 0 15:57 25.09.2019
1336 Clouds 24 1009 47 10000 1.5 0 15:39 25.09.2019
1337 Clouds 23 1009 47 10000 1.5 0 15:20 25.09.2019
1338 Clouds 23 1009 47 10000 2.1 0 14:44 25.09.2019
1339 Clouds 23 1009 47 10000 3.1 70 14:25 25.09.2019
1340 Clear 23 1010 46 10000 1.5 0 13:59 25.09.2019
1341 Clouds 23 1010 53 10000 1.5 190 13:40 25.09.2019
1342 Clouds 22 1010 49 10000 2.6 70 13:20 25.09.2019
1343 Clear 22 1011 53 10000 1 0 12:58 25.09.2019
1344 Clouds 21 1010 56 10000 1.5 0 12:38 25.09.2019
1345 Clouds 21 1011 60 10000 0.5 0 12:20 25.09.2019
1346 Clear 20 1011 68 10000 2.1 190 11:41 25.09.2019
1347 Clouds 20 1010 63 10000 1 0 11:20 25.09.2019
1348 Clear 19 1011 72 10000 1 0 10:48 25.09.2019
1349 Clouds 18 1010 72 10000 1 0 10:27 25.09.2019
1350 Clear 16 1010 87 10000 2.6 10 09:59 25.09.2019
1351 Clear 16 1011 87 10000 1 0 09:41 25.09.2019
1352 Clouds 15 1010 93 10000 1.5 290 09:23 25.09.2019
1353 Clear 14 1010 100 10000 1.5 20 08:57 25.09.2019
1354 Clouds 13 1010 93 10000 3.1 340 08:39 25.09.2019
1355 Clouds 13 1010 93 10000 3.1 340 08:19 25.09.2019
1356 Clouds 13 1010 93 10000 2.1 350 07:40 25.09.2019
1357 Clouds 13 1010 93 10000 2.1 350 07:22 25.09.2019
1358 Clear 13 1011 100 10000 2.1 10 06:55 25.09.2019
1359 Clear 13 1010 100 10000 2.1 30 06:34 25.09.2019
1360 Clouds 13 1011 100 10000 1 0 05:43 25.09.2019
1361 Clear 13 1011 100 10000 2.1 10 04:58 25.09.2019
1362 Clear 14 1012 100 10000 2.1 10 02:50 25.09.2019
1363 Clear 14 1012 93 10000 1.5 30 01:29 25.09.2019
1364 Clear 15 1012 93 10000 2.1 10 00:38 25.09.2019
1365 Clear 15 1012 93 10000 2.1 10 00:20 25.09.2019
1366 Clear 15 1013 93 10000 3.1 10 23:42 24.09.2019
1367 Clear 15 1013 93 10000 3.1 10 23:22 24.09.2019
1368 Clear 15 1013 93 10000 3.1 360 22:57 24.09.2019
1369 Clear 16 1013 87 10000 2.1 10 22:38 24.09.2019
1370 Clear 16 1013 87 10000 2.1 10 22:18 24.09.2019
1371 Clear 16 1013 87 10000 2.6 10 21:55 24.09.2019
1372 Clear 17 1012 77 10000 2.1 20 21:36 24.09.2019
1373 Clear 17 1012 77 10000 2.1 20 21:18 24.09.2019
1374 Clear 17 1012 68 10000 1.5 320 20:55 24.09.2019
1375 Clear 18 1012 77 10000 1 220 20:37 24.09.2019
1376 Clear 18 1012 77 10000 1 220 20:18 24.09.2019
1377 Clouds 19 1012 77 10000 1 0 19:42 24.09.2019
1378 Clear 21 1012 64 10000 2.6 170 19:19 24.09.2019
1379 Clear 21 1012 46 10000 0.5 0 18:57 24.09.2019
1380 Clear 22 1012 53 10000 1.5 140 18:39 24.09.2019
1381 Clear 22 1012 53 10000 1.5 140 18:39 24.09.2019
1382 Clear 22 1012 53 10000 1.5 140 18:20 24.09.2019
1383 Clear 22 1012 56 10000 1.5 0 18:20 24.09.2019
1384 Clear 22 1012 46 10000 1 0 17:56 24.09.2019
1385 Clouds 22 1012 53 10000 3.1 60 17:37 24.09.2019
1386 Clouds 23 1013 43 10000 1.5 200 17:19 24.09.2019
1387 Clouds 23 1013 49 10000 1.5 0 16:42 24.09.2019
1388 Clouds 23 1013 49 10000 1.5 0 16:20 24.09.2019
1389 Clear 22 1013 53 10000 0.5 0 15:58 24.09.2019
1390 Clouds 22 1013 46 10000 1.5 0 15:38 24.09.2019
1391 Clouds 22 1013 46 10000 1.5 0 15:20 24.09.2019
1392 Clouds 21 1014 56 10000 1.5 0 14:39 24.09.2019
1393 Clouds 21 1014 56 10000 1.5 0 14:18 24.09.2019
1394 Clear 20 1015 63 10000 2.1 40 13:45 24.09.2019
1395 Clouds 20 1014 56 10000 2.6 60 13:21 24.09.2019
1396 Clear 19 1016 67 10000 0.5 0 12:44 24.09.2019
1397 Clear 18 1016 72 10000 0.5 0 12:23 24.09.2019
1398 Clear 18 1015 68 10000 1.5 40 11:58 24.09.2019
1399 Clear 18 1015 68 10000 1.5 40 11:58 24.09.2019
1400 Clear 18 1016 67 10000 0.5 0 11:40 24.09.2019
1401 Clouds 17 1015 67 10000 1.5 0 11:21 24.09.2019
1402 Clear 17 1015 72 10000 1.5 10 10:42 24.09.2019
1403 Clouds 17 1014 77 10000 2.1 340 10:22 24.09.2019
1404 Clear 16 1015 93 10000 2.1 20 09:59 24.09.2019
1405 Clouds 16 1014 87 10000 2.1 340 09:41 24.09.2019
1406 Clouds 14 1014 87 10000 2.1 340 09:20 24.09.2019
1407 Clear 13 1015 100 10000 2.6 20 08:55 24.09.2019
1408 Fog 13 1014 93 10000 2.6 340 08:37 24.09.2019
1409 Fog 12 1014 93 10000 2.6 340 08:18 24.09.2019
1410 Mist 12 1015 100 10000 0.5 0 07:42 24.09.2019
1411 Mist 11 1014 100 3500 2.1 340 07:24 24.09.2019
1412 Mist 11 1015 100 10000 1.5 10 06:47 24.09.2019
1413 Mist 11 1014 100 4000 3.1 20 06:27 24.09.2019
1414 Mist 12 1014 100 4000 2.6 30 05:27 24.09.2019
1415 Mist 12 1014 100 4000 2.1 30 04:58 24.09.2019
1416 Mist 12 1014 100 4000 2.1 60 03:42 24.09.2019
1417 Mist 13 1014 100 10000 2.1 20 02:45 24.09.2019
1418 Mist 13 1014 100 10000 2.1 70 01:44 24.09.2019
1419 Mist 13 1014 93 10000 1.5 330 00:42 24.09.2019
1420 Mist 14 1014 93 10000 1.5 330 00:23 24.09.2019
1421 Mist 14 1014 100 10000 1.5 70 23:43 23.09.2019
1422 Mist 14 1014 100 10000 1.5 70 23:23 23.09.2019
1423 Clear 15 1013 93 10000 2.6 330 22:57 23.09.2019
1424 Clear 15 1014 76 10000 1 0 22:38 23.09.2019
1425 Clear 15 1013 93 10000 2.6 360 22:20 23.09.2019
1426 Mist 15 1013 77 10000 2.1 20 21:56 23.09.2019
1427 Clear 16 1013 72 10000 2.6 310 21:37 23.09.2019
1428 Clear 16 1013 72 10000 2.6 310 21:18 23.09.2019
1429 Mist 17 1012 72 10000 1 0 20:40 23.09.2019
1430 Mist 17 1012 72 10000 1 0 20:19 23.09.2019
1431 Mist 18 1012 60 10000 2.1 300 19:55 23.09.2019
1432 Mist 18 1012 60 10000 1.5 220 19:37 23.09.2019
1433 Mist 19 1012 60 10000 1.5 220 19:19 23.09.2019
1434 Clear 20 1012 56 10000 3.6 240 18:42 23.09.2019
1435 Clear 20 1012 56 10000 3.6 240 18:42 23.09.2019
1436 Clear 20 1012 56 10000 3.6 240 18:21 23.09.2019
1437 Clear 21 1012 56 10000 2.6 230 17:59 23.09.2019
1438 Clear 21 1012 56 10000 2.6 220 17:39 23.09.2019
1439 Clear 21 1012 56 10000 2.6 220 17:20 23.09.2019
1440 Clear 21 1012 60 10000 3.1 230 16:57 23.09.2019
1441 Mist 20 1012 60 10000 3.1 250 16:37 23.09.2019
1442 Mist 20 1011 64 10000 2.6 180 16:18 23.09.2019
1443 Mist 20 1012 64 10000 1.5 0 15:56 23.09.2019
1444 Mist 20 1012 64 10000 3.1 220 15:38 23.09.2019
1445 Mist 20 1012 64 10000 3.1 220 15:18 23.09.2019
1446 Mist 19 1012 68 10000 2.6 250 14:40 23.09.2019
1447 Mist 18 1012 68 10000 2.6 250 14:21 23.09.2019
1448 Rain 18 1013 88 10000 3.1 290 13:59 23.09.2019
1449 Rain 18 1013 88 10000 3.1 290 13:59 23.09.2019
1450 Rain 17 1013 72 8000 1 0 13:38 23.09.2019
1451 Rain 17 1013 82 10000 2.1 150 13:18 23.09.2019
1452 Rain 17 1013 82 10000 2.6 290 12:54 23.09.2019
1453 Mist 16 1013 77 7000 1.5 0 12:36 23.09.2019
1454 Mist 16 1013 77 7000 1.5 0 12:18 23.09.2019
1455 Mist 15 1014 82 4000 1 0 11:43 23.09.2019
1456 Mist 15 1014 82 4000 1 0 11:24 23.09.2019
1457 Mist 15 1014 100 6000 0.5 0 10:49 23.09.2019
1458 Mist 14 1014 93 3500 0.5 0 10:22 23.09.2019
1459 Mist 14 1014 100 7000 1 50 09:59 23.09.2019
1460 Mist 14 1014 100 3200 1.07 220.432 09:38 23.09.2019
1461 Mist 14 1014 100 3200 1.58 221.993 09:20 23.09.2019
1462 Mist 14 1014 100 10000 1 0 08:48 23.09.2019
1463 Mist 14 1014 100 2800 0.5 0 08:29 23.09.2019
1464 Mist 14 1014 100 8000 2.6 300 07:58 23.09.2019
1465 Mist 14 1014 100 2500 1 270 07:30 23.09.2019
1466 Rain 14 1014 100 8000 0.5 0 06:40 23.09.2019
1467 Drizzle 14 1014 100 10000 1.5 230 05:54 23.09.2019
1468 Rain 14 1015 100 10000 1.5 210 05:21 23.09.2019
1469 Rain 14 1015 100 10000 2.6 230 04:54 23.09.2019
1470 Mist 14 1016 93 10000 0.5 0 02:42 23.09.2019
1471 Mist 14 1016 87 10000 0.5 0 01:18 23.09.2019
1472 Rain 15 1016 87 10000 2.1 20 00:23 23.09.2019
1473 Rain 15 1016 87 10000 1 0 23:52 22.09.2019
1474 Clouds 15 1017 87 10000 2.6 290 23:32 22.09.2019
1475 Drizzle 15 1017 82 10000 2.6 340 22:58 22.09.2019
1476 Drizzle 15 1017 87 10000 1 0 22:40 22.09.2019
1477 Rain 15 1017 82 10000 3.1 320 22:40 22.09.2019
1478 Rain 15 1017 87 10000 0.5 160 22:22 22.09.2019
1479 Rain 15 1017 87 10000 0.61 165.828 21:43 22.09.2019
1480 Rain 15 1017 72 10000 2.1 300 21:22 22.09.2019
1481 Rain 15 1017 72 10000 2.1 300 21:22 22.09.2019
1482 Drizzle 15 1017 72 10000 2.6 290 20:58 22.09.2019
1483 Drizzle 15 1017 77 10000 3.1 340 20:40 22.09.2019
1484 Drizzle 15 1017 77 10000 3.1 340 20:22 22.09.2019
1485 Rain 16 1017 67 10000 3.1 350 19:41 22.09.2019
1486 Rain 16 1017 67 10000 3.1 350 19:23 22.09.2019
1487 Rain 16 1017 67 10000 2.6 350 18:59 22.09.2019
1488 Rain 16 1017 59 10000 2.1 340 18:39 22.09.2019
1489 Rain 16 1017 59 10000 2.1 340 18:20 22.09.2019
1490 Rain 17 1017 59 10000 1.5 320 17:58 22.09.2019
1491 Rain 17 1017 63 10000 1.5 340 17:40 22.09.2019
1492 Rain 17 1017 63 10000 1.5 340 17:19 22.09.2019
1493 Clouds 18 1018 72 10000 1.5 0 16:44 22.09.2019
1494 Clouds 18 1018 63 10000 1.5 320 16:26 22.09.2019
1495 Clouds 18 1018 63 10000 2.1 360 15:56 22.09.2019
1496 Clouds 18 1018 63 10000 2.1 340 15:38 22.09.2019
1497 Clouds 18 1018 72 10000 1.5 180 15:19 22.09.2019
1498 Clouds 18 1018 77 10000 1.5 200 14:43 22.09.2019
1499 Clouds 18 1018 63 10000 1.5 360 14:25 22.09.2019
1500 Clouds 18 1018 63 10000 1.5 360 14:25 22.09.2019
1501 Clouds 18 1018 67 10000 2.6 20 13:55 22.09.2019
1502 Clouds 18 1019 77 10000 3.1 20 13:37 22.09.2019
1503 Clouds 18 1019 77 10000 3.1 20 13:19 22.09.2019
1504 Clouds 17 1019 77 10000 3.6 360 12:43 22.09.2019
1505 Clouds 17 1019 77 10000 3.6 360 12:24 22.09.2019
1506 Rain 17 1020 87 10000 2.6 20 11:56 22.09.2019
1507 Rain 16 1020 87 10000 2.1 350 11:38 22.09.2019
1508 Rain 16 1020 87 10000 2.1 350 11:19 22.09.2019
1509 Rain 16 1020 87 10000 2.1 350 11:19 22.09.2019
1510 Rain 16 1020 93 8000 1 0 10:44 22.09.2019
1511 Rain 15 1020 100 10000 2.1 350 10:20 22.09.2019
1512 Rain 15 1020 100 10000 2.1 360 09:57 22.09.2019
1513 Rain 15 1020 93 10000 1 10 09:38 22.09.2019
1514 Rain 15 1020 93 10000 1 10 09:19 22.09.2019
1515 Rain 14 1020 87 10000 1 0 08:44 22.09.2019
1516 Rain 14 1020 87 10000 1 30 08:23 22.09.2019
1517 Rain 14 1020 100 10000 1 0 07:53 22.09.2019
1518 Rain 14 1020 100 10000 1 0 07:53 22.09.2019
1519 Rain 14 1020 93 10000 0.5 0 07:33 22.09.2019
1520 Rain 14 1020 100 10000 1 0 06:59 22.09.2019
1521 Rain 14 1020 100 10000 2.6 350 06:38 22.09.2019
1522 Clouds 14 1020 100 10000 2.6 10 05:22 22.09.2019
1523 Rain 15 1021 67 10000 1.5 360 02:46 22.09.2019
1524 Clouds 16 1022 72 10000 1.5 20 02:26 22.09.2019
1525 Clouds 16 1021 77 10000 1.5 20 01:53 22.09.2019
1526 Clouds 16 1021 63 10000 1 0 00:55 22.09.2019
1527 Clouds 16 1022 67 10000 0.5 90 00:32 22.09.2019
1528 Clouds 16 1022 72 10000 1.5 40 23:56 21.09.2019
1529 Clouds 16 1022 72 10000 2.1 30 23:38 21.09.2019
1530 Clear 17 1022 67 10000 2.1 20 22:57 21.09.2019
1531 Clear 17 1023 63 10000 1 20 22:36 21.09.2019
1532 Clear 17 1023 63 10000 1 20 22:18 21.09.2019
1533 Clear 17 1023 55 10000 1 170 21:41 21.09.2019
1534 Clear 17 1023 55 10000 1 170 21:19 21.09.2019
1535 Clouds 17 1023 48 10000 2.6 210 20:56 21.09.2019
1536 Clouds 17 1022 45 10000 4.1 200 20:37 21.09.2019
1537 Clouds 17 1022 45 10000 4.1 200 20:18 21.09.2019
1538 Clear 17 1022 72 10000 1 0 20:18 21.09.2019
1539 Clear 18 1022 67 10000 1 0 19:45 21.09.2019
1540 Clear 18 1022 67 10000 1 0 19:45 21.09.2019
1541 Clear 19 1022 40 10000 2.1 210 19:21 21.09.2019
1542 Clear 20 1022 40 10000 3.6 240 18:41 21.09.2019
1543 Clouds 20 1022 46 10000 2.6 200 18:22 21.09.2019
1544 Clear 20 1022 37 10000 1.5 200 17:43 21.09.2019
1545 Clear 21 1022 37 10000 1.5 200 17:23 21.09.2019
1546 Clear 21 1023 35 10000 1 0 16:57 21.09.2019
1547 Clear 21 1023 35 10000 2.1 200 16:38 21.09.2019
1548 Clouds 21 1023 35 10000 2.6 190 16:19 21.09.2019
1549 Clear 21 1024 43 10000 1 0 15:44 21.09.2019
1550 Clear 21 1024 43 10000 1 0 15:22 21.09.2019
1551 Clear 21 1024 37 10000 2.6 270 14:48 21.09.2019
1552 Clear 21 1024 49 10000 3.6 260 14:30 21.09.2019
1553 Clear 20 1024 49 10000 1.5 160 13:51 21.09.2019
1554 Clear 20 1024 52 10000 1 0 13:29 21.09.2019
1555 Clear 20 1025 52 10000 1.5 190 12:59 21.09.2019
1556 Clear 20 1025 52 10000 1.5 0 12:41 21.09.2019
1557 Clear 19 1025 52 10000 1.5 0 12:22 21.09.2019
1558 Clear 19 1025 52 10000 1 0 11:59 21.09.2019
1559 Clear 18 1025 52 10000 1 0 11:41 21.09.2019
1560 Clear 18 1025 52 10000 1 0 11:21 21.09.2019
1561 Clear 17 1025 63 10000 1 0 10:41 21.09.2019
1562 Clear 17 1025 63 10000 1 0 10:23 21.09.2019
1563 Clear 16 1025 72 10000 1.5 20 09:57 21.09.2019
1564 Clear 15 1025 87 10000 1.5 20 09:38 21.09.2019
1565 Clear 15 1025 87 10000 1.5 20 09:20 21.09.2019
1566 Clear 13 1025 100 10000 2.1 10 08:51 21.09.2019
1567 Clear 12 1025 100 10000 2.1 30 08:25 21.09.2019
1568 Clouds 11 1025 93 10000 1.5 0 07:40 21.09.2019
1569 Clouds 10 1025 100 10000 0.5 0 07:20 21.09.2019
1570 Clear 11 1025 100 10000 2.1 20 06:36 21.09.2019
1571 Clear 11 1025 93 10000 1.5 20 05:51 21.09.2019
1572 Clear 11 1025 93 10000 1 350 04:48 21.09.2019
1573 Clear 11 1025 93 10000 1 350 04:48 21.09.2019
1574 Clear 11 1025 81 10000 1.5 20 04:29 21.09.2019
1575 Clouds 13 1026 77 10000 1 0 02:26 21.09.2019
1576 Clouds 14 1026 77 10000 1 0 01:50 21.09.2019
1577 Clouds 14 1026 72 10000 1 0 01:32 21.09.2019
1578 Clouds 15 1026 77 10000 0.5 360 00:26 21.09.2019
1579 Clouds 15 1025 77 10000 1 30 23:58 20.09.2019
1580 Clouds 15 1025 77 10000 1.5 30 23:31 20.09.2019
1581 Clouds 16 1025 82 10000 1 10 22:59 20.09.2019
1582 Clouds 16 1025 82 10000 1 30 22:38 20.09.2019
1583 Clouds 16 1025 82 10000 1 30 22:20 20.09.2019
1584 Clouds 16 1025 76 10000 2.1 30 21:55 20.09.2019
1585 Clear 16 1024 72 10000 1 20 21:37 20.09.2019
1586 Clear 16 1024 72 10000 1 20 21:18 20.09.2019
1587 Clouds 16 1025 82 10000 1 0 20:41 20.09.2019
1588 Rain 17 1023 63 10000 2.9 125.924 20:21 20.09.2019
1589 Clear 17 1024 52 10000 1.5 100 19:58 20.09.2019
1590 Clear 18 1023 56 10000 1.5 80 19:39 20.09.2019
1591 Clear 18 1023 56 10000 1.5 80 19:20 20.09.2019
1592 Clouds 19 1024 56 10000 2.6 120 18:40 20.09.2019
1593 Clouds 20 1024 55 10000 1 0 18:20 20.09.2019
1594 Clouds 20 1024 49 10000 2.6 100 17:58 20.09.2019
1595 Clouds 20 1024 55 10000 1.5 190 17:39 20.09.2019
1596 Clouds 20 1024 52 10000 2.6 100 17:39 20.09.2019
1597 Clouds 20 1024 52 10000 1.5 0 17:21 20.09.2019
1598 Clouds 20 1025 52 10000 1.5 0 16:41 20.09.2019
1599 Clouds 20 1025 49 10000 1.5 170 16:19 20.09.2019
1600 Clouds 20 1025 52 10000 2.6 200 15:43 20.09.2019
1601 Clouds 20 1025 52 10000 2.6 200 15:23 20.09.2019
1602 Clouds 20 1025 49 10000 1.5 0 14:58 20.09.2019
1603 Clouds 20 1025 49 10000 1.5 0 14:38 20.09.2019
1604 Clouds 19 1026 52 10000 2.1 190 14:18 20.09.2019
1605 Clouds 19 1026 48 10000 1.5 70 13:47 20.09.2019
1606 Clouds 19 1026 52 10000 2.1 210 13:27 20.09.2019
1607 Clouds 19 1026 48 10000 3.1 110 12:57 20.09.2019
1608 Clouds 18 1025 55 10000 4.6 80 12:36 20.09.2019
1609 Clouds 18 1025 55 10000 4.6 80 12:18 20.09.2019
1610 Clouds 18 1026 52 10000 2.6 130 11:45 20.09.2019
1611 Clouds 18 1025 48 10000 2.6 50 11:20 20.09.2019
1612 Clouds 17 1026 52 10000 3.1 210 10:43 20.09.2019
1613 Clouds 17 1026 52 10000 3.1 210 10:43 20.09.2019
1614 Clouds 17 1026 63 10000 2.1 200 10:23 20.09.2019
1615 Clouds 17 1025 51 10000 2.1 100 09:39 20.09.2019
1616 Clouds 16 1025 63 10000 1 0 09:19 20.09.2019
1617 Clouds 16 1025 51 10000 2.1 80 08:59 20.09.2019
1618 Clouds 16 1025 51 10000 2.1 80 08:59 20.09.2019
1619 Clouds 16 1024 59 10000 3.1 100 08:40 20.09.2019
1620 Clouds 16 1024 59 10000 3.1 100 08:40 20.09.2019
1621 Clouds 15 1025 82 10000 1 20 08:21 20.09.2019
1622 Clouds 15 1024 59 10000 2.1 80 07:43 20.09.2019
1623 Clouds 15 1024 59 10000 2.1 80 07:24 20.09.2019
1624 Clouds 16 1025 87 10000 0.5 0 06:44 20.09.2019
1625 Clouds 16 1025 67 10000 2.1 110 06:44 20.09.2019
1626 Clouds 16 1025 67 10000 2.1 110 06:20 20.09.2019
1627 Clouds 16 1025 82 10000 1.5 100 05:22 20.09.2019
1628 Clouds 16 1025 88 10000 1.5 30 03:30 20.09.2019
1629 Clouds 16 1025 88 10000 1.5 30 03:30 20.09.2019
1630 Clouds 17 1025 88 10000 1.5 10 02:44 20.09.2019
1631 Clouds 17 1025 82 10000 1 0 01:44 20.09.2019
1632 Clouds 17 1024 82 10000 0.5 0 00:44 20.09.2019
1633 Clouds 17 1024 82 10000 2.1 30 23:59 19.09.2019
1634 Clouds 17 1023 63 10000 1 0 23:41 19.09.2019
1635 Clouds 17 1023 63 10000 1 0 23:18 19.09.2019
1636 Clouds 17 1024 82 10000 0.5 0 22:40 19.09.2019
1637 Clouds 17 1023 77 10000 0.5 0 22:22 19.09.2019
1638 Clouds 17 1022 88 10000 1 0 21:57 19.09.2019
1639 Clouds 17 1022 77 10000 1.5 30 21:39 19.09.2019
1640 Clouds 17 1022 77 10000 1.5 30 21:19 19.09.2019
1641 Clouds 18 1022 72 10000 0.5 0 20:57 19.09.2019
1642 Clouds 18 1020 72 10000 2.1 20 20:39 19.09.2019
1643 Clouds 18 1020 72 10000 2.1 20 20:19 19.09.2019
1644 Clear 18 1021 68 10000 2.6 360 19:54 19.09.2019
1645 Clouds 19 1020 60 10000 2.1 10 19:36 19.09.2019
1646 Clouds 19 1021 68 10000 1 0 19:18 19.09.2019
1647 Clouds 20 1020 56 10000 2.1 350 18:41 19.09.2019
1648 Clouds 20 1020 56 10000 2.1 350 18:22 19.09.2019
1649 Clouds 20 1020 68 10000 1.5 180 17:43 19.09.2019
1650 Clouds 21 1019 56 10000 2.6 330 17:24 19.09.2019
1651 Clouds 21 1020 64 10000 2.6 350 16:59 19.09.2019
1652 Clouds 21 1020 64 10000 2.6 350 16:59 19.09.2019
1653 Clouds 21 1020 68 10000 2.1 190 16:40 19.09.2019
1654 Clouds 20 1020 68 10000 2.1 170 16:20 19.09.2019
1655 Clouds 20 1020 68 10000 2.6 180 15:40 19.09.2019
1656 Clouds 20 1020 52 10000 1.5 40 15:21 19.09.2019
1657 Clouds 20 1021 68 10000 1.5 30 14:58 19.09.2019
1658 Clouds 19 1020 63 10000 2.1 20 14:38 19.09.2019
1659 Clouds 19 1021 72 9000 2.1 140 14:20 19.09.2019
1660 Clouds 19 1020 68 10000 2.6 40 13:40 19.09.2019
1661 Clouds 18 1020 68 10000 2.6 40 13:21 19.09.2019
1662 Clouds 18 1021 100 10000 2.1 20 12:58 19.09.2019
1663 Drizzle 18 1020 77 10000 2.6 20 12:36 19.09.2019
1664 Drizzle 18 1020 77 10000 2.6 20 12:36 19.09.2019
1665 Drizzle 17 1020 77 10000 2.6 20 12:18 19.09.2019
1666 Drizzle 17 1020 77 10000 2.6 20 12:18 19.09.2019
1667 Clouds 17 1020 87 10000 1.5 0 11:41 19.09.2019
1668 Clouds 17 1020 87 10000 1.5 0 11:41 19.09.2019
1669 Clouds 16 1020 87 10000 1.5 0 11:21 19.09.2019
1670 Clouds 16 1020 93 10000 4.1 120 10:57 19.09.2019
1671 Clouds 16 1019 72 10000 2.6 80 10:37 19.09.2019
1672 Clouds 16 1019 72 10000 2.6 80 10:18 19.09.2019
1673 Rain 16 1020 88 9000 1.5 0 09:42 19.09.2019
1674 Rain 16 1019 88 9000 1.5 230 09:22 19.09.2019
1675 Rain 16 1019 93 10000 3.1 130 08:56 19.09.2019
1676 Rain 16 1018 82 10000 3.1 80 08:37 19.09.2019
1677 Rain 16 1019 88 9000 3.1 190 08:19 19.09.2019
1678 Clouds 16 1018 88 10000 2.6 190 07:43 19.09.2019
1679 Clouds 16 1018 82 10000 2.6 90 07:22 19.09.2019
1680 Clouds 16 1018 93 9000 1 0 06:47 19.09.2019
1681 Clouds 16 1018 100 9000 1 90 06:27 19.09.2019
1682 Drizzle 17 1018 100 9000 2.1 90 05:52 19.09.2019
1683 Rain 17 1018 100 6000 2.1 90 04:58 19.09.2019
1684 Thunderstorm 17 1018 100 7000 2.1 270 03:52 19.09.2019
1685 Thunderstorm 18 1018 100 5000 3.1 140 02:45 19.09.2019
1686 Rain 19 1018 100 10000 6.7 110 01:27 19.09.2019
1687 Thunderstorm 19 1018 88 10000 2.6 180 00:50 19.09.2019
1688 Thunderstorm 19 1017 94 10000 6.2 110 00:26 19.09.2019
1689 Drizzle 19 1017 88 10000 1.5 220 23:42 18.09.2019
1690 Drizzle 19 1017 94 10000 6.2 100 23:21 18.09.2019
1691 Rain 19 1017 88 10000 6.7 120 22:48 18.09.2019
1692 Drizzle 19 1017 83 10000 5.1 100 22:23 18.09.2019
1693 Drizzle 20 1017 100 8000 4.1 120 21:59 18.09.2019
1694 Thunderstorm 20 1016 94 10000 1 150 21:41 18.09.2019
1695 Thunderstorm 21 1016 69 10000 2.1 120 21:19 18.09.2019
1696 Thunderstorm 21 1015 64 10000 1 180 20:59 18.09.2019
1697 Thunderstorm 21 1015 64 10000 1 120 20:40 18.09.2019
1698 Clouds 22 1015 83 10000 0.5 0 20:22 18.09.2019
1699 Clear 22 1015 61 10000 2.1 210 19:59 18.09.2019
1700 Clouds 23 1015 83 10000 1 0 19:41 18.09.2019
1701 Clouds 24 1015 78 10000 1 180 19:20 18.09.2019
1702 Clear 24 1015 57 10000 1 0 18:56 18.09.2019
1703 Clouds 25 1014 54 10000 1.5 140 18:37 18.09.2019
1704 Clouds 25 1015 69 10000 2.1 190 18:19 18.09.2019
1705 Clear 26 1015 51 10000 1 0 17:58 18.09.2019
1706 Clouds 26 1015 54 10000 1.5 60 17:39 18.09.2019
1707 Clouds 26 1015 54 10000 1.5 60 17:19 18.09.2019
1708 Clouds 26 1015 54 10000 1.5 60 17:19 18.09.2019
1709 Clear 26 1015 57 10000 1.5 0 16:56 18.09.2019
1710 Clouds 26 1015 54 10000 1.5 0 16:38 18.09.2019
1711 Clouds 26 1015 54 10000 1.5 0 16:18 18.09.2019
1712 Clear 25 1016 57 10000 1 0 15:55 18.09.2019
1713 Clear 25 1016 57 10000 1 0 15:55 18.09.2019
1714 Clouds 25 1015 50 10000 0.5 0 15:37 18.09.2019
1715 Clouds 25 1015 50 10000 0.5 0 15:37 18.09.2019
1716 Clouds 25 1015 50 10000 0.5 0 15:18 18.09.2019
1717 Clouds 25 1016 61 10000 2.1 0 14:57 18.09.2019
1718 Clouds 25 1016 53 10000 2.6 190 14:38 18.09.2019
1719 Clouds 25 1016 53 10000 2.6 190 14:20 18.09.2019
1720 Clouds 25 1016 53 10000 2.6 170 13:43 18.09.2019
1721 Clouds 24 1016 53 10000 2.6 170 13:19 18.09.2019
1722 Clouds 24 1017 69 10000 2.1 200 12:55 18.09.2019
1723 Clouds 24 1016 60 10000 2.6 150 12:36 18.09.2019
1724 Clear 24 1017 73 10000 1 0 12:18 18.09.2019
1725 Clear 23 1016 60 10000 2.1 190 11:39 18.09.2019
1726 Clear 23 1016 60 10000 2.1 190 11:19 18.09.2019
1727 Clouds 22 1016 72 10000 2.1 100 10:41 18.09.2019
1728 Clouds 22 1016 72 10000 2.1 100 10:21 18.09.2019
1729 Clear 21 1016 94 10000 1 0 09:58 18.09.2019
1730 Clear 21 1016 94 10000 1 0 09:58 18.09.2019
1731 Clouds 21 1015 82 10000 1.5 90 09:39 18.09.2019
1732 Clouds 20 1015 82 10000 1.5 90 09:21 18.09.2019
1733 Clear 19 1016 93 10000 1 20 08:45 18.09.2019
1734 Clouds 18 1014 93 6000 1.5 360 08:26 18.09.2019
1735 Clouds 18 1014 93 6000 1.5 360 08:26 18.09.2019
1736 Clear 18 1015 100 10000 1.5 50 07:59 18.09.2019
1737 Clear 18 1015 100 10000 1 0 07:40 18.09.2019
1738 Clouds 18 1014 93 6000 1 0 07:22 18.09.2019
1739 Clear 18 1015 100 10000 1.5 20 06:40 18.09.2019
1740 Clear 18 1014 100 10000 1 10 05:50 18.09.2019
1741 Clear 18 1014 100 10000 1 20 04:57 18.09.2019
1742 Clear 18 1014 100 10000 0.5 0 03:19 18.09.2019
1743 Clear 19 1014 93 10000 0.5 0 02:29 18.09.2019
1744 Clear 20 1014 77 10000 1.5 0 01:21 18.09.2019
1745 Clear 20 1014 77 10000 2.1 200 00:49 18.09.2019
1746 Clear 20 1014 77 10000 3.1 210 00:21 18.09.2019
1747 Clear 21 1014 73 10000 2.1 230 23:45 17.09.2019
1748 Clear 21 1014 73 10000 2.1 210 23:22 17.09.2019
1749 Clear 22 1014 69 10000 3.6 200 22:43 17.09.2019
1750 Clear 22 1014 69 10000 3.6 200 22:24 17.09.2019
1751 Clear 23 1013 64 10000 3.6 200 21:55 17.09.2019
1752 Clear 23 1013 61 10000 4.6 200 21:37 17.09.2019
1753 Clouds 23 1013 78 10000 0.5 0 21:19 17.09.2019
1754 Clear 23 1013 61 10000 4.1 200 20:58 17.09.2019
1755 Clouds 24 1012 57 10000 2.1 180 20:40 17.09.2019
1756 Clouds 24 1013 78 10000 0.5 0 20:22 17.09.2019
1757 Clear 25 1012 57 10000 2.1 240 19:58 17.09.2019
1758 Clear 26 1012 54 10000 3.1 250 19:39 17.09.2019
1759 Clear 26 1012 54 10000 3.1 250 19:39 17.09.2019
1760 Clear 26 1012 54 10000 3.1 250 19:19 17.09.2019
1761 Clear 28 1012 54 10000 3.6 250 18:57 17.09.2019
1762 Clouds 28 1013 54 10000 1 0 18:38 17.09.2019
1763 Clouds 28 1012 51 10000 3.6 240 18:20 17.09.2019
1764 Clouds 28 1012 51 10000 3.6 240 18:20 17.09.2019
1765 Clouds 29 1013 51 10000 2.6 190 17:45 17.09.2019
1766 Clouds 29 1012 48 10000 3.1 220 17:20 17.09.2019
1767 Clear 29 1013 54 10000 3.6 220 16:57 17.09.2019
1768 Clouds 29 1013 51 10000 3.1 230 16:39 17.09.2019
1769 Clouds 29 1013 51 10000 3.1 230 16:21 17.09.2019
1770 Clouds 29 1013 51 10000 3.1 230 16:21 17.09.2019
1771 Clouds 29 1013 51 10000 3.1 220 15:40 17.09.2019
1772 Clouds 29 1013 51 10000 3.1 220 15:20 17.09.2019
1773 Clear 28 1014 54 10000 2.6 0 14:56 17.09.2019
1774 Clouds 28 1014 51 10000 3.6 240 14:38 17.09.2019
1775 Clouds 28 1014 51 10000 3.6 240 14:19 17.09.2019
1776 Clear 28 1015 58 10000 2.1 250 13:56 17.09.2019
1777 Clear 28 1015 58 10000 2.1 250 13:56 17.09.2019
1778 Clear 28 1015 47 10000 1 0 13:38 17.09.2019
1779 Clouds 27 1015 57 10000 2.6 220 13:20 17.09.2019
1780 Clouds 26 1015 57 10000 1 0 12:42 17.09.2019
1781 Clouds 26 1015 57 10000 1 0 12:19 17.09.2019
1782 Clear 26 1016 57 10000 1 0 12:19 17.09.2019
1783 Clear 25 1016 69 10000 0.5 0 11:44 17.09.2019
1784 Mist 24 1016 64 10000 1 0 11:26 17.09.2019
1785 Mist 24 1016 78 10000 1 0 10:59 17.09.2019
1786 Mist 23 1016 73 10000 1 0 10:40 17.09.2019
1787 Mist 23 1016 73 10000 1 0 10:20 17.09.2019
1788 Mist 22 1016 82 10000 1.5 360 09:43 17.09.2019
1789 Mist 21 1016 82 10000 1.5 360 09:24 17.09.2019
1790 Fog 20 1016 100 10000 1 40 08:57 17.09.2019
1791 Fog 19 1015 93 10000 1 0 08:39 17.09.2019
1792 Fog 18 1016 93 10000 1 0 08:20 17.09.2019
1793 Fog 18 1015 93 7000 2.6 360 07:42 17.09.2019
1794 Fog 18 1015 93 7000 2.6 360 07:24 17.09.2019
1795 Fog 18 1016 100 8000 1 50 06:52 17.09.2019
1796 Clear 18 1016 100 10000 1 110 06:29 17.09.2019
1797 Clear 18 1016 100 10000 1.5 40 05:51 17.09.2019
1798 Clear 19 1016 100 10000 3.1 350 04:32 17.09.2019
1799 Clear 19 1016 93 10000 0.5 0 03:34 17.09.2019
1800 Clear 19 1017 88 10000 1 0 02:39 17.09.2019
1801 Clear 20 1017 60 10000 2.6 280 01:34 17.09.2019
1802 Clear 21 1017 78 10000 1.5 240 00:43 17.09.2019
1803 Clear 21 1017 78 10000 2.6 240 23:41 16.09.2019
1804 Clear 21 1017 78 10000 2.6 240 23:19 16.09.2019
1805 Clear 22 1017 78 10000 2.1 20 22:56 16.09.2019
1806 Clear 22 1017 78 10000 2.1 20 22:56 16.09.2019
1807 Clear 22 1017 83 10000 1 20 22:38 16.09.2019
1808 Clear 22 1017 83 10000 1 20 22:20 16.09.2019
1809 Clear 22 1017 78 10000 1.5 50 21:55 16.09.2019
1810 Clear 23 1017 78 10000 1.5 50 21:55 16.09.2019
1811 Clear 23 1017 69 10000 0.5 0 21:36 16.09.2019
1812 Clear 23 1017 69 10000 0.5 0 21:18 16.09.2019
1813 Clear 24 1016 61 10000 2.6 220 20:40 16.09.2019
1814 Clear 23 1016 61 10000 2.6 220 20:40 16.09.2019
1815 Clear 24 1016 61 10000 2.6 220 20:40 16.09.2019
1816 Clear 24 1016 61 10000 2.6 220 20:21 16.09.2019
1817 Clear 25 1016 61 10000 2.6 220 19:57 16.09.2019
1818 Clear 25 1016 57 10000 3.1 230 19:39 16.09.2019
1819 Clear 27 1016 78 10000 1.5 190 19:19 16.09.2019
1820 Clouds 27 1016 58 10000 1 0 18:47 16.09.2019
1821 Clear 27 1016 54 10000 2.6 230 18:28 16.09.2019
1822 Clear 28 1016 51 10000 3.1 270 17:58 16.09.2019
1823 Clouds 28 1016 58 10000 2.6 190 17:39 16.09.2019
1824 Clear 28 1017 54 10000 2.6 220 17:21 16.09.2019
1825 Clear 28 1017 51 10000 1.5 0 16:55 16.09.2019
1826 Clear 28 1017 51 10000 1.5 0 16:55 16.09.2019
1827 Clear 28 1017 51 10000 2.1 230 16:36 16.09.2019
1828 Clear 28 1017 51 10000 2.1 230 16:18 16.09.2019
1829 Clear 28 1018 51 10000 2.1 0 15:54 16.09.2019
1830 Clouds 28 1018 58 9000 3.1 190 15:36 16.09.2019
1831 Clear 28 1018 51 10000 2.6 0 15:18 16.09.2019
1832 Clear 28 1019 54 10000 2.1 170 14:40 16.09.2019
1833 Clear 27 1019 54 10000 2.1 170 14:22 16.09.2019
1834 Clear 27 1019 54 10000 1.5 0 13:55 16.09.2019
1835 Clear 27 1019 61 10000 3.1 230 13:37 16.09.2019
1836 Clouds 27 1019 61 9000 2.1 190 13:18 16.09.2019
1837 Clouds 27 1019 61 9000 2.1 190 13:18 16.09.2019
1838 Clouds 26 1020 65 9000 1.5 180 12:40 16.09.2019
1839 Clear 25 1020 61 10000 1.5 180 12:22 16.09.2019
1840 Clouds 25 1020 78 9000 2.1 190 11:46 16.09.2019
1841 Clear 24 1020 69 9000 1 0 11:23 16.09.2019
1842 Clear 24 1020 73 9000 1 0 10:58 16.09.2019
1843 Clear 23 1021 94 9000 1 0 10:38 16.09.2019
1844 Clear 23 1021 94 9000 1 0 10:19 16.09.2019
1845 -273 0 0 0 0 0 09:55 16.09.2019
1846 Clear 21 1020 100 8000 1.5 30 09:36 16.09.2019
1847 Fog 20 1021 100 7000 1.5 20 09:18 16.09.2019
1848 Fog 19 1021 100 6000 1.5 20 08:41 16.09.2019
1849 Fog 19 1021 100 6000 1.5 20 08:41 16.09.2019
1850 Fog 18 1020 100 8000 1.5 10 08:22 16.09.2019
1851 Fog 18 1020 100 10000 2.1 20 07:43 16.09.2019
1852 Fog 18 1020 100 10000 2.1 20 07:24 16.09.2019
1853 Clear 18 1020 100 10000 2.1 30 06:58 16.09.2019
1854 Clear 18 1021 100 6000 0.5 0 06:39 16.09.2019
1855 Clear 18 1020 100 10000 2.1 20 06:21 16.09.2019
1856 Mist 18 1021 100 4000 1 0 05:43 16.09.2019
1857 Clear 18 1021 100 10000 2.1 20 05:21 16.09.2019
1858 Clear 18 1021 100 10000 1 0 03:46 16.09.2019
1859 Clear 20 1022 100 10000 2.6 10 01:31 16.09.2019
1860 Clouds 20 1022 88 10000 0.92 190.726 00:38 16.09.2019
1861 Clear 20 1022 93 10000 2.6 20 00:20 16.09.2019
1862 Clouds 20 1023 83 10000 1 360 23:39 15.09.2019
1863 Clear 21 1022 93 10000 2.6 20 23:20 15.09.2019
1864 Clouds 22 1023 88 10000 0.5 0 22:39 15.09.2019
1865 Clouds 22 1023 88 10000 0.5 0 22:39 15.09.2019
1866 Clear 22 1022 83 10000 0.5 0 22:20 15.09.2019
1867 Clear 22 1022 73 10000 0.5 0 21:58 15.09.2019
1868 Clear 23 1022 69 10000 1.5 140 21:39 15.09.2019
1869 Clear 22 1022 69 10000 1.5 140 21:20 15.09.2019
1870 Clear 22 1022 69 10000 1.5 140 21:20 15.09.2019
1871 Clear 23 1022 61 10000 2.1 210 20:46 15.09.2019
1872 Clear 23 1022 61 10000 2.1 210 20:27 15.09.2019
1873 Clear 24 1022 54 10000 2.6 240 19:59 15.09.2019
1874 Clouds 25 1022 73 10000 1 0 19:41 15.09.2019
1875 Clear 25 1022 51 10000 3.6 230 19:22 15.09.2019
1876 Clouds 27 1022 65 9000 2.1 190 18:42 15.09.2019
1877 Clear 27 1022 51 10000 3.1 230 18:23 15.09.2019
1878 Clear 27 1022 51 10000 2.1 200 17:56 15.09.2019
1879 Clouds 27 1022 54 9000 2.1 190 17:36 15.09.2019
1880 Clear 27 1023 48 10000 2.1 190 17:18 15.09.2019
1881 Clear 27 1023 48 10000 2.1 0 16:42 15.09.2019
1882 Clear 27 1023 48 10000 2.1 0 16:23 15.09.2019
1883 Clear 27 1024 48 10000 1 0 15:58 15.09.2019
1884 Clear 27 1024 48 10000 1.5 240 15:38 15.09.2019
1885 Clear 27 1024 48 10000 1.5 240 15:38 15.09.2019
1886 Clouds 27 1024 57 9000 2.6 190 15:19 15.09.2019
1887 Clear 27 1025 51 10000 1.5 280 14:55 15.09.2019
1888 Clouds 27 1025 61 9000 1.5 180 14:37 15.09.2019
1889 Clouds 26 1025 61 9000 2.1 190 14:19 15.09.2019
1890 Clear 27 1025 54 10000 2.1 280 14:19 15.09.2019
1891 Clouds 26 1026 61 10000 1.5 140 13:44 15.09.2019
1892 Clouds 26 1026 61 10000 1.5 140 13:22 15.09.2019
1893 Clouds 26 1026 61 10000 1.5 140 13:22 15.09.2019
1894 Clear 25 1026 61 10000 1.5 130 12:43 15.09.2019
1895 Clear 24 1026 61 10000 1.5 130 12:25 15.09.2019
1896 Clear 24 1026 61 10000 1.5 130 12:25 15.09.2019
1897 Clouds 24 1027 69 10000 1 0 11:58 15.09.2019
1898 Clouds 24 1027 69 10000 1 0 11:58 15.09.2019
1899 Clouds 23 1027 69 10000 0.5 0 11:40 15.09.2019
1900 Clouds 23 1027 69 10000 0.5 0 11:21 15.09.2019
1901 Clouds 22 1027 78 8000 0.5 0 10:46 15.09.2019
1902 Clouds 22 1027 88 8000 0.5 0 10:23 15.09.2019
1903 Clouds 21 1027 100 8000 1 80 09:58 15.09.2019
1904 Clouds 21 1027 88 8000 1.5 190 09:37 15.09.2019
1905 Clouds 20 1026 88 8000 1 0 09:19 15.09.2019
1906 Clear 19 1026 100 10000 0.81 179.717 08:46 15.09.2019
1907 Clear 19 1026 100 10000 2.1 20 08:26 15.09.2019
1908 Clouds 18 1027 94 7000 1.5 20 07:48 15.09.2019
1909 Clouds 18 1026 100 10000 2.6 20 07:26 15.09.2019
1910 Clouds 18 1026 94 7000 0.5 160 06:42 15.09.2019
1911 Clear 19 1027 100 10000 2.6 20 03:31 15.09.2019
1912 Clear 19 1027 100 10000 2.6 20 02:33 15.09.2019
1913 Clouds 19 1028 94 10000 0.5 0 01:39 15.09.2019
1914 Clouds 19 1028 94 10000 1.5 10 01:19 15.09.2019
1915 Clouds 19 1028 88 10000 1 10 00:41 15.09.2019
1916 Clear 19 1027 88 10000 1.5 10 00:21 15.09.2019
1917 Clear 19 1028 88 10000 1 20 23:57 14.09.2019
1918 Clouds 20 1028 94 10000 0.5 0 23:39 14.09.2019
1919 Clear 20 1028 93 10000 2.1 20 23:21 14.09.2019
1920 Clear 20 1027 88 10000 1.5 40 22:58 14.09.2019
1921 Clouds 21 1028 94 10000 0.5 0 22:39 14.09.2019
1922 Clouds 21 1028 88 10000 0.5 0 22:19 14.09.2019
1923 Clouds 22 1028 83 10000 0.5 0 21:40 14.09.2019
1924 Clouds 22 1028 83 10000 1.84 139.203 21:21 14.09.2019
1925 Clear 22 1027 57 10000 2.1 250 20:59 14.09.2019
1926 Clear 22 1027 57 10000 2.1 250 20:59 14.09.2019
1927 Clouds 23 1027 78 10000 0.5 0 20:40 14.09.2019
1928 Clear 23 1026 60 10000 1.5 200 20:22 14.09.2019
1929 Clear 24 1026 54 10000 2.6 210 19:51 14.09.2019
1930 Clear 26 1026 54 10000 3.1 210 19:23 14.09.2019
1931 Clear 25 1026 54 10000 3.1 210 19:23 14.09.2019
1932 Clear 26 1026 51 10000 3.1 200 18:58 14.09.2019
1933 Clouds 27 1026 57 10000 1.5 200 18:39 14.09.2019
1934 Clear 27 1026 48 10000 1 0 18:20 14.09.2019
1935 Clear 27 1026 48 10000 1 0 17:55 14.09.2019
1936 Clear 27 1027 48 10000 1.5 230 17:37 14.09.2019
1937 Clear 27 1027 48 10000 1.5 230 17:18 14.09.2019
1938 Clear 28 1027 51 10000 2.6 210 16:42 14.09.2019
1939 Clear 28 1027 51 10000 2.6 210 16:19 14.09.2019
1940 Clouds 28 1027 57 10000 3.6 190 15:42 14.09.2019
1941 Clear 28 1028 51 10000 2.6 230 15:23 14.09.2019
1942 Clear 28 1028 51 10000 2.6 230 15:23 14.09.2019
1943 Clear 27 1028 48 10000 2.1 150 14:58 14.09.2019
1944 Clear 27 1028 51 10000 1.5 200 14:39 14.09.2019
1945 Clear 27 1028 51 10000 1.5 200 14:39 14.09.2019
1946 Clear 27 1028 51 10000 1.5 200 14:18 14.09.2019
1947 Clouds 27 1029 57 10000 2.1 190 13:46 14.09.2019
1948 Clear 26 1029 57 10000 2.1 190 13:21 14.09.2019
1949 Clouds 26 1029 64 10000 2.1 180 12:46 14.09.2019
1950 Clear 25 1029 53 10000 1.5 0 12:23 14.09.2019
1951 Clouds 24 1030 69 10000 1 0 11:41 14.09.2019
1952 Clear 24 1030 61 10000 1 0 11:20 14.09.2019
1953 Clear 23 1030 77 10000 1.21 160.155 10:40 14.09.2019
1954 Clear 23 1030 77 10000 1.21 160.155 10:40 14.09.2019
1955 Clear 22 1030 82 10000 0.5 0 10:22 14.09.2019
1956 Clear 22 1029 100 10000 2.1 20 09:58 14.09.2019
1957 Clear 21 1029 100 10000 2.1 20 09:40 14.09.2019
1958 Clear 20 1029 100 10000 2.1 20 09:21 14.09.2019
1959 Clear 20 1029 100 10000 2.1 20 09:21 14.09.2019
1960 Clear 19 1029 100 10000 1 20 08:56 14.09.2019
1961 Clear 19 1029 100 10000 1 20 08:56 14.09.2019
1962 Clear 18 1030 100 10000 0.5 0 08:37 14.09.2019
1963 Fog 17 1029 100 10000 2.6 10 08:18 14.09.2019
1964 Clear 17 1029 100 10000 1 10 07:42 14.09.2019
1965 Clear 16 1029 100 10000 1.5 0 07:20 14.09.2019
1966 Clear 17 1028 100 10000 2.1 20 06:32 14.09.2019
1967 Mist 17 1028 100 10000 1.5 30 05:27 14.09.2019
1968 Clear 18 1029 100 10000 2.6 20 03:53 14.09.2019
1969 Clear 18 1029 100 10000 2.6 20 02:57 14.09.2019
1970 Clear 18 1029 100 10000 2.1 360 02:23 14.09.2019
1971 Clear 18 1029 93 10000 1.5 50 01:42 14.09.2019
1972 Clear 19 1029 93 10000 1.5 50 01:18 14.09.2019
1973 Clear 19 1029 93 10000 0.5 0 00:39 14.09.2019
1974 Clear 19 1029 88 10000 3.1 10 00:21 14.09.2019
1975 Clear 19 1029 88 10000 3.1 10 00:21 14.09.2019
1976 Clear 19 1029 82 10000 2.6 10 23:38 13.09.2019
1977 Clear 19 1030 93 10000 1 350 23:38 13.09.2019
1978 Clear 19 1029 82 10000 2.6 10 23:19 13.09.2019
1979 Clear 20 1029 77 10000 2.1 10 22:59 13.09.2019
1980 Clear 20 1030 88 10000 1 10 22:39 13.09.2019
1981 Clear 20 1029 64 10000 2.1 280 22:20 13.09.2019
1982 Clear 21 1029 73 10000 1 0 21:55 13.09.2019
1983 Clear 20 1029 88 10000 0.5 0 21:37 13.09.2019
1984 Clear 22 1028 53 10000 2.1 260 21:18 13.09.2019
1985 Clear 22 1028 53 10000 2.1 230 20:55 13.09.2019
1986 Clear 22 1028 57 10000 1.5 230 20:36 13.09.2019
1987 Clouds 23 1028 73 10000 0.5 0 20:18 13.09.2019
1988 Clouds 25 1028 73 10000 1 0 19:42 13.09.2019
1989 Clear 26 1028 47 10000 2.1 240 19:21 13.09.2019
1990 Clouds 27 1028 54 10000 1.5 210 18:57 13.09.2019
1991 Clear 27 1028 45 10000 2.1 250 18:37 13.09.2019
1992 Clear 27 1028 45 10000 2.1 250 18:18 13.09.2019
1993 Clouds 27 1028 51 10000 1.5 190 17:41 13.09.2019
1994 Clear 27 1028 45 10000 2.6 220 17:19 13.09.2019
1995 Clouds 28 1029 51 10000 2.1 190 16:43 13.09.2019
1996 Clear 28 1028 42 10000 2.6 260 16:23 13.09.2019
1997 Clear 28 1029 44 10000 2.1 0 15:59 13.09.2019
1998 Clouds 27 1029 51 10000 3.1 190 15:40 13.09.2019
1999 Clouds 27 1029 42 10000 2.6 220 15:20 13.09.2019
2000 Clouds 27 1030 54 10000 3.1 190 14:44 13.09.2019
2001 Clear 27 1029 44 10000 3.1 120 14:22 13.09.2019
2002 -273 0 0 0 0 0 13:56 13.09.2019
2003 Clouds 26 1030 53 10000 2.6 190 13:37 13.09.2019
2004 Clouds 26 1030 57 10000 2.1 190 13:18 13.09.2019
2005 Clouds 25 1031 57 10000 1 0 12:41 13.09.2019
2006 Clear 25 1030 53 10000 2.1 20 12:23 13.09.2019
2007 Clear 24 1031 57 10000 1.5 0 11:56 13.09.2019
2008 Clear 23 1031 56 10000 1.5 0 11:20 13.09.2019
2009 Clouds 22 1032 77 10000 1 0 10:40 13.09.2019
2010 Clear 22 1030 64 10000 2.1 340 10:20 13.09.2019
2011 Clear 21 1032 82 10000 1.43 113.077 09:46 13.09.2019
2012 Clear 20 1030 77 10000 2.6 350 09:25 13.09.2019
2013 Clear 19 1031 100 10000 3.6 10 08:59 13.09.2019
2014 Clear 18 1030 88 10000 2.6 360 08:40 13.09.2019
2015 Clear 17 1030 88 10000 2.6 360 08:21 13.09.2019
2016 Clear 16 1032 93 10000 1.5 10 07:52 13.09.2019
2017 Clear 16 1030 93 10000 3.1 350 07:34 13.09.2019
2018 Clear 16 1030 100 10000 3.1 360 06:48 13.09.2019
2019 Clear 15 1031 100 10000 0.5 0 05:49 13.09.2019
2020 Clear 17 1030 93 10000 2.1 20 04:57 13.09.2019
2021 Clear 17 1030 100 10000 1 130 03:40 13.09.2019
2022 Clear 18 1029 93 10000 2.6 20 02:20 13.09.2019
2023 Clear 18 1029 93 10000 3.1 10 01:52 13.09.2019
2024 Clear 18 1029 93 10000 3.1 10 01:33 13.09.2019
2025 Clear 18 1029 93 10000 3.1 10 01:33 13.09.2019
2026 Clear 18 1030 100 10000 1 10 00:39 13.09.2019
2027 Clear 19 1029 88 10000 1 0 23:59 12.09.2019
2028 Clear 19 1029 88 10000 3.1 10 23:37 12.09.2019
2029 Clear 19 1029 82 10000 2.1 10 22:59 12.09.2019
2030 Clear 19 1029 72 10000 2.1 20 22:41 12.09.2019
2031 Clear 19 1030 88 10000 1 10 22:41 12.09.2019
2032 Clear 20 1029 72 10000 2.1 20 22:23 12.09.2019
2033 Clear 20 1029 64 10000 0.5 0 21:57 12.09.2019
2034 Clear 20 1030 88 10000 0.5 0 21:38 12.09.2019
2035 Clear 21 1029 60 10000 1.5 190 21:38 12.09.2019
2036 Clear 21 1029 60 10000 1.5 190 21:19 12.09.2019
2037 Clear 22 1028 57 10000 3.1 200 20:55 12.09.2019
2038 Clear 22 1027 57 10000 1.5 160 20:37 12.09.2019
2039 Clear 23 1027 57 10000 1.5 160 20:19 12.09.2019
2040 Clear 23 1027 57 10000 1.5 160 20:19 12.09.2019
2041 Clear 25 1029 68 10000 0.5 0 19:41 12.09.2019
2042 Clear 25 1027 42 10000 2.6 230 19:20 12.09.2019
2043 Clear 27 1028 44 10000 1.5 200 18:58 12.09.2019
2044 Clear 27 1027 42 10000 1 0 18:37 12.09.2019
2045 Clear 27 1028 47 10000 2.1 190 18:18 12.09.2019
2046 Clear 27 1028 48 10000 2.1 190 17:41 12.09.2019
2047 Clear 27 1028 39 10000 1.5 0 17:22 12.09.2019
2048 Clear 27 1028 39 10000 1 0 16:58 12.09.2019
2049 Clear 27 1028 39 10000 1 0 16:58 12.09.2019
2050 Clear 27 1028 39 10000 1 0 16:58 12.09.2019
2051 Clear 27 1028 39 10000 1 0 16:58 12.09.2019
2052 Clear 28 1028 44 10000 2.1 190 16:40 12.09.2019
2053 Clear 27 1028 39 10000 2.1 200 16:20 12.09.2019
2054 Clear 27 1029 44 10000 3.1 190 15:42 12.09.2019
2055 Haze 27 1028 39 10000 2.6 120 15:24 12.09.2019
2056 Clear 26 1029 44 10000 1.5 220 14:48 12.09.2019
2057 Clear 26 1029 41 10000 1.5 0 14:23 12.09.2019
2058 Clear 26 1029 47 10000 1.5 180 13:59 12.09.2019
2059 Clear 26 1029 47 10000 2.1 130 13:39 12.09.2019
2060 Clear 25 1030 47 10000 1.5 170 13:20 12.09.2019
2061 Clear 25 1029 53 10000 1.5 0 12:48 12.09.2019
2062 Clear 25 1029 53 10000 1.5 0 12:48 12.09.2019
2063 Clear 24 1029 53 10000 1.5 0 12:19 12.09.2019
2064 Clear 23 1030 57 10000 0.5 0 11:58 12.09.2019
2065 Clear 23 1030 56 10000 1.5 190 11:39 12.09.2019
2066 Clear 23 1029 56 10000 1.5 0 11:21 12.09.2019
2067 Clear 22 1029 64 10000 0.5 0 10:48 12.09.2019
2068 Clear 21 1028 64 10000 1.5 160 10:26 12.09.2019
2069 Clear 20 1029 82 10000 0.5 0 09:56 12.09.2019
2070 Clear 20 1029 82 10000 0.5 0 09:38 12.09.2019
2071 Clear 18 1028 93 10000 1 0 09:18 12.09.2019
2072 Clear 17 1026 87 10000 2.1 360 08:43 12.09.2019
2073 Clear 16 1026 87 10000 2.1 360 08:22 12.09.2019
2074 Clear 15 1028 100 10000 1 0 07:46 12.09.2019
2075 Clear 14 1025 93 10000 2.6 340 07:20 12.09.2019
2076 Clear 15 1026 100 10000 2.1 20 06:51 12.09.2019
2077 Clear 15 1026 100 10000 3.6 350 06:31 12.09.2019
2078 Clear 15 1026 100 10000 3.6 30 05:52 12.09.2019
2079 Clear 15 1026 100 10000 2.1 60 05:34 12.09.2019
2080 Clear 15 1026 100 10000 1 0 04:41 12.09.2019
2081 Clear 16 1025 100 10000 1.5 20 02:59 12.09.2019
2082 Clear 17 1025 87 10000 2.1 20 01:37 12.09.2019
2083 Clear 17 1024 82 10000 2.1 10 01:19 12.09.2019
2084 Clouds 17 1025 93 10000 0.76 307.875 00:44 12.09.2019
2085 Clear 17 1024 88 10000 2.6 20 00:24 12.09.2019
2086 Clear 18 1024 87 10000 2.6 10 23:42 11.09.2019
2087 Clear 18 1024 87 10000 2.6 10 23:24 11.09.2019
2088 Clear 18 1024 87 10000 2.6 10 23:24 11.09.2019
2089 Clear 18 1024 77 10000 2.1 10 22:57 11.09.2019
2090 Clear 18 1024 88 10000 0.5 0 22:37 11.09.2019
2091 Clear 19 1024 82 10000 0.5 0 22:19 11.09.2019
2092 Clear 20 1023 56 10000 1.5 190 21:43 11.09.2019
2093 Clear 20 1023 56 10000 1.5 190 21:25 11.09.2019
2094 Clear 20 1022 53 10000 2.1 210 20:58 11.09.2019
2095 Clear 21 1023 77 10000 0.5 330 20:40 11.09.2019
2096 Clouds 21 1021 56 10000 1 160 20:20 11.09.2019
2097 Clear 22 1022 44 10000 1.5 220 19:58 11.09.2019
2098 -273 0 0 0 0 0 19:40 11.09.2019
2099 Clear 23 1022 73 10000 1 0 19:21 11.09.2019
2100 Clear 24 1021 44 10000 2.6 250 18:59 11.09.2019
2101 Clear 24 1021 44 10000 2.6 250 18:59 11.09.2019
2102 Clear 24 1022 60 10000 1.5 180 18:40 11.09.2019
2103 Clear 24 1021 57 10000 1 0 18:22 11.09.2019
2104 Clear 25 1021 44 10000 3.6 230 17:56 11.09.2019
2105 Clear 25 1021 50 10000 2.1 200 17:38 11.09.2019
2106 Clouds 25 1020 38 10000 2.1 240 17:38 11.09.2019
2107 Clouds 25 1020 38 10000 2.1 240 17:20 11.09.2019
2108 Clear 26 1021 41 10000 2.6 190 16:48 11.09.2019
2109 Clouds 26 1020 36 10000 2.6 230 16:26 11.09.2019
2110 Clear 25 1021 47 10000 2.6 0 15:59 11.09.2019
2111 Clear 25 1021 41 10000 3.1 250 15:40 11.09.2019
2112 Clouds 25 1021 41 10000 2.1 0 15:19 11.09.2019
2113 Clear 25 1021 41 10000 3.1 250 14:55 11.09.2019
2114 Clear 25 1021 41 10000 3.1 230 14:36 11.09.2019
2115 Clear 25 1021 41 10000 3.1 230 14:18 11.09.2019
2116 Clear 24 1021 44 10000 2.6 220 13:38 11.09.2019
2117 Clear 24 1021 44 10000 2.6 220 13:38 11.09.2019
2118 Clear 24 1021 44 10000 2.6 220 13:20 11.09.2019
2119 Clear 24 1021 44 10000 2.6 220 13:20 11.09.2019
2120 Clear 23 1022 49 10000 2.1 260 12:56 11.09.2019
2121 Clear 23 1022 49 10000 1.5 190 12:38 11.09.2019
2122 Clouds 23 1021 43 10000 2.6 240 12:20 11.09.2019
2123 Clear 22 1022 60 10000 1.5 180 11:39 11.09.2019
2124 Clouds 21 1021 52 10000 2.1 330 11:21 11.09.2019
2125 Clouds 21 1021 52 10000 2.1 330 11:21 11.09.2019
2126 Clouds 21 1021 52 10000 2.1 330 11:21 11.09.2019
2127 Clear 21 1022 64 10000 4.1 10 10:56 11.09.2019
2128 Clear 20 1022 68 10000 1 0 10:38 11.09.2019
2129 Clear 19 1022 72 10000 0.5 0 10:19 11.09.2019
2130 Clouds 18 1022 77 10000 0.5 0 09:39 11.09.2019
2131 Clouds 17 1021 77 10000 3.1 340 09:19 11.09.2019
2132 Clouds 16 1021 93 10000 2.1 20 08:55 11.09.2019
2133 Clear 16 1022 100 10000 1 150 08:36 11.09.2019
2134 Clouds 14 1022 100 10000 0.5 0 08:18 11.09.2019
2135 Clouds 14 1022 93 10000 1.5 350 07:39 11.09.2019
2136 Clouds 13 1020 87 10000 2.1 330 07:21 11.09.2019
2137 Clear 14 1021 100 10000 1 0 06:46 11.09.2019
2138 Clear 14 1020 93 10000 1.5 10 06:24 11.09.2019
2139 Clouds 14 1020 93 10000 0.5 0 05:36 11.09.2019
2140 Clouds 15 1020 87 10000 1 0 04:59 11.09.2019
2141 Clear 15 1020 82 10000 1 0 04:21 11.09.2019
2142 Clear 15 1020 82 10000 2.6 10 03:29 11.09.2019
2143 Clear 16 1020 87 10000 3.1 10 02:32 11.09.2019
2144 Clear 16 1020 87 10000 2.6 10 01:33 11.09.2019
2145 Clear 16 1020 82 10000 3.1 10 00:37 11.09.2019
2146 Clear 16 1020 82 10000 3.1 10 00:19 11.09.2019
2147 Clouds 17 1021 82 10000 0.5 0 23:40 10.09.2019
2148 Clear 17 1020 77 10000 2.6 10 23:22 10.09.2019
2149 Clear 17 1019 72 10000 3.1 360 22:57 10.09.2019
2150 Clear 17 1019 72 10000 3.1 10 22:37 10.09.2019
2151 Clear 17 1019 72 10000 3.1 10 22:18 10.09.2019
2152 Clouds 17 1019 77 10000 3.1 360 21:54 10.09.2019
2153 Clouds 17 1019 72 10000 3.1 350 21:36 10.09.2019
2154 Clouds 18 1019 72 10000 3.1 350 21:18 10.09.2019
2155 Clouds 18 1019 72 10000 3.1 350 21:18 10.09.2019
2156 Clouds 18 1018 72 10000 2.6 20 20:54 10.09.2019
2157 Clouds 18 1018 72 10000 2.6 20 20:54 10.09.2019
2158 -273 0 0 0 0 0 20:36 10.09.2019
2159 Clouds 18 1017 64 10000 1 0 20:18 10.09.2019
2160 -273 0 0 0 0 0 19:55 10.09.2019
2161 Clouds 19 1018 68 10000 2.1 360 19:55 10.09.2019
2162 Clouds 19 1018 63 10000 0.5 0 19:36 10.09.2019
2163 Clouds 19 1018 56 10000 0.5 0 19:18 10.09.2019
2164 Clear 20 1017 64 10000 3.1 340 19:18 10.09.2019
2165 Clouds 20 1017 56 10000 3.1 310 18:42 10.09.2019
2166 Clouds 20 1018 56 10000 2.6 190 18:22 10.09.2019
2167 Clouds 20 1017 56 10000 3.6 310 17:56 10.09.2019
2168 Clouds 21 1018 49 10000 2.1 240 17:38 10.09.2019
2169 Rain 21 1017 64 10000 4.1 330 17:19 10.09.2019
2170 Rain 21 1017 64 10000 4.1 330 16:56 10.09.2019
2171 Rain 21 1017 56 10000 2.6 340 16:37 10.09.2019
2172 Rain 21 1017 64 10000 2.6 360 16:19 10.09.2019
2173 Rain 21 1017 64 10000 2.6 360 15:43 10.09.2019
2174 Clouds 21 1017 56 10000 1.5 0 15:22 10.09.2019
2175 Clouds 21 1017 56 10000 1.5 0 15:22 10.09.2019
2176 Clouds 21 1017 56 10000 1.5 0 15:22 10.09.2019
2177 Clouds 21 1018 64 10000 1 0 14:55 10.09.2019
2178 Clouds 21 1017 56 10000 2.1 40 14:37 10.09.2019
2179 Clouds 21 1017 56 10000 2.1 40 14:19 10.09.2019
2180 Clouds 21 1017 56 10000 2.1 40 14:19 10.09.2019
2181 Clouds 21 1017 60 10000 3.1 350 13:44 10.09.2019
2182 Clouds 21 1017 60 10000 3.1 350 13:22 10.09.2019
2183 Clouds 20 1018 60 10000 3.1 30 12:51 10.09.2019
2184 Clouds 20 1017 63 10000 3.1 360 12:28 10.09.2019
2185 Clouds 20 1017 63 10000 2.6 330 11:59 10.09.2019
2186 Clouds 19 1017 63 10000 1 0 11:40 10.09.2019
2187 Clouds 19 1018 63 10000 2.6 180 11:21 10.09.2019
2188 Clouds 18 1016 67 10000 2.6 20 10:43 10.09.2019
2189 Clouds 17 1017 72 10000 1.5 20 10:21 10.09.2019
2190 Clouds 17 1017 72 10000 1.5 20 09:59 10.09.2019
2191 Clouds 16 1016 72 10000 1.5 10 09:41 10.09.2019
2192 Clouds 16 1017 67 10000 2.32 108.895 09:19 10.09.2019
2193 Clouds 16 1016 82 10000 3.1 20 09:19 10.09.2019
2194 Clouds 15 1017 82 10000 0.5 0 08:47 10.09.2019
2195 Clouds 14 1015 82 10000 3.1 10 08:28 10.09.2019
2196 -273 0 0 0 0 0 07:55 10.09.2019
2197 Clouds 14 1017 87 10000 0.5 0 07:55 10.09.2019
2198 Clouds 14 1017 87 10000 0.5 0 07:55 10.09.2019
2199 Clouds 14 1017 87 10000 0.5 0 07:55 10.09.2019
2200 Clouds 13 1015 76 10000 2.6 30 07:37 10.09.2019
2201 Clouds 13 1015 76 10000 2.6 70 07:18 10.09.2019
2202 Clouds 14 1015 82 10000 2.6 30 06:39 10.09.2019
2203 Clouds 14 1015 76 10000 2.6 10 06:18 10.09.2019
2204 Clouds 14 1016 82 10000 1 0 03:58 10.09.2019
2205 Clouds 15 1015 72 10000 2.6 20 02:38 10.09.2019
2206 Clouds 15 1015 72 10000 2.6 20 02:38 10.09.2019
2207 Clouds 15 1015 72 10000 2.6 20 02:38 10.09.2019
2208 Clouds 15 1016 76 10000 1 0 02:19 10.09.2019
2209 Clouds 15 1016 82 10000 1 0 01:45 10.09.2019
2210 Clear 14 1015 76 10000 2.6 10 01:21 10.09.2019
2211 Clear 14 1015 76 10000 2.6 10 01:21 10.09.2019
2212 Clear 15 1016 82 10000 0.5 0 00:28 10.09.2019
2213 Clouds 15 1014 72 10000 2.1 10 23:48 09.09.2019
2214 Clear 15 1015 76 10000 0.5 0 23:20 09.09.2019
2215 Clouds 15 1014 72 10000 2.1 10 23:20 09.09.2019
2216 Clear 15 1014 67 10000 2.1 20 22:57 09.09.2019
2217 Clear 15 1014 76 10000 1.5 30 22:39 09.09.2019
2218 Clear 15 1014 76 10000 1.5 30 22:20 09.09.2019
2219 Clear 16 1014 67 10000 1 20 21:58 09.09.2019
2220 Clear 16 1014 63 10000 1 30 21:39 09.09.2019
2221 Clear 17 1014 63 10000 1 30 21:20 09.09.2019
2222 Clear 17 1014 67 10000 1.5 0 20:57 09.09.2019
2223 Clouds 18 1012 37 10000 1 330 20:37 09.09.2019
2224 Clear 18 1013 67 10000 1 180 20:19 09.09.2019
2225 Clear 19 1013 26 10000 1 0 19:58 09.09.2019
2226 Clouds 20 1012 30 10000 1.5 300 19:39 09.09.2019
2227 Clear 21 1013 30 10000 3.6 250 19:19 09.09.2019
2228 Clear 22 1013 35 10000 1 250 18:57 09.09.2019
2229 Clouds 22 1012 30 10000 2.1 240 18:39 09.09.2019
2230 Clouds 22 1012 30 10000 2.6 240 18:21 09.09.2019
2231 Clear 22 1012 28 10000 3.6 250 17:58 09.09.2019
2232 Clouds 23 1012 28 10000 2.1 190 17:40 09.09.2019
2233 Clouds 23 1012 33 10000 2.1 220 17:21 09.09.2019
2234 Clear 23 1012 27 10000 3.6 230 16:55 09.09.2019
2235 Clouds 23 1012 27 10000 3.6 200 16:37 09.09.2019
2236 Clouds 23 1012 27 10000 3.6 200 16:18 09.09.2019
2237 Clear 23 1012 27 10000 3.1 210 15:55 09.09.2019
2238 Clear 23 1012 27 10000 3.1 210 15:55 09.09.2019
2239 Clouds 23 1012 25 10000 3.6 200 15:36 09.09.2019
2240 Clear 23 1013 25 10000 3.1 260 15:18 09.09.2019
2241 Clear 23 1013 25 10000 3.1 260 14:54 09.09.2019
2242 Clouds 23 1012 33 10000 2.6 210 14:36 09.09.2019
2243 Clear 22 1013 23 10000 2.1 0 14:18 09.09.2019
2244 Clouds 22 1013 30 10000 3.1 210 13:43 09.09.2019
2245 Clear 22 1013 35 10000 2.6 250 13:19 09.09.2019
2246 Clear 21 1013 35 10000 3.1 310 12:57 09.09.2019
2247 Clear 21 1013 42 10000 3.1 250 12:38 09.09.2019
2248 Clear 20 1013 35 10000 4.6 10 12:19 09.09.2019
2249 Clear 20 1013 52 10000 3.1 240 11:43 09.09.2019
2250 Clear 19 1013 52 10000 3.1 240 11:20 09.09.2019
2251 Clear 18 1013 63 10000 2.6 300 10:57 09.09.2019
2252 Clear 18 1012 55 10000 2.1 280 10:39 09.09.2019
2253 Clear 17 1012 72 10000 3.1 320 10:19 09.09.2019
2254 Clear 16 1013 67 10000 1 0 09:49 09.09.2019
2255 Clear 14 1012 76 10000 2.6 300 09:30 09.09.2019
2256 Clear 13 1012 93 10000 2.6 300 08:57 09.09.2019
2257 Clear 12 1011 87 10000 3.1 290 08:38 09.09.2019
2258 Fog 11 1013 100 10000 1 0 08:19 09.09.2019
2259 Fog 11 1013 100 10000 1 0 08:19 09.09.2019
2260 Fog 10 1011 93 10000 1.5 270 07:41 09.09.2019
2261 Fog 10 1011 93 10000 1.5 270 07:21 09.09.2019
2262 Clear 10 1012 100 10000 0.5 0 06:54 09.09.2019
2263 Clear 10 1012 100 10000 0.5 0 06:54 09.09.2019
2264 Clear 10 1011 100 10000 2.1 40 06:27 09.09.2019
2265 Clear 12 1012 93 10000 0.5 0 03:21 09.09.2019
2266 Clear 12 1011 87 10000 2.6 10 02:42 09.09.2019
2267 Clear 12 1011 93 10000 2.6 360 01:25 09.09.2019
2268 Rain 13 1012 72 10000 2.6 280 00:24 09.09.2019
2269 Rain 13 1012 87 10000 1.5 230 23:56 08.09.2019
2270 Rain 13 1012 87 10000 1.5 230 23:56 08.09.2019
2271 Thunderstorm 13 1012 77 10000 2.6 270 23:38 08.09.2019
2272 Thunderstorm 14 1012 87 10000 1.5 20 23:19 08.09.2019
2273 Thunderstorm 14 1012 82 10000 5.1 250 22:41 08.09.2019
2274 Thunderstorm 14 1012 82 10000 5.1 250 22:23 08.09.2019
2275 Thunderstorm 14 1012 82 10000 5.1 250 22:23 08.09.2019
2276 Thunderstorm 14 1012 72 10000 3.1 240 21:59 08.09.2019
2277 Thunderstorm 15 1011 82 10000 2.6 260 21:40 08.09.2019
2278 Thunderstorm 14 1011 82 10000 2.6 260 21:40 08.09.2019
2279 Thunderstorm 15 1011 82 10000 2.6 260 21:22 08.09.2019
2280 Clear 15 1011 77 10000 1 0 20:55 08.09.2019
2281 Rain 15 1010 87 10000 3.6 140 20:37 08.09.2019
2282 Rain 16 1011 72 10000 1.5 210 20:18 08.09.2019
2283 Rain 15 1010 67 10000 1.5 0 19:39 08.09.2019
2284 Rain 16 1010 67 10000 1.5 0 19:21 08.09.2019
2285 Rain 17 1010 77 10000 3.1 150 18:59 08.09.2019
2286 Rain 17 1010 67 10000 1.5 310 18:39 08.09.2019
2287 Rain 18 1010 63 10000 1.5 0 18:20 08.09.2019
2288 Rain 18 1010 43 10000 5.7 290 17:59 08.09.2019
2289 Rain 19 1010 43 10000 4.1 270 17:37 08.09.2019
2290 Rain 19 1010 63 10000 1 0 17:19 08.09.2019
2291 Rain 19 1010 63 10000 1 0 17:19 08.09.2019
2292 Rain 19 1010 63 10000 1 0 17:19 08.09.2019
2293 Rain 19 1010 63 10000 1 0 17:19 08.09.2019
2294 Rain 19 1010 63 10000 1 0 17:19 08.09.2019
2295 Rain 20 1010 46 10000 2.1 0 16:56 08.09.2019
2296 Rain 20 1010 46 10000 3.6 250 16:37 08.09.2019
2297 Rain 20 1011 55 10000 2.1 0 16:19 08.09.2019
2298 Clouds 20 1011 56 10000 2.1 0 15:42 08.09.2019
2299 Clouds 20 1011 55 10000 2.1 0 15:22 08.09.2019
2300 Clouds 20 1011 49 10000 2.6 320 14:59 08.09.2019
2301 Clouds 20 1011 52 10000 1 0 14:39 08.09.2019
2302 Clouds 20 1011 52 10000 1 0 14:39 08.09.2019
2303 Clouds 20 1011 52 10000 1 0 14:21 08.09.2019
2304 Clouds 19 1011 52 10000 2.1 360 13:57 08.09.2019
2305 Clouds 19 1011 52 10000 1.5 0 13:39 08.09.2019
2306 Clouds 19 1011 59 10000 3.1 120 13:21 08.09.2019
2307 Clouds 19 1012 55 10000 1.5 310 12:54 08.09.2019
2308 Clear 19 1012 59 10000 2.6 0 12:54 08.09.2019
2309 Clear 18 1012 55 10000 2.6 30 12:36 08.09.2019
2310 Clear 18 1012 55 10000 5.1 20 12:18 08.09.2019
2311 Clear 18 1012 68 10000 2.1 350 11:54 08.09.2019
2312 Clear 17 1013 77 10000 3.1 10 11:36 08.09.2019
2313 Rain 16 1013 87 10000 3.1 360 11:18 08.09.2019
2314 Rain 15 1013 93 10000 3.6 350 10:41 08.09.2019
2315 Rain 14 1013 93 10000 3.6 350 10:22 08.09.2019
2316 Rain 14 1013 100 10000 4.6 20 09:55 08.09.2019
2317 Rain 14 1013 100 10000 4.6 20 09:55 08.09.2019
2318 Rain 13 1012 100 10000 5.7 50 09:37 08.09.2019
2319 Rain 13 1014 93 9000 2.1 70 09:19 08.09.2019
2320 Rain 13 1014 100 10000 4.1 30 08:39 08.09.2019
2321 Rain 13 1014 100 10000 4.1 30 08:19 08.09.2019
2322 Rain 13 1013 93 10000 8.2 350 07:41 08.09.2019
2323 Rain 13 1015 100 4500 1 0 07:21 08.09.2019
2324 Rain 13 1013 93 10000 7.7 20 06:57 08.09.2019
2325 Rain 13 1013 93 10000 6.2 360 06:34 08.09.2019
2326 Rain 14 1013 72 10000 9.3 360 05:39 08.09.2019
2327 Rain 15 1013 87 10000 2.6 40 04:27 08.09.2019
2328 Clouds 16 1014 82 10000 4.1 340 03:23 08.09.2019
2329 Rain 17 1014 82 10000 6.7 340 02:36 08.09.2019
2330 Rain 17 1015 77 10000 4.1 300 01:53 08.09.2019
2331 Clouds 17 1014 82 10000 3.1 350 01:25 08.09.2019
2332 Clouds 18 1015 82 10000 1 0 00:47 08.09.2019
2333 Clouds 18 1015 82 10000 1 0 00:28 08.09.2019
2334 Clear 18 1014 82 10000 2.1 10 23:39 07.09.2019
2335 Clouds 18 1015 82 10000 0.5 0 23:21 07.09.2019
2336 Clear 18 1014 82 10000 2.1 20 22:59 07.09.2019
2337 Clear 18 1014 77 10000 1.5 10 22:40 07.09.2019
2338 Clear 18 1014 77 10000 1.5 10 22:22 07.09.2019
2339 Clear 18 1014 68 10000 2.1 350 21:54 07.09.2019
2340 Clear 19 1014 68 10000 1 0 21:36 07.09.2019
2341 Clear 19 1015 72 10000 0.5 0 21:18 07.09.2019
2342 Clear 19 1014 56 10000 2.1 330 20:39 07.09.2019
2343 Clouds 20 1014 72 10000 1.5 350 20:20 07.09.2019
2344 Clear 19 1014 56 10000 2.1 330 20:20 07.09.2019
2345 Clear 20 1014 60 10000 3.1 310 19:56 07.09.2019
2346 Clear 21 1014 64 10000 2.6 340 19:37 07.09.2019
2347 Clear 22 1013 56 10000 2.1 10 19:19 07.09.2019
2348 Clear 23 1013 56 10000 2.1 10 18:58 07.09.2019
2349 Clear 23 1014 53 10000 2.1 300 18:38 07.09.2019
2350 Clear 23 1014 53 10000 2.1 300 18:20 07.09.2019
2351 Clear 23 1014 50 10000 1.5 280 17:56 07.09.2019
2352 Clear 23 1014 49 10000 2.1 290 17:38 07.09.2019
2353 Clear 23 1014 53 10000 2.1 220 17:18 07.09.2019
2354 Clouds 23 1014 46 10000 3.1 290 16:43 07.09.2019
2355 Clouds 23 1014 46 10000 3.1 290 16:43 07.09.2019
2356 Clear 23 1014 53 10000 2.6 250 16:43 07.09.2019
2357 Clouds 23 1014 37 10000 5.1 350 16:23 07.09.2019
2358 Clear 23 1014 53 10000 2.1 0 15:58 07.09.2019
2359 Clear 23 1015 56 10000 2.1 230 15:39 07.09.2019
2360 Clear 23 1015 56 10000 2.1 230 15:21 07.09.2019
2361 Clear 22 1015 60 10000 2.6 210 14:55 07.09.2019
2362 Clear 22 1015 60 10000 2.6 210 14:55 07.09.2019
2363 Clear 22 1015 60 10000 2.6 260 14:36 07.09.2019
2364 Clouds 21 1015 60 10000 1.5 0 14:18 07.09.2019
2365 Clouds 21 1015 64 10000 2.6 180 13:43 07.09.2019
2366 Clear 21 1015 64 10000 1.5 0 13:25 07.09.2019
2367 Clear 21 1015 64 10000 1.5 0 13:25 07.09.2019
2368 Clouds 20 1015 60 10000 2.1 170 12:46 07.09.2019
2369 Clear 20 1016 72 10000 1.5 260 12:26 07.09.2019
2370 Clear 20 1016 72 10000 1.5 260 11:59 07.09.2019
2371 Clear 19 1016 77 10000 1.5 0 11:40 07.09.2019
2372 Clear 19 1016 77 10000 1.5 0 11:21 07.09.2019
2373 Clear 18 1016 93 10000 1 0 10:41 07.09.2019
2374 Clear 18 1016 93 10000 1 0 10:22 07.09.2019
2375 Clear 17 1016 100 10000 1.5 10 09:58 07.09.2019
2376 Clear 17 1016 100 10000 1.5 10 09:39 07.09.2019
2377 Clear 16 1016 100 10000 1.5 10 09:39 07.09.2019
2378 Clear 16 1016 100 10000 0.5 0 09:20 07.09.2019
2379 Clear 16 1016 100 10000 0.5 0 09:20 07.09.2019
2380 Clouds 15 1016 100 10000 0.5 0 08:45 07.09.2019
2381 Clear 14 1016 100 10000 1.5 30 08:26 07.09.2019
2382 Clear 14 1016 100 10000 1.5 30 08:26 07.09.2019
2383 Fog 13 1016 100 10000 2.1 20 07:48 07.09.2019
2384 Fog 13 1016 100 10000 1.5 30 07:28 07.09.2019
2385 Fog 13 1016 100 10000 1 0 06:55 07.09.2019
2386 Fog 13 1016 100 10000 1.5 30 06:35 07.09.2019
2387 Fog 13 1016 100 10000 1.5 60 05:32 07.09.2019
2388 Clear 14 1016 100 10000 1 0 04:25 07.09.2019
2389 Clouds 14 1017 100 10000 1 350 02:57 07.09.2019
2390 Clouds 15 1017 100 10000 1.5 20 02:21 07.09.2019
2391 Clouds 15 1017 93 10000 0.5 0 01:26 07.09.2019
2392 Clouds 15 1018 93 10000 2.1 360 00:44 07.09.2019
2393 Clouds 15 1018 82 10000 1.5 250 00:21 07.09.2019
2394 Mist 15 1018 93 10000 1 0 23:43 06.09.2019
2395 Mist 16 1018 93 10000 0.5 0 23:23 06.09.2019
2396 Mist 16 1018 93 10000 0.5 0 23:23 06.09.2019
2397 Clouds 16 1018 93 10000 0.5 0 22:59 06.09.2019
2398 Clouds 16 1017 82 10000 2.1 310 22:40 06.09.2019
2399 Clouds 16 1017 82 10000 2.1 310 22:19 06.09.2019
2400 Clouds 16 1017 77 10000 1 0 21:58 06.09.2019
2401 Clouds 16 1017 77 10000 1.5 340 21:39 06.09.2019
2402 Clouds 16 1017 77 10000 1.5 340 21:21 06.09.2019
2403 Clouds 17 1016 72 10000 2.6 340 20:58 06.09.2019
2404 Clouds 17 1016 77 10000 1.5 290 20:40 06.09.2019
2405 Clouds 17 1016 77 10000 1.5 290 20:21 06.09.2019
2406 Clouds 17 1016 77 10000 2.6 340 19:57 06.09.2019
2407 Clouds 17 1016 77 10000 2.1 250 19:39 06.09.2019
2408 Rain 18 1018 82 10000 1 0 19:20 06.09.2019
2409 Rain 18 1016 77 10000 3.1 280 18:47 06.09.2019
2410 Rain 18 1017 82 10000 0.5 0 18:27 06.09.2019
2411 Rain 18 1017 72 10000 2.6 270 17:59 06.09.2019
2412 Rain 18 1016 82 10000 3.1 250 17:38 06.09.2019
2413 Rain 19 1017 60 10000 2.1 230 17:19 06.09.2019
2414 Rain 19 1016 68 10000 2.1 260 16:41 06.09.2019
2415 Rain 19 1017 77 10000 1 190 16:19 06.09.2019
2416 Rain 19 1017 77 10000 1 190 16:19 06.09.2019
2417 Rain 19 1016 68 10000 3.6 320 15:43 06.09.2019
2418 Rain 19 1016 68 10000 3.6 320 15:24 06.09.2019
2419 Rain 18 1018 77 10000 0.5 0 14:57 06.09.2019
2420 Rain 18 1017 68 10000 2.6 300 14:39 06.09.2019
2421 Rain 18 1017 72 10000 1 0 14:18 06.09.2019
2422 Rain 18 1017 63 10000 3.1 360 13:42 06.09.2019
2423 Rain 18 1018 87 10000 1 0 13:20 06.09.2019
2424 Rain 17 1017 72 10000 2.6 40 12:38 06.09.2019
2425 Rain 17 1018 82 10000 0.5 0 12:20 06.09.2019
2426 Rain 17 1017 72 10000 1.5 30 11:55 06.09.2019
2427 Rain 16 1016 67 10000 4.1 10 11:36 06.09.2019
2428 Rain 16 1017 77 10000 2.6 40 11:18 06.09.2019
2429 Rain 16 1016 72 10000 5.7 360 10:40 06.09.2019
2430 Rain 15 1016 72 10000 5.7 360 10:22 06.09.2019
2431 Rain 15 1016 82 10000 5.1 20 09:57 06.09.2019
2432 Rain 15 1016 77 10000 4.1 10 09:36 06.09.2019
2433 Rain 15 1017 93 10000 3.1 0 09:18 06.09.2019
2434 Rain 15 1015 77 10000 6.2 360 08:43 06.09.2019
2435 Rain 15 1015 77 10000 6.2 360 08:25 06.09.2019
2436 Rain 15 1015 77 10000 6.2 350 07:48 06.09.2019
2437 Rain 15 1015 77 10000 6.2 350 07:27 06.09.2019
2438 Rain 14 1015 82 10000 6.2 360 06:58 06.09.2019
2439 Clouds 14 1017 87 10000 2.6 0 06:26 06.09.2019
2440 Rain 14 1015 87 10000 5.1 360 05:43 06.09.2019
2441 Rain 14 1017 76 10000 8.7 360 04:49 06.09.2019
2442 Thunderstorm 14 1018 93 10000 1.5 0 04:19 06.09.2019
2443 Rain 14 1016 93 10000 9.8 360 02:23 06.09.2019
2444 Rain 14 1019 87 10000 5.7 20 00:45 06.09.2019
2445 Rain 14 1016 87 10000 12.3 360 23:56 05.09.2019
2446 Rain 14 1016 87 10000 9.8 360 23:38 05.09.2019
2447 Rain 15 1018 82 10000 9.3 20 23:19 05.09.2019
2448 Rain 15 1017 82 10000 7.2 20 22:43 05.09.2019
2449 Rain 16 1014 93 10000 9.8 360 22:24 05.09.2019
2450 Rain 16 1014 82 10000 9.8 10 21:56 05.09.2019
2451 Rain 16 1013 77 10000 11.3 20 21:38 05.09.2019
2452 Rain 16 1017 87 5000 5.7 10 21:19 05.09.2019
2453 Rain 16 1013 82 10000 9.3 10 20:57 05.09.2019
2454 Rain 17 1012 88 10000 11.8 360 20:37 05.09.2019
2455 Drizzle 17 1016 87 5000 4.1 40 20:19 05.09.2019
2456 Rain 17 1016 87 5000 4.1 40 20:19 05.09.2019
2457 Thunderstorm 17 1012 82 10000 10.8 360 19:42 05.09.2019
2458 Thunderstorm 18 1012 82 10000 10.8 360 19:24 05.09.2019
2459 Thunderstorm 21 1012 72 8000 10.3 360 18:58 05.09.2019
2460 Thunderstorm 21 1011 50 10000 7.2 330 18:40 05.09.2019
2461 Thunderstorm 24 1013 63 10000 6.2 30 18:20 05.09.2019
2462 -273 0 0 0 0 0 17:56 05.09.2019
2463 Thunderstorm 25 1011 47 10000 3.6 100 17:37 05.09.2019
2464 Thunderstorm 25 1011 47 10000 3.6 100 17:19 05.09.2019
2465 Rain 26 1011 44 10000 3.1 120 16:41 05.09.2019
2466 Rain 26 1011 65 10000 1.5 190 16:20 05.09.2019
2467 Clouds 26 1012 50 10000 2.1 140 15:58 05.09.2019
2468 Clouds 26 1012 47 10000 2.6 130 15:39 05.09.2019
2469 Clouds 26 1012 57 10000 2.1 0 15:19 05.09.2019
2470 Clouds 26 1012 53 10000 3.6 110 14:43 05.09.2019
2471 Clouds 25 1012 53 10000 3.6 110 14:22 05.09.2019
2472 Clouds 25 1013 57 10000 1.5 0 13:44 05.09.2019
2473 Clouds 25 1013 57 10000 1.5 0 13:24 05.09.2019
2474 Clouds 24 1013 60 10000 1.5 200 12:59 05.09.2019
2475 Clouds 24 1013 53 10000 1.5 0 12:41 05.09.2019
2476 Clouds 24 1013 53 10000 1.5 0 12:41 05.09.2019
2477 Clouds 24 1013 53 10000 1.5 0 12:22 05.09.2019
2478 Clouds 23 1013 69 10000 1 0 11:44 05.09.2019
2479 Clouds 23 1013 64 10000 1 0 11:20 05.09.2019
2480 Clouds 23 1013 68 10000 1 0 10:57 05.09.2019
2481 Clouds 22 1013 68 10000 1.5 50 10:36 05.09.2019
2482 Clouds 22 1014 73 10000 0.5 0 10:18 05.09.2019
2483 Clouds 21 1013 82 10000 2.1 360 09:40 05.09.2019
2484 Clouds 20 1014 93 10000 1 0 09:20 05.09.2019
2485 Clouds 19 1014 93 10000 2.6 20 08:56 05.09.2019
2486 Clouds 19 1014 93 10000 1 20 08:55 05.09.2019
2487 Clouds 19 1013 88 10000 2.1 340 08:37 05.09.2019
2488 Clouds 18 1013 100 10000 2.6 30 08:19 05.09.2019
2489 Clouds 18 1013 88 10000 2.6 350 07:42 05.09.2019
2490 Clouds 17 1013 88 10000 2.6 350 07:23 05.09.2019
2491 Clouds 17 1013 100 10000 2.6 10 06:44 05.09.2019
2492 Clouds 17 1013 100 10000 2.6 10 06:22 05.09.2019
2493 Clouds 17 1014 100 10000 2.1 10 05:42 05.09.2019
2494 Clouds 17 1014 93 10000 1.5 0 05:23 05.09.2019
2495 Clear 17 1014 100 10000 2.1 20 04:30 05.09.2019
2496 Clear 17 1014 100 10000 2.6 20 03:46 05.09.2019
2497 Clear 17 1014 100 10000 2.1 10 02:56 05.09.2019
2498 Clear 17 1014 100 10000 2.6 20 02:28 05.09.2019
2499 Clear 18 1015 93 7000 0.5 0 01:48 05.09.2019
2500 Clear 18 1015 88 10000 1.5 20 00:51 05.09.2019
2501 Clear 18 1015 88 10000 1 40 00:23 05.09.2019
2502 Clear 19 1015 88 10000 0.5 80 23:59 04.09.2019
2503 Clear 19 1015 77 10000 2.1 20 23:39 04.09.2019
2504 Clear 19 1016 88 10000 1 0 23:19 04.09.2019
2505 Clear 20 1015 60 10000 2.6 270 22:47 04.09.2019
2506 Clear 21 1015 60 10000 2.6 270 22:19 04.09.2019
2507 Clear 21 1015 60 10000 3.1 250 21:41 04.09.2019
2508 Clear 22 1015 60 10000 3.1 250 21:21 04.09.2019
2509 Clear 22 1015 57 10000 3.1 230 20:59 04.09.2019
2510 Clear 22 1015 64 10000 1.5 220 20:40 04.09.2019
2511 Clear 23 1015 68 10000 1 0 20:20 04.09.2019
2512 Clouds 24 1015 53 10000 3.6 240 19:59 04.09.2019
2513 Clouds 25 1015 54 10000 2.6 240 19:39 04.09.2019
2514 Clouds 25 1015 54 10000 2.6 240 19:20 04.09.2019
2515 Clouds 26 1015 47 10000 2.1 190 18:40 04.09.2019
2516 Clouds 26 1016 50 10000 2.1 190 18:20 04.09.2019
2517 Clouds 26 1016 50 10000 2.1 200 17:56 04.09.2019
2518 Clouds 26 1016 50 10000 2.1 120 17:37 04.09.2019
2519 Clouds 26 1017 44 10000 1.5 50 17:19 04.09.2019
2520 Clouds 26 1017 50 10000 2.1 200 16:47 04.09.2019
2521 Clouds 26 1017 50 10000 1.5 0 16:28 04.09.2019
2522 Clouds 26 1018 47 10000 2.1 0 15:58 04.09.2019
2523 Clouds 26 1017 47 10000 1.5 0 15:39 04.09.2019
2524 Clouds 26 1017 47 10000 1.5 0 15:20 04.09.2019
2525 Clouds 26 1018 47 10000 2.1 300 14:56 04.09.2019
2526 Clouds 25 1018 50 10000 2.6 140 14:37 04.09.2019
2527 Clouds 25 1019 50 10000 2.6 150 14:19 04.09.2019
2528 Clouds 25 1019 53 10000 2.6 50 13:40 04.09.2019
2529 Clouds 24 1019 53 10000 2.6 50 13:22 04.09.2019
2530 Clouds 24 1020 50 10000 1 0 12:58 04.09.2019
2531 Clouds 23 1020 57 10000 2.1 50 12:38 04.09.2019
2532 Clouds 23 1021 64 10000 2.1 190 12:19 04.09.2019
2533 Clouds 23 1021 60 10000 1.5 50 11:55 04.09.2019
2534 Clouds 23 1020 60 10000 2.6 60 11:36 04.09.2019
2535 Clouds 22 1021 68 10000 1.5 200 11:18 04.09.2019
2536 Clouds 22 1021 77 10000 2.1 210 10:42 04.09.2019
2537 Clouds 22 1020 60 10000 4.1 80 10:23 04.09.2019
2538 Clouds 21 1021 82 10000 0.5 0 09:47 04.09.2019
2539 Clouds 20 1020 72 10000 3.1 40 09:27 04.09.2019
2540 Clouds 20 1021 72 10000 3.6 90 08:59 04.09.2019
2541 Clouds 19 1020 77 10000 2.6 20 08:40 04.09.2019
2542 Clouds 19 1020 77 10000 2.6 20 08:21 04.09.2019
2543 Clouds 19 1021 82 10000 3.1 80 07:49 04.09.2019
2544 Clouds 19 1020 82 10000 3.6 20 07:29 04.09.2019
2545 Clouds 18 1021 82 10000 2.1 10 06:40 04.09.2019
2546 Clouds 19 1021 82 10000 1.5 10 05:51 04.09.2019
2547 Clouds 19 1021 72 10000 3.1 80 04:52 04.09.2019
2548 Clouds 19 1021 68 10000 4.1 90 03:52 04.09.2019
2549 Clouds 20 1021 88 10000 1.5 130 01:27 04.09.2019
2550 Clouds 20 1022 88 10000 1.5 360 00:54 04.09.2019
2551 Clear 20 1021 77 10000 2.6 10 00:32 04.09.2019
2552 Clear 21 1021 82 10000 1 0 23:54 03.09.2019
2553 Clear 21 1021 77 10000 1.5 30 23:28 03.09.2019
2554 Clear 21 1020 68 10000 1.5 20 22:59 03.09.2019
2555 Clear 22 1020 68 10000 1 0 22:40 03.09.2019
2556 Clear 22 1020 68 10000 1 0 22:21 03.09.2019
2557 Clear 22 1020 60 10000 1.5 190 21:56 03.09.2019
2558 Clear 22 1020 60 10000 1.5 190 21:56 03.09.2019
2559 Clear 22 1020 60 10000 2.6 210 21:36 03.09.2019
2560 Clear 22 1020 60 10000 2.6 210 21:18 03.09.2019
2561 Clear 23 1019 57 10000 1.5 200 20:42 03.09.2019
2562 Clear 24 1019 57 10000 1.5 200 20:24 03.09.2019
2563 Clear 25 1019 50 10000 3.6 200 19:56 03.09.2019
2564 Clear 25 1019 51 10000 1.5 170 19:38 03.09.2019
2565 Clear 26 1019 57 10000 1.5 260 19:18 03.09.2019
2566 Clouds 27 1019 48 10000 2.6 190 18:45 03.09.2019
2567 Clouds 27 1019 48 10000 2.6 190 18:27 03.09.2019
2568 Clouds 27 1019 51 10000 2.1 190 17:58 03.09.2019
2569 Clouds 27 1019 48 10000 2.1 80 17:40 03.09.2019
2570 Clouds 27 1019 51 10000 2.1 200 17:19 03.09.2019
2571 Clouds 27 1019 44 10000 0.5 0 16:56 03.09.2019
2572 Clouds 27 1019 47 10000 1.5 0 16:37 03.09.2019
2573 Clouds 27 1020 47 10000 2.1 190 16:19 03.09.2019
2574 Clouds 27 1020 54 10000 2.6 10 15:40 03.09.2019
2575 Clouds 27 1020 54 10000 2.6 10 15:21 03.09.2019
2576 Clouds 26 1020 47 10000 1.5 0 14:58 03.09.2019
2577 Clouds 26 1020 54 10000 2.1 140 14:40 03.09.2019
2578 Clouds 26 1021 50 10000 2.6 190 14:20 03.09.2019
2579 Clouds 26 1021 54 10000 2.1 140 13:56 03.09.2019
2580 Clouds 26 1021 54 10000 2.1 140 13:56 03.09.2019
2581 Clouds 25 1021 57 10000 3.1 70 13:37 03.09.2019
2582 Clouds 25 1021 53 10000 2.6 0 13:19 03.09.2019
2583 Clouds 25 1021 61 10000 3.1 110 12:48 03.09.2019
2584 Clouds 24 1021 61 10000 3.1 110 12:30 03.09.2019
2585 Clouds 24 1021 57 10000 3.6 100 11:58 03.09.2019
2586 Clouds 24 1021 57 10000 5.1 100 11:38 03.09.2019
2587 Clouds 23 1021 57 10000 5.1 100 11:19 03.09.2019
2588 Clouds 23 1022 64 10000 4.6 140 10:54 03.09.2019
2589 Clouds 23 1021 73 10000 2.6 20 10:36 03.09.2019
2590 Clear 22 1022 60 10000 1.5 0 10:18 03.09.2019
2591 Clouds 22 1021 68 10000 2.1 70 10:18 03.09.2019
2592 Clouds 21 1020 64 10000 4.1 10 09:41 03.09.2019
2593 Clouds 21 1020 64 10000 4.1 10 09:41 03.09.2019
2594 Clouds 21 1020 64 10000 4.1 10 09:23 03.09.2019
2595 Clouds 20 1019 72 10000 3.1 360 08:39 03.09.2019
2596 Clouds 20 1019 72 10000 3.1 360 08:21 03.09.2019
2597 Clear 19 1020 72 10000 0.5 0 07:54 03.09.2019
2598 Clouds 19 1018 77 10000 2.6 350 07:36 03.09.2019
2599 Clear 18 1020 72 10000 1 0 07:18 03.09.2019
2600 Clear 18 1018 77 10000 2.1 10 06:41 03.09.2019
2601 Clear 19 1018 35 10000 4.6 10 03:45 03.09.2019
2602 Clear 20 1017 63 10000 3.1 20 02:59 03.09.2019
2603 Clear 20 1017 52 10000 2.6 30 02:38 03.09.2019
2604 Clear 21 1018 37 10000 4.6 10 02:20 03.09.2019
2605 Clear 21 1017 49 10000 3.6 50 01:43 03.09.2019
2606 Clear 21 1017 40 10000 4.6 360 01:25 03.09.2019
2607 Thunderstorm 21 1017 77 10000 3.6 10 00:31 03.09.2019
2608 Clear 22 1017 40 10000 4.6 20 23:57 02.09.2019
2609 Clear 22 1017 40 10000 4.6 20 23:57 02.09.2019
2610 Clear 22 1016 73 10000 1.5 20 23:37 02.09.2019
2611 Clear 22 1017 49 10000 2.6 10 23:18 02.09.2019
2612 Clear 22 1017 49 10000 2.6 10 23:18 02.09.2019
2613 Clear 22 1016 73 10000 1 0 22:55 02.09.2019
2614 Clear 22 1016 73 10000 1 0 22:55 02.09.2019
2615 Clouds 23 1015 73 10000 1 0 22:36 02.09.2019
2616 Clear 23 1015 61 10000 1.5 220 22:18 02.09.2019
2617 Clouds 24 1016 49 10000 2.1 10 21:54 02.09.2019
2618 Clear 24 1015 57 10000 3.1 210 21:36 02.09.2019
2619 Clear 24 1014 54 10000 2.6 210 21:18 02.09.2019
2620 Clouds 24 1013 57 10000 1.5 190 20:41 02.09.2019
2621 Clouds 25 1014 53 10000 1.5 10 20:21 02.09.2019
2622 Clear 26 1013 51 10000 2.6 210 19:57 02.09.2019
2623 Clouds 26 1013 48 10000 1.5 160 19:39 02.09.2019
2624 Clouds 27 1013 47 10000 4.6 340 19:21 02.09.2019
2625 Clouds 28 1013 45 10000 2.1 90 18:41 02.09.2019
2626 Clouds 28 1013 48 10000 1 0 18:23 02.09.2019
2627 Clear 28 1013 48 10000 1 0 17:59 02.09.2019
2628 Clouds 28 1013 42 10000 2.1 80 17:39 02.09.2019
2629 Clouds 28 1013 42 10000 2.1 80 17:21 02.09.2019
2630 Clouds 28 1013 42 10000 2.1 80 17:21 02.09.2019
2631 Clear 28 1014 48 10000 2.1 230 16:58 02.09.2019
2632 Clouds 28 1013 45 10000 1.5 0 16:37 02.09.2019
2633 Clouds 28 1014 48 10000 1 0 16:19 02.09.2019
2634 Clouds 28 1014 54 10000 3.1 120 15:44 02.09.2019
2635 Clouds 27 1014 48 10000 2.1 210 15:22 02.09.2019
2636 Clear 27 1014 45 10000 1 0 14:56 02.09.2019
2637 Clouds 27 1014 54 10000 2.1 180 14:37 02.09.2019
2638 Clouds 26 1015 50 10000 1 0 14:19 02.09.2019
2639 Clouds 26 1015 54 10000 1.5 0 13:54 02.09.2019
2640 -273 0 0 0 0 0 13:36 02.09.2019
2641 Clouds 25 1015 61 10000 1 0 13:18 02.09.2019
2642 Clouds 24 1015 69 10000 2.1 100 12:41 02.09.2019
2643 Clouds 24 1015 69 10000 2.1 100 12:23 02.09.2019
2644 Rain 23 1016 69 10000 1.5 150 11:58 02.09.2019
2645 Rain 22 1015 78 10000 1.5 100 11:38 02.09.2019
2646 Rain 22 1016 73 10000 1 0 11:19 02.09.2019
2647 Clouds 21 1014 88 10000 1 0 10:42 02.09.2019
2648 Clouds 20 1014 88 10000 1 0 10:22 02.09.2019
2649 Clear 20 1015 94 10000 2.1 70 09:59 02.09.2019
2650 Rain 20 1014 93 10000 2.6 360 09:39 02.09.2019
2651 Rain 19 1014 93 10000 2.6 360 09:20 02.09.2019
2652 Rain 19 1014 82 10000 1 0 08:43 02.09.2019
2653 Rain 19 1013 88 10000 0.5 0 08:22 02.09.2019
2654 Rain 19 1013 88 10000 3.1 40 07:57 02.09.2019
2655 Rain 19 1012 82 10000 2.1 20 07:37 02.09.2019
2656 Rain 19 1014 77 10000 1.5 190 07:19 02.09.2019
2657 Rain 19 1013 77 10000 2.1 50 06:42 02.09.2019
2658 Rain 20 1013 77 10000 1.5 0 05:54 02.09.2019
2659 Rain 20 1013 77 10000 1.5 0 05:54 02.09.2019
2660 Rain 21 1013 82 10000 0.5 0 05:25 02.09.2019
2661 Clouds 22 1012 94 10000 3.1 20 04:48 02.09.2019
2662 Thunderstorm 22 1013 73 10000 2.1 150 02:20 02.09.2019
2663 Clear 22 1012 88 10000 1.5 80 01:37 02.09.2019
2664 Clear 22 1012 88 10000 1.5 80 01:37 02.09.2019
2665 Clear 23 1012 78 10000 2.6 10 00:39 02.09.2019
2666 Clouds 23 1013 78 10000 2.6 170 00:19 02.09.2019
2667 Clear 23 1012 78 10000 3.6 10 23:39 01.09.2019
2668 Clouds 24 1013 83 10000 1 0 23:19 01.09.2019
2669 Clear 24 1012 78 10000 3.1 10 22:56 01.09.2019
2670 Clear 24 1012 78 10000 3.1 10 22:56 01.09.2019
2671 Clear 24 1012 73 10000 2.6 30 22:38 01.09.2019
2672 Clear 24 1012 73 10000 2.6 30 22:18 01.09.2019
2673 Clear 25 1012 54 10000 3.1 260 21:42 01.09.2019
2674 Clear 25 1012 83 10000 2.1 360 21:23 01.09.2019
2675 Clear 26 1011 51 10000 2.6 260 20:58 01.09.2019
2676 Clear 26 1011 51 10000 3.6 250 20:39 01.09.2019
2677 Clouds 26 1012 73 10000 1 0 20:19 01.09.2019
2678 Clear 27 1011 51 10000 3.1 240 19:58 01.09.2019
2679 Clear 28 1011 45 10000 3.1 240 19:39 01.09.2019
2680 Clear 29 1011 45 10000 3.1 240 19:20 01.09.2019
2681 Clouds 30 1011 58 10000 2.1 190 18:44 01.09.2019
2682 Clouds 30 1011 58 10000 2.1 190 18:44 01.09.2019
2683 Clouds 30 1011 54 10000 2.1 190 18:25 01.09.2019
2684 Clouds 30 1011 45 10000 2.6 230 17:57 01.09.2019
2685 Clouds 30 1011 45 10000 2.1 0 17:38 01.09.2019
2686 Clouds 30 1011 51 10000 2.1 200 17:19 01.09.2019
2687 Clouds 30 1011 45 10000 3.6 260 16:41 01.09.2019
2688 Clouds 30 1012 51 10000 2.6 180 16:20 01.09.2019
2689 Clouds 30 1012 48 10000 3.1 230 15:55 01.09.2019
2690 Clouds 30 1012 45 10000 3.1 260 15:37 01.09.2019
2691 Clouds 30 1012 45 10000 3.1 260 15:37 01.09.2019
2692 Clouds 30 1012 45 10000 3.1 260 15:19 01.09.2019
2693 Clear 30 1013 48 10000 2.1 0 14:42 01.09.2019
2694 Clear 30 1013 48 10000 2.1 0 14:21 01.09.2019
2695 Clear 29 1013 48 10000 2.6 240 13:58 01.09.2019
2696 Clear 29 1013 48 10000 1.5 90 13:39 01.09.2019
2697 Clear 29 1013 48 10000 1.5 90 13:20 01.09.2019
2698 Clear 29 1013 48 10000 1.5 90 13:20 01.09.2019
2699 Clear 28 1014 51 10000 2.1 350 12:43 01.09.2019
2700 Clouds 28 1014 61 10000 1 0 12:25 01.09.2019
2701 Clear 27 1014 65 10000 1.5 190 11:55 01.09.2019
2702 Clear 27 1014 61 10000 1.5 40 11:36 01.09.2019
2703 Clear 26 1015 64 10000 1 0 11:18 01.09.2019
2704 Clear 25 1014 73 10000 3.1 360 10:43 01.09.2019
2705 Clear 24 1014 73 10000 3.1 360 10:23 01.09.2019
2706 Clear 23 1014 100 10000 2.6 20 09:44 01.09.2019
2707 Clear 23 1014 100 10000 2.6 20 09:25 01.09.2019
2708 Clear 21 1014 100 10000 3.1 10 08:45 01.09.2019
2709 Clear 21 1014 100 10000 3.1 10 08:25 01.09.2019
2710 Clear 20 1014 100 10000 1.5 20 07:59 01.09.2019
2711 Clear 20 1014 100 10000 0.5 0 07:41 01.09.2019
2712 Clear 19 1014 100 10000 2.1 10 07:18 01.09.2019
2713 Clear 20 1014 100 10000 2.1 20 06:37 01.09.2019
2714 Rain 20 1015 88 10000 1 0 05:57 01.09.2019
2715 Clear 20 1014 100 10000 3.6 10 04:34 01.09.2019
2716 Clear 20 1015 88 10000 3.6 360 03:43 01.09.2019
2717 Clear 21 1015 88 10000 5.1 360 02:59 01.09.2019
2718 Clear 21 1015 88 10000 5.1 10 02:28 01.09.2019
2719 Clear 21 1016 94 10000 4.1 10 01:51 01.09.2019
2720 Clear 21 1016 100 10000 4.1 10 01:24 01.09.2019
2721 Clear 22 1016 100 10000 3.6 350 00:46 01.09.2019
2722 Clear 22 1016 100 10000 3.6 350 00:23 01.09.2019
2723 Clouds 22 1016 88 10000 1 0 23:54 31.08.2019
2724 Clear 22 1016 100 10000 1 0 23:36 31.08.2019
2725 Clear 23 1016 94 10000 2.1 40 23:18 31.08.2019
2726 Clear 23 1016 94 10000 2.1 40 23:18 31.08.2019
2727 Clear 23 1016 88 10000 1 0 22:44 31.08.2019
2728 Clear 23 1016 88 10000 1 0 22:25 31.08.2019
2729 Clear 24 1016 78 10000 0.5 0 21:57 31.08.2019
2730 Clear 24 1015 78 10000 1.5 90 21:38 31.08.2019
2731 Clear 24 1015 78 10000 1.5 90 21:19 31.08.2019
2732 Clear 25 1016 83 10000 0.5 0 20:47 31.08.2019
2733 Clear 25 1015 54 10000 1.5 340 20:29 31.08.2019
2734 Clear 26 1015 78 10000 1 0 19:56 31.08.2019
2735 Clear 26 1014 45 10000 2.1 310 19:38 31.08.2019
2736 Clouds 27 1015 65 10000 0.5 0 19:19 31.08.2019
2737 Clouds 28 1012 51 10000 3.1 230 18:40 31.08.2019
2738 Rain 28 1012 51 10000 3.1 230 18:20 31.08.2019
2739 Rain 29 1012 51 10000 3.1 230 17:56 31.08.2019
2740 Rain 29 1012 51 10000 3.1 230 17:37 31.08.2019
2741 Thunderstorm 29 1016 48 10000 2.1 0 17:18 31.08.2019
2742 Thunderstorm 29 1016 48 10000 2.1 0 16:57 31.08.2019
2743 Rain 29 1016 48 10000 1 0 16:39 31.08.2019
2744 Rain 30 1016 51 10000 2.1 300 16:20 31.08.2019
2745 Clear 30 1017 58 10000 2.1 330 15:42 31.08.2019
2746 Clouds 29 1017 61 10000 2.1 190 15:19 31.08.2019
2747 Clear 29 1017 65 10000 2.6 340 14:56 31.08.2019
2748 Clear 29 1018 94 10000 3.6 350 14:37 31.08.2019
2749 Clouds 29 1018 69 10000 1.5 180 14:19 31.08.2019
2750 Clouds 29 1018 69 10000 1.5 180 14:19 31.08.2019
2751 Clear 28 1018 100 10000 3.1 10 13:40 31.08.2019
2752 Rain 28 1019 73 10000 2.1 190 13:22 31.08.2019
2753 Rain 27 1019 100 10000 4.6 10 12:58 31.08.2019
2754 Rain 27 1019 100 10000 4.6 350 12:38 31.08.2019
2755 Rain 26 1020 73 10000 0.5 0 12:19 31.08.2019
2756 Rain 25 1020 78 10000 0.5 0 11:46 31.08.2019
2757 Rain 25 1020 78 10000 0.5 0 11:46 31.08.2019
2758 Rain 25 1019 100 10000 3.6 10 11:28 31.08.2019
2759 Clouds 25 1019 61 10000 0.5 0 10:57 31.08.2019
2760 Clouds 25 1019 61 10000 0.5 0 10:57 31.08.2019
2761 Clouds 25 1019 61 10000 0.5 0 10:57 31.08.2019
2762 Rain 25 1018 61 10000 0.5 0 10:39 31.08.2019
2763 Thunderstorm 24 1020 83 10000 0.5 0 10:18 31.08.2019
2764 Thunderstorm 23 1020 94 10000 0.5 0 09:40 31.08.2019
2765 Thunderstorm 23 1019 78 10000 4.6 20 09:40 31.08.2019
2766 Thunderstorm 22 1019 78 10000 4.6 20 09:22 31.08.2019
2767 Drizzle 22 1019 78 10000 4.6 360 08:59 31.08.2019
2768 Rain 21 1019 83 10000 4.6 360 08:41 31.08.2019
2769 Thunderstorm 21 1020 94 10000 1 0 08:22 31.08.2019
2770 Thunderstorm 21 1018 78 10000 3.6 10 07:40 31.08.2019
2771 Thunderstorm 21 1019 93 10000 1 0 07:19 31.08.2019
2772 Clouds 21 1018 88 10000 4.1 360 06:28 31.08.2019
2773 Clouds 21 1018 83 10000 3.1 20 05:55 31.08.2019
2774 Clouds 22 1018 88 10000 2.6 40 05:29 31.08.2019
2775 Clouds 22 1019 83 10000 3.6 350 04:30 31.08.2019
2776 Clear 22 1019 83 10000 3.6 360 03:44 31.08.2019
2777 Clear 23 1019 78 10000 4.6 360 02:29 31.08.2019
2778 Clouds 23 1020 94 10000 1 0 01:51 31.08.2019
2779 Clear 23 1019 88 10000 3.1 10 01:31 31.08.2019
2780 Clear 23 1019 83 10000 3.1 20 00:48 31.08.2019
2781 Clouds 23 1020 100 10000 0.5 0 00:48 31.08.2019
2782 Thunderstorm 23 1019 83 10000 3.1 30 00:27 31.08.2019
2783 Thunderstorm 23 1020 88 10000 0.5 0 23:51 30.08.2019
2784 Clouds 24 1020 83 10000 1 350 23:20 30.08.2019
2785 Clear 24 1019 73 10000 1.5 30 22:59 30.08.2019
2786 Clear 24 1019 64 10000 2.1 30 22:39 30.08.2019
2787 Clear 25 1019 64 10000 2.1 30 22:21 30.08.2019
2788 Clear 25 1019 54 10000 0.5 0 21:57 30.08.2019
2789 Clear 26 1018 39 10000 2.1 250 21:37 30.08.2019
2790 Clear 26 1019 78 10000 1 360 21:18 30.08.2019
2791 Clear 26 1018 39 10000 2.1 250 20:56 30.08.2019
2792 Clouds 27 1017 54 10000 1 260 20:38 30.08.2019
2793 Thunderstorm 27 1019 78 10000 0.5 0 20:19 30.08.2019
2794 Thunderstorm 28 1018 69 10000 2.1 180 19:55 30.08.2019
2795 Thunderstorm 29 1017 51 10000 3.1 250 19:36 30.08.2019
2796 Thunderstorm 30 1018 42 10000 4.1 240 19:18 30.08.2019
2797 Clouds 31 1017 35 10000 2.6 170 18:44 30.08.2019
2798 Clouds 31 1018 51 10000 2.1 240 18:24 30.08.2019
2799 Clear 31 1018 35 10000 2.1 140 17:56 30.08.2019
2800 Clear 31 1018 35 10000 2.1 140 17:56 30.08.2019
2801 Clouds 31 1018 38 10000 1.5 0 17:38 30.08.2019
2802 Clouds 31 1018 45 10000 2.6 190 17:19 30.08.2019
2803 Clear 32 1018 35 10000 1.5 0 16:48 30.08.2019
2804 Clouds 31 1018 43 10000 2.6 180 16:29 30.08.2019
2805 Clear 31 1019 40 10000 2.1 190 15:58 30.08.2019
2806 Clouds 31 1019 48 10000 3.1 180 15:38 30.08.2019
2807 Clouds 31 1020 51 10000 1.5 180 15:19 30.08.2019
2808 Clouds 31 1020 51 10000 1.5 180 15:19 30.08.2019
2809 Clouds 31 1020 51 10000 1.5 190 14:44 30.08.2019
2810 Clouds 31 1019 45 10000 2.1 140 14:25 30.08.2019
2811 Clear 30 1020 54 10000 1 0 13:56 30.08.2019
2812 Clouds 30 1019 48 10000 2.1 140 13:37 30.08.2019
2813 Clouds 30 1019 48 10000 2.1 140 13:19 30.08.2019
2814 Clouds 30 1019 48 10000 2.1 140 13:19 30.08.2019
2815 Clouds 29 1019 48 10000 1 0 12:42 30.08.2019
2816 Clear 28 1021 54 10000 1 0 12:22 30.08.2019
2817 Clouds 27 1020 54 10000 1.5 90 11:43 30.08.2019
2818 Clouds 27 1020 54 10000 1.5 90 11:25 30.08.2019
2819 Clear 26 1020 54 10000 2.6 10 10:59 30.08.2019
2820 Clouds 26 1019 57 10000 2.6 360 10:37 30.08.2019
2821 Clouds 26 1019 57 10000 2.6 360 10:37 30.08.2019
2822 Clear 25 1021 73 10000 1 0 10:18 30.08.2019
2823 Clear 24 1019 64 10000 3.6 340 09:42 30.08.2019
2824 Clear 23 1020 94 10000 2.1 10 09:20 30.08.2019
2825 Clear 22 1020 94 10000 2.1 10 08:58 30.08.2019
2826 Clear 22 1019 77 10000 3.1 350 08:39 30.08.2019
2827 Clear 21 1020 100 10000 3.1 20 08:21 30.08.2019
2828 Clear 20 1019 88 10000 3.1 350 07:43 30.08.2019
2829 Clear 20 1019 88 10000 3.1 350 07:23 30.08.2019
2830 Clear 19 1019 100 10000 3.6 10 06:47 30.08.2019
2831 Clear 19 1019 100 10000 3.6 10 06:29 30.08.2019
2832 Clear 20 1019 100 10000 3.1 10 05:55 30.08.2019
2833 Clear 20 1019 100 10000 2.6 30 04:27 30.08.2019
2834 Clear 20 1019 94 10000 3.1 10 03:46 30.08.2019
2835 Clear 21 1019 94 10000 3.1 10 03:27 30.08.2019
2836 Clear 21 1019 94 10000 2.6 30 02:32 30.08.2019
2837 Clear 21 1019 88 10000 3.1 10 01:38 30.08.2019
2838 Clear 22 1019 83 10000 2.6 350 00:45 30.08.2019
2839 Clear 22 1020 93 10000 0.5 0 00:18 30.08.2019
2840 Clear 22 1019 83 10000 3.1 10 23:41 29.08.2019
2841 Clear 23 1020 94 10000 0.5 0 23:21 29.08.2019
2842 Clear 23 1020 94 10000 0.5 0 22:44 29.08.2019
2843 Clear 24 1019 83 10000 0.5 0 22:26 29.08.2019
2844 Clear 24 1018 65 10000 2.1 350 21:57 29.08.2019
2845 Clear 24 1018 57 10000 2.1 290 21:38 29.08.2019
2846 Clear 25 1019 78 10000 1.5 350 21:20 29.08.2019
2847 Clear 25 1018 54 10000 2.6 270 20:54 29.08.2019
2848 Clear 26 1017 54 10000 3.6 260 20:36 29.08.2019
2849 Clear 27 1017 54 10000 3.6 260 20:18 29.08.2019
2850 Clear 28 1017 51 10000 3.1 250 19:44 29.08.2019
2851 Clear 29 1017 45 10000 3.1 250 19:25 29.08.2019
2852 Clear 30 1017 42 10000 2.6 260 18:44 29.08.2019
2853 Clear 30 1017 40 10000 2.1 270 18:21 29.08.2019
2854 Rain 30 1017 40 10000 2.6 300 17:57 29.08.2019
2855 Clear 30 1017 40 10000 2.6 300 17:39 29.08.2019
2856 Clear 30 1018 43 10000 2.6 260 17:19 29.08.2019
2857 Clear 30 1018 40 10000 2.6 250 16:57 29.08.2019
2858 Clouds 30 1018 58 10000 1.5 180 16:39 29.08.2019
2859 Clouds 30 1018 58 10000 1.5 180 16:21 29.08.2019
2860 Clouds 30 1018 40 10000 1.5 0 15:39 29.08.2019
2861 Clear 30 1019 42 10000 1.5 0 15:21 29.08.2019
2862 Clouds 29 1018 42 10000 1.5 0 14:50 29.08.2019
2863 Clouds 29 1018 42 10000 1.5 0 14:26 29.08.2019
2864 Clear 29 1019 51 10000 2.1 330 13:59 29.08.2019
2865 Clouds 28 1018 45 10000 2.6 240 13:41 29.08.2019
2866 Clouds 28 1019 61 10000 1.5 0 13:21 29.08.2019
2867 Clouds 27 1019 64 10000 1 0 12:59 29.08.2019
2868 Clear 27 1019 54 10000 2.1 340 12:59 29.08.2019
2869 Clouds 27 1019 47 10000 2.1 240 12:40 29.08.2019
2870 Clouds 26 1019 47 10000 2.1 240 12:22 29.08.2019
2871 Clear 25 1019 65 10000 2.6 320 11:59 29.08.2019
2872 Clouds 25 1019 50 10000 2.1 260 11:39 29.08.2019
2873 Clouds 24 1019 50 10000 2.1 260 11:20 29.08.2019
2874 Clear 23 1020 83 10000 0.5 0 10:45 29.08.2019
2875 Clouds 23 1018 68 10000 1.78 260.119 10:25 29.08.2019
2876 Clouds 23 1018 68 10000 1.78 260.119 10:25 29.08.2019
2877 Clear 22 1019 83 10000 3.1 350 09:56 29.08.2019
2878 Clear 22 1019 83 10000 3.1 350 09:56 29.08.2019
2879 Clouds 21 1018 82 10000 0.5 0 09:38 29.08.2019
2880 Clear 20 1019 100 10000 2.1 360 09:18 29.08.2019
2881 Clouds 19 1018 88 10000 0.5 0 08:41 29.08.2019
2882 Clouds 19 1019 93 10000 1 20 08:23 29.08.2019
2883 Clouds 19 1019 93 10000 0.5 360 07:53 29.08.2019
2884 Clouds 18 1018 88 10000 1 0 07:30 29.08.2019
2885 Fog 18 1018 100 10000 0.5 0 06:54 29.08.2019
2886 Fog 18 1018 100 10000 1.83 279.586 06:33 29.08.2019
2887 Fog 18 1019 100 10000 1 20 05:48 29.08.2019
2888 Clear 18 1019 100 10000 1 140 04:51 29.08.2019
2889 Clear 18 1018 100 10000 2.6 360 04:30 29.08.2019
2890 Fog 18 1018 100 10000 1.5 40 03:35 29.08.2019
2891 Fog 19 1019 100 10000 1 0 01:52 29.08.2019
2892 Fog 19 1019 100 10000 1 0 01:32 29.08.2019
2893 Clouds 19 1020 94 10000 1 0 00:45 29.08.2019
2894 Clear 19 1019 100 10000 1 0 00:21 29.08.2019
2895 Clear 20 1019 100 10000 1 20 23:44 28.08.2019
2896 Clear 20 1019 100 10000 1 20 23:26 28.08.2019
2897 Clear 20 1019 100 10000 2.6 10 22:59 28.08.2019
2898 Clear 20 1019 100 10000 1 0 22:39 28.08.2019
2899 Clear 20 1019 100 10000 1 0 22:19 28.08.2019
2900 Clear 20 1019 100 10000 2.1 240 21:59 28.08.2019
2901 Clear 20 1019 100 10000 1.5 230 21:39 28.08.2019
2902 Clear 20 1019 100 10000 1.5 230 21:39 28.08.2019
2903 Clear 21 1019 100 10000 1.5 230 21:21 28.08.2019
2904 Clouds 21 1019 88 10000 1 190 20:46 28.08.2019
2905 Clouds 21 1018 83 10000 2.6 250 20:27 28.08.2019
2906 Clear 21 1019 83 10000 1.5 190 19:59 28.08.2019
2907 Clouds 22 1018 73 10000 4.1 240 19:40 28.08.2019
2908 Clouds 22 1019 78 10000 1.5 0 19:21 28.08.2019
2909 Clouds 22 1019 78 10000 2.1 240 18:42 28.08.2019
2910 Clouds 22 1019 78 10000 2.1 240 18:42 28.08.2019
2911 Clear 23 1019 78 10000 2.1 190 18:22 28.08.2019
2912 Clear 22 1019 94 10000 2.1 10 17:59 28.08.2019
2913 Clouds 22 1019 78 10000 3.1 360 17:37 28.08.2019
2914 Drizzle 22 1020 78 10000 2.1 190 17:19 28.08.2019
2915 Drizzle 22 1019 88 10000 2.6 330 16:43 28.08.2019
2916 Rain 22 1020 88 10000 1 0 16:19 28.08.2019
2917 Rain 22 1020 100 10000 4.1 60 15:59 28.08.2019
2918 Rain 22 1020 88 10000 3.1 20 15:37 28.08.2019
2919 Rain 22 1020 100 10000 3.6 50 15:19 28.08.2019
2920 Rain 22 1020 100 10000 3.6 50 14:56 28.08.2019
2921 Rain 22 1020 88 10000 3.6 40 14:37 28.08.2019
2922 Rain 22 1021 100 9000 1 0 14:19 28.08.2019
2923 Rain 22 1020 100 10000 7.7 30 13:56 28.08.2019
2924 Rain 22 1019 93 10000 5.7 340 13:37 28.08.2019
2925 Rain 22 1019 93 10000 5.7 340 13:18 28.08.2019
2926 Thunderstorm 22 1020 88 4000 6.2 340 12:41 28.08.2019
2927 Rain 21 1021 93 9000 1 0 12:23 28.08.2019
2928 Thunderstorm 21 1020 88 4000 6.2 340 12:23 28.08.2019
2929 Rain 23 1020 77 4500 3.6 260 11:42 28.08.2019
2930 Rain 23 1020 77 4500 3.6 260 11:23 28.08.2019
2931 Thunderstorm 23 1019 94 10000 7.7 360 10:59 28.08.2019
2932 Rain 24 1018 83 10000 6.2 340 10:41 28.08.2019
2933 Rain 24 1018 83 10000 6.2 340 10:21 28.08.2019
2934 Rain 24 1019 83 10000 5.7 270 09:56 28.08.2019
2935 Rain 24 1018 88 9000 4.6 260 09:38 28.08.2019
2936 Rain 23 1018 78 10000 3.6 340 09:18 28.08.2019
2937 Clouds 23 1017 83 10000 2.6 320 08:38 28.08.2019
2938 Rain 23 1019 100 9000 1 0 08:20 28.08.2019
2939 Rain 22 1017 83 10000 3.6 10 07:39 28.08.2019
2940 Rain 22 1017 83 10000 3.6 10 07:20 28.08.2019
2941 Rain 22 1019 100 8000 1.5 0 06:51 28.08.2019
2942 Rain 22 1018 83 10000 3.1 10 06:31 28.08.2019
2943 Clouds 22 1018 83 10000 1.5 90 05:29 28.08.2019
2944 Clear 23 1018 83 10000 3.1 360 02:24 28.08.2019
2945 Clear 23 1018 83 10000 3.1 20 01:31 28.08.2019
2946 Clear 23 1018 83 10000 3.1 20 00:54 28.08.2019
2947 Clear 23 1018 83 10000 2.6 20 00:34 28.08.2019
2948 Clear 23 1019 94 10000 0.5 0 23:58 27.08.2019
2949 Clear 24 1018 73 10000 2.1 20 23:38 27.08.2019
2950 Clear 24 1018 73 10000 2.1 20 23:19 27.08.2019
2951 Clear 24 1018 69 10000 1 0 22:42 27.08.2019
2952 Clear 25 1019 94 10000 2.1 360 22:23 27.08.2019
2953 Clear 25 1018 65 10000 0.5 0 21:57 27.08.2019
2954 -273 0 0 0 0 0 21:38 27.08.2019
2955 Rain 25 1017 54 10000 1.5 280 21:38 27.08.2019
2956 Rain 26 1018 88 8000 0.5 0 21:20 27.08.2019
2957 Clear 26 1017 54 10000 2.1 300 20:58 27.08.2019
2958 Clouds 26 1016 58 10000 2.1 240 20:39 27.08.2019
2959 Clouds 27 1017 78 9000 0.5 0 20:19 27.08.2019
2960 Clear 28 1017 74 10000 1 0 19:44 27.08.2019
2961 Clouds 28 1016 51 10000 1.5 240 19:26 27.08.2019
2962 Clear 29 1017 48 10000 2.6 280 18:58 27.08.2019
2963 Clouds 29 1016 51 10000 2.6 250 18:39 27.08.2019
2964 Clear 30 1017 48 10000 3.1 220 18:18 27.08.2019
2965 Clear 30 1017 58 10000 2.1 270 17:55 27.08.2019
2966 Clouds 30 1017 48 10000 2.6 240 17:37 27.08.2019
2967 Clouds 30 1018 62 10000 2.1 190 17:18 27.08.2019
2968 Clouds 30 1018 58 10000 2.1 190 16:42 27.08.2019
2969 Clouds 30 1017 48 10000 3.6 230 16:23 27.08.2019
2970 Clouds 30 1018 45 10000 3.1 260 15:54 27.08.2019
2971 Clouds 30 1017 48 10000 3.1 180 15:36 27.08.2019
2972 Clouds 30 1018 58 10000 2.1 190 15:18 27.08.2019
2973 Clouds 30 1018 58 10000 2.1 190 15:18 27.08.2019
2974 Clouds 30 1018 58 10000 3.1 190 14:42 27.08.2019
2975 Clouds 30 1018 48 10000 3.1 170 14:23 27.08.2019
2976 Clouds 30 1018 51 10000 3.1 210 13:43 27.08.2019
2977 Clouds 29 1018 51 10000 3.1 210 13:24 27.08.2019
2978 Clouds 29 1019 54 10000 1 0 12:56 27.08.2019
2979 Clouds 29 1018 51 10000 2.6 190 12:38 27.08.2019
2980 Clouds 28 1019 69 10000 2.1 190 12:19 27.08.2019
2981 Clouds 28 1018 51 10000 2.1 100 11:45 27.08.2019
2982 Clouds 27 1018 51 10000 2.1 100 11:26 27.08.2019
2983 Clouds 26 1019 61 10000 2.1 30 10:46 27.08.2019
2984 Clouds 25 1019 61 10000 2.1 30 10:26 27.08.2019
2985 Clear 25 1019 78 10000 3.1 10 09:59 27.08.2019
2986 Clouds 24 1018 73 10000 3.1 350 09:39 27.08.2019
2987 Clouds 24 1020 94 6000 0.5 0 09:20 27.08.2019
2988 Clear 23 1019 94 10000 2.1 20 08:55 27.08.2019
2989 Clear 22 1018 88 10000 3.1 350 08:37 27.08.2019
2990 Clear 21 1019 100 10000 3.1 10 08:18 27.08.2019
2991 Clouds 21 1018 94 10000 3.1 350 07:39 27.08.2019
2992 Clouds 21 1020 100 7000 1 10 07:19 27.08.2019
2993 Clouds 20 1019 100 7000 1.5 350 06:51 27.08.2019
2994 Rain 20 1019 100 5000 2.1 360 06:23 27.08.2019
2995 Mist 20 1018 100 10000 3.1 10 05:36 27.08.2019
2996 Clear 21 1018 100 10000 3.6 20 04:33 27.08.2019
2997 Mist 21 1018 88 10000 3.6 10 03:33 27.08.2019
2998 Mist 21 1018 83 10000 3.1 10 02:23 27.08.2019
2999 Mist 22 1018 78 10000 3.1 360 01:35 27.08.2019
3000 Clouds 22 1019 100 8000 1 0 00:54 27.08.2019
3001 Clear 22 1019 73 10000 2.1 10 00:29 27.08.2019
3002 Thunderstorm 23 1019 73 10000 1.5 20 23:59 26.08.2019
3003 Thunderstorm 23 1018 73 10000 1.5 90 23:37 26.08.2019
3004 Thunderstorm 23 1020 93 5000 4.1 170 23:19 26.08.2019
3005 Thunderstorm 24 1018 69 10000 3.1 90 22:38 26.08.2019
3006 Clear 24 1018 69 10000 3.1 90 22:19 26.08.2019
3007 Clear 24 1018 65 10000 0.5 0 21:57 26.08.2019
3008 Clear 25 1018 65 10000 0.5 0 21:37 26.08.2019
3009 Clear 25 1017 48 10000 1.5 260 21:18 26.08.2019
3010 Clear 26 1017 48 10000 2.6 260 20:54 26.08.2019
3011 Clear 26 1017 48 10000 2.6 260 20:36 26.08.2019
3012 Clouds 27 1017 48 10000 3.1 240 20:18 26.08.2019
3013 Clouds 28 1017 45 10000 3.1 240 19:42 26.08.2019
3014 Clear 28 1017 45 10000 4.1 260 19:19 26.08.2019
3015 Clear 28 1017 45 10000 3.1 230 18:56 26.08.2019
3016 Thunderstorm 29 1017 43 10000 4.1 260 18:37 26.08.2019
3017 Clear 29 1017 45 10000 3.1 230 18:37 26.08.2019
3018 Thunderstorm 29 1017 43 10000 4.1 260 18:18 26.08.2019
3019 Clouds 30 1017 43 10000 5.7 240 17:43 26.08.2019
3020 Clouds 30 1017 43 10000 5.1 230 17:19 26.08.2019
3021 Clouds 30 1017 43 10000 3.6 220 16:57 26.08.2019
3022 Clouds 30 1017 43 10000 3.6 220 16:38 26.08.2019
3023 Clouds 30 1017 43 10000 3.1 230 16:18 26.08.2019
3024 Clouds 30 1017 43 10000 3.6 240 15:42 26.08.2019
3025 Clouds 30 1018 43 10000 2.1 0 15:22 26.08.2019
3026 Clouds 30 1018 43 10000 2.6 140 14:58 26.08.2019
3027 Clouds 30 1018 43 10000 2.6 140 14:38 26.08.2019
3028 Clouds 30 1018 45 10000 1.5 0 14:19 26.08.2019
3029 Clouds 29 1019 48 10000 1.5 0 13:43 26.08.2019
3030 Clouds 29 1019 51 10000 1.5 0 13:22 26.08.2019
3031 Clear 29 1019 48 10000 1.5 0 12:54 26.08.2019
3032 Clear 29 1019 48 10000 1.5 0 12:36 26.08.2019
3033 Clear 28 1019 54 10000 1.5 0 12:18 26.08.2019
3034 Clear 27 1019 54 10000 1 0 11:38 26.08.2019
3035 Clear 27 1020 61 10000 1 0 11:19 26.08.2019
3036 Clear 26 1019 65 10000 1.5 0 10:55 26.08.2019
3037 Clear 26 1019 65 10000 1.5 0 10:36 26.08.2019
3038 Clouds 25 1019 69 10000 2.1 10 10:18 26.08.2019
3039 Clear 24 1019 88 10000 2.1 30 09:41 26.08.2019
3040 Clear 23 1019 88 10000 2.1 30 09:23 26.08.2019
3041 Clear 22 1019 100 10000 1.5 60 08:56 26.08.2019
3042 Clear 22 1019 100 10000 1.5 60 08:37 26.08.2019
3043 Clear 22 1019 100 10000 2.1 40 08:19 26.08.2019
3044 Clear 21 1019 100 10000 2.1 30 07:42 26.08.2019
3045 Clear 20 1018 100 10000 3.1 10 07:24 26.08.2019
3046 Clear 20 1018 100 10000 2.6 30 06:50 26.08.2019
3047 Clear 20 1018 100 10000 2.1 20 06:25 26.08.2019
3048 Clear 20 1018 100 10000 2.1 30 05:56 26.08.2019
3049 Clear 21 1018 94 10000 3.1 20 04:35 26.08.2019
3050 Clouds 21 1019 88 10000 1.5 20 03:30 26.08.2019
3051 Clear 22 1019 83 10000 3.6 10 01:41 26.08.2019
3052 Clear 22 1019 78 10000 2.1 20 01:21 26.08.2019
3053 Clear 23 1019 73 10000 2.1 10 00:42 26.08.2019
3054 Clear 23 1019 73 10000 1.5 60 00:23 26.08.2019
3055 Thunderstorm 23 1019 78 10000 2.1 40 23:43 25.08.2019
3056 Rain 23 1019 78 10000 2.1 30 23:19 25.08.2019
3057 Thunderstorm 24 1019 65 10000 1.5 360 22:57 25.08.2019
3058 Thunderstorm 24 1019 65 10000 1.5 360 22:38 25.08.2019
3059 Thunderstorm 24 1018 69 10000 1 50 22:20 25.08.2019
3060 Thunderstorm 24 1018 65 10000 0.5 0 21:57 25.08.2019
3061 Rain 24 1018 65 10000 0.5 0 21:37 25.08.2019
3062 Thunderstorm 25 1018 54 10000 2.1 210 21:18 25.08.2019
3063 Thunderstorm 26 1017 51 10000 2.6 230 20:40 25.08.2019
3064 Thunderstorm 27 1017 48 10000 3.1 240 20:20 25.08.2019
3065 Rain 28 1017 48 10000 3.1 250 19:58 25.08.2019
3066 Rain 28 1017 48 10000 3.1 250 19:38 25.08.2019
3067 Thunderstorm 29 1017 48 10000 4.1 230 19:19 25.08.2019
3068 Clear 30 1017 45 10000 3.6 240 18:57 25.08.2019
3069 Clouds 30 1017 42 10000 3.6 250 18:39 25.08.2019
3070 Clouds 29 1017 42 10000 3.6 250 18:19 25.08.2019
3071 Clouds 30 1017 40 10000 2.6 0 17:42 25.08.2019
3072 Clouds 30 1017 43 10000 3.6 220 17:24 25.08.2019
3073 Clouds 30 1017 45 10000 2.6 0 16:45 25.08.2019
3074 Clouds 30 1017 45 10000 2.6 240 16:25 25.08.2019
3075 Clouds 30 1018 45 10000 2.6 0 15:59 25.08.2019
3076 Clouds 30 1018 45 10000 2.6 0 15:41 25.08.2019
3077 Clouds 30 1018 45 10000 3.6 250 15:23 25.08.2019
3078 Clouds 29 1018 45 10000 3.1 0 14:42 25.08.2019
3079 Clouds 29 1018 48 10000 3.1 0 14:24 25.08.2019
3080 Clouds 29 1019 48 10000 2.1 0 13:56 25.08.2019
3081 -273 0 0 0 0 0 13:37 25.08.2019
3082 -273 0 0 0 0 0 13:37 25.08.2019
3083 Clouds 28 1019 51 10000 2.1 0 13:18 25.08.2019
3084 Clear 28 1019 51 10000 1.5 230 12:41 25.08.2019
3085 Clear 27 1019 54 10000 2.1 250 12:22 25.08.2019
3086 Clear 27 1019 54 10000 1.5 0 11:57 25.08.2019
3087 Clear 27 1019 54 10000 1.5 0 11:37 25.08.2019
3088 Clear 26 1019 57 10000 1.5 50 11:19 25.08.2019
3089 Clear 26 1019 65 10000 1.5 20 10:55 25.08.2019
3090 Clear 25 1019 65 10000 1.5 20 10:37 25.08.2019
3091 Clear 25 1019 69 10000 2.6 30 10:18 25.08.2019
3092 Clear 24 1019 73 10000 2.6 360 09:42 25.08.2019
3093 Clear 23 1019 78 10000 3.1 10 09:23 25.08.2019
3094 Clear 22 1019 94 10000 2.1 10 08:47 25.08.2019
3095 Clear 21 1019 100 10000 2.6 10 08:28 25.08.2019
3096 Clear 20 1019 100 10000 3.6 340 07:49 25.08.2019
3097 Fog 20 1019 100 10000 2.6 360 07:30 25.08.2019
3098 Mist 20 1018 100 10000 2.1 20 06:37 25.08.2019
3099 Mist 20 1019 93 10000 2.1 10 05:27 25.08.2019
3100 Rain 21 1019 88 10000 3.1 80 03:43 25.08.2019
3101 Thunderstorm 21 1019 88 10000 2.1 70 02:42 25.08.2019
3102 Clear 22 1019 88 10000 2.1 30 01:49 25.08.2019
3103 Clear 22 1019 88 10000 2.6 10 00:44 25.08.2019
3104 Clear 22 1019 83 10000 2.1 30 00:22 25.08.2019
3105 Clear 22 1019 83 10000 3.1 360 23:54 24.08.2019
3106 Clear 22 1018 83 10000 2.6 360 23:24 24.08.2019
3107 Clear 23 1018 73 10000 1.5 360 22:59 24.08.2019
3108 Clear 23 1018 73 10000 1.5 360 22:40 24.08.2019
3109 Clear 23 1018 65 10000 1.5 300 22:19 24.08.2019
3110 Clear 23 1018 65 10000 1 0 21:57 24.08.2019
3111 Clear 24 1018 65 10000 1 0 21:39 24.08.2019
3112 Clear 24 1018 54 10000 2.6 250 21:20 24.08.2019
3113 Clear 24 1018 54 10000 2.6 250 21:20 24.08.2019
3114 Clear 25 1017 54 10000 2.6 240 20:57 24.08.2019
3115 Clear 25 1017 54 10000 2.6 240 20:38 24.08.2019
3116 Clear 26 1017 51 10000 3.1 260 20:18 24.08.2019
3117 Clouds 26 1018 54 10000 3.1 230 19:57 24.08.2019
3118 Clouds 27 1018 54 10000 3.1 230 19:38 24.08.2019
3119 Clouds 27 1017 48 10000 2.6 220 19:19 24.08.2019
3120 Thunderstorm 27 1018 51 10000 4.6 160 18:45 24.08.2019
3121 Clouds 28 1018 42 10000 3.6 250 18:23 24.08.2019
3122 Rain 29 1018 42 10000 3.1 260 17:45 24.08.2019
3123 -273 0 0 0 0 0 17:25 24.08.2019
3124 Clouds 29 1018 40 10000 2.6 270 16:55 24.08.2019
3125 Clouds 30 1018 40 10000 2.6 270 16:36 24.08.2019
3126 Clouds 29 1019 40 10000 4.1 230 16:18 24.08.2019
3127 Clouds 29 1019 40 10000 2.1 0 15:41 24.08.2019
3128 Clouds 29 1019 40 10000 3.1 230 15:23 24.08.2019
3129 Clouds 29 1020 42 10000 2.1 0 14:45 24.08.2019
3130 Clouds 29 1020 40 10000 3.1 310 14:23 24.08.2019
3131 Clouds 29 1020 42 10000 2.1 350 13:59 24.08.2019
3132 Clouds 29 1020 42 10000 2.1 350 13:41 24.08.2019
3133 Clear 28 1020 45 10000 1 0 13:22 24.08.2019
3134 Clear 28 1021 45 10000 2.6 340 12:58 24.08.2019
3135 Clear 28 1021 45 10000 2.6 340 12:39 24.08.2019
3136 Clear 27 1021 51 10000 1 0 12:20 24.08.2019
3137 Clear 26 1021 54 10000 2.1 0 11:45 24.08.2019
3138 Clear 26 1021 61 10000 2.6 350 11:23 24.08.2019
3139 Clear 25 1021 65 10000 3.1 340 10:53 24.08.2019
3140 Clear 24 1021 73 10000 3.6 20 10:24 24.08.2019
3141 Clouds 23 1021 78 10000 3.6 10 09:45 24.08.2019
3142 Clouds 22 1021 94 10000 2.6 20 09:23 24.08.2019
3143 Clouds 22 1021 100 10000 1 40 08:59 24.08.2019
3144 Clouds 21 1021 100 10000 1 40 08:40 24.08.2019
3145 Clouds 21 1021 100 10000 2.1 20 08:22 24.08.2019
3146 Clouds 20 1021 100 10000 1.5 50 07:49 24.08.2019
3147 Clouds 19 1021 100 10000 2.1 20 07:27 24.08.2019
3148 Clouds 19 1021 100 10000 2.1 20 07:27 24.08.2019
3149 Clouds 19 1021 100 10000 2.1 10 06:30 24.08.2019
3150 Clear 19 1021 100 10000 2.1 360 05:42 24.08.2019
3151 Clear 20 1021 100 10000 2.6 20 04:51 24.08.2019
3152 Clear 20 1021 100 10000 3.1 20 03:37 24.08.2019
3153 Thunderstorm 20 1022 100 10000 2.1 30 02:27 24.08.2019
3154 Clear 20 1022 100 10000 3.1 20 01:31 24.08.2019
3155 Clear 20 1022 100 10000 2.1 40 00:54 24.08.2019
3156 Clear 21 1021 94 10000 1.5 30 00:26 24.08.2019
3157 Clear 21 1021 88 10000 2.6 10 23:59 23.08.2019
3158 Clear 21 1021 88 10000 2.6 10 23:39 23.08.2019
3159 Clear 21 1021 88 10000 2.1 10 23:19 23.08.2019
3160 Clear 22 1022 83 10000 2.1 20 22:42 23.08.2019
3161 Clear 22 1022 78 10000 2.1 30 22:23 23.08.2019
3162 Clear 23 1021 78 10000 3.1 360 21:40 23.08.2019
3163 Clear 23 1021 73 10000 3.6 360 21:21 23.08.2019
3164 Clear 23 1021 65 10000 2.6 20 20:57 23.08.2019
3165 Clear 24 1021 65 10000 2.6 20 20:38 23.08.2019
3166 Rain 24 1021 61 10000 3.1 360 20:19 23.08.2019
3167 Rain 25 1021 57 10000 2.6 20 19:43 23.08.2019
3168 Clear 26 1021 57 10000 3.1 40 19:18 23.08.2019
3169 Clouds 26 1021 57 10000 2.6 40 18:45 23.08.2019
3170 Clouds 26 1021 57 10000 2.6 350 18:27 23.08.2019
3171 Clouds 26 1021 57 10000 2.1 350 17:54 23.08.2019
3172 Rain 26 1021 57 10000 2.1 350 17:36 23.08.2019
3173 Rain 26 1021 61 10000 2.1 50 17:18 23.08.2019
3174 Rain 26 1021 57 10000 2.1 90 16:44 23.08.2019
3175 Rain 26 1022 65 10000 4.1 90 16:25 23.08.2019
3176 Rain 26 1022 51 10000 2.6 0 15:55 23.08.2019
3177 Rain 26 1022 51 10000 2.6 0 15:36 23.08.2019
3178 Rain 26 1022 51 10000 3.1 110 15:18 23.08.2019
3179 Rain 26 1022 54 10000 3.1 110 14:41 23.08.2019
3180 Rain 26 1022 51 10000 1.5 0 14:21 23.08.2019
3181 Rain 26 1023 61 10000 2.6 70 13:56 23.08.2019
3182 Rain 26 1023 61 10000 2.6 70 13:38 23.08.2019
3183 Rain 26 1023 61 10000 2.6 70 13:19 23.08.2019
3184 Rain 25 1023 61 10000 2.6 70 12:57 23.08.2019
3185 Clear 25 1023 65 10000 2.1 40 12:38 23.08.2019
3186 Clear 25 1023 65 10000 2.1 40 12:20 23.08.2019
3187 Clear 24 1023 65 10000 2.6 20 11:54 23.08.2019
3188 Clear 24 1023 65 10000 2.6 20 11:36 23.08.2019
3189 Clear 24 1023 65 10000 2.1 70 11:18 23.08.2019
3190 Clouds 23 1023 69 10000 1.5 90 10:42 23.08.2019
3191 Clouds 23 1023 83 10000 2.6 20 10:21 23.08.2019
3192 Rain 22 1023 94 10000 2.6 20 09:48 23.08.2019
3193 Rain 21 1022 100 10000 1.5 20 09:30 23.08.2019
3194 Rain 21 1022 100 10000 2.6 360 08:59 23.08.2019
3195 Rain 21 1022 100 10000 2.6 360 08:39 23.08.2019
3196 Rain 21 1022 100 10000 2.6 360 08:39 23.08.2019
3197 Rain 20 1022 100 10000 2.1 20 08:19 23.08.2019
3198 Clear 20 1022 100 10000 2.6 20 07:42 23.08.2019
3199 Clear 20 1021 100 10000 2.6 20 07:24 23.08.2019
3200 Clear 19 1021 100 10000 3.1 20 06:56 23.08.2019
3201 Clear 19 1021 100 10000 3.1 20 06:37 23.08.2019
3202 Rain 19 1021 100 10000 2.6 10 06:19 23.08.2019
3203 Rain 20 1021 100 10000 2.6 30 05:32 23.08.2019
3204 Clear 20 1021 93 10000 2.6 10 04:20 23.08.2019
3205 Clear 20 1021 93 10000 3.1 360 02:49 23.08.2019
3206 Clear 20 1022 93 10000 2.6 10 02:22 23.08.2019
3207 Clear 21 1022 93 10000 2.1 10 01:38 23.08.2019
3208 Clear 21 1022 82 10000 1.5 60 00:44 23.08.2019
3209 Clear 21 1021 77 10000 3.1 350 00:19 23.08.2019
3210 Clear 22 1021 77 10000 2.1 10 23:45 22.08.2019
3211 Clear 22 1021 73 10000 2.1 350 23:23 22.08.2019
3212 Clear 22 1021 77 10000 1.5 30 22:55 22.08.2019
3213 Clear 22 1021 77 10000 1.5 30 22:37 22.08.2019
3214 Clear 23 1021 64 10000 2.6 330 22:19 22.08.2019
3215 Clear 23 1021 64 10000 2.6 330 22:19 22.08.2019
3216 Clear 24 1021 64 10000 2.1 310 21:42 22.08.2019
3217 Clear 23 1021 57 10000 2.1 310 21:23 22.08.2019
3218 Clear 24 1021 57 10000 3.6 270 20:59 22.08.2019
3219 Clear 24 1021 57 10000 3.6 270 20:41 22.08.2019
3220 Clear 25 1020 54 10000 4.6 290 20:20 22.08.2019
3221 Clear 26 1020 51 10000 5.1 250 19:58 22.08.2019
3222 Clouds 26 1020 51 10000 5.7 230 19:39 22.08.2019
3223 Clouds 27 1020 51 10000 5.7 230 19:21 22.08.2019
3224 Clear 27 1020 51 10000 4.6 250 18:58 22.08.2019
3225 Clouds 27 1020 48 10000 5.1 270 18:40 22.08.2019
3226 Clouds 28 1020 48 10000 5.1 270 18:20 22.08.2019
3227 Clear 28 1020 45 10000 4.1 280 17:56 22.08.2019
3228 Clear 28 1020 45 10000 4.1 280 17:38 22.08.2019
3229 Clouds 28 1021 48 10000 1 0 17:19 22.08.2019
3230 Clouds 28 1021 40 10000 2.1 0 16:56 22.08.2019
3231 Clouds 28 1021 40 10000 2.1 0 16:56 22.08.2019
3232 Clouds 29 1021 40 10000 2.1 0 16:37 22.08.2019
3233 Clouds 28 1021 42 10000 2.6 310 16:18 22.08.2019
3234 Clouds 28 1021 42 10000 2.6 310 16:18 22.08.2019
3235 Clouds 28 1021 42 10000 2.6 310 16:18 22.08.2019
3236 Clouds 28 1021 42 10000 2.6 310 16:18 22.08.2019
3237 Clouds 28 1021 42 10000 2.6 310 16:18 22.08.2019
3238 Clear 28 1021 45 10000 2.6 0 15:41 22.08.2019
3239 Clear 28 1021 45 10000 2.6 0 15:41 22.08.2019
3240 Clear 28 1021 45 10000 2.6 0 15:41 22.08.2019
3241 Clouds 28 1022 42 10000 1.5 0 15:22 22.08.2019
3242 Clouds 28 1022 42 10000 1.5 0 14:57 22.08.2019
3243 Clouds 28 1022 42 10000 1.5 0 14:39 22.08.2019
3244 Clouds 28 1022 48 10000 2.1 0 14:19 22.08.2019
3245 Clouds 27 1022 47 10000 3.6 320 13:56 22.08.2019
3246 Clouds 27 1022 47 10000 3.6 320 13:38 22.08.2019
3247 Clear 27 1023 51 10000 2.1 330 13:18 22.08.2019
3248 Clear 26 1023 57 10000 2.6 350 12:40 22.08.2019
3249 Clear 26 1023 65 10000 2.6 340 12:22 22.08.2019
3250 Clear 25 1023 73 10000 3.6 340 11:57 22.08.2019
3251 Clear 25 1023 73 10000 3.6 340 11:57 22.08.2019
3252 Clear 24 1023 73 10000 3.6 340 11:39 22.08.2019
3253 Clear 24 1023 69 10000 3.6 350 11:19 22.08.2019
3254 Clear 24 1023 69 10000 3.6 350 11:19 22.08.2019
3255 Clear 23 1023 60 10000 2.6 360 10:57 22.08.2019
3256 Clear 23 1023 60 10000 2.6 360 10:57 22.08.2019
3257 Clear 23 1023 60 10000 2.6 360 10:36 22.08.2019
3258 Clouds 22 1023 69 10000 2.1 50 10:18 22.08.2019
3259 Clouds 21 1022 69 10000 3.6 10 09:40 22.08.2019
3260 Rain 21 1021 73 10000 4.6 340 09:21 22.08.2019
3261 Rain 20 1022 68 10000 3.6 40 08:59 22.08.2019
3262 Rain 20 1021 73 10000 4.6 350 08:40 22.08.2019
3263 Rain 20 1022 73 10000 2.6 40 08:21 22.08.2019
3264 Rain 20 1022 77 10000 4.1 30 07:43 22.08.2019
3265 Rain 20 1022 77 10000 4.1 30 07:24 22.08.2019
3266 Rain 20 1022 83 10000 2.6 50 06:58 22.08.2019
3267 Rain 20 1022 78 10000 3.1 40 06:40 22.08.2019
3268 Rain 20 1022 78 10000 3.1 40 06:19 22.08.2019
3269 Thunderstorm 22 1021 73 10000 2.6 20 04:42 22.08.2019
3270 Thunderstorm 22 1021 69 10000 3.1 70 02:56 22.08.2019
3271 Thunderstorm 22 1021 69 10000 3.1 70 02:34 22.08.2019
3272 Thunderstorm 23 1021 88 10000 0.5 0 01:26 22.08.2019
3273 Thunderstorm 24 1020 78 10000 3.6 10 00:48 22.08.2019
3274 Thunderstorm 24 1020 78 10000 4.1 360 00:30 22.08.2019
3275 Thunderstorm 24 1020 73 10000 2.6 30 23:58 21.08.2019
3276 Thunderstorm 23 1020 73 10000 2.6 30 23:39 21.08.2019
3277 Clouds 24 1020 73 10000 2.1 10 23:19 21.08.2019
3278 Clouds 24 1019 65 10000 1.5 10 22:55 21.08.2019
3279 Clouds 24 1019 65 10000 1.5 10 22:37 21.08.2019
3280 Clouds 24 1019 65 10000 0.5 0 22:19 21.08.2019
3281 Clouds 25 1019 61 10000 0.5 0 21:55 21.08.2019
3282 Clouds 25 1019 61 10000 0.5 0 21:36 21.08.2019
3283 Clouds 26 1018 51 10000 2.1 260 21:18 21.08.2019
3284 Clouds 27 1018 54 10000 2.6 350 20:43 21.08.2019
3285 Clouds 27 1017 61 10000 2.1 250 20:24 21.08.2019
3286 Clear 28 1018 51 10000 2.6 250 19:57 21.08.2019
3287 Clear 29 1018 51 10000 2.6 250 19:39 21.08.2019
3288 Clouds 29 1018 48 10000 2.6 300 19:20 21.08.2019
3289 Clouds 30 1018 38 10000 1 0 18:55 21.08.2019
3290 Clouds 30 1018 38 10000 1 0 18:37 21.08.2019
3291 Clouds 30 1018 38 10000 1.5 0 18:19 21.08.2019
3292 Clouds 30 1018 40 10000 1 0 17:42 21.08.2019
3293 Clouds 31 1018 40 10000 2.6 90 17:20 21.08.2019
3294 Clouds 30 1018 40 10000 3.1 80 16:54 21.08.2019
3295 Clouds 30 1018 42 10000 2.1 0 16:36 21.08.2019
3296 Clouds 30 1018 42 10000 2.1 0 16:18 21.08.2019
3297 Clouds 30 1018 40 10000 1.5 0 15:42 21.08.2019
3298 Clouds 30 1019 43 10000 1 0 15:22 21.08.2019
3299 Clouds 30 1019 45 10000 2.1 0 14:58 21.08.2019
3300 Clouds 30 1019 45 10000 2.1 0 14:39 21.08.2019
3301 Clouds 29 1019 42 10000 2.6 0 14:21 21.08.2019
3302 Clouds 29 1019 45 10000 2.6 0 13:58 21.08.2019
3303 Clouds 29 1019 45 10000 2.6 0 13:40 21.08.2019
3304 Clouds 28 1020 48 10000 2.1 0 13:19 21.08.2019
3305 Clouds 28 1020 45 10000 2.1 40 12:43 21.08.2019
3306 Clouds 27 1020 50 10000 2.6 20 12:25 21.08.2019
3307 Clear 27 1020 47 10000 3.6 10 11:59 21.08.2019
3308 Clear 27 1020 47 10000 3.6 10 11:41 21.08.2019
3309 Clouds 26 1020 47 10000 4.1 30 11:22 21.08.2019
3310 Clouds 25 1020 53 10000 4.1 10 10:57 21.08.2019
3311 Clouds 25 1020 53 10000 4.1 10 10:38 21.08.2019
3312 Clear 24 1020 53 10000 4.6 360 10:19 21.08.2019
3313 Clear 23 1019 56 10000 4.6 360 09:57 21.08.2019
3314 Clear 23 1019 64 10000 3.6 360 09:37 21.08.2019
3315 Clear 22 1019 64 10000 3.6 360 09:18 21.08.2019
3316 Clear 21 1019 72 10000 3.6 360 08:42 21.08.2019
3317 Clouds 21 1019 72 10000 4.1 360 08:23 21.08.2019
3318 Clouds 20 1019 77 10000 3.6 360 07:42 21.08.2019
3319 Clear 20 1018 77 10000 4.1 360 07:23 21.08.2019
3320 Rain 20 1018 82 10000 4.1 360 06:50 21.08.2019
3321 Clouds 20 1018 77 10000 3.1 20 06:24 21.08.2019
3322 Clear 20 1018 77 10000 3.6 10 05:46 21.08.2019
3323 Clear 20 1018 77 10000 3.6 10 05:23 21.08.2019
3324 Clouds 21 1018 77 10000 4.1 20 03:39 21.08.2019
3325 Clouds 21 1018 94 10000 4.6 360 01:51 21.08.2019
3326 Clouds 22 1018 100 10000 4.6 360 01:23 21.08.2019
3327 Clear 21 1018 100 10000 5.1 10 00:37 21.08.2019
3328 Clear 21 1018 100 10000 5.1 10 00:18 21.08.2019
3329 Clear 21 1018 100 10000 4.1 360 23:42 20.08.2019
3330 Clear 21 1018 100 10000 4.6 360 23:19 20.08.2019
3331 Clear 21 1018 100 10000 4.6 360 22:56 20.08.2019
3332 Clear 21 1018 100 10000 4.6 360 22:38 20.08.2019
3333 Clear 21 1018 100 10000 4.6 360 22:38 20.08.2019
3334 Thunderstorm 20 1018 100 10000 4.1 350 22:20 20.08.2019
3335 Thunderstorm 20 1018 100 10000 4.1 350 22:20 20.08.2019
3336 Thunderstorm 20 1018 100 10000 4.1 350 22:20 20.08.2019
3337 Thunderstorm 21 1017 100 10000 3.6 10 21:57 20.08.2019
3338 Rain 21 1017 100 10000 3.6 10 21:38 20.08.2019
3339 Rain 23 1018 88 10000 1.5 60 21:19 20.08.2019
3340 Rain 24 1018 88 10000 4.1 360 20:43 20.08.2019
3341 Rain 25 1017 73 10000 5.1 10 20:24 20.08.2019
3342 Rain 25 1017 78 10000 5.1 330 19:59 20.08.2019
3343 Rain 26 1017 73 10000 3.1 350 19:39 20.08.2019
3344 Rain 26 1017 73 10000 3.1 350 19:20 20.08.2019
3345 Clouds 27 1017 69 10000 3.1 360 18:55 20.08.2019
3346 Clouds 27 1017 69 10000 3.1 360 18:37 20.08.2019
3347 Clouds 27 1017 73 10000 1.5 190 18:18 20.08.2019
3348 Clouds 28 1018 73 10000 1 0 17:54 20.08.2019
3349 Clouds 28 1017 65 10000 2.1 320 17:36 20.08.2019
3350 Clouds 28 1018 73 10000 1 190 17:18 20.08.2019
3351 Clouds 28 1017 61 10000 1.5 0 16:41 20.08.2019
3352 Clouds 28 1018 73 10000 2.1 190 16:23 20.08.2019
3353 Clouds 28 1017 61 10000 2.6 250 15:41 20.08.2019
3354 Clouds 28 1017 61 10000 2.6 250 15:18 20.08.2019
3355 Clouds 28 1018 69 10000 4.1 350 14:56 20.08.2019
3356 Clouds 27 1017 61 10000 2.6 190 14:38 20.08.2019
3357 Clouds 27 1017 61 10000 2.6 190 14:19 20.08.2019
3358 Clouds 27 1018 74 10000 3.6 360 13:55 20.08.2019
3359 Clouds 27 1018 69 10000 2.6 330 13:36 20.08.2019
3360 Clouds 27 1019 78 10000 1 0 13:18 20.08.2019
3361 Clouds 26 1019 83 10000 0.5 0 12:45 20.08.2019
3362 Clouds 26 1019 83 10000 1 0 12:24 20.08.2019
3363 Clouds 25 1020 83 10000 0.5 0 11:55 20.08.2019
3364 Clouds 25 1018 73 10000 2.6 10 11:37 20.08.2019
3365 Clouds 25 1020 88 10000 0.5 0 11:18 20.08.2019
3366 Clouds 25 1020 88 10000 0.5 0 11:18 20.08.2019
3367 Rain 24 1019 83 10000 3.6 30 10:55 20.08.2019
3368 Rain 24 1017 83 10000 3.1 350 10:37 20.08.2019
3369 Rain 24 1017 83 10000 3.1 350 10:18 20.08.2019
3370 Rain 23 1017 83 10000 3.6 360 09:40 20.08.2019
3371 Rain 23 1017 83 10000 3.6 360 09:22 20.08.2019
3372 Rain 22 1019 100 10000 0.5 0 08:42 20.08.2019
3373 Rain 22 1017 88 10000 4.1 350 08:24 20.08.2019
3374 Thunderstorm 21 1018 100 10000 3.6 10 07:58 20.08.2019
3375 Rain 21 1017 88 10000 3.6 350 07:39 20.08.2019
3376 Rain 21 1017 88 10000 3.6 350 07:21 20.08.2019
3377 Clouds 21 1019 100 10000 1 0 06:47 20.08.2019
3378 Rain 21 1017 100 10000 3.6 10 06:21 20.08.2019
3379 Rain 21 1018 100 10000 3.1 40 05:48 20.08.2019
3380 Rain 21 1017 94 10000 3.1 360 04:42 20.08.2019
3381 Thunderstorm 22 1019 100 2300 1 0 02:58 20.08.2019
3382 Thunderstorm 22 1019 100 10000 2.1 10 02:18 20.08.2019
3383 Thunderstorm 22 1019 94 7000 2.6 190 01:21 20.08.2019
3384 Clouds 22 1018 94 10000 0.5 0 00:45 20.08.2019
3385 Clouds 23 1018 94 10000 0.5 0 00:25 20.08.2019
3386 Clouds 23 1018 94 10000 0.5 0 23:50 19.08.2019
3387 Clouds 23 1018 83 10000 3.1 360 23:19 19.08.2019
3388 Clear 23 1017 88 10000 3.6 10 22:58 19.08.2019
3389 Rain 23 1017 78 10000 2.1 360 22:40 19.08.2019
3390 Clear 24 1018 94 10000 1 0 22:21 19.08.2019
3391 Clouds 24 1017 83 10000 4.1 360 21:57 19.08.2019
3392 Rain 24 1017 78 10000 3.6 340 21:38 19.08.2019
3393 Rain 25 1017 73 10000 3.1 10 21:19 19.08.2019
3394 Rain 25 1018 83 10000 3.1 10 20:54 19.08.2019
3395 Rain 25 1016 74 10000 3.1 340 20:36 19.08.2019
3396 Rain 26 1018 73 10000 2.1 10 20:18 19.08.2019
3397 Clouds 26 1017 57 10000 4.6 340 19:54 19.08.2019
3398 Clouds 27 1016 58 10000 1.5 230 19:36 19.08.2019
3399 Clouds 27 1016 58 10000 1.5 230 19:36 19.08.2019
3400 Clouds 28 1016 54 10000 4.1 340 19:18 19.08.2019
3401 Clouds 29 1016 54 10000 1.5 190 18:40 19.08.2019
3402 Clouds 29 1016 54 10000 1.5 190 18:40 19.08.2019
3403 Clouds 29 1017 61 10000 1 0 18:21 19.08.2019
3404 Clouds 29 1017 58 10000 0.5 0 17:56 19.08.2019
3405 Clouds 29 1016 54 10000 2.1 220 17:37 19.08.2019
3406 Clouds 29 1017 61 10000 0.5 0 17:19 19.08.2019
3407 Rain 29 1017 40 10000 1.5 0 16:39 19.08.2019
3408 Rain 29 1017 42 10000 2.1 180 16:21 19.08.2019
3409 Clouds 29 1017 42 10000 2.1 0 15:56 19.08.2019
3410 Clouds 29 1017 42 10000 2.1 0 15:38 19.08.2019
3411 Clouds 29 1017 48 10000 2.6 0 15:19 19.08.2019
3412 Clouds 28 1017 45 10000 3.1 110 14:44 19.08.2019
3413 Clouds 28 1017 51 10000 3.1 70 14:23 19.08.2019
3414 Clouds 28 1018 51 10000 2.1 0 13:58 19.08.2019
3415 Clouds 28 1018 51 10000 2.1 0 13:39 19.08.2019
3416 Rain 27 1018 54 10000 2.1 140 13:20 19.08.2019
3417 Clouds 27 1018 61 10000 1.5 0 12:58 19.08.2019
3418 Clouds 26 1018 61 10000 1.5 0 12:40 19.08.2019
3419 Rain 26 1017 69 10000 1.5 0 12:20 19.08.2019
3420 Rain 24 1017 73 10000 1.5 210 11:40 19.08.2019
3421 Rain 24 1016 73 10000 3.1 160 11:22 19.08.2019
3422 Thunderstorm 24 1017 69 10000 1 0 10:58 19.08.2019
3423 Thunderstorm 24 1017 69 10000 1 0 10:38 19.08.2019
3424 Clouds 24 1017 69 10000 2.1 250 10:18 19.08.2019
3425 Clouds 24 1017 65 10000 0.5 0 09:45 19.08.2019
3426 Clouds 23 1016 73 10000 2.6 150 09:24 19.08.2019
3427 Clouds 23 1016 73 10000 1 0 08:59 19.08.2019
3428 Clouds 23 1016 73 10000 1 0 08:41 19.08.2019
3429 Clouds 23 1016 73 10000 1 0 08:41 19.08.2019
3430 Clouds 22 1016 73 10000 1 0 08:20 19.08.2019
3431 Thunderstorm 22 1016 83 10000 2.1 120 07:50 19.08.2019
3432 Rain 22 1016 83 10000 2.1 120 07:31 19.08.2019
3433 Rain 21 1015 78 10000 1.5 150 06:52 19.08.2019
3434 Clouds 21 1015 78 10000 1.5 150 06:33 19.08.2019
3435 Clouds 22 1015 83 10000 1.5 190 05:25 19.08.2019
3436 Clouds 22 1016 73 10000 1.5 310 04:32 19.08.2019
3437 Clouds 23 1016 78 10000 1 0 03:24 19.08.2019
3438 Clouds 23 1016 73 10000 1.5 270 02:29 19.08.2019
3439 Clouds 23 1016 78 10000 2.6 260 01:36 19.08.2019
3440 Clouds 23 1016 69 10000 4.1 240 00:44 19.08.2019
3441 Clouds 24 1016 69 10000 3.6 220 00:23 19.08.2019
3442 Clouds 24 1016 65 10000 4.1 230 23:43 18.08.2019
3443 Clouds 24 1016 65 10000 3.6 240 23:22 18.08.2019
3444 Clouds 24 1016 65 10000 3.1 240 22:57 18.08.2019
3445 Clouds 25 1016 65 10000 3.1 240 22:38 18.08.2019
3446 Clouds 25 1015 61 10000 3.1 240 22:20 18.08.2019
3447 Clouds 25 1015 57 10000 3.6 240 21:56 18.08.2019
3448 Clouds 26 1015 57 10000 3.1 220 21:37 18.08.2019
3449 Clouds 26 1015 57 10000 3.1 220 21:19 18.08.2019
3450 Clouds 27 1015 54 10000 4.1 210 20:43 18.08.2019
3451 Clouds 27 1015 51 10000 1 0 20:25 18.08.2019
3452 Clouds 28 1015 45 10000 1 0 19:56 18.08.2019
3453 Clouds 28 1015 45 10000 1 0 19:37 18.08.2019
3454 Clouds 29 1015 48 10000 1 0 19:19 18.08.2019
3455 Clouds 29 1015 45 10000 1 0 18:41 18.08.2019
3456 Clouds 29 1015 48 10000 2.1 170 18:23 18.08.2019
3457 Clouds 29 1015 42 10000 2.6 140 17:58 18.08.2019
3458 Clouds 29 1015 42 10000 2.6 140 17:40 18.08.2019
3459 Clouds 29 1015 45 10000 1.5 0 17:19 18.08.2019
3460 Clouds 29 1016 45 10000 1 0 16:56 18.08.2019
3461 Clouds 29 1016 45 10000 1 0 16:38 18.08.2019
3462 Clouds 29 1016 45 10000 1.5 110 16:19 18.08.2019
3463 Clouds 29 1016 48 10000 2.1 340 15:55 18.08.2019
3464 Clouds 29 1016 48 10000 2.1 340 15:36 18.08.2019
3465 Clouds 29 1016 45 10000 1 0 15:18 18.08.2019
3466 Clouds 29 1016 45 10000 2.1 310 14:40 18.08.2019
3467 Clouds 29 1016 45 10000 2.1 310 14:40 18.08.2019
3468 Clouds 28 1016 48 10000 1.5 340 14:20 18.08.2019
3469 Clouds 28 1016 48 10000 1.5 0 13:58 18.08.2019
3470 Clouds 27 1016 48 10000 1.5 0 13:40 18.08.2019
3471 Clouds 27 1016 51 10000 1.5 0 13:20 18.08.2019
3472 Clouds 27 1017 51 10000 2.1 0 12:54 18.08.2019
3473 Clouds 26 1017 51 10000 2.1 0 12:36 18.08.2019
3474 Clouds 25 1017 57 10000 2.1 10 12:18 18.08.2019
3475 Clouds 25 1017 57 10000 2.1 0 11:41 18.08.2019
3476 Clouds 24 1017 61 10000 2.1 0 11:21 18.08.2019
3477 Clouds 23 1017 64 10000 1.5 0 10:42 18.08.2019
3478 Clouds 22 1017 69 10000 2.1 10 10:22 18.08.2019
3479 Clouds 22 1017 69 10000 2.1 10 10:22 18.08.2019
3480 Clouds 22 1017 73 10000 2.1 40 09:56 18.08.2019
3481 Clouds 22 1017 73 10000 2.1 40 09:37 18.08.2019
3482 Clouds 22 1016 73 10000 2.6 30 09:18 18.08.2019
3483 Clouds 20 1016 77 10000 2.6 20 08:42 18.08.2019
3484 Clouds 19 1016 77 10000 3.1 20 08:24 18.08.2019
3485 Clouds 19 1016 82 10000 2.6 10 07:49 18.08.2019
3486 Clouds 19 1016 82 10000 2.6 20 07:29 18.08.2019
3487 Clouds 18 1016 88 10000 1.5 30 05:50 18.08.2019
3488 Clouds 18 1016 82 10000 1.5 20 04:58 18.08.2019
3489 Clear 19 1016 82 10000 2.6 20 03:44 18.08.2019
3490 Clouds 19 1016 88 10000 3.1 10 02:49 18.08.2019
3491 Clouds 19 1016 82 10000 2.6 10 02:26 18.08.2019
3492 Clouds 19 1017 88 10000 2.1 30 01:47 18.08.2019
3493 Clouds 19 1016 82 10000 3.1 10 01:22 18.08.2019
3494 Clouds 20 1016 82 10000 3.1 360 00:39 18.08.2019
3495 Clouds 20 1016 88 10000 2.6 10 00:19 18.08.2019
3496 Clear 20 1016 82 10000 2.1 30 23:57 17.08.2019
3497 Clear 20 1016 82 10000 2.1 30 23:37 17.08.2019
3498 Clear 20 1016 77 10000 1.5 20 23:18 17.08.2019
3499 Clear 21 1016 77 10000 1.5 10 22:56 17.08.2019
3500 Clear 21 1016 77 10000 1.5 10 22:37 17.08.2019
3501 Clear 22 1016 64 10000 0.5 0 22:19 17.08.2019
3502 Clear 23 1016 60 10000 0.5 0 21:41 17.08.2019
3503 Clear 24 1016 50 10000 1.5 290 21:23 17.08.2019
3504 Clear 24 1016 50 10000 1.5 290 21:23 17.08.2019
3505 Clear 25 1016 50 10000 2.1 260 20:41 17.08.2019
3506 Clear 27 1016 47 10000 2.6 260 20:21 17.08.2019
3507 Clear 27 1016 47 10000 1.5 310 19:59 17.08.2019
3508 Clear 27 1016 47 10000 1.5 310 19:41 17.08.2019
3509 Clear 27 1016 45 10000 2.1 290 19:22 17.08.2019
3510 Clear 27 1016 44 10000 2.1 290 18:54 17.08.2019
3511 Clear 28 1016 44 10000 2.1 290 18:36 17.08.2019
3512 Clear 28 1016 42 10000 3.1 280 18:18 17.08.2019
3513 Clouds 28 1016 42 10000 3.1 300 17:41 17.08.2019
3514 Clouds 28 1016 42 10000 2.1 0 17:21 17.08.2019
3515 Clouds 28 1016 45 10000 3.1 300 16:55 17.08.2019
3516 Clouds 28 1016 45 10000 3.1 300 16:36 17.08.2019
3517 Clouds 28 1016 45 10000 2.1 0 16:18 17.08.2019
3518 Clouds 28 1017 47 10000 2.6 260 15:42 17.08.2019
3519 Clouds 27 1017 45 10000 2.1 0 15:21 17.08.2019
3520 Clouds 27 1017 44 10000 2.1 300 14:57 17.08.2019
3521 Clouds 27 1017 44 10000 2.1 300 14:37 17.08.2019
3522 Clouds 27 1017 47 10000 2.1 0 14:18 17.08.2019
3523 Clouds 27 1017 47 10000 2.6 0 13:42 17.08.2019
3524 Clouds 27 1018 47 10000 1.5 0 13:19 17.08.2019
3525 Clouds 26 1018 47 10000 1 0 12:42 17.08.2019
3526 Clouds 26 1018 51 10000 1.5 0 12:20 17.08.2019
3527 Clouds 25 1018 53 10000 1 0 11:58 17.08.2019
3528 Clouds 25 1018 53 10000 1 0 11:38 17.08.2019
3529 Clouds 25 1018 57 10000 2.1 0 11:19 17.08.2019
3530 Clear 24 1018 64 10000 1.5 40 10:39 17.08.2019
3531 Clear 24 1018 64 10000 1.5 40 10:20 17.08.2019
3532 Clouds 23 1018 64 10000 2.6 30 09:52 17.08.2019
3533 Clouds 23 1018 64 10000 2.6 30 09:52 17.08.2019
3534 Clouds 22 1018 64 10000 2.6 30 09:32 17.08.2019
3535 Clouds 21 1018 72 10000 2.6 20 08:57 17.08.2019
3536 Clouds 19 1017 77 10000 3.1 20 08:28 17.08.2019
3537 Clear 19 1017 82 10000 2.6 10 07:55 17.08.2019
3538 Clear 19 1017 82 10000 2.6 10 07:36 17.08.2019
3539 Clouds 18 1017 88 10000 3.1 20 07:18 17.08.2019
3540 Clear 18 1017 88 10000 2.6 10 05:57 17.08.2019
3541 Clear 19 1017 82 10000 3.1 10 04:31 17.08.2019
3542 Clear 19 1017 82 10000 2.6 10 03:36 17.08.2019
3543 Clear 19 1017 77 10000 2.1 20 01:48 17.08.2019
3544 Clear 19 1017 82 10000 2.1 30 01:29 17.08.2019
3545 Clear 19 1017 82 10000 3.1 10 00:55 17.08.2019
3546 Clear 20 1017 82 10000 3.1 10 00:31 17.08.2019
3547 Clear 20 1017 77 10000 1 0 23:52 16.08.2019
3548 Clear 21 1017 77 10000 1 0 23:30 16.08.2019
3549 Clear 21 1017 77 10000 0.5 0 22:58 16.08.2019
3550 Clear 21 1017 77 10000 0.5 0 22:39 16.08.2019
3551 Clear 22 1016 64 10000 1 0 22:19 16.08.2019
3552 Clear 23 1016 53 10000 2.6 250 21:42 16.08.2019
3553 Clear 23 1016 53 10000 2.6 240 21:21 16.08.2019
3554 Clear 24 1016 53 10000 3.1 270 20:56 16.08.2019
3555 Clear 24 1016 53 10000 3.1 270 20:38 16.08.2019
3556 Clear 25 1015 50 10000 3.1 260 20:19 16.08.2019
3557 Clear 26 1015 44 10000 3.1 260 19:44 16.08.2019
3558 Clouds 26 1015 44 10000 3.1 270 19:23 16.08.2019
3559 Clouds 26 1015 39 10000 3.1 300 18:54 16.08.2019
3560 Clouds 27 1015 39 10000 3.1 300 18:36 16.08.2019
3561 Clouds 28 1016 39 10000 3.1 260 18:18 16.08.2019
3562 Clouds 27 1016 37 10000 2.6 270 17:41 16.08.2019
3563 Clouds 27 1016 37 10000 2.6 270 17:41 16.08.2019
3564 Clouds 27 1016 39 10000 3.6 250 17:23 16.08.2019
3565 Clouds 27 1016 39 10000 3.6 250 17:23 16.08.2019
3566 Clouds 27 1016 39 10000 2.6 280 16:42 16.08.2019
3567 Clouds 27 1016 37 10000 2.6 220 16:22 16.08.2019
3568 Clouds 27 1016 42 10000 2.6 0 15:59 16.08.2019
3569 Clouds 27 1016 42 10000 2.6 0 15:40 16.08.2019
3570 Clouds 27 1017 39 10000 2.1 0 15:21 16.08.2019
3571 Clouds 27 1017 39 10000 2.1 0 15:21 16.08.2019
3572 Clear 27 1017 42 10000 3.1 90 14:58 16.08.2019
3573 Clear 27 1017 42 10000 3.1 90 14:39 16.08.2019
3574 Clear 26 1017 39 10000 3.1 90 14:19 16.08.2019
3575 Clear 26 1017 36 10000 2.1 0 13:42 16.08.2019
3576 Clear 26 1018 44 10000 2.1 20 13:23 16.08.2019
3577 Clear 26 1018 47 10000 1.5 0 12:56 16.08.2019
3578 Clear 25 1018 47 10000 1.5 0 12:37 16.08.2019
3579 Clear 25 1018 47 10000 1.5 0 12:37 16.08.2019
3580 Clear 25 1018 47 10000 1.5 0 12:19 16.08.2019
3581 Clear 25 1018 47 10000 1.5 0 12:19 16.08.2019
3582 Clear 24 1018 53 10000 1.5 0 11:42 16.08.2019
3583 Clear 24 1018 53 10000 2.1 100 11:24 16.08.2019
3584 Clear 24 1018 53 10000 2.1 100 11:24 16.08.2019
3585 Clear 23 1019 53 10000 2.6 80 10:43 16.08.2019
3586 Clear 22 1019 56 10000 2.6 50 10:25 16.08.2019
3587 Clear 21 1018 64 10000 2.1 70 09:56 16.08.2019
3588 Clear 21 1018 64 10000 2.1 70 09:37 16.08.2019
3589 Clear 20 1018 68 10000 2.6 90 09:37 16.08.2019
3590 Clear 20 1018 68 10000 2.6 90 09:18 16.08.2019
3591 Clear 19 1018 68 10000 2.1 80 08:41 16.08.2019
3592 Clear 19 1018 77 10000 2.1 90 08:21 16.08.2019
3593 Clear 18 1018 77 10000 3.6 100 07:53 16.08.2019
3594 Clear 18 1018 77 10000 3.6 100 07:32 16.08.2019
3595 Clear 18 1017 77 10000 4.6 90 06:57 16.08.2019
3596 Clear 18 1017 77 10000 3.6 70 06:21 16.08.2019
3597 Clear 18 1016 82 10000 2.1 50 05:40 16.08.2019
3598 Clear 18 1015 88 10000 2.1 10 04:27 16.08.2019
3599 Clear 19 1014 88 10000 2.6 20 02:28 16.08.2019
3600 Clear 19 1014 77 10000 3.1 360 01:30 16.08.2019
3601 Clear 19 1015 82 10000 2.6 30 00:57 16.08.2019
3602 Clear 20 1015 82 10000 2.6 30 00:39 16.08.2019
3603 Clear 20 1014 77 10000 3.1 10 00:20 16.08.2019
3604 Clear 21 1014 77 10000 3.1 360 23:42 15.08.2019
3605 Clear 21 1014 68 10000 2.1 360 23:21 15.08.2019
3606 Clear 21 1014 68 10000 1.5 10 22:57 15.08.2019
3607 Clear 21 1014 68 10000 1.5 10 22:57 15.08.2019
3608 Clear 22 1014 68 10000 1.5 10 22:39 15.08.2019
3609 Clear 22 1014 53 10000 2.6 310 22:20 15.08.2019
3610 Clear 23 1014 50 10000 3.1 260 21:40 15.08.2019
3611 Clear 23 1014 47 10000 3.1 260 21:20 15.08.2019
3612 Clear 24 1014 47 10000 3.1 260 20:59 15.08.2019
3613 Clear 24 1014 50 10000 3.1 250 20:41 15.08.2019
3614 Clear 25 1014 44 10000 3.6 260 20:21 15.08.2019
3615 Clear 25 1014 39 10000 3.6 260 19:57 15.08.2019
3616 Clear 26 1014 39 10000 3.6 260 19:38 15.08.2019
3617 Clear 26 1014 39 10000 3.6 270 19:19 15.08.2019
3618 Clouds 27 1014 39 10000 2.1 220 18:46 15.08.2019
3619 Clouds 27 1014 42 10000 3.1 240 18:22 15.08.2019
3620 Clouds 28 1014 39 10000 2.6 230 17:56 15.08.2019
3621 Clouds 27 1014 39 10000 2.6 230 17:37 15.08.2019
3622 Clouds 27 1014 39 10000 1 0 17:19 15.08.2019
3623 Clouds 28 1014 39 10000 3.1 90 16:48 15.08.2019
3624 Clouds 27 1015 44 10000 2.1 70 16:27 15.08.2019
3625 Clouds 27 1015 44 10000 1.5 0 15:57 15.08.2019
3626 Clouds 27 1015 44 10000 1.5 0 15:38 15.08.2019
3627 Clouds 27 1015 44 10000 1 0 15:19 15.08.2019
3628 Clouds 27 1015 47 10000 2.1 210 14:42 15.08.2019
3629 Clouds 26 1016 50 10000 2.1 220 14:23 15.08.2019
3630 Clouds 26 1016 50 10000 1.5 0 13:58 15.08.2019
3631 Clouds 26 1016 50 10000 1.5 0 13:40 15.08.2019
3632 Clouds 25 1016 50 10000 3.1 240 13:20 15.08.2019
3633 Clouds 25 1017 50 10000 1.5 0 12:57 15.08.2019
3634 Clouds 25 1017 50 10000 1.5 0 12:39 15.08.2019
3635 Clouds 25 1017 50 10000 2.1 60 12:19 15.08.2019
3636 Clouds 24 1017 53 10000 2.6 80 11:57 15.08.2019
3637 Clouds 24 1017 53 10000 2.6 80 11:36 15.08.2019
3638 Clouds 23 1017 53 10000 2.6 70 11:18 15.08.2019
3639 Clouds 22 1017 56 10000 3.1 350 10:40 15.08.2019
3640 Clouds 22 1017 60 10000 3.6 10 10:20 15.08.2019
3641 Clouds 21 1018 60 10000 3.6 20 09:58 15.08.2019
3642 Clouds 21 1018 64 10000 3.6 10 09:39 15.08.2019
3643 Clouds 21 1018 64 10000 3.6 10 09:21 15.08.2019
3644 Clouds 20 1017 68 10000 3.1 20 08:38 15.08.2019
3645 Clouds 19 1017 68 10000 3.1 10 08:19 15.08.2019
3646 Clouds 18 1017 72 10000 2.6 20 07:46 15.08.2019
3647 Clouds 18 1017 72 10000 2.6 20 07:46 15.08.2019
3648 Clouds 18 1017 77 10000 3.1 20 07:28 15.08.2019
3649 Clouds 18 1017 77 10000 2.6 20 06:56 15.08.2019
3650 Clouds 18 1017 82 10000 3.1 20 06:34 15.08.2019
3651 Clouds 18 1017 82 10000 3.1 10 05:54 15.08.2019
3652 Clouds 18 1017 82 10000 3.1 10 05:29 15.08.2019
3653 Clouds 18 1017 77 10000 3.6 10 04:39 15.08.2019
3654 Clouds 18 1017 82 10000 2.1 40 03:48 15.08.2019
3655 Clear 19 1017 77 10000 3.1 80 02:46 15.08.2019
3656 Clear 19 1017 72 10000 1 0 01:54 15.08.2019
3657 Clear 19 1017 72 10000 1 0 01:36 15.08.2019
3658 Clear 20 1016 72 10000 2.1 30 00:42 15.08.2019
3659 Clear 20 1016 72 10000 1.5 20 00:22 15.08.2019
3660 Clear 20 1016 72 10000 1.5 100 23:58 14.08.2019
3661 Clear 20 1016 59 10000 1.5 70 23:38 14.08.2019
3662 Clear 20 1016 72 10000 1.5 100 23:38 14.08.2019
3663 Clear 20 1016 59 10000 1.5 70 23:19 14.08.2019
3664 Clear 21 1016 56 10000 1 0 22:57 14.08.2019
3665 Clear 21 1016 56 10000 1 0 22:39 14.08.2019
3666 Clear 22 1015 41 10000 3.1 240 22:20 14.08.2019
3667 Clear 22 1015 44 10000 3.1 230 21:55 14.08.2019
3668 Clear 22 1015 44 10000 3.1 230 21:55 14.08.2019
3669 Clear 22 1015 44 10000 3.1 230 21:55 14.08.2019
3670 Clear 23 1015 44 10000 3.1 230 21:37 14.08.2019
3671 Clear 23 1014 41 10000 3.1 230 21:18 14.08.2019
3672 Clear 24 1014 34 10000 4.1 220 20:42 14.08.2019
3673 Clear 25 1014 28 10000 3.6 240 20:21 14.08.2019
3674 Clear 26 1014 28 10000 4.1 240 19:56 14.08.2019
3675 Clear 27 1014 28 10000 4.1 240 19:37 14.08.2019
3676 Clear 27 1013 32 10000 3.1 240 19:19 14.08.2019
3677 Clear 28 1014 25 10000 3.1 240 18:56 14.08.2019
3678 Clear 27 1014 25 10000 3.1 240 18:38 14.08.2019
3679 Clear 28 1014 17 10000 2.1 230 18:19 14.08.2019
3680 Clear 28 1014 17 10000 1.5 360 17:56 14.08.2019
3681 Clear 28 1014 16 10000 2.1 320 17:36 14.08.2019
3682 Clear 28 1014 16 10000 2.1 320 17:18 14.08.2019
3683 Clear 28 1014 18 10000 1.5 0 16:41 14.08.2019
3684 Clear 28 1015 18 10000 2.1 0 16:20 14.08.2019
3685 Clouds 27 1015 18 10000 2.6 0 15:45 14.08.2019
3686 Clouds 27 1015 17 10000 2.6 310 15:24 14.08.2019
3687 Clouds 27 1015 20 10000 1.5 0 14:59 14.08.2019
3688 Clouds 26 1015 20 10000 1.5 0 14:39 14.08.2019
3689 Clear 27 1015 23 10000 3.1 0 14:19 14.08.2019
3690 Clear 27 1015 23 10000 3.1 0 14:19 14.08.2019
3691 Clear 26 1016 19 10000 2.6 80 13:55 14.08.2019
3692 Clear 26 1016 19 10000 2.6 80 13:37 14.08.2019
3693 Clear 26 1016 21 10000 1.5 0 13:19 14.08.2019
3694 Clear 26 1016 22 10000 1.5 0 12:55 14.08.2019
3695 Clear 25 1016 22 10000 1.5 0 12:36 14.08.2019
3696 Clear 25 1016 26 10000 2.1 0 12:18 14.08.2019
3697 Clear 24 1016 26 10000 2.1 130 11:45 14.08.2019
3698 Clear 24 1015 25 10000 4.1 50 11:23 14.08.2019
3699 Clouds 24 1015 25 10000 4.1 60 10:54 14.08.2019
3700 Clouds 24 1015 25 10000 4.1 60 10:36 14.08.2019
3701 Clouds 23 1015 27 10000 6.7 30 10:18 14.08.2019
3702 Clear 22 1015 25 10000 2.6 50 09:42 14.08.2019
3703 Clear 21 1014 28 10000 4.6 20 09:20 14.08.2019
3704 Clear 21 1014 30 10000 5.1 20 08:43 14.08.2019
3705 Clear 21 1014 30 10000 5.1 20 08:43 14.08.2019
3706 Clear 19 1013 30 10000 6.7 20 08:25 14.08.2019
3707 Clear 19 1013 32 10000 6.2 20 07:56 14.08.2019
3708 Clear 19 1013 32 10000 6.2 20 07:35 14.08.2019
3709 Clear 19 1012 42 10000 4.1 360 06:50 14.08.2019
3710 Clear 19 1012 36 10000 3.6 10 06:25 14.08.2019
3711 Clear 19 1012 39 10000 4.6 20 05:32 14.08.2019
3712 Clear 19 1012 37 10000 5.1 10 03:52 14.08.2019
3713 Clear 20 1012 40 10000 5.7 360 02:37 14.08.2019
3714 Clear 20 1012 37 10000 5.7 20 01:59 14.08.2019
3715 Clear 20 1012 45 10000 3.1 10 01:30 14.08.2019
3716 Clear 21 1012 49 10000 4.6 360 00:25 14.08.2019
3717 Clear 21 1012 52 10000 4.1 350 23:43 13.08.2019
3718 Clear 22 1011 60 10000 3.6 350 23:19 13.08.2019
3719 Clear 22 1011 64 10000 4.1 350 22:56 13.08.2019
3720 Clear 22 1011 64 10000 4.1 350 22:56 13.08.2019
3721 Clear 22 1011 64 10000 4.1 350 22:56 13.08.2019
3722 Clear 22 1011 64 10000 4.1 350 22:38 13.08.2019
3723 Clear 22 1011 68 10000 3.1 360 22:19 13.08.2019
3724 Clear 23 1011 56 10000 3.1 350 21:54 13.08.2019
3725 Clear 23 1011 56 10000 3.1 350 21:36 13.08.2019
3726 Clear 24 1010 44 10000 3.1 310 21:18 13.08.2019
3727 Clear 24 1010 41 10000 3.1 300 20:42 13.08.2019
3728 Clear 25 1010 32 10000 3.1 330 20:19 13.08.2019
3729 Clear 26 1010 30 10000 3.6 340 19:56 13.08.2019
3730 Clear 26 1010 30 10000 3.6 340 19:37 13.08.2019
3731 Clear 26 1010 30 10000 3.1 360 19:19 13.08.2019
3732 Clear 27 1010 34 10000 3.6 360 18:41 13.08.2019
3733 Thunderstorm 27 1011 34 10000 2.6 340 18:22 13.08.2019
3734 Clear 27 1011 32 10000 3.1 330 17:44 13.08.2019
3735 Clear 27 1011 30 10000 3.1 330 17:25 13.08.2019
3736 Clear 27 1011 30 10000 4.1 350 16:59 13.08.2019
3737 Clear 27 1011 30 10000 4.1 350 16:59 13.08.2019
3738 Clear 27 1011 30 10000 4.1 350 16:40 13.08.2019
3739 Clear 28 1011 32 10000 3.6 320 16:21 13.08.2019
3740 Clear 28 1011 26 10000 5.1 340 15:59 13.08.2019
3741 Clear 28 1011 26 10000 5.1 340 15:38 13.08.2019
3742 Clear 28 1012 28 10000 4.1 360 15:19 13.08.2019
3743 Clear 28 1012 28 10000 4.6 10 14:43 13.08.2019
3744 Clear 28 1012 30 10000 4.1 350 14:20 13.08.2019
3745 Clear 28 1012 30 10000 4.1 330 13:58 13.08.2019
3746 Clear 28 1012 30 10000 4.1 330 13:58 13.08.2019
3747 Clear 28 1012 30 10000 4.1 330 13:39 13.08.2019
3748 Clear 28 1012 30 10000 4.1 340 13:18 13.08.2019
3749 Clear 27 1013 30 10000 4.1 340 12:56 13.08.2019
3750 Clear 27 1013 30 10000 4.1 340 12:38 13.08.2019
3751 Clear 27 1013 30 10000 3.6 20 12:18 13.08.2019
3752 Clear 26 1013 34 10000 4.6 360 11:42 13.08.2019
3753 Clear 25 1013 34 10000 4.6 10 11:22 13.08.2019
3754 Clear 25 1013 39 10000 5.1 360 10:57 13.08.2019
3755 Clear 24 1013 39 10000 5.1 360 10:38 13.08.2019
3756 Clear 23 1013 50 10000 4.1 350 10:19 13.08.2019
3757 Clear 23 1013 56 10000 4.1 360 09:45 13.08.2019
3758 Clear 22 1013 68 10000 3.1 10 09:24 13.08.2019
3759 Clear 22 1013 68 10000 3.1 10 09:24 13.08.2019
3760 Clear 22 1013 68 10000 3.1 10 09:24 13.08.2019
3761 Clear 21 1013 77 10000 3.6 10 08:57 13.08.2019
3762 Clear 21 1013 77 10000 3.6 10 08:39 13.08.2019
3763 Clear 20 1013 88 10000 4.1 360 08:20 13.08.2019
3764 Clear 19 1013 100 10000 4.1 350 07:42 13.08.2019
3765 Clear 18 1013 100 10000 4.1 350 07:21 13.08.2019
3766 Clear 18 1013 100 10000 3.1 10 06:43 13.08.2019
3767 Clear 18 1012 100 10000 3.6 360 05:47 13.08.2019
3768 Clear 19 1013 100 10000 2.1 20 04:24 13.08.2019
3769 Clear 20 1013 100 10000 3.1 360 02:22 13.08.2019
3770 Clear 20 1013 100 10000 3.6 350 01:26 13.08.2019
3771 Clear 20 1013 100 10000 3.1 350 00:47 13.08.2019
3772 Clouds 20 1013 83 10000 0.5 0 00:19 13.08.2019
3773 Clear 21 1013 88 10000 4.6 350 23:43 12.08.2019
3774 Clear 21 1013 88 10000 3.6 360 23:21 12.08.2019
3775 Clear 21 1013 94 10000 4.1 10 22:40 12.08.2019
3776 Clouds 21 1013 88 10000 6.2 20 22:20 12.08.2019
3777 Rain 21 1012 77 10000 5.1 30 21:57 12.08.2019
3778 Rain 21 1012 77 10000 5.1 30 21:38 12.08.2019
3779 Rain 21 1012 88 10000 5.7 20 21:19 12.08.2019
3780 Thunderstorm 21 1012 94 10000 5.1 340 20:58 12.08.2019
3781 Rain 21 1012 94 10000 5.1 340 20:39 12.08.2019
3782 Rain 21 1012 100 10000 4.6 330 20:20 12.08.2019
3783 Rain 22 1011 100 10000 3.6 60 19:56 12.08.2019
3784 Rain 21 1011 100 10000 3.6 60 19:38 12.08.2019
3785 Rain 21 1012 100 10000 4.6 10 19:19 12.08.2019
3786 Rain 22 1013 94 10000 3.1 360 18:56 12.08.2019
3787 Rain 22 1013 94 10000 3.1 360 18:37 12.08.2019
3788 Rain 23 1010 94 10000 5.7 10 18:19 12.08.2019
3789 Rain 24 1011 88 10000 3.6 20 17:47 12.08.2019
3790 Rain 25 1011 69 10000 5.7 330 17:28 12.08.2019
3791 Thunderstorm 27 1011 65 10000 5.1 350 16:57 12.08.2019
3792 Clouds 28 1011 65 10000 5.1 350 16:39 12.08.2019
3793 Clouds 28 1011 54 10000 4.1 10 16:20 12.08.2019
3794 Clouds 29 1011 54 10000 2.6 20 15:59 12.08.2019
3795 Clouds 28 1011 54 10000 2.6 20 15:41 12.08.2019
3796 -273 0 0 0 0 0 15:41 12.08.2019
3797 Clouds 28 1011 54 10000 2.6 20 15:40 12.08.2019
3798 Clouds 29 1012 54 10000 3.6 30 15:21 12.08.2019
3799 Clouds 28 1012 54 10000 5.1 10 14:55 12.08.2019
3800 Clouds 28 1012 54 10000 5.1 10 14:37 12.08.2019
3801 Clouds 28 1012 57 10000 6.7 10 14:18 12.08.2019
3802 Clouds 28 1012 57 10000 6.7 10 14:18 12.08.2019
3803 Clouds 28 1012 61 10000 5.1 350 13:42 12.08.2019
3804 Clouds 28 1012 51 10000 3.1 180 13:23 12.08.2019
3805 Rain 28 1013 48 10000 3.1 170 12:44 12.08.2019
3806 Rain 27 1012 51 10000 3.6 190 12:23 12.08.2019
3807 Rain 26 1013 58 10000 2.6 100 11:58 12.08.2019
3808 Rain 26 1013 58 10000 2.6 100 11:58 12.08.2019
3809 Rain 26 1013 58 10000 2.6 100 11:40 12.08.2019
3810 -273 0 0 0 0 0 11:40 12.08.2019
3811 Rain 26 1013 69 10000 2.1 70 11:21 12.08.2019
3812 Clouds 26 1013 74 10000 1.5 30 10:42 12.08.2019
3813 Clear 26 1013 78 10000 1 0 10:23 12.08.2019
3814 Clear 25 1012 88 10000 2.1 90 09:56 12.08.2019
3815 Clear 24 1012 94 10000 3.6 140 09:37 12.08.2019
3816 Clear 24 1012 94 10000 3.6 140 09:19 12.08.2019
3817 Clear 24 1013 100 10000 1.5 150 08:43 12.08.2019
3818 Clear 23 1013 100 10000 1 0 08:25 12.08.2019
3819 Clear 23 1013 100 10000 1.5 110 08:00 12.08.2019
3820 Clear 23 1013 100 10000 1.5 110 07:41 12.08.2019
3821 Clear 23 1013 100 10000 2.6 60 07:20 12.08.2019
3822 Clear 23 1013 100 10000 1.5 40 06:44 12.08.2019
3823 Clouds 23 1013 83 10000 2.1 100 04:40 12.08.2019
3824 Clouds 24 1013 73 10000 1.5 200 02:44 12.08.2019
3825 Thunderstorm 25 1013 73 10000 2.6 150 01:52 12.08.2019
3826 Clouds 25 1013 78 10000 1.5 130 01:20 12.08.2019
3827 Thunderstorm 26 1013 78 10000 2.6 140 00:56 12.08.2019
3828 Thunderstorm 26 1013 78 10000 2.6 140 00:38 12.08.2019
3829 Thunderstorm 26 1013 78 10000 1 0 00:19 12.08.2019
3830 Thunderstorm 26 1013 78 10000 2.1 20 23:41 11.08.2019
3831 Thunderstorm 27 1013 69 10000 1 20 23:20 11.08.2019
3832 Clouds 28 1013 69 10000 1.5 20 22:58 11.08.2019
3833 Clouds 28 1013 69 10000 1.5 20 22:39 11.08.2019
3834 Clouds 28 1013 74 10000 2.6 20 22:19 11.08.2019
3835 Clouds 28 1013 69 10000 2.6 20 21:58 11.08.2019
3836 Clouds 28 1013 69 10000 2.6 20 21:39 11.08.2019
3837 Clouds 28 1013 69 10000 3.1 10 21:20 11.08.2019
3838 Clouds 28 1013 54 10000 0.5 0 20:45 11.08.2019
3839 Clouds 29 1013 51 10000 1 0 20:26 11.08.2019
3840 Clouds 30 1013 52 10000 1 0 19:59 11.08.2019
3841 Clouds 30 1013 52 10000 1 0 19:41 11.08.2019
3842 Clouds 30 1013 55 10000 2.6 140 19:18 11.08.2019
3843 Clouds 30 1013 58 10000 2.1 140 18:41 11.08.2019
3844 Clouds 30 1013 55 10000 3.1 140 18:21 11.08.2019
3845 Clouds 30 1013 55 10000 4.6 110 17:57 11.08.2019
3846 Clouds 31 1013 55 10000 4.6 110 17:39 11.08.2019
3847 Clouds 31 1013 55 10000 4.6 90 17:20 11.08.2019
3848 Clouds 31 1014 49 10000 3.1 140 16:55 11.08.2019
3849 Clouds 31 1014 49 10000 3.1 140 16:37 11.08.2019
3850 Clouds 31 1014 49 10000 3.6 140 16:18 11.08.2019
3851 Clouds 31 1015 52 10000 3.6 140 15:43 11.08.2019
3852 Clouds 31 1015 52 10000 3.6 140 15:43 11.08.2019
3853 Clouds 31 1015 55 10000 2.1 150 15:24 11.08.2019
3854 Clouds 31 1015 52 10000 3.1 130 14:56 11.08.2019
3855 Clouds 31 1015 52 10000 3.1 130 14:38 11.08.2019
3856 Clouds 31 1016 55 10000 3.6 120 14:19 11.08.2019
3857 Clouds 30 1016 55 10000 3.6 130 13:44 11.08.2019
3858 Clouds 30 1016 55 10000 3.1 140 13:24 11.08.2019
3859 Clouds 30 1016 55 10000 3.1 140 13:24 11.08.2019
3860 Clouds 30 1016 58 10000 3.1 140 12:48 11.08.2019
3861 Clouds 29 1016 66 10000 3.1 160 12:23 11.08.2019
3862 Clouds 29 1016 69 10000 2.1 110 11:56 11.08.2019
3863 Clouds 28 1016 69 10000 2.1 110 11:38 11.08.2019
3864 Clouds 28 1016 74 10000 2.1 60 11:20 11.08.2019
3865 Clouds 27 1016 78 10000 1.5 0 10:41 11.08.2019
3866 Clouds 26 1016 83 10000 1.5 100 10:22 11.08.2019
3867 Clouds 26 1016 100 10000 1.5 120 09:59 11.08.2019
3868 Clouds 25 1016 100 10000 1.5 120 09:38 11.08.2019
3869 Clouds 25 1016 100 10000 1 0 09:20 11.08.2019
3870 Clouds 24 1016 100 10000 1.5 30 08:45 11.08.2019
3871 Clear 24 1016 100 10000 1 0 08:26 11.08.2019
3872 Clouds 23 1016 100 10000 1.5 140 07:54 11.08.2019
3873 Clouds 23 1015 100 10000 1 0 07:23 11.08.2019
3874 Clouds 23 1015 100 10000 1 0 06:44 11.08.2019
3875 Clear 22 1015 100 10000 0.5 0 05:35 11.08.2019
3876 Clear 23 1016 100 10000 1 0 03:41 11.08.2019
3877 Clear 23 1016 94 10000 1 0 02:48 11.08.2019
3878 Clear 24 1016 88 10000 1 0 01:38 11.08.2019
3879 Clear 24 1016 83 10000 1 0 01:19 11.08.2019
3880 Clear 24 1016 78 10000 1.5 210 00:43 11.08.2019
3881 Clear 24 1016 78 10000 1.5 240 00:23 11.08.2019
3882 Clear 25 1016 78 10000 3.6 230 23:43 10.08.2019
3883 Clear 25 1016 74 10000 3.6 250 23:24 10.08.2019
3884 Clear 26 1015 69 10000 3.1 260 22:43 10.08.2019
3885 Clear 26 1015 74 10000 4.1 230 22:25 10.08.2019
3886 Clear 27 1015 69 10000 4.1 230 21:58 10.08.2019
3887 Clear 27 1015 69 10000 4.1 230 21:38 10.08.2019
3888 Clear 27 1014 66 10000 2.6 0 21:19 10.08.2019
3889 Clear 28 1014 62 10000 1 0 20:56 10.08.2019
3890 Clear 28 1014 62 10000 1 0 20:37 10.08.2019
3891 Clear 29 1014 58 10000 1.5 240 20:18 10.08.2019
3892 Clear 31 1014 49 10000 1 0 19:39 10.08.2019
3893 Clear 31 1014 52 10000 2.1 260 19:20 10.08.2019
3894 Clouds 32 1014 52 10000 1 0 18:40 10.08.2019
3895 Clouds 32 1014 49 10000 1.5 220 18:40 10.08.2019
3896 Clouds 31 1014 52 10000 1 0 18:22 10.08.2019
3897 Clouds 32 1014 49 10000 2.1 210 17:45 10.08.2019
3898 Clouds 32 1014 55 10000 1.5 210 17:25 10.08.2019
3899 Clouds 32 1014 52 10000 1.5 0 16:47 10.08.2019
3900 Clouds 32 1014 52 10000 1 0 16:28 10.08.2019
3901 Clouds 32 1014 55 10000 1.5 0 15:56 10.08.2019
3902 Clouds 31 1015 58 10000 3.1 350 15:26 10.08.2019
3903 Clouds 31 1015 52 10000 1 0 14:45 10.08.2019
3904 Clouds 31 1015 52 10000 2.6 270 14:23 10.08.2019
3905 Clouds 31 1015 52 10000 2.6 270 14:23 10.08.2019
3906 Clear 31 1015 52 10000 2.1 240 13:59 10.08.2019
3907 Clear 30 1015 52 10000 2.1 240 13:39 10.08.2019
3908 Clouds 30 1015 52 10000 1.5 0 13:18 10.08.2019
3909 Clear 30 1016 55 10000 1.5 220 12:42 10.08.2019
3910 Clear 30 1016 51 10000 1.5 0 12:22 10.08.2019
3911 Clear 29 1016 58 10000 1.5 0 11:57 10.08.2019
3912 Clear 29 1016 58 10000 1.5 0 11:38 10.08.2019
3913 Clear 28 1016 61 10000 1.5 100 11:20 10.08.2019
3914 Clear 27 1016 65 10000 2.1 130 10:39 10.08.2019
3915 Rain 27 1016 78 10000 2.6 100 10:20 10.08.2019
3916 Rain 27 1016 78 10000 2.6 100 10:20 10.08.2019
3917 Rain 26 1016 83 10000 3.1 80 09:44 10.08.2019
3918 Rain 25 1015 83 10000 2.1 70 09:25 10.08.2019
3919 Rain 25 1015 94 10000 2.1 60 08:59 10.08.2019
3920 Rain 24 1015 94 10000 2.1 60 08:38 10.08.2019
3921 Rain 24 1015 94 10000 1.5 20 08:19 10.08.2019
3922 Clouds 23 1015 100 10000 1 0 07:48 10.08.2019
3923 Clouds 23 1015 100 10000 1 0 07:26 10.08.2019
3924 Clouds 23 1014 100 10000 1.5 350 06:47 10.08.2019
3925 Clouds 23 1014 100 10000 1 40 06:18 10.08.2019
3926 Clouds 23 1015 100 10000 2.1 20 05:22 10.08.2019
3927 Clouds 23 1015 100 10000 1 40 04:18 10.08.2019
3928 Clouds 24 1015 94 10000 2.6 340 02:51 10.08.2019
3929 Clouds 24 1015 83 10000 1.5 350 01:57 10.08.2019
3930 Clouds 24 1015 83 10000 1.5 350 01:57 10.08.2019
3931 Clouds 24 1015 83 10000 1.5 350 01:37 10.08.2019
3932 Clouds 24 1015 83 10000 1.5 10 01:19 10.08.2019
3933 Clouds 24 1015 88 10000 1 0 00:43 10.08.2019
3934 Clear 24 1015 83 10000 2.1 20 00:20 10.08.2019
3935 Clear 25 1015 78 10000 2.6 20 23:41 09.08.2019
3936 Clear 25 1015 78 10000 2.6 20 23:22 09.08.2019
3937 Clear 26 1015 73 10000 1.5 20 22:56 09.08.2019
3938 Clear 26 1014 65 10000 1 0 22:37 09.08.2019
3939 Clear 27 1014 65 10000 1 0 22:19 09.08.2019
3940 Clear 27 1014 54 10000 2.1 250 21:41 09.08.2019
3941 Clear 28 1014 54 10000 2.1 260 21:22 09.08.2019
3942 Clear 28 1014 51 10000 2.6 270 20:58 09.08.2019
3943 Clear 28 1014 51 10000 2.6 270 20:39 09.08.2019
3944 Clear 29 1014 51 10000 2.6 280 20:20 09.08.2019
3945 Clear 30 1014 55 10000 2.6 260 19:43 09.08.2019
3946 Clouds 30 1014 51 10000 2.1 240 19:23 09.08.2019
3947 Clouds 31 1014 55 10000 3.1 270 18:58 09.08.2019
3948 Clouds 31 1014 55 10000 3.1 270 18:38 09.08.2019
3949 Clouds 31 1014 52 10000 3.6 250 18:19 09.08.2019
3950 Clouds 31 1014 46 10000 2.6 240 17:43 09.08.2019
3951 Clouds 31 1014 46 10000 2.6 240 17:43 09.08.2019
3952 Clouds 31 1014 46 10000 2.6 240 17:24 09.08.2019
3953 -273 0 0 0 0 0 16:56 09.08.2019
3954 Clouds 31 1014 43 10000 1.5 0 16:37 09.08.2019
3955 Clouds 31 1014 48 10000 2.6 240 16:18 09.08.2019
3956 Clouds 31 1015 48 10000 1.5 0 15:42 09.08.2019
3957 Clear 31 1015 52 10000 1.5 210 15:21 09.08.2019
3958 Clouds 30 1015 55 10000 2.6 220 14:58 09.08.2019
3959 Clouds 30 1015 55 10000 2.6 220 14:38 09.08.2019
3960 Clouds 30 1015 55 10000 2.6 220 14:38 09.08.2019
3961 Clouds 30 1015 55 10000 1 0 14:20 09.08.2019
3962 Clouds 30 1015 55 10000 1.5 0 13:45 09.08.2019
3963 Clouds 29 1016 61 10000 1.5 150 13:21 09.08.2019
3964 Clouds 29 1016 55 10000 1 0 12:56 09.08.2019
3965 Clouds 29 1016 55 10000 1 0 12:37 09.08.2019
3966 Clouds 28 1016 65 10000 1 0 12:18 09.08.2019
3967 Clouds 27 1016 65 10000 1.5 0 11:41 09.08.2019
3968 -273 0 0 0 0 0 11:20 09.08.2019
3969 Clear 26 1016 74 10000 2.1 100 10:42 09.08.2019
3970 Clear 26 1016 78 10000 2.6 90 10:22 09.08.2019
3971 Clear 25 1016 88 10000 3.1 100 09:59 09.08.2019
3972 Clear 25 1016 88 10000 3.1 100 09:38 09.08.2019
3973 Clear 24 1016 94 10000 2.6 30 09:19 09.08.2019
3974 Clear 23 1016 100 10000 3.1 360 08:44 09.08.2019
3975 Clear 23 1015 100 10000 2.6 20 08:25 09.08.2019
3976 Clouds 22 1015 100 10000 3.6 10 07:56 09.08.2019
3977 Clouds 22 1015 100 10000 3.6 10 07:37 09.08.2019
3978 Clouds 21 1015 100 10000 3.6 360 07:19 09.08.2019
3979 Clouds 21 1015 100 10000 2.6 20 06:40 09.08.2019
3980 Clouds 21 1015 100 10000 3.1 20 06:20 09.08.2019
3981 Clear 21 1015 100 10000 3.1 20 05:31 09.08.2019
3982 Clear 22 1014 94 10000 1.5 20 02:27 09.08.2019
3983 Clear 22 1014 94 10000 1.5 40 01:23 09.08.2019
3984 Clear 22 1014 94 10000 2.6 10 00:41 09.08.2019
3985 Clear 22 1014 88 10000 1.5 50 00:22 09.08.2019
3986 Clear 23 1013 88 10000 1.5 40 23:56 08.08.2019
3987 Clear 23 1013 88 10000 1.5 40 23:56 08.08.2019
3988 Clear 23 1013 88 10000 1.5 40 23:36 08.08.2019
3989 Clear 23 1013 78 10000 1 20 23:18 08.08.2019
3990 Clear 24 1013 73 10000 0.5 0 22:38 08.08.2019
3991 Clear 25 1013 61 10000 1.5 250 22:19 08.08.2019
3992 Clear 25 1012 57 10000 2.1 230 21:59 08.08.2019
3993 Clear 26 1012 57 10000 2.1 230 21:41 08.08.2019
3994 Clear 26 1012 54 10000 2.1 230 21:22 08.08.2019
3995 Clear 27 1012 51 10000 2.6 240 20:57 08.08.2019
3996 Clear 27 1012 51 10000 2.6 240 20:39 08.08.2019
3997 Clear 27 1012 51 10000 2.6 230 20:19 08.08.2019
3998 Clear 29 1011 51 10000 2.6 280 19:47 08.08.2019
3999 Clear 29 1011 51 10000 2.1 250 19:28 08.08.2019
4000 Clear 30 1012 51 10000 3.1 270 18:47 08.08.2019
4001 Clear 30 1012 51 10000 3.1 250 18:25 08.08.2019
4002 Clouds 30 1012 51 10000 2.6 250 17:59 08.08.2019
4003 Clouds 30 1012 51 10000 2.6 250 17:41 08.08.2019
4004 Clouds 30 1012 51 10000 4.1 300 17:22 08.08.2019
4005 Clouds 30 1012 51 10000 4.1 250 16:56 08.08.2019
4006 Clouds 30 1012 51 10000 4.1 250 16:37 08.08.2019
4007 Clouds 29 1012 54 10000 3.6 270 16:19 08.08.2019
4008 Clouds 29 1012 54 10000 4.1 260 15:42 08.08.2019
4009 Clouds 29 1012 54 10000 3.1 0 15:23 08.08.2019
4010 Clouds 28 1012 54 10000 2.6 210 14:59 08.08.2019
4011 Clouds 28 1012 54 10000 2.6 210 14:37 08.08.2019
4012 Clouds 28 1013 58 10000 3.1 0 14:18 08.08.2019
4013 Clouds 28 1012 54 10000 1.5 0 13:40 08.08.2019
4014 Clouds 27 1013 61 10000 2.1 280 13:20 08.08.2019
4015 Clouds 27 1013 65 10000 1.5 0 12:40 08.08.2019
4016 Clouds 26 1013 61 10000 1.5 0 12:21 08.08.2019
4017 Clear 25 1013 69 10000 1.5 220 11:59 08.08.2019
4018 Clear 25 1013 69 10000 1.5 220 11:39 08.08.2019
4019 Clear 25 1013 69 10000 2.1 330 11:21 08.08.2019
4020 Clear 24 1013 78 10000 2.1 360 10:41 08.08.2019
4021 Clear 23 1013 94 10000 3.1 360 10:21 08.08.2019
4022 Clear 23 1013 100 10000 3.1 10 09:52 08.08.2019
4023 Clear 22 1013 100 10000 3.1 360 09:30 08.08.2019
4024 Clear 22 1013 100 10000 3.1 360 09:30 08.08.2019
4025 Clear 21 1012 100 10000 2.1 20 08:57 08.08.2019
4026 Clear 20 1012 100 10000 2.1 20 08:38 08.08.2019
4027 Clear 20 1012 100 10000 2.1 20 08:19 08.08.2019
4028 Clear 19 1012 100 10000 2.1 10 07:40 08.08.2019
4029 Fog 18 1012 100 10000 2.1 20 07:20 08.08.2019
4030 Fog 18 1012 100 10000 1 0 06:48 08.08.2019
4031 Fog 18 1012 100 10000 1.5 10 06:27 08.08.2019
4032 Fog 18 1012 100 10000 2.1 10 05:53 08.08.2019
4033 Fog 18 1012 100 10000 2.6 360 04:54 08.08.2019
4034 Mist 19 1012 100 10000 1 70 03:53 08.08.2019
4035 Clouds 19 1012 100 10000 0.5 0 02:28 08.08.2019
4036 Clouds 19 1012 100 10000 0.5 0 01:36 08.08.2019
4037 Clouds 19 1011 100 10000 2.6 20 00:26 08.08.2019
4038 Clouds 19 1011 100 10000 1 0 23:50 07.08.2019
4039 Rain 19 1012 100 10000 1.5 30 23:19 07.08.2019
4040 Rain 20 1012 100 10000 2.1 30 22:56 07.08.2019
4041 Rain 20 1011 100 10000 3.1 40 22:38 07.08.2019
4042 Rain 20 1011 100 10000 3.1 40 22:19 07.08.2019
4043 Rain 20 1011 100 10000 3.6 40 21:55 07.08.2019
4044 Rain 20 1011 100 10000 3.6 40 21:37 07.08.2019
4045 Rain 20 1011 100 10000 1.5 40 21:18 07.08.2019
4046 Rain 20 1011 100 7000 3.6 60 20:42 07.08.2019
4047 Rain 20 1011 100 4000 4.1 70 20:23 07.08.2019
4048 Rain 21 1011 100 2000 5.1 350 19:57 07.08.2019
4049 Rain 21 1011 100 2000 5.1 350 19:39 07.08.2019
4050 Rain 21 1010 94 10000 3.1 30 19:21 07.08.2019
4051 Thunderstorm 21 1010 94 10000 4.6 20 18:43 07.08.2019
4052 Thunderstorm 21 1011 100 10000 4.6 30 18:21 07.08.2019
4053 Rain 22 1011 100 10000 5.7 10 17:59 07.08.2019
4054 Rain 22 1011 100 10000 5.7 10 17:40 07.08.2019
4055 Rain 22 1011 100 8000 6.2 20 17:21 07.08.2019
4056 Rain 22 1011 100 8000 6.2 20 17:21 07.08.2019
4057 Rain 23 1010 100 6000 8.2 330 16:57 07.08.2019
4058 Thunderstorm 23 1010 100 6000 8.2 330 16:39 07.08.2019
4059 Thunderstorm 24 1010 88 10000 4.6 10 16:20 07.08.2019
4060 Rain 25 1011 78 10000 4.1 350 15:56 07.08.2019
4061 Rain 25 1011 78 10000 4.1 350 15:37 07.08.2019
4062 Rain 25 1011 78 10000 4.6 10 15:19 07.08.2019
4063 Thunderstorm 25 1011 78 10000 4.6 10 14:45 07.08.2019
4064 Thunderstorm 25 1012 83 10000 5.7 350 14:27 07.08.2019
4065 Thunderstorm 25 1012 88 10000 4.1 340 13:45 07.08.2019
4066 Rain 25 1012 83 10000 3.1 360 13:19 07.08.2019
4067 Rain 25 1013 83 10000 2.6 50 12:58 07.08.2019
4068 Rain 25 1013 83 10000 2.6 50 12:39 07.08.2019
4069 Rain 24 1013 88 10000 2.6 50 12:21 07.08.2019
4070 Rain 24 1013 94 10000 3.1 20 12:00 07.08.2019
4071 Rain 23 1013 94 10000 3.1 20 11:41 07.08.2019
4072 Rain 23 1013 100 10000 3.1 30 11:19 07.08.2019
4073 Rain 23 1013 100 10000 3.1 30 11:19 07.08.2019
4074 Rain 22 1013 100 10000 2.6 10 10:55 07.08.2019
4075 Rain 22 1013 100 10000 2.1 60 10:37 07.08.2019
4076 Rain 22 1013 100 10000 2.1 60 10:18 07.08.2019
4077 Rain 21 1013 100 10000 2.6 40 09:44 07.08.2019
4078 Rain 21 1013 100 10000 3.1 20 09:21 07.08.2019
4079 Rain 21 1013 100 10000 3.1 30 08:45 07.08.2019
4080 Rain 21 1013 100 10000 4.1 360 08:26 07.08.2019
4081 Rain 20 1013 100 10000 3.6 20 07:52 07.08.2019
4082 Rain 21 1013 100 10000 3.6 20 07:34 07.08.2019
4083 Thunderstorm 21 1013 88 10000 3.1 30 06:57 07.08.2019
4084 Rain 21 1013 83 10000 2.6 360 06:29 07.08.2019
4085 Rain 21 1013 83 10000 2.6 10 05:46 07.08.2019
4086 Clouds 21 1014 77 10000 1.5 70 04:46 07.08.2019
4087 Clouds 21 1014 73 10000 3.6 360 03:21 07.08.2019
4088 Clouds 21 1014 73 10000 3.1 30 02:43 07.08.2019
4089 Rain 22 1014 68 10000 5.7 60 01:58 07.08.2019
4090 Rain 22 1014 73 10000 6.7 60 01:31 07.08.2019
4091 Thunderstorm 22 1013 69 10000 2.1 60 00:38 07.08.2019
4092 Thunderstorm 22 1013 69 10000 2.1 60 00:19 07.08.2019
4093 Rain 23 1013 69 10000 2.1 160 23:41 06.08.2019
4094 Thunderstorm 23 1013 69 10000 4.1 210 23:21 06.08.2019
4095 Thunderstorm 23 1013 69 10000 4.1 210 23:21 06.08.2019
4096 Thunderstorm 23 1013 65 10000 3.1 190 22:42 06.08.2019
4097 Thunderstorm 24 1012 65 10000 4.6 200 22:22 06.08.2019
4098 Thunderstorm 24 1013 69 9000 1 0 21:59 06.08.2019
4099 Rain 25 1012 65 10000 4.1 210 21:40 06.08.2019
4100 Rain 25 1012 65 10000 4.1 210 21:20 06.08.2019
4101 Rain 25 1012 65 10000 4.1 210 21:20 06.08.2019
4102 Rain 25 1012 65 10000 4.1 210 21:20 06.08.2019
4103 Rain 25 1012 65 10000 4.1 210 21:20 06.08.2019
4104 Thunderstorm 26 1012 61 10000 4.1 200 20:47 06.08.2019
4105 Rain 27 1013 58 10000 3.6 220 20:29 06.08.2019
4106 Clouds 28 1012 62 10000 2.6 170 19:58 06.08.2019
4107 Rain 28 1012 62 10000 2.6 170 19:38 06.08.2019
4108 Clouds 28 1012 54 10000 4.6 220 19:19 06.08.2019
4109 Rain 29 1012 55 10000 3.6 200 18:43 06.08.2019
4110 Rain 29 1012 51 10000 4.1 210 18:25 06.08.2019
4111 Clouds 30 1012 51 10000 3.6 200 17:58 06.08.2019
4112 Rain 30 1012 51 10000 3.6 200 17:38 06.08.2019
4113 Rain 30 1013 51 10000 3.1 170 17:19 06.08.2019
4114 Rain 30 1013 51 10000 3.6 220 16:54 06.08.2019
4115 Clouds 30 1013 48 10000 3.1 170 16:36 06.08.2019
4116 Clouds 30 1013 48 10000 3.1 170 16:18 06.08.2019
4117 Clouds 30 1014 45 10000 2.6 0 15:55 06.08.2019
4118 Clouds 30 1014 45 10000 2.6 0 15:36 06.08.2019
4119 Clouds 30 1014 45 10000 2.1 0 15:18 06.08.2019
4120 Clouds 29 1014 48 10000 2.6 0 14:40 06.08.2019
4121 Clouds 29 1014 48 10000 2.6 0 14:40 06.08.2019
4122 Clouds 29 1015 48 10000 2.6 120 14:21 06.08.2019
4123 Clouds 29 1015 54 10000 2.1 0 13:55 06.08.2019
4124 Clouds 29 1015 54 10000 2.1 0 13:36 06.08.2019
4125 Clouds 29 1015 51 10000 1.5 0 13:18 06.08.2019
4126 Clouds 28 1015 58 10000 1.5 0 12:40 06.08.2019
4127 Clouds 28 1016 61 10000 2.1 140 12:22 06.08.2019
4128 Clouds 27 1016 61 10000 2.6 120 11:46 06.08.2019
4129 Clouds 27 1016 65 10000 2.1 0 11:21 06.08.2019
4130 Clouds 26 1016 69 10000 1.5 210 10:59 06.08.2019
4131 Clouds 26 1016 69 10000 1.5 210 10:40 06.08.2019
4132 Clouds 26 1016 65 10000 1.5 180 10:21 06.08.2019
4133 Clouds 25 1016 73 10000 1.5 170 09:43 06.08.2019
4134 Clouds 24 1016 69 10000 2.1 130 09:23 06.08.2019
4135 Clouds 24 1015 69 10000 1.5 120 08:51 06.08.2019
4136 Clouds 23 1015 73 10000 1.5 70 08:30 06.08.2019
4137 Clouds 24 1015 69 10000 1.5 120 08:30 06.08.2019
4138 Clouds 23 1015 78 10000 1 0 07:59 06.08.2019
4139 Clouds 22 1015 78 10000 1.5 150 07:31 06.08.2019
4140 Clouds 21 1015 83 10000 1 100 06:45 06.08.2019
4141 Clouds 21 1015 77 10000 1 90 06:24 06.08.2019
4142 Clear 21 1015 77 10000 1.5 110 05:46 06.08.2019
4143 Clear 22 1015 73 10000 1 140 02:51 06.08.2019
4144 Clear 23 1015 64 10000 2.1 270 01:26 06.08.2019
4145 Clear 23 1015 64 10000 3.1 230 00:52 06.08.2019
4146 Clear 24 1015 64 10000 2.1 210 00:19 06.08.2019
4147 Clear 24 1015 57 10000 4.1 200 23:20 05.08.2019
4148 Clear 25 1015 57 10000 1.5 180 22:57 05.08.2019
4149 Clear 25 1015 57 10000 1.5 180 22:38 05.08.2019
4150 Clear 26 1014 51 10000 1.5 190 22:20 05.08.2019
4151 Clear 27 1014 51 10000 1 0 21:42 05.08.2019
4152 Clear 27 1014 42 10000 1.5 280 21:21 05.08.2019
4153 Clear 28 1014 42 10000 1.5 280 20:57 05.08.2019
4154 Clear 28 1014 42 10000 1.5 280 20:39 05.08.2019
4155 Clear 28 1014 37 10000 1.5 260 20:21 05.08.2019
4156 Clear 28 1014 37 10000 1.5 260 20:21 05.08.2019
4157 -273 0 0 0 0 0 19:55 05.08.2019
4158 Clear 30 1013 37 10000 2.6 250 19:37 05.08.2019
4159 Clear 30 1013 33 10000 3.6 260 19:18 05.08.2019
4160 Clear 31 1014 35 10000 3.1 220 18:41 05.08.2019
4161 Clear 31 1014 38 10000 3.6 250 18:19 05.08.2019
4162 Clear 31 1014 40 10000 3.6 240 17:47 05.08.2019
4163 Clouds 31 1014 40 10000 4.1 250 17:29 05.08.2019
4164 Clouds 31 1014 38 10000 3.6 260 16:47 05.08.2019
4165 Clouds 31 1014 40 10000 3.6 240 16:27 05.08.2019
4166 Clouds 31 1014 40 10000 4.1 250 15:58 05.08.2019
4167 Clouds 31 1014 40 10000 4.1 250 15:40 05.08.2019
4168 Clouds 30 1015 40 10000 3.6 220 15:20 05.08.2019
4169 Clouds 30 1015 40 10000 4.1 220 14:40 05.08.2019
4170 Clear 30 1015 40 10000 1.5 0 14:21 05.08.2019
4171 Clear 29 1015 42 10000 3.1 250 13:47 05.08.2019
4172 Clear 29 1016 42 10000 3.1 0 13:23 05.08.2019
4173 Clear 29 1016 48 10000 2.6 190 12:49 05.08.2019
4174 Clear 28 1016 48 10000 2.6 180 12:21 05.08.2019
4175 Clear 27 1016 48 10000 2.1 0 11:54 05.08.2019
4176 Clear 27 1016 48 10000 2.1 0 11:36 05.08.2019
4177 Clear 27 1017 51 10000 2.6 100 11:18 05.08.2019
4178 Clear 26 1017 54 10000 2.1 100 10:43 05.08.2019
4179 Clear 26 1017 61 10000 2.1 0 10:22 05.08.2019
4180 Clear 25 1017 61 10000 2.1 100 09:43 05.08.2019
4181 Clear 24 1017 64 10000 2.1 80 09:25 05.08.2019
4182 Clear 24 1017 69 10000 1.5 40 08:59 05.08.2019
4183 Clear 23 1017 69 10000 1.5 40 08:40 05.08.2019
4184 Clear 22 1017 83 10000 2.1 20 08:20 05.08.2019
4185 Clear 22 1017 83 10000 2.1 20 08:20 05.08.2019
4186 Clouds 21 1016 77 10000 2.1 10 07:42 05.08.2019
4187 Clouds 21 1016 82 10000 1 40 07:22 05.08.2019
4188 Clouds 20 1016 82 10000 3.1 10 06:32 05.08.2019
4189 Clouds 21 1016 77 10000 1.5 360 05:51 05.08.2019
4190 Clouds 21 1016 73 10000 1.5 70 05:19 05.08.2019
4191 Clear 21 1016 73 10000 2.1 40 04:25 05.08.2019
4192 Clear 22 1016 73 10000 3.1 90 03:30 05.08.2019
4193 Clouds 22 1016 77 10000 1.5 10 02:35 05.08.2019
4194 Clouds 22 1016 82 10000 1.5 30 01:33 05.08.2019
4195 Clouds 22 1016 73 10000 1.5 30 00:41 05.08.2019
4196 Clear 23 1015 77 10000 2.1 50 00:21 05.08.2019
4197 Clear 23 1015 73 10000 1 0 23:56 04.08.2019
4198 Clear 23 1015 73 10000 1 0 23:36 04.08.2019
4199 Clear 23 1015 68 10000 1.5 50 23:18 04.08.2019
4200 Clear 24 1015 73 10000 2.1 10 22:54 04.08.2019
4201 Clear 24 1015 73 10000 2.1 10 22:36 04.08.2019
4202 Clear 24 1015 73 10000 2.1 10 22:36 04.08.2019
4203 Clear 25 1015 54 10000 1 0 22:18 04.08.2019
4204 Clear 26 1014 51 10000 2.1 210 21:42 04.08.2019
4205 Clear 26 1014 47 10000 2.6 220 21:20 04.08.2019
4206 Clear 27 1014 45 10000 3.1 240 20:44 04.08.2019
4207 Clear 28 1014 37 10000 3.6 240 20:19 04.08.2019
4208 Clear 28 1014 45 10000 4.1 250 19:57 04.08.2019
4209 Clear 29 1014 45 10000 4.1 250 19:37 04.08.2019
4210 Clear 29 1013 37 10000 3.6 250 19:19 04.08.2019
4211 Clear 30 1013 35 10000 4.1 240 18:42 04.08.2019
4212 Clear 30 1013 35 10000 4.1 240 18:42 04.08.2019
4213 Clear 30 1013 33 10000 3.6 220 18:20 04.08.2019
4214 Clear 30 1013 35 10000 3.1 240 17:44 04.08.2019
4215 Clear 30 1014 35 10000 2.6 210 17:24 04.08.2019
4216 Clouds 30 1014 38 10000 2.6 190 16:55 04.08.2019
4217 Clouds 30 1014 38 10000 2.6 190 16:36 04.08.2019
4218 Clouds 30 1014 40 10000 2.6 200 16:18 04.08.2019
4219 Clouds 30 1014 35 10000 2.1 140 15:39 04.08.2019
4220 Clouds 29 1014 40 10000 2.6 0 15:20 04.08.2019
4221 Clouds 29 1014 42 10000 2.6 160 14:44 04.08.2019
4222 Clouds 29 1015 40 10000 2.1 0 14:26 04.08.2019
4223 Clear 28 1015 40 10000 2.1 150 13:47 04.08.2019
4224 Clear 28 1015 42 10000 2.6 0 13:27 04.08.2019
4225 Clear 28 1015 42 10000 2.6 0 13:27 04.08.2019
4226 Clear 27 1015 45 10000 2.6 110 12:57 04.08.2019
4227 Clear 27 1015 45 10000 2.6 110 12:39 04.08.2019
4228 Clear 27 1015 45 10000 2.1 0 12:21 04.08.2019
4229 Clear 27 1015 47 10000 2.6 80 11:49 04.08.2019
4230 Clear 26 1016 50 10000 2.6 70 11:23 04.08.2019
4231 Clear 25 1016 50 10000 3.1 90 10:51 04.08.2019
4232 Clear 25 1016 53 10000 3.1 90 10:23 04.08.2019
4233 Clouds 24 1016 57 10000 3.1 100 09:47 04.08.2019
4234 Clouds 23 1016 57 10000 2.1 100 09:27 04.08.2019
4235 Clear 23 1015 60 10000 2.6 90 08:59 04.08.2019
4236 Clear 22 1015 60 10000 2.6 90 08:38 04.08.2019
4237 Clear 20 1015 64 10000 1.5 50 07:56 04.08.2019
4238 Clear 20 1015 68 10000 1.5 360 07:38 04.08.2019
4239 Clear 19 1014 68 10000 3.1 20 06:43 04.08.2019
4240 Clear 20 1014 68 10000 3.6 20 06:19 04.08.2019
4241 Clear 20 1013 82 10000 2.1 20 03:38 04.08.2019
4242 Clear 20 1013 77 10000 3.6 10 01:56 04.08.2019
4243 Clear 21 1013 77 10000 3.6 10 01:32 04.08.2019
4244 Clear 21 1013 77 10000 2.1 360 00:43 04.08.2019
4245 Clear 22 1013 72 10000 1.5 20 00:24 04.08.2019
4246 Clear 22 1012 72 10000 2.1 30 23:56 03.08.2019
4247 Clear 22 1012 72 10000 2.1 30 23:37 03.08.2019
4248 Clear 22 1012 72 10000 2.1 20 23:18 03.08.2019
4249 Clear 23 1012 64 10000 1.5 40 22:40 03.08.2019
4250 Clear 24 1012 44 10000 1.5 270 22:19 03.08.2019
4251 Clear 25 1012 44 10000 2.6 250 21:39 03.08.2019
4252 Clear 26 1011 42 10000 2.6 260 21:21 03.08.2019
4253 Clear 26 1011 42 10000 2.6 260 21:21 03.08.2019
4254 Clear 27 1011 39 10000 3.1 250 20:45 03.08.2019
4255 Clear 28 1011 35 10000 3.6 250 20:24 03.08.2019
4256 Clear 29 1011 28 10000 4.1 250 19:55 03.08.2019
4257 Clear 29 1011 28 10000 4.1 250 19:37 03.08.2019
4258 Clear 30 1011 25 10000 5.1 250 19:19 03.08.2019
4259 Clear 30 1011 25 10000 5.7 250 18:40 03.08.2019
4260 Clear 30 1011 23 10000 5.7 260 18:22 03.08.2019
4261 Clear 30 1012 27 10000 5.7 260 17:42 03.08.2019
4262 Clear 30 1012 29 10000 5.1 250 17:20 03.08.2019
4263 Clear 30 1012 29 10000 4.6 250 16:39 03.08.2019
4264 Clear 30 1012 31 10000 5.1 240 16:21 03.08.2019
4265 Clear 30 1012 29 10000 3.6 270 15:46 03.08.2019
4266 Clouds 30 1013 29 10000 4.1 230 15:26 03.08.2019
4267 Clear 29 1013 33 10000 4.1 240 14:48 03.08.2019
4268 Clear 29 1013 37 10000 3.1 240 14:24 03.08.2019
4269 Clear 29 1013 35 10000 4.1 250 13:57 03.08.2019
4270 Clear 28 1013 35 10000 4.1 250 13:37 03.08.2019
4271 Clear 28 1013 35 10000 4.1 250 13:37 03.08.2019
4272 Clear 28 1013 39 10000 3.1 250 13:19 03.08.2019
4273 Clear 27 1013 39 10000 3.1 250 12:41 03.08.2019
4274 Clear 27 1013 39 10000 2.1 300 12:23 03.08.2019
4275 Clear 26 1013 41 10000 1.5 0 11:52 03.08.2019
4276 Clear 25 1014 44 10000 1.5 250 11:34 03.08.2019
4277 Clear 24 1014 47 10000 1 0 10:46 03.08.2019
4278 Clear 24 1014 50 10000 1.5 140 10:24 03.08.2019
4279 Clear 24 1014 50 10000 1.5 140 10:24 03.08.2019
4280 Clear 22 1014 56 10000 0.5 0 09:45 03.08.2019
4281 Clear 22 1014 56 10000 1 0 09:24 03.08.2019
4282 Clear 21 1014 72 10000 1.5 40 08:56 03.08.2019
4283 Clear 19 1014 72 10000 1.5 360 08:21 03.08.2019
4284 Clear 17 1013 82 10000 1 0 07:38 03.08.2019
4285 Clear 17 1013 77 10000 2.1 350 06:40 03.08.2019
4286 Clear 16 1013 77 10000 2.6 110 05:47 03.08.2019
4287 Clear 18 1012 82 10000 3.6 10 02:43 03.08.2019
4288 Clear 18 1012 77 10000 3.6 330 01:54 03.08.2019
4289 Clear 19 1012 82 10000 1 0 00:56 03.08.2019
4290 Clear 19 1012 77 10000 2.1 360 00:29 03.08.2019
4291 Clear 19 1012 82 10000 2.6 30 23:41 02.08.2019
4292 Clear 19 1012 77 10000 2.6 30 23:19 02.08.2019
4293 Clear 20 1012 68 10000 1.5 40 22:57 02.08.2019
4294 Clear 20 1012 68 10000 1.5 40 22:39 02.08.2019
4295 Clear 21 1012 56 10000 2.1 80 22:20 02.08.2019
4296 Clear 22 1011 57 10000 2.1 10 21:44 02.08.2019
4297 Clear 22 1011 53 10000 2.1 310 21:25 02.08.2019
4298 Clear 23 1011 50 10000 3.1 310 20:59 02.08.2019
4299 Clear 23 1011 50 10000 3.1 310 20:41 02.08.2019
4300 Clear 23 1011 47 10000 1 0 20:20 02.08.2019
4301 Clear 24 1011 45 10000 2.1 350 19:48 02.08.2019
4302 Clear 25 1011 47 10000 2.6 340 19:28 02.08.2019
4303 Clear 25 1011 47 10000 3.1 0 18:45 02.08.2019
4304 Rain 25 1011 51 10000 2.6 340 18:26 02.08.2019
4305 Rain 25 1010 51 10000 3.1 340 17:48 02.08.2019
4306 Clear 24 1010 50 10000 3.1 30 17:25 02.08.2019
4307 Clear 24 1011 54 10000 4.6 20 16:59 02.08.2019
4308 Rain 23 1011 54 10000 4.6 20 16:38 02.08.2019
4309 Rain 22 1011 61 10000 5.1 20 16:19 02.08.2019
4310 Thunderstorm 21 1011 77 10000 3.1 40 15:40 02.08.2019
4311 Thunderstorm 21 1010 82 10000 3.6 340 15:19 02.08.2019
4312 Thunderstorm 22 1012 93 8000 5.7 70 14:46 02.08.2019
4313 Thunderstorm 24 1013 88 4000 4.6 60 14:19 02.08.2019
4314 Thunderstorm 27 1010 54 10000 7.7 290 13:49 02.08.2019
4315 Thunderstorm 28 1010 48 10000 3.1 190 13:27 02.08.2019
4316 Thunderstorm 28 1011 54 10000 2.6 190 12:46 02.08.2019
4317 Clouds 27 1011 54 10000 2.6 190 12:23 02.08.2019
4318 Clouds 27 1011 54 10000 2.6 100 11:55 02.08.2019
4319 Clear 27 1011 57 10000 2.1 80 11:37 02.08.2019
4320 Clear 27 1011 57 10000 2.1 80 11:18 02.08.2019
4321 Clear 26 1011 61 10000 2.6 70 10:41 02.08.2019
4322 Clouds 25 1012 65 10000 2.1 50 10:23 02.08.2019
4323 Clouds 25 1012 69 10000 2.6 40 09:52 02.08.2019
4324 Clouds 24 1012 73 10000 2.1 40 09:26 02.08.2019
4325 Clouds 23 1012 78 10000 2.6 30 08:50 02.08.2019
4326 Rain 22 1011 78 10000 3.1 30 08:23 02.08.2019
4327 Thunderstorm 21 1011 83 10000 3.6 350 07:51 02.08.2019
4328 Thunderstorm 21 1011 88 10000 2.6 30 07:31 02.08.2019
4329 Rain 21 1012 83 10000 2.1 350 06:51 02.08.2019
4330 Clouds 21 1012 88 10000 3.6 350 06:24 02.08.2019
4331 Thunderstorm 22 1012 94 10000 2.1 30 05:26 02.08.2019
4332 Thunderstorm 22 1012 94 10000 3.1 10 03:29 02.08.2019
4333 Clouds 23 1012 94 10000 1.5 60 02:33 02.08.2019
4334 Rain 24 1013 73 10000 5.1 350 00:41 02.08.2019
4335 Clouds 25 1013 44 10000 2.6 220 23:56 01.08.2019
4336 Clouds 25 1013 44 10000 2.6 220 23:38 01.08.2019
4337 Clouds 25 1013 54 10000 2.6 260 23:18 01.08.2019
4338 Clouds 26 1013 58 10000 2.1 260 22:40 01.08.2019
4339 Clouds 26 1013 58 10000 2.1 260 22:21 01.08.2019
4340 Clouds 27 1012 61 10000 2.6 270 21:44 01.08.2019
4341 Thunderstorm 27 1013 61 10000 3.6 240 21:24 01.08.2019
4342 Thunderstorm 28 1012 54 10000 3.6 230 20:59 01.08.2019
4343 Clear 28 1012 54 10000 3.6 230 20:40 01.08.2019
4344 Clear 28 1012 58 10000 3.6 210 20:21 01.08.2019
4345 Clear 29 1012 51 10000 3.6 220 19:42 01.08.2019
4346 Clouds 30 1012 51 10000 3.6 220 19:20 01.08.2019
4347 Clouds 30 1012 51 10000 3.6 240 18:44 01.08.2019
4348 Clouds 30 1013 48 10000 2.6 220 18:25 01.08.2019
4349 Clouds 30 1013 51 10000 4.1 220 17:56 01.08.2019
4350 Clouds 30 1013 51 10000 4.1 220 17:37 01.08.2019
4351 Clouds 30 1013 48 10000 5.1 230 17:18 01.08.2019
4352 Clouds 31 1013 46 10000 3.6 220 16:44 01.08.2019
4353 Clouds 31 1014 48 10000 4.6 220 16:21 01.08.2019
4354 Clouds 30 1014 48 10000 4.1 210 15:41 01.08.2019
4355 Clouds 30 1014 45 10000 2.6 190 15:20 01.08.2019
4356 Clouds 30 1014 48 10000 2.1 0 14:43 01.08.2019
4357 Clouds 30 1014 54 10000 3.6 230 14:20 01.08.2019
4358 Clouds 29 1015 54 10000 3.1 260 13:58 01.08.2019
4359 Clouds 29 1015 54 10000 3.1 260 13:40 01.08.2019
4360 Clouds 29 1015 54 10000 3.1 0 13:21 01.08.2019
4361 Clouds 29 1015 51 10000 2.6 140 12:48 01.08.2019
4362 Clouds 28 1016 58 10000 2.6 110 12:27 01.08.2019
4363 Clouds 27 1016 65 10000 2.1 90 11:44 01.08.2019
4364 Rain 27 1016 69 10000 1.5 70 11:25 01.08.2019
4365 Rain 26 1016 73 10000 2.6 80 10:57 01.08.2019
4366 Rain 26 1016 73 10000 2.6 80 10:39 01.08.2019
4367 Clouds 25 1016 69 10000 2.1 70 10:21 01.08.2019
4368 Clouds 25 1016 73 10000 2.6 90 09:47 01.08.2019
4369 Clouds 24 1016 73 10000 2.6 100 09:23 01.08.2019
4370 Clouds 23 1016 78 10000 2.1 10 08:48 01.08.2019
4371 Clouds 23 1015 83 10000 2.6 10 08:21 01.08.2019
4372 Clouds 22 1015 94 10000 2.6 20 07:52 01.08.2019
4373 Clouds 21 1015 94 10000 1 0 07:29 01.08.2019
4374 Clouds 21 1015 93 10000 1.5 40 06:49 01.08.2019
4375 Clear 21 1015 93 10000 0.5 0 06:29 01.08.2019
4376 Clear 21 1015 93 10000 0.5 0 05:31 01.08.2019
4377 Rain 22 1015 94 10000 1 0 02:35 01.08.2019
4378 Clouds 23 1015 83 10000 0.5 0 00:51 01.08.2019
4379 Clear 24 1014 78 10000 2.6 210 00:26 01.08.2019
4380 Clouds 24 1014 73 10000 2.1 240 23:55 31.07.2019
4381 Clouds 24 1014 73 10000 2.1 240 23:36 31.07.2019
4382 Clouds 24 1014 69 10000 3.1 210 23:18 31.07.2019
4383 Clear 25 1013 65 10000 2.1 250 22:42 31.07.2019
4384 Clear 25 1013 65 10000 2.6 250 22:23 31.07.2019
4385 Clear 26 1013 58 10000 3.1 270 21:40 31.07.2019
4386 Clear 26 1013 58 10000 2.6 260 21:22 31.07.2019
4387 Clear 27 1012 58 10000 3.1 250 20:49 31.07.2019
4388 Clear 28 1012 51 10000 4.1 240 20:23 31.07.2019
4389 Clear 29 1012 48 10000 2.6 210 19:48 31.07.2019
4390 Clear 29 1012 48 10000 3.6 210 19:29 31.07.2019
4391 Clouds 30 1012 51 10000 2.6 200 18:55 31.07.2019
4392 Clouds 30 1012 51 10000 3.1 230 18:37 31.07.2019
4393 Clouds 30 1012 51 10000 3.1 230 18:18 31.07.2019
4394 Clouds 30 1012 45 10000 1.5 0 17:43 31.07.2019
4395 Clouds 30 1012 45 10000 1 0 17:20 31.07.2019
4396 Clouds 30 1012 45 10000 2.1 150 16:47 31.07.2019
4397 Clouds 30 1012 45 10000 2.6 140 16:20 31.07.2019
4398 Clouds 30 1012 43 10000 2.1 0 15:46 31.07.2019
4399 Clouds 29 1013 45 10000 2.1 0 15:26 31.07.2019
4400 Clouds 29 1013 45 10000 3.1 80 14:59 31.07.2019
4401 Clouds 29 1013 45 10000 3.1 80 14:40 31.07.2019
4402 Clouds 28 1013 51 10000 5.1 100 14:18 31.07.2019
4403 Clouds 28 1013 51 10000 3.1 80 13:45 31.07.2019
4404 Clouds 28 1014 54 10000 1.5 70 13:26 31.07.2019
4405 Clouds 27 1014 54 10000 2.1 70 12:57 31.07.2019
4406 Clouds 27 1014 54 10000 2.1 70 12:38 31.07.2019
4407 Clouds 26 1014 54 10000 2.1 140 12:18 31.07.2019
4408 Clouds 26 1014 58 10000 1.5 0 11:39 31.07.2019
4409 Clouds 26 1014 61 10000 2.1 0 11:20 31.07.2019
4410 Rain 25 1013 69 0 2.1 270 10:42 31.07.2019
4411 Rain 25 1013 69 0 2.1 290 10:21 31.07.2019
4412 Rain 24 1013 65 0 2.1 290 09:56 31.07.2019
4413 Thunderstorm 24 1013 65 0 2.1 290 09:38 31.07.2019
4414 Thunderstorm 23 1013 65 0 2.6 280 09:18 31.07.2019
4415 Thunderstorm 23 1013 65 0 2.6 280 09:18 31.07.2019
4416 Thunderstorm 23 1013 69 10000 2.1 280 08:40 31.07.2019
4417 Thunderstorm 22 1012 73 10000 2.6 260 08:20 31.07.2019
4418 Rain 22 1012 73 10000 2.1 260 07:35 31.07.2019
4419 Clear 21 1012 78 10000 0.5 0 06:35 31.07.2019
4420 Clear 21 1011 78 10000 2.1 280 04:52 31.07.2019
4421 Clear 21 1011 73 10000 2.1 310 03:24 31.07.2019
4422 Haze 24 1011 61 10000 2.1 270 23:58 30.07.2019
4423 Clear 24 1011 61 10000 2.1 270 23:40 30.07.2019
4424 Clear 24 1010 57 10000 2.6 250 23:19 30.07.2019
4425 Clear 25 1010 57 10000 2.6 250 22:46 30.07.2019
4426 Clear 26 1010 54 10000 2.1 250 22:25 30.07.2019
4427 Clear 27 1010 51 10000 2.6 250 21:54 30.07.2019
4428 Clear 27 1010 51 10000 2.6 250 21:36 30.07.2019
4429 Clear 27 1009 48 10000 2.6 230 21:18 30.07.2019
4430 Clear 29 1009 48 10000 2.6 250 20:41 30.07.2019
4431 Clear 30 1009 45 10000 2.1 240 20:23 30.07.2019
4432 Clear 31 1009 38 10000 1.5 260 19:58 30.07.2019
4433 Clear 31 1009 38 10000 1.5 260 19:38 30.07.2019
4434 Clear 32 1009 38 10000 2.1 250 18:56 30.07.2019
4435 Clear 32 1009 38 10000 2.6 220 18:38 30.07.2019
4436 Clear 32 1009 38 10000 2.6 220 18:18 30.07.2019
4437 Clear 32 1009 36 10000 2.1 0 17:41 30.07.2019
4438 Clear 32 1009 36 10000 2.6 240 17:19 30.07.2019
4439 Clear 32 1009 40 10000 2.6 260 16:51 30.07.2019
4440 Clear 32 1009 36 10000 2.1 260 16:21 30.07.2019
4441 Clear 32 1010 43 10000 2.6 220 15:56 30.07.2019
4442 Clear 32 1010 46 10000 3.1 200 15:37 30.07.2019
4443 Clear 32 1010 46 10000 3.1 200 15:18 30.07.2019
4444 Clear 31 1010 46 10000 3.1 200 14:41 30.07.2019
4445 Clear 31 1010 48 10000 2.1 210 14:19 30.07.2019
4446 Clear 31 1011 48 10000 2.6 220 13:46 30.07.2019
4447 Clear 30 1011 51 10000 1.5 200 13:28 30.07.2019
4448 Clear 30 1011 51 10000 2.6 190 12:58 30.07.2019
4449 Clear 30 1011 51 10000 2.6 190 12:39 30.07.2019
4450 Clear 29 1011 51 10000 2.1 260 12:21 30.07.2019
4451 Clear 28 1011 51 10000 1.5 0 11:39 30.07.2019
4452 Clear 28 1011 54 10000 1.5 220 11:20 30.07.2019
4453 Clear 28 1011 54 10000 1.5 220 11:20 30.07.2019
4454 Clear 27 1011 57 10000 2.1 280 10:46 30.07.2019
4455 Clear 26 1011 57 10000 2.6 260 10:26 30.07.2019
4456 Clear 25 1011 61 10000 3.1 240 09:49 30.07.2019
4457 Clear 25 1011 61 10000 2.1 230 09:31 30.07.2019
4458 Clear 24 1011 61 10000 2.1 250 08:49 30.07.2019
4459 Clear 23 1010 60 10000 2.1 250 08:31 30.07.2019
4460 Clear 22 1010 64 10000 2.1 250 07:47 30.07.2019
4461 Clear 21 1010 60 10000 1.5 250 07:28 30.07.2019
4462 Clear 20 1010 64 10000 2.6 260 06:48 30.07.2019
4463 Clear 20 1010 77 10000 1 270 05:56 30.07.2019
4464 Clear 20 1009 77 10000 1.5 260 05:32 30.07.2019
4465 Clear 22 1009 73 10000 1.5 280 01:41 30.07.2019
4466 Clear 23 1009 64 10000 3.1 270 00:45 30.07.2019
4467 Clear 23 1009 64 10000 2.1 270 00:20 30.07.2019
4468 Clear 24 1008 64 10000 2.6 260 23:44 29.07.2019
4469 -273 0 0 0 0 0 23:26 29.07.2019
4470 Clear 25 1008 65 10000 2.1 260 22:57 29.07.2019
4471 Clear 25 1008 65 10000 2.1 260 22:38 29.07.2019
4472 Clear 25 1008 65 10000 2.6 260 22:19 29.07.2019
4473 Clear 25 1008 65 10000 2.6 260 22:19 29.07.2019
4474 Clear 26 1007 61 10000 3.1 260 21:55 29.07.2019
4475 Clear 27 1007 61 10000 2.6 240 21:37 29.07.2019
4476 Clear 27 1007 61 10000 2.6 240 21:18 29.07.2019
4477 Clear 28 1007 40 10000 1.5 230 20:43 29.07.2019
4478 Clear 29 1006 38 10000 1.5 240 20:22 29.07.2019
4479 Clear 30 1006 38 10000 2.1 230 19:54 29.07.2019
4480 Clear 31 1006 38 10000 2.6 240 19:36 29.07.2019
4481 Clear 31 1006 38 10000 2.6 240 19:18 29.07.2019
4482 Clear 31 1006 38 10000 2.6 240 19:18 29.07.2019
4483 Clear 31 1006 38 10000 2.1 230 18:41 29.07.2019
4484 Clear 31 1006 40 10000 1.5 0 18:21 29.07.2019
4485 Clear 32 1006 38 10000 2.1 240 17:49 29.07.2019
4486 Clear 32 1006 38 10000 2.1 260 17:31 29.07.2019
4487 Clear 32 1006 38 10000 2.6 230 16:57 29.07.2019
4488 Clear 32 1006 38 10000 1.5 0 16:38 29.07.2019
4489 Clear 32 1006 38 10000 1.5 0 16:20 29.07.2019
4490 Clear 32 1006 38 10000 3.1 200 15:49 29.07.2019
4491 Clear 32 1006 38 10000 3.1 160 15:30 29.07.2019
4492 Clear 31 1006 40 10000 3.1 0 14:44 29.07.2019
4493 Clear 31 1006 38 10000 2.6 150 14:21 29.07.2019
4494 Clear 31 1006 38 10000 2.6 140 13:55 29.07.2019
4495 Clear 31 1006 35 10000 1.5 0 13:36 29.07.2019
4496 Clear 31 1006 35 10000 1.5 0 13:18 29.07.2019
4497 Clear 30 1006 40 10000 1 0 12:40 29.07.2019
4498 Clear 29 1006 42 10000 2.1 170 12:21 29.07.2019
4499 -273 0 0 0 0 0 11:42 29.07.2019
4500 Clear 28 1006 48 10000 2.1 0 11:20 29.07.2019
4501 Clear 27 1006 51 10000 1.5 220 10:44 29.07.2019
4502 Clear 27 1006 57 10000 2.1 260 10:23 29.07.2019
4503 Clear 26 1005 65 10000 2.6 240 09:45 29.07.2019
4504 Clouds 24 1005 64 10000 2.1 230 09:24 29.07.2019
4505 Clouds 24 1005 69 10000 1 0 08:55 29.07.2019
4506 Clouds 23 1004 69 10000 1.5 240 08:27 29.07.2019
4507 Clouds 22 1004 83 10000 1.5 250 07:53 29.07.2019
4508 Clouds 21 1004 82 10000 1 0 07:31 29.07.2019
4509 Clouds 20 1003 82 10000 0.5 0 06:40 29.07.2019
4510 Clouds 21 1003 82 10000 2.6 260 05:38 29.07.2019
4511 Clouds 20 1002 77 10000 2.6 260 04:24 29.07.2019
4512 Clouds 21 1002 78 10000 2.1 280 01:53 29.07.2019
4513 Clouds 21 1002 69 10000 3.1 250 01:35 29.07.2019
4514 Clouds 22 1002 69 10000 3.1 240 00:59 29.07.2019
4515 Clouds 23 1001 69 10000 2.6 230 00:30 29.07.2019
4516 Clouds 23 1001 69 10000 2.1 210 23:45 28.07.2019
4517 Clouds 23 1001 69 10000 1.5 210 23:26 28.07.2019
4518 Clouds 24 1001 69 10000 1 0 22:46 28.07.2019
4519 Clouds 24 1001 61 10000 0.5 0 22:28 28.07.2019
4520 Clouds 24 1000 65 10000 2.1 250 21:56 28.07.2019
4521 Clouds 24 1000 65 10000 2.1 250 21:56 28.07.2019
4522 Clouds 25 1000 65 10000 2.1 250 21:37 28.07.2019
4523 Clouds 24 1000 65 10000 1 0 21:18 28.07.2019
4524 Clouds 25 999 65 10000 1.5 250 20:42 28.07.2019
4525 Clouds 26 999 61 10000 2.1 260 20:24 28.07.2019
4526 Clouds 26 999 61 10000 2.6 250 19:40 28.07.2019
4527 Clouds 26 999 61 10000 3.1 260 19:21 28.07.2019
4528 Clouds 26 998 57 10000 3.1 250 18:46 28.07.2019
4529 Clouds 26 998 57 10000 3.1 250 18:27 28.07.2019
4530 Clouds 26 998 57 10000 3.1 230 17:56 28.07.2019
4531 Clouds 26 998 57 10000 3.1 230 17:38 28.07.2019
4532 Clouds 26 998 54 10000 2.6 240 17:19 28.07.2019
4533 Clouds 26 998 57 10000 2.6 240 16:42 28.07.2019
4534 Clouds 26 998 57 10000 4.1 220 16:24 28.07.2019
4535 Clouds 26 998 57 10000 3.1 240 15:48 28.07.2019
4536 Clouds 26 998 57 10000 3.6 230 15:27 28.07.2019
4537 Clouds 26 997 57 10000 3.1 270 14:41 28.07.2019
4538 Clouds 25 997 54 10000 4.1 230 14:21 28.07.2019
4539 Clouds 25 997 57 10000 4.1 230 13:59 28.07.2019
4540 Clouds 25 997 57 10000 4.1 230 13:39 28.07.2019
4541 Clouds 25 997 61 10000 3.6 230 13:19 28.07.2019
4542 Clouds 25 997 57 10000 3.1 230 12:43 28.07.2019
4543 Clouds 25 997 61 10000 3.1 230 12:24 28.07.2019
4544 Clouds 24 997 61 10000 2.1 220 11:50 28.07.2019
4545 Clouds 24 997 57 10000 2.6 300 11:29 28.07.2019
4546 Clouds 23 998 64 10000 2.1 280 10:58 28.07.2019
4547 Clouds 23 998 64 10000 2.1 280 10:38 28.07.2019
4548 Clouds 22 998 64 10000 1.5 320 10:18 28.07.2019
4549 Clouds 21 998 78 10000 3.1 320 09:40 28.07.2019
4550 Rain 21 998 83 10000 2.1 280 09:20 28.07.2019
4551 Rain 20 998 83 10000 1.5 290 08:42 28.07.2019
4552 Rain 19 998 88 7000 0.5 270 08:21 28.07.2019
4553 Rain 19 999 94 7000 0.5 0 07:40 28.07.2019
4554 Mist 18 998 93 4200 1 350 06:59 28.07.2019
4555 Mist 18 999 93 5000 1 0 06:32 28.07.2019
4556 Rain 19 999 93 7000 1 0 05:19 28.07.2019
4557 Rain 19 1000 88 10000 1.5 130 02:25 28.07.2019
4558 Rain 19 1000 88 10000 2.1 70 01:32 28.07.2019
4559 Rain 19 1001 82 10000 2.6 60 00:52 28.07.2019
4560 Rain 19 1001 82 10000 2.1 60 00:25 28.07.2019
4561 Rain 20 1002 82 10000 3.6 60 23:48 27.07.2019
4562 Rain 20 1002 82 10000 3.1 80 23:27 27.07.2019
4563 Rain 20 1002 77 10000 3.1 100 22:43 27.07.2019
4564 Rain 20 1002 88 10000 2.6 170 22:23 27.07.2019
4565 Rain 20 1002 83 10000 2.6 170 21:45 27.07.2019
4566 Rain 20 1002 78 10000 4.6 150 21:23 27.07.2019
4567 Rain 21 1002 78 10000 2.6 130 20:55 27.07.2019
4568 Rain 21 1001 78 10000 2.6 60 20:32 27.07.2019
4569 Rain 21 1001 73 10000 4.1 70 19:59 27.07.2019
4570 Rain 21 1001 73 10000 4.1 70 19:39 27.07.2019
4571 Rain 22 1002 53 10000 4.1 360 19:19 27.07.2019
4572 Rain 22 1003 60 10000 2.6 250 18:46 27.07.2019
4573 Rain 22 1003 60 10000 4.6 270 18:28 27.07.2019
4574 Thunderstorm 22 1002 50 10000 6.7 260 17:50 27.07.2019
4575 Thunderstorm 22 1002 48 10000 6.7 270 17:31 27.07.2019
4576 Thunderstorm 24 1001 51 10000 3.6 240 16:54 27.07.2019
4577 Thunderstorm 25 1001 51 10000 3.6 240 16:34 27.07.2019
4578 Thunderstorm 27 1002 54 10000 3.6 220 15:56 27.07.2019
4579 Thunderstorm 28 1002 51 10000 3.1 170 15:28 27.07.2019
4580 Rain 28 1002 58 10000 1.5 280 14:59 27.07.2019
4581 Rain 28 1002 58 10000 1.5 280 14:41 27.07.2019
4582 Rain 28 1002 58 10000 1.5 280 14:41 27.07.2019
4583 Rain 28 1003 54 10000 2.1 0 14:21 27.07.2019
4584 Rain 28 1003 61 10000 1.5 0 13:46 27.07.2019
4585 Thunderstorm 27 1004 65 10000 2.1 180 13:22 27.07.2019
4586 Thunderstorm 27 1004 65 10000 3.1 170 12:49 27.07.2019
4587 Rain 26 1004 65 10000 2.6 160 12:26 27.07.2019
4588 Clouds 26 1005 61 10000 2.6 120 11:46 27.07.2019
4589 Rain 27 1005 65 10000 2.6 130 11:25 27.07.2019
4590 Rain 26 1005 65 10000 2.6 90 10:57 27.07.2019
4591 Rain 26 1005 65 10000 2.6 90 10:39 27.07.2019
4592 Rain 26 1005 65 10000 2.6 80 10:19 27.07.2019
4593 Rain 25 1005 69 10000 3.1 80 09:40 27.07.2019
4594 Rain 25 1006 69 10000 2.6 70 09:22 27.07.2019
4595 Rain 24 1006 69 10000 2.6 120 08:47 27.07.2019
4596 Rain 24 1006 64 10000 3.1 110 08:27 27.07.2019
4597 Clouds 23 1005 64 10000 2.1 140 07:47 27.07.2019
4598 Clouds 23 1006 64 10000 3.1 110 07:27 27.07.2019
4599 Clouds 22 1005 64 10000 2.6 120 06:55 27.07.2019
4600 Clouds 22 1006 64 10000 2.6 90 06:28 27.07.2019
4601 Clear 22 1006 60 10000 1.5 100 05:43 27.07.2019
4602 Clear 22 1006 69 10000 1 0 04:59 27.07.2019
4603 Clear 22 1006 60 10000 2.1 140 04:21 27.07.2019
4604 Thunderstorm 24 1007 57 10000 2.1 70 02:44 27.07.2019
4605 Thunderstorm 24 1007 57 10000 1.5 60 02:25 27.07.2019
4606 Thunderstorm 24 1007 57 10000 1.5 30 01:42 27.07.2019
4607 Rain 25 1007 54 10000 3.1 90 00:57 27.07.2019
4608 Rain 25 1007 51 10000 1.5 80 00:31 27.07.2019
4609 Rain 26 1007 51 10000 2.1 50 23:51 26.07.2019
4610 Clouds 26 1007 54 10000 1.5 30 23:29 26.07.2019
4611 Clouds 27 1006 45 10000 3.1 60 22:45 26.07.2019
4612 Clouds 27 1007 45 10000 2.1 20 22:26 26.07.2019
4613 Clouds 28 1007 45 10000 1.5 230 21:58 26.07.2019
4614 Clouds 28 1007 45 10000 1.5 230 21:58 26.07.2019
4615 Clouds 28 1007 45 10000 1.5 230 21:37 26.07.2019
4616 Clouds 29 1007 45 10000 1.5 240 21:18 26.07.2019
4617 Clouds 30 1007 40 10000 2.1 260 20:41 26.07.2019
4618 Clear 31 1006 38 10000 2.6 250 20:21 26.07.2019
4619 Clouds 32 1006 36 10000 2.6 250 19:42 26.07.2019
4620 Clear 33 1007 36 10000 2.6 250 19:23 26.07.2019
4621 Clouds 34 1007 34 10000 3.1 240 18:46 26.07.2019
4622 Clear 34 1007 44 10000 3.1 270 18:22 26.07.2019
4623 Rain 34 1007 44 10000 2.6 260 17:58 26.07.2019
4624 Thunderstorm 34 1007 46 10000 2.6 270 17:39 26.07.2019
4625 Thunderstorm 34 1007 46 10000 2.6 270 17:18 26.07.2019
4626 Thunderstorm 34 1008 46 10000 3.1 260 16:55 26.07.2019
4627 Thunderstorm 34 1008 46 10000 3.1 260 16:37 26.07.2019
4628 Thunderstorm 34 1008 46 10000 2.1 240 16:18 26.07.2019
4629 Clear 34 1008 41 10000 2.6 250 15:45 26.07.2019
4630 Clear 34 1009 41 10000 3.6 200 15:22 26.07.2019
4631 Clear 34 1009 41 10000 3.6 190 14:54 26.07.2019
4632 Clear 34 1009 41 10000 3.6 190 14:36 26.07.2019
4633 Clear 33 1010 46 10000 3.1 230 14:18 26.07.2019
4634 Clear 33 1010 41 10000 3.1 210 13:37 26.07.2019
4635 Clear 33 1010 43 10000 3.6 230 13:19 26.07.2019
4636 Clear 32 1011 33 10000 2.6 220 12:42 26.07.2019
4637 Clear 32 1011 43 10000 3.1 210 12:19 26.07.2019
4638 Clear 31 1011 52 10000 1.5 230 11:39 26.07.2019
4639 Clear 31 1011 55 10000 1.5 240 11:19 26.07.2019
4640 Clear 30 1012 55 10000 2.6 220 10:49 26.07.2019
4641 Clear 29 1012 62 10000 2.6 210 10:31 26.07.2019
4642 Clear 29 1012 58 10000 1.5 230 09:54 26.07.2019
4643 Clear 28 1012 58 10000 1.5 230 09:34 26.07.2019
4644 Clouds 27 1012 65 10000 1.5 190 08:43 26.07.2019
4645 Clear 26 1012 65 10000 0.5 0 08:22 26.07.2019
4646 Clear 26 1012 74 10000 1 0 07:57 26.07.2019
4647 Clear 25 1012 73 10000 2.1 260 07:27 26.07.2019
4648 Clear 24 1012 73 10000 2.1 260 06:41 26.07.2019
4649 Clear 25 1013 83 10000 0.92 261.037 05:19 26.07.2019
4650 Clear 25 1014 73 10000 0.5 230 04:21 26.07.2019
4651 Thunderstorm 26 1014 58 10000 2.6 130 02:39 26.07.2019
4652 Thunderstorm 26 1014 62 10000 3.6 110 01:35 26.07.2019
4653 Clear 27 1014 62 10000 2.6 90 00:39 26.07.2019
4654 Clouds 27 1014 66 10000 1 0 23:55 25.07.2019
4655 Clouds 28 1014 58 10000 1.5 100 23:23 25.07.2019
4656 Clear 29 1014 62 10000 1 190 22:55 25.07.2019
4657 Clear 29 1014 62 10000 1 190 22:36 25.07.2019
4658 Thunderstorm 29 1014 62 10000 1 190 22:18 25.07.2019
4659 Clear 30 1013 58 10000 1 210 21:41 25.07.2019
4660 Clear 31 1013 55 10000 1.5 190 21:21 25.07.2019
4661 Clouds 32 1013 49 10000 2.6 190 20:45 25.07.2019
4662 Clear 32 1013 46 10000 2.6 200 20:22 25.07.2019
4663 Clear 32 1013 46 10000 2.6 200 20:22 25.07.2019
4664 Thunderstorm 33 1013 49 10000 3.6 190 19:42 25.07.2019
4665 Thunderstorm 33 1013 46 10000 3.1 200 19:24 25.07.2019
4666 Rain 34 1014 46 10000 3.1 190 18:46 25.07.2019
4667 Rain 34 1014 52 10000 4.6 190 18:27 25.07.2019
4668 Clouds 34 1014 46 10000 3.6 180 17:57 25.07.2019
4669 Clouds 35 1014 46 10000 3.6 180 17:38 25.07.2019
4670 Clouds 35 1014 46 10000 3.6 180 17:38 25.07.2019
4671 Clouds 35 1014 44 10000 3.1 190 17:20 25.07.2019
4672 Clouds 35 1014 41 10000 2.1 230 16:42 25.07.2019
4673 Clear 35 1015 39 10000 2.6 160 16:22 25.07.2019
4674 Clear 35 1015 41 10000 2.1 0 15:51 25.07.2019
4675 Clear 35 1015 41 10000 2.1 0 15:21 25.07.2019
4676 Clear 34 1015 44 10000 2.1 0 14:43 25.07.2019
4677 Clear 34 1016 44 10000 2.6 130 14:25 25.07.2019
4678 Clear 34 1016 46 10000 2.6 150 13:59 25.07.2019
4679 Clear 34 1016 46 10000 1.5 0 13:37 25.07.2019
4680 Clear 34 1016 46 10000 1.5 0 13:19 25.07.2019
4681 Clear 33 1016 52 10000 2.1 160 12:34 25.07.2019
4682 Clear 32 1017 55 10000 3.1 160 11:58 25.07.2019
4683 Clear 32 1017 55 10000 3.1 160 11:40 25.07.2019
4684 Clear 31 1017 55 10000 2.6 150 11:21 25.07.2019
4685 Clear 31 1017 55 10000 2.6 140 10:42 25.07.2019
4686 Clear 30 1017 51 10000 2.6 140 10:23 25.07.2019
4687 Clear 29 1017 54 10000 2.6 140 09:45 25.07.2019
4688 Clear 29 1017 54 10000 2.6 140 09:45 25.07.2019
4689 Clear 29 1017 54 10000 1.5 110 09:27 25.07.2019
4690 Clear 28 1017 61 10000 2.1 100 08:48 25.07.2019
4691 Clear 27 1017 65 8000 2.1 120 08:26 25.07.2019
4692 Clouds 26 1016 74 6000 2.1 120 07:37 25.07.2019
4693 Clouds 25 1016 78 6000 1.5 90 06:45 25.07.2019
4694 Mist 24 1016 78 5000 1.5 70 06:19 25.07.2019
4695 Clouds 25 1016 78 10000 1 0 05:32 25.07.2019
4696 Clouds 25 1016 78 10000 1 0 04:44 25.07.2019
4697 Clear 25 1016 83 10000 0.5 0 02:24 25.07.2019
4698 Clear 26 1016 69 10000 1 10 01:21 25.07.2019
4699 Clear 27 1015 78 10000 0.5 0 00:23 25.07.2019
4700 Clear 27 1015 78 10000 0.5 0 23:53 24.07.2019
4701 Clear 27 1015 78 10000 0.5 0 23:32 24.07.2019
4702 Clear 27 1015 69 10000 0.5 230 22:58 24.07.2019
4703 Clear 28 1015 69 10000 0.5 230 22:40 24.07.2019
4704 Clear 29 1015 65 10000 1 230 22:21 24.07.2019
4705 Clear 30 1015 65 10000 0.5 250 21:43 24.07.2019
4706 Clear 30 1015 58 10000 0.5 220 21:23 24.07.2019
4707 Clear 31 1015 46 10000 1 0 20:59 24.07.2019
4708 Clear 31 1015 46 10000 1 0 20:39 24.07.2019
4709 Clear 32 1014 46 10000 1.5 230 20:20 24.07.2019
4710 Clear 32 1014 46 10000 1.5 250 19:55 24.07.2019
4711 Clear 33 1014 46 10000 1.5 250 19:36 24.07.2019
4712 Clear 33 1014 41 10000 2.1 230 19:18 24.07.2019
4713 Clear 34 1015 44 10000 1 0 18:41 24.07.2019
4714 Clear 34 1015 46 10000 2.6 260 18:23 24.07.2019
4715 Clear 34 1015 44 10000 2.1 260 17:43 24.07.2019
4716 Clear 34 1015 41 10000 2.6 240 17:20 24.07.2019
4717 Clear 34 1015 44 10000 3.1 240 16:42 24.07.2019
4718 Clear 34 1015 46 10000 3.6 230 16:22 24.07.2019
4719 Clear 34 1015 46 10000 2.6 210 15:42 24.07.2019
4720 Clear 34 1016 49 10000 3.1 240 15:24 24.07.2019
4721 Clear 34 1016 49 10000 2.6 240 14:57 24.07.2019
4722 Clear 34 1016 49 10000 2.6 240 14:38 24.07.2019
4723 Clear 34 1016 49 10000 2.6 240 14:38 24.07.2019
4724 Clear 34 1016 49 10000 2.6 240 14:38 24.07.2019
4725 Clear 34 1016 49 10000 2.6 240 14:38 24.07.2019
4726 Clear 33 1016 52 10000 2.6 200 14:19 24.07.2019
4727 Clear 33 1016 49 10000 2.6 220 13:37 24.07.2019
4728 Clear 33 1017 52 10000 2.1 210 13:19 24.07.2019
4729 Clear 33 1017 49 10000 1.5 0 12:51 24.07.2019
4730 Clear 32 1017 49 10000 1.5 0 12:32 24.07.2019
4731 Clear 31 1017 55 10000 2.1 180 11:40 24.07.2019
4732 Clear 31 1017 52 10000 1.5 0 11:20 24.07.2019
4733 Clear 30 1017 58 10000 1.5 90 10:44 24.07.2019
4734 Clear 30 1017 58 10000 2.1 90 10:25 24.07.2019
4735 Clear 29 1017 62 10000 2.1 0 09:48 24.07.2019
4736 Clear 28 1017 61 10000 2.1 100 09:25 24.07.2019
4737 Clear 28 1017 61 10000 2.1 100 09:25 24.07.2019
4738 Clear 27 1017 69 8000 2.1 100 08:58 24.07.2019
4739 Clouds 26 1017 69 8000 2.6 90 08:30 24.07.2019
4740 Clouds 25 1017 78 8000 1.5 40 07:52 24.07.2019
4741 Clouds 24 1017 83 7000 1 0 07:24 24.07.2019
4742 Clouds 23 1017 88 7000 1 30 06:31 24.07.2019
4743 Clouds 23 1017 83 7000 1 0 05:54 24.07.2019
4744 Clear 25 1017 83 8000 0.5 0 02:52 24.07.2019
4745 Clouds 25 1017 78 10000 1 0 01:30 24.07.2019
4746 Clouds 25 1017 83 10000 0.5 0 00:57 24.07.2019
4747 Clouds 26 1017 74 10000 1 170 00:23 24.07.2019
4748 Clouds 27 1017 74 10000 1 170 23:42 23.07.2019
4749 Clouds 27 1017 78 10000 0.5 200 23:42 23.07.2019
4750 Clouds 27 1017 78 10000 0.5 200 23:24 23.07.2019
4751 Clouds 28 1017 69 10000 1 220 22:40 23.07.2019
4752 Clouds 28 1017 69 10000 1 0 22:20 23.07.2019
4753 Clouds 29 1017 55 10000 1 180 21:59 23.07.2019
4754 Clouds 29 1017 55 10000 1 180 21:41 23.07.2019
4755 Clear 29 1017 55 10000 1 220 21:22 23.07.2019
4756 Clear 31 1017 49 10000 1.5 200 20:47 23.07.2019
4757 Clear 31 1017 46 10000 2.6 200 20:25 23.07.2019
4758 Clear 32 1017 49 10000 2.1 170 19:43 23.07.2019
4759 Clear 32 1017 49 10000 2.6 150 19:22 23.07.2019
4760 Clear 33 1017 49 10000 2.1 120 18:52 23.07.2019
4761 Clear 33 1017 49 10000 2.6 160 18:24 23.07.2019
4762 Clear 33 1017 49 10000 2.6 130 17:45 23.07.2019
4763 Clear 33 1017 46 10000 2.6 140 17:27 23.07.2019
4764 Clouds 33 1018 49 10000 1 0 16:58 23.07.2019
4765 Clouds 33 1018 49 10000 1 0 16:40 23.07.2019
4766 Clouds 33 1018 49 10000 2.1 140 16:19 23.07.2019
4767 Clouds 33 1018 49 10000 1.5 0 15:46 23.07.2019
4768 Clouds 33 1018 49 10000 2.6 160 15:24 23.07.2019
4769 Clouds 33 1019 52 10000 2.1 160 14:40 23.07.2019
4770 Clouds 32 1019 52 10000 2.1 160 14:21 23.07.2019
4771 Clouds 32 1019 52 10000 2.6 170 13:58 23.07.2019
4772 Clouds 32 1019 52 10000 2.6 170 13:39 23.07.2019
4773 Clouds 32 1019 55 9000 2.6 180 13:20 23.07.2019
4774 Clouds 31 1020 52 9000 2.6 190 12:48 23.07.2019
4775 Clouds 31 1020 55 9000 2.6 190 12:25 23.07.2019
4776 Clouds 31 1020 55 8000 1.5 170 11:49 23.07.2019
4777 Clouds 30 1020 55 8000 2.1 150 11:31 23.07.2019
4778 Clouds 30 1020 58 9000 1.5 0 10:57 23.07.2019
4779 Clouds 29 1020 62 7000 2.1 120 10:38 23.07.2019
4780 Clouds 29 1020 62 7000 2.1 120 10:20 23.07.2019
4781 Clouds 28 1020 62 8000 1.5 0 09:41 23.07.2019
4782 Clouds 27 1020 65 7000 2.1 80 09:19 23.07.2019
4783 Clouds 26 1020 74 8000 1.5 70 08:42 23.07.2019
4784 Clouds 25 1020 78 8000 1.5 30 08:19 23.07.2019
4785 Clouds 25 1020 83 9000 1 0 07:55 23.07.2019
4786 Clouds 24 1020 83 9000 1 0 07:33 23.07.2019
4787 Clouds 23 1020 83 7000 1 40 06:38 23.07.2019
4788 Clouds 23 1020 83 8000 1.5 50 05:57 23.07.2019
4789 Clouds 24 1020 83 6000 1 0 02:44 23.07.2019
4790 Clouds 25 1020 74 8000 1.5 100 01:31 23.07.2019
4791 Clouds 25 1020 78 10000 1.5 190 00:30 23.07.2019
4792 Clouds 26 1020 78 10000 1 0 23:42 22.07.2019
4793 Clear 26 1020 74 10000 0.5 180 23:21 22.07.2019
4794 Clear 27 1020 69 10000 1 190 22:58 22.07.2019
4795 Clear 27 1020 69 10000 1 190 22:40 22.07.2019
4796 Clear 27 1020 69 10000 1 190 22:20 22.07.2019
4797 Clear 27 1020 69 10000 1 190 22:20 22.07.2019
4798 Clear 28 1019 65 10000 1 200 21:42 22.07.2019
4799 Clear 28 1019 55 10000 1 200 21:21 22.07.2019
4800 Clear 29 1019 55 10000 1.5 200 20:48 22.07.2019
4801 Clear 30 1019 52 10000 2.1 180 20:29 22.07.2019
4802 Clear 31 1019 46 10000 2.6 190 19:54 22.07.2019
4803 Clear 31 1019 46 10000 2.6 190 19:36 22.07.2019
4804 Clear 31 1019 46 10000 2.1 180 19:18 22.07.2019
4805 Clear 32 1019 49 10000 2.6 190 18:40 22.07.2019
4806 Clear 32 1020 49 10000 3.1 180 18:22 22.07.2019
4807 Clear 32 1020 49 10000 2.1 190 17:42 22.07.2019
4808 Clear 32 1020 46 10000 2.1 0 17:23 22.07.2019
4809 Clear 32 1020 49 10000 1.5 0 16:42 22.07.2019
4810 Clear 32 1020 49 10000 2.1 220 16:21 22.07.2019
4811 Clouds 32 1021 52 10000 2.1 260 15:59 22.07.2019
4812 Clear 32 1021 55 10000 2.1 0 15:37 22.07.2019
4813 Clear 32 1021 55 10000 2.1 0 15:18 22.07.2019
4814 Clear 32 1021 52 10000 2.6 0 14:43 22.07.2019
4815 Clear 31 1022 55 10000 2.1 0 14:20 22.07.2019
4816 Clear 31 1022 55 10000 2.6 200 13:47 22.07.2019
4817 Clear 31 1022 55 10000 2.1 0 13:28 22.07.2019
4818 Clear 30 1022 55 10000 2.1 140 12:46 22.07.2019
4819 Clear 30 1022 55 10000 1.5 0 12:27 22.07.2019
4820 Clear 29 1022 55 10000 2.1 0 11:45 22.07.2019
4821 Clear 29 1022 54 10000 1.5 0 11:25 22.07.2019
4822 Clear 28 1022 58 10000 2.1 180 10:53 22.07.2019
4823 Clear 28 1022 58 10000 2.1 180 10:30 22.07.2019
4824 Clear 27 1022 54 10000 0.5 0 09:45 22.07.2019
4825 Clear 26 1022 51 10000 0.5 0 09:25 22.07.2019
4826 Clear 24 1022 61 10000 0.5 0 08:47 22.07.2019
4827 Clear 24 1022 69 10000 1 0 08:26 22.07.2019
4828 Clear 23 1022 69 10000 1 300 07:59 22.07.2019
4829 Clear 23 1022 69 10000 1 300 07:40 22.07.2019
4830 Clouds 22 1022 73 10000 0.5 230 07:21 22.07.2019
4831 Clear 22 1021 64 10000 2.1 350 03:58 22.07.2019
4832 Clear 23 1021 50 10000 1.5 340 02:43 22.07.2019
4833 Clear 24 1021 57 10000 1 0 00:57 22.07.2019
4834 Clear 24 1020 57 10000 2.1 270 00:28 22.07.2019
4835 Clear 25 1020 57 10000 1 0 23:56 21.07.2019
4836 Clear 25 1020 61 10000 1.5 260 23:36 21.07.2019
4837 Clear 26 1019 61 10000 1.5 250 22:54 21.07.2019
4838 Clear 26 1019 61 10000 1.5 250 22:36 21.07.2019
4839 Clear 26 1019 58 10000 2.1 230 22:18 21.07.2019
4840 Clear 28 1018 62 10000 1.5 240 21:43 21.07.2019
4841 Clear 28 1018 58 10000 2.1 260 21:22 21.07.2019
4842 Clear 29 1018 51 10000 2.1 260 20:54 21.07.2019
4843 Clear 29 1017 48 10000 1.5 250 20:36 21.07.2019
4844 Clear 30 1017 48 10000 1.5 250 20:18 21.07.2019
4845 Clear 31 1017 52 10000 2.1 270 19:41 21.07.2019
4846 Clear 31 1017 52 10000 2.6 250 19:21 21.07.2019
4847 Clear 31 1017 52 10000 2.6 260 18:46 21.07.2019
4848 Clear 32 1017 48 10000 3.6 270 18:25 21.07.2019
4849 Clear 32 1017 46 10000 3.1 240 17:42 21.07.2019
4850 Clear 32 1018 48 10000 3.1 260 17:20 21.07.2019
4851 Clear 32 1018 49 10000 2.6 260 16:47 21.07.2019
4852 Clear 32 1018 52 10000 2.6 230 16:25 21.07.2019
4853 Clear 31 1018 48 10000 2.6 250 15:57 21.07.2019
4854 Clear 31 1018 48 10000 2.6 250 15:37 21.07.2019
4855 Clear 31 1018 55 10000 2.6 240 15:18 21.07.2019
4856 Clear 31 1019 55 10000 2.6 0 14:41 21.07.2019
4857 Clear 31 1019 58 10000 2.6 260 14:22 21.07.2019
4858 Clear 30 1019 58 10000 2.1 0 13:49 21.07.2019
4859 Clear 30 1019 58 10000 2.6 220 13:29 21.07.2019
4860 Clear 29 1020 54 10000 2.1 230 12:43 21.07.2019
4861 Clear 29 1020 54 10000 2.6 250 12:24 21.07.2019
4862 Clear 28 1020 51 10000 2.6 200 11:49 21.07.2019
4863 Clear 28 1020 51 10000 1.5 0 11:29 21.07.2019
4864 Clear 27 1020 51 10000 2.1 230 10:57 21.07.2019
4865 Clear 27 1020 50 10000 2.6 240 10:39 21.07.2019
4866 Clear 26 1020 50 10000 2.6 240 10:20 21.07.2019
4867 Clear 26 1019 50 10000 1 0 09:38 21.07.2019
4868 Clear 25 1019 50 10000 1 0 09:38 21.07.2019
4869 Clear 25 1019 50 10000 1 0 09:19 21.07.2019
4870 Clouds 24 1019 57 10000 2.1 160 08:41 21.07.2019
4871 Clear 24 1019 60 10000 1.5 180 08:23 21.07.2019
4872 Clouds 22 1019 64 10000 1 0 07:35 21.07.2019
4873 Clear 21 1019 60 10000 1 0 06:45 21.07.2019
4874 Clouds 21 1019 88 10000 2.6 360 05:27 21.07.2019
4875 Clear 22 1019 53 10000 2.1 270 02:27 21.07.2019
4876 Clear 23 1018 50 10000 2.1 260 00:57 21.07.2019
4877 Clear 23 1018 50 10000 2.1 260 00:24 21.07.2019
4878 Clear 24 1018 53 10000 2.1 260 23:57 20.07.2019
4879 Clear 24 1018 53 10000 2.1 260 23:37 20.07.2019
4880 Clear 24 1018 50 10000 2.1 250 23:18 20.07.2019
4881 Clear 24 1018 51 10000 2.6 250 22:42 20.07.2019
4882 Clear 25 1017 51 10000 1.5 220 22:20 20.07.2019
4883 Clear 26 1017 54 10000 1 0 21:45 20.07.2019
4884 Clear 27 1017 48 10000 2.1 260 21:25 20.07.2019
4885 Rain 27 1017 48 10000 2.1 260 20:45 20.07.2019
4886 Rain 28 1017 45 10000 2.1 250 20:23 20.07.2019
4887 Clear 28 1017 43 10000 2.1 240 19:59 20.07.2019
4888 Clear 29 1017 43 10000 2.1 260 19:38 20.07.2019
4889 Clear 30 1017 43 10000 2.1 260 19:19 20.07.2019
4890 Clouds 30 1017 43 10000 2.1 240 18:40 20.07.2019
4891 Clear 30 1017 43 10000 2.1 250 18:19 20.07.2019
4892 Clear 30 1017 43 10000 2.6 250 17:48 20.07.2019
4893 Clear 30 1017 38 10000 2.6 220 17:20 20.07.2019
4894 Clear 30 1017 38 10000 2.6 220 17:20 20.07.2019
4895 Clear 30 1017 40 10000 1.5 0 16:43 20.07.2019
4896 Clear 30 1017 40 10000 2.6 230 16:24 20.07.2019
4897 Clouds 30 1018 45 10000 2.1 0 15:56 20.07.2019
4898 Clouds 30 1018 45 10000 2.1 0 15:37 20.07.2019
4899 Clouds 30 1018 45 10000 2.6 210 15:18 20.07.2019
4900 Clouds 30 1018 51 10000 2.6 180 14:43 20.07.2019
4901 Clouds 29 1018 51 10000 2.1 0 14:20 20.07.2019
4902 Clear 29 1018 51 10000 2.1 100 13:38 20.07.2019
4903 Clear 29 1018 51 10000 2.1 180 13:19 20.07.2019
4904 Clear 29 1018 58 10000 1.5 200 12:52 20.07.2019
4905 Clear 28 1018 54 10000 1.5 0 12:20 20.07.2019
4906 Clear 28 1018 58 10000 1 0 11:52 20.07.2019
4907 Clear 27 1018 61 10000 2.1 0 11:23 20.07.2019
4908 Clear 26 1018 61 10000 3.1 150 10:52 20.07.2019
4909 Clear 26 1018 61 10000 3.1 120 10:26 20.07.2019
4910 Clear 25 1018 65 10000 2.6 110 09:53 20.07.2019
4911 Clear 24 1018 65 10000 1.5 110 09:27 20.07.2019
4912 Clear 24 1017 69 10000 2.1 110 08:57 20.07.2019
4913 Clear 23 1017 69 10000 2.1 110 08:36 20.07.2019
4914 Clear 23 1017 73 10000 1.5 90 08:18 20.07.2019
4915 Clear 20 1017 88 10000 0.5 0 06:47 20.07.2019
4916 Clear 20 1017 83 10000 0.5 0 06:21 20.07.2019
4917 Clouds 20 1016 83 10000 0.5 0 04:31 20.07.2019
4918 Clouds 21 1016 78 10000 1 0 02:34 20.07.2019
4919 Clouds 21 1016 83 10000 0.5 350 01:20 20.07.2019
4920 Clouds 21 1016 83 10000 0.5 0 00:45 20.07.2019
4921 Clear 22 1016 78 10000 0.5 0 00:18 20.07.2019
4922 Clear 22 1016 78 10000 0.5 0 00:18 20.07.2019
4923 Clear 23 1016 73 10000 0.5 0 23:43 19.07.2019
4924 Clear 23 1015 73 10000 1 180 23:22 19.07.2019
4925 Clear 24 1015 61 10000 1 200 22:43 19.07.2019
4926 Clear 25 1015 61 10000 1.5 190 22:24 19.07.2019
4927 Clear 26 1015 57 10000 1.5 190 21:46 19.07.2019
4928 Clear 26 1014 57 10000 1 0 21:27 19.07.2019
4929 Clear 27 1014 45 10000 1 0 20:50 19.07.2019
4930 Clear 27 1014 45 10000 1.5 230 20:31 19.07.2019
4931 Clear 28 1014 45 10000 2.1 230 19:55 19.07.2019
4932 Clear 29 1014 45 10000 2.1 230 19:34 19.07.2019
4933 Clear 29 1014 40 10000 2.1 210 18:42 19.07.2019
4934 Clear 29 1015 43 10000 2.1 230 18:22 19.07.2019
4935 Clear 29 1015 45 10000 2.6 190 17:55 19.07.2019
4936 Clear 30 1015 43 10000 2.1 0 17:28 19.07.2019
4937 Clouds 30 1015 45 10000 2.6 190 16:49 19.07.2019
4938 Clouds 30 1015 45 10000 3.1 120 16:27 19.07.2019
4939 Clouds 29 1015 45 10000 2.1 0 15:53 19.07.2019
4940 Clouds 29 1015 48 10000 3.1 0 15:31 19.07.2019
4941 Clouds 29 1016 45 10000 1.5 170 14:58 19.07.2019
4942 Clouds 28 1016 45 10000 1.5 170 14:39 19.07.2019
4943 Clouds 28 1016 48 10000 2.6 220 14:21 19.07.2019
4944 Clouds 28 1016 51 10000 2.1 200 13:44 19.07.2019
4945 Clouds 28 1016 51 10000 2.1 200 13:44 19.07.2019
4946 Clouds 28 1016 51 10000 2.1 200 13:44 19.07.2019
4947 Clouds 28 1016 51 10000 2.1 200 13:44 19.07.2019
4948 Clouds 28 1016 54 10000 1.5 210 13:26 19.07.2019
4949 Clouds 27 1016 58 10000 2.1 190 12:55 19.07.2019
4950 Clouds 27 1016 61 10000 1.5 0 12:31 19.07.2019
4951 Clouds 27 1016 61 10000 1.5 0 12:31 19.07.2019
4952 Clear 26 1016 65 10000 2.1 120 11:59 19.07.2019
4953 Clear 26 1016 65 10000 2.1 120 11:41 19.07.2019
4954 Clear 26 1016 61 10000 2.1 0 11:18 19.07.2019
4955 Clear 25 1016 61 10000 2.1 0 10:47 19.07.2019
4956 Clear 24 1016 61 10000 2.1 140 10:22 19.07.2019
4957 Clear 24 1016 60 10000 2.1 90 09:58 19.07.2019
4958 Clear 23 1016 60 10000 2.1 80 09:39 19.07.2019
4959 Clear 23 1016 60 10000 2.1 80 09:21 19.07.2019
4960 Clear 22 1016 64 10000 1.5 40 08:47 19.07.2019
4961 Clear 20 1016 82 10000 1 0 07:53 19.07.2019
4962 Clear 20 1016 82 10000 1 0 07:53 19.07.2019
4963 Clear 20 1015 77 10000 1.5 40 07:29 19.07.2019
4964 Clear 19 1015 77 10000 1.5 90 05:56 19.07.2019
4965 Clear 20 1014 68 10000 2.1 70 02:23 19.07.2019
4966 Clear 20 1014 78 10000 2.1 60 01:18 19.07.2019
4967 Clear 20 1014 83 10000 1 0 00:38 19.07.2019
4968 Clear 21 1013 73 10000 2.1 60 23:45 18.07.2019
4969 Clear 21 1013 69 10000 2.1 60 23:24 18.07.2019
4970 Clear 21 1013 69 10000 2.1 80 22:59 18.07.2019
4971 Clear 22 1013 69 10000 2.1 80 22:40 18.07.2019
4972 Clear 22 1013 69 10000 2.1 60 22:19 18.07.2019
4973 Clear 23 1012 65 10000 2.1 80 21:44 18.07.2019
4974 Clear 23 1012 65 10000 2.1 80 21:26 18.07.2019
4975 Clouds 23 1012 65 10000 3.1 60 20:51 18.07.2019
4976 Clouds 24 1012 65 10000 3.1 60 20:29 18.07.2019
4977 Clouds 24 1012 69 10000 3.6 50 19:57 18.07.2019
4978 Clouds 24 1012 69 10000 3.6 50 19:38 18.07.2019
4979 Rain 25 1012 61 10000 4.1 60 19:18 18.07.2019
4980 Clouds 25 1011 48 10000 4.6 90 18:41 18.07.2019
4981 Clouds 26 1012 51 10000 6.2 70 18:20 18.07.2019
4982 Rain 27 1012 42 10000 3.1 120 17:43 18.07.2019
4983 Thunderstorm 27 1011 45 10000 2.1 170 17:24 18.07.2019
4984 Thunderstorm 27 1011 48 10000 3.1 160 16:57 18.07.2019
4985 Thunderstorm 27 1012 51 10000 3.1 170 16:31 18.07.2019
4986 Clouds 28 1012 54 10000 2.1 0 15:59 18.07.2019
4987 Clouds 28 1012 54 10000 2.6 160 15:39 18.07.2019
4988 Clouds 27 1012 54 10000 2.6 160 15:21 18.07.2019
4989 Clouds 27 1012 54 10000 3.6 140 14:45 18.07.2019
4990 Clouds 27 1012 54 10000 3.6 140 14:45 18.07.2019
4991 Clouds 27 1012 57 10000 3.6 160 14:26 18.07.2019
4992 Clouds 27 1012 47 10000 1.5 0 13:48 18.07.2019
4993 Clouds 27 1013 61 10000 4.1 140 13:23 18.07.2019
4994 Clouds 26 1013 61 10000 4.1 140 12:50 18.07.2019
4995 Clouds 26 1013 61 10000 4.6 140 12:22 18.07.2019
4996 Clouds 26 1013 61 10000 4.6 140 12:21 18.07.2019
4997 Clouds 25 1013 61 10000 5.1 140 11:58 18.07.2019
4998 Clouds 25 1013 61 10000 5.1 140 11:39 18.07.2019
4999 Clouds 25 1012 57 10000 4.1 130 11:20 18.07.2019
5000 Clouds 24 1012 57 10000 3.6 140 10:41 18.07.2019
5001 Clouds 23 1012 60 10000 0.5 0 09:50 18.07.2019
5002 Clouds 22 1012 64 10000 1 0 09:26 18.07.2019
5003 Clouds 22 1012 60 10000 1.5 160 08:51 18.07.2019
5004 Clouds 21 1011 60 10000 1.5 100 08:23 18.07.2019
5005 Clouds 20 1011 64 10000 1.5 0 07:55 18.07.2019
5006 Clouds 20 1011 60 10000 2.1 110 07:34 18.07.2019
5007 Clouds 19 1011 77 10000 1 0 06:46 18.07.2019
5008 Clear 19 1011 77 10000 1 0 05:58 18.07.2019
5009 Thunderstorm 20 1011 77 10000 1 330 03:25 18.07.2019
5010 Clouds 20 1011 46 10000 1.5 290 01:52 18.07.2019
5011 Clouds 21 1011 46 10000 1 0 01:32 18.07.2019
5012 Clouds 22 1011 53 10000 1.5 270 23:57 17.07.2019
5013 Clear 23 1011 60 10000 1.5 260 23:21 17.07.2019
5014 Clear 23 1011 53 10000 1.5 260 22:58 17.07.2019
5015 Clear 23 1011 53 10000 1.5 260 22:58 17.07.2019
5016 Clear 23 1011 53 10000 1.5 260 22:40 17.07.2019
5017 Clouds 24 1010 50 10000 1 0 22:20 17.07.2019
5018 Clouds 25 1010 44 10000 2.1 260 21:46 17.07.2019
5019 Clear 25 1010 47 10000 2.1 260 21:28 17.07.2019
5020 Clear 26 1010 42 10000 2.6 260 20:59 17.07.2019
5021 Clear 26 1010 42 10000 2.6 260 20:40 17.07.2019
5022 Clear 27 1010 39 10000 2.6 250 20:21 17.07.2019
5023 Clear 27 1010 39 10000 2.1 260 19:56 17.07.2019
5024 Clear 28 1010 39 10000 2.6 270 19:37 17.07.2019
5025 Clear 28 1010 39 10000 2.6 270 19:18 17.07.2019
5026 Clear 29 1010 37 10000 2.6 230 18:41 17.07.2019
5027 Clear 29 1010 39 10000 2.1 270 18:20 17.07.2019
5028 Clear 29 1010 39 10000 2.1 270 18:20 17.07.2019
5029 Clear 29 1011 37 10000 2.1 270 17:50 17.07.2019
5030 Clear 29 1011 37 10000 2.1 270 17:27 17.07.2019
5031 Clear 30 1011 33 10000 2.6 220 16:55 17.07.2019
5032 Clear 29 1011 33 10000 2.6 220 16:37 17.07.2019
5033 Clear 29 1011 33 10000 2.6 200 16:18 17.07.2019
5034 Clear 29 1011 33 10000 2.6 200 15:47 17.07.2019
5035 Clear 29 1012 33 10000 2.6 0 15:25 17.07.2019
5036 Clear 29 1012 42 10000 2.1 0 14:54 17.07.2019
5037 Clear 29 1012 42 10000 2.1 0 14:36 17.07.2019
5038 Clear 29 1012 42 10000 2.1 180 14:18 17.07.2019
5039 Clear 29 1013 45 10000 2.1 0 13:41 17.07.2019
5040 Clear 28 1013 42 10000 2.1 230 13:20 17.07.2019
5041 Clear 28 1013 51 10000 1.5 120 12:40 17.07.2019
5042 Clear 27 1013 51 10000 1.5 120 12:21 17.07.2019
5043 Clear 26 1013 54 10000 2.1 0 11:45 17.07.2019
5044 Clear 26 1013 54 10000 2.1 0 11:21 17.07.2019
5045 Clear 25 1014 57 10000 1.5 0 10:51 17.07.2019
5046 Clear 25 1014 53 10000 2.1 150 10:30 17.07.2019
5047 Clear 24 1014 57 10000 2.1 120 09:58 17.07.2019
5048 Clear 24 1014 60 10000 2.1 90 09:40 17.07.2019
5049 Clear 23 1014 60 10000 2.1 90 09:20 17.07.2019
5050 Clear 21 1014 68 10000 1.5 40 08:42 17.07.2019
5051 Clear 21 1014 68 10000 1.5 40 08:22 17.07.2019
5052 Clear 20 1013 77 10000 1 0 07:50 17.07.2019
5053 Clear 19 1013 82 10000 0.5 360 07:24 17.07.2019
5054 Clear 18 1013 82 10000 0.5 360 06:55 17.07.2019
5055 Clear 18 1013 82 10000 1 20 06:29 17.07.2019
5056 Clear 18 1013 93 10000 0.5 260 05:48 17.07.2019
5057 Clear 17 1013 93 10000 0.5 260 05:28 17.07.2019
5058 Clear 18 1013 82 10000 1 0 04:37 17.07.2019
5059 Clear 19 1014 73 10000 0.5 50 02:56 17.07.2019
5060 Clear 19 1014 77 10000 1.5 70 01:59 17.07.2019
5061 Clear 19 1014 88 10000 0.5 100 01:25 17.07.2019
5062 Clear 19 1013 77 10000 0.5 310 00:47 17.07.2019
5063 Clear 20 1013 73 10000 0.5 0 00:24 17.07.2019
5064 Clear 20 1013 73 10000 0.5 0 23:57 16.07.2019
5065 Clear 20 1013 88 10000 1 190 23:30 16.07.2019
5066 Clear 21 1013 68 10000 1 190 22:58 16.07.2019
5067 Clear 22 1013 73 10000 1 190 22:40 16.07.2019
5068 Clear 23 1013 64 10000 1 200 22:20 16.07.2019
5069 Clear 24 1013 47 10000 1.5 240 21:45 16.07.2019
5070 Clear 24 1013 47 10000 1.5 240 21:21 16.07.2019
5071 Clear 25 1013 42 10000 1.5 210 20:58 16.07.2019
5072 Clear 26 1012 39 10000 2.1 210 20:38 16.07.2019
5073 Clear 26 1012 39 10000 2.1 210 20:20 16.07.2019
5074 Clear 27 1013 37 10000 2.6 220 19:47 16.07.2019
5075 Clear 27 1013 37 10000 2.6 220 19:27 16.07.2019
5076 Clear 28 1013 37 10000 2.1 260 18:47 16.07.2019
5077 Clear 28 1013 37 10000 2.1 260 18:21 16.07.2019
5078 Clear 28 1013 35 10000 1.5 0 17:58 16.07.2019
5079 Clear 28 1013 35 10000 1.5 0 17:58 16.07.2019
5080 Clear 28 1013 37 10000 2.6 190 17:39 16.07.2019
5081 Clear 28 1014 37 10000 2.1 200 17:20 16.07.2019
5082 Clear 28 1014 39 10000 2.6 210 16:40 16.07.2019
5083 Clear 28 1014 42 10000 1.5 190 16:19 16.07.2019
5084 Clouds 27 1014 42 10000 2.6 230 15:41 16.07.2019
5085 Clouds 27 1014 42 10000 2.6 230 15:21 16.07.2019
5086 Clouds 27 1014 44 10000 3.6 160 14:58 16.07.2019
5087 Clouds 27 1014 42 10000 3.6 200 14:39 16.07.2019
5088 Clouds 27 1014 42 10000 3.6 200 14:20 16.07.2019
5089 Clear 27 1015 54 10000 2.1 200 13:44 16.07.2019
5090 Clear 27 1015 54 10000 2.1 200 13:44 16.07.2019
5091 Clear 26 1015 54 10000 2.1 200 13:21 16.07.2019
5092 Clear 26 1015 53 10000 1.5 0 12:45 16.07.2019
5093 Clear 25 1015 60 10000 1.5 0 12:20 16.07.2019
5094 Clear 25 1015 60 10000 1.5 0 11:58 16.07.2019
5095 Clear 24 1015 60 10000 2.1 210 11:40 16.07.2019
5096 Clear 24 1015 64 10000 1.5 210 11:21 16.07.2019
5097 Clear 23 1015 73 10000 1.5 180 10:45 16.07.2019
5098 Clear 22 1015 73 10000 1.5 180 10:22 16.07.2019
5099 Clear 21 1015 77 10000 1 0 09:44 16.07.2019
5100 Clear 21 1015 82 10000 0.5 0 09:22 16.07.2019
5101 Clear 20 1015 82 10000 0.5 0 08:58 16.07.2019
5102 Clear 19 1014 88 8000 1 0 08:40 16.07.2019
5103 Clear 18 1014 93 6000 2.1 180 08:18 16.07.2019
5104 Clear 17 1014 100 10000 1.5 190 07:41 16.07.2019
5105 Clear 17 1014 100 10000 1.5 190 07:22 16.07.2019
5106 Fog 16 1014 93 10000 1 230 06:45 16.07.2019
5107 Fog 16 1014 100 10000 0.5 0 05:59 16.07.2019
5108 Clear 16 1014 100 10000 0.5 180 05:32 16.07.2019
5109 Clear 16 1014 100 10000 0.5 0 04:54 16.07.2019
5110 Clouds 16 1014 93 10000 1.5 80 03:52 16.07.2019
5111 Clouds 17 1014 93 10000 0.5 280 02:55 16.07.2019
5112 Clouds 17 1014 93 10000 0.5 0 02:30 16.07.2019
5113 Clouds 17 1014 93 10000 1 170 01:41 16.07.2019
5114 Clouds 18 1014 77 10000 1.5 150 00:41 16.07.2019
5115 Clouds 18 1014 77 10000 1.5 150 00:19 16.07.2019
5116 Rain 19 1014 77 10000 1.5 310 23:44 15.07.2019
5117 Rain 19 1014 77 10000 1.5 310 23:25 15.07.2019
5118 Rain 19 1013 73 10000 1 300 22:47 15.07.2019
5119 Thunderstorm 19 1013 73 10000 0.5 300 22:22 15.07.2019
5120 Thunderstorm 20 1013 73 10000 0.5 300 21:58 15.07.2019
5121 Thunderstorm 20 1013 68 10000 1 210 21:39 15.07.2019
5122 Clouds 21 1012 68 10000 1 0 21:19 15.07.2019
5123 Clouds 21 1012 68 10000 1 0 20:54 15.07.2019
5124 Clouds 22 1012 60 10000 2.1 190 20:36 15.07.2019
5125 Clouds 22 1012 60 10000 2.1 210 20:18 15.07.2019
5126 Rain 22 1012 56 10000 1.5 0 19:39 15.07.2019
5127 Rain 22 1012 60 10000 1.5 0 19:19 15.07.2019
5128 Rain 23 1012 56 10000 1.5 0 18:46 15.07.2019
5129 Clouds 23 1012 56 10000 1.5 0 18:22 15.07.2019
5130 Clouds 23 1012 64 10000 1.5 30 17:57 15.07.2019
5131 Clouds 22 1012 64 10000 2.1 80 17:39 15.07.2019
5132 Clouds 22 1012 64 10000 2.1 80 17:21 15.07.2019
5133 Clouds 22 1012 68 10000 2.6 110 16:57 15.07.2019
5134 Clouds 22 1013 68 10000 3.6 130 16:37 15.07.2019
5135 Clouds 22 1012 60 10000 6.2 140 16:18 15.07.2019
5136 Clouds 21 1012 60 10000 6.2 130 15:40 15.07.2019
5137 Rain 21 1012 60 10000 2.6 100 15:22 15.07.2019
5138 Rain 21 1012 60 10000 2.6 100 14:58 15.07.2019
5139 Rain 20 1012 60 10000 2.6 40 14:38 15.07.2019
5140 Rain 20 1012 68 10000 3.1 40 14:19 15.07.2019
5141 Rain 20 1011 68 10000 4.1 40 13:46 15.07.2019
5142 Rain 19 1011 68 10000 4.1 40 13:18 15.07.2019
5143 Rain 18 1011 68 10000 4.1 50 12:44 15.07.2019
5144 Rain 17 1011 77 10000 5.1 40 12:25 15.07.2019
5145 Rain 17 1011 77 10000 3.6 40 11:45 15.07.2019
5146 Rain 16 1011 77 10000 3.6 40 11:26 15.07.2019
5147 Rain 16 1011 82 10000 3.6 20 10:59 15.07.2019
5148 Rain 16 1011 77 10000 3.1 20 10:40 15.07.2019
5149 Rain 16 1011 82 10000 3.1 40 10:22 15.07.2019
5150 Rain 16 1010 82 10000 3.1 50 09:42 15.07.2019
5151 Rain 16 1010 82 10000 3.1 60 09:19 15.07.2019
5152 Drizzle 16 1010 88 10000 4.1 20 08:45 15.07.2019
5153 Rain 15 1010 88 10000 3.1 30 08:24 15.07.2019
5154 Rain 15 1009 88 10000 4.1 50 07:43 15.07.2019
5155 Rain 15 1009 88 10000 4.1 50 07:21 15.07.2019
5156 Rain 16 1009 88 10000 4.1 60 06:40 15.07.2019
5157 Rain 16 1009 93 10000 5.7 30 06:18 15.07.2019
5158 Rain 16 1009 93 10000 5.7 30 06:18 15.07.2019
5159 Rain 16 1010 93 10000 6.7 30 05:38 15.07.2019
5160 Rain 16 1010 93 10000 3.6 50 04:45 15.07.2019
5161 Rain 16 1010 93 10000 3.6 50 04:21 15.07.2019
5162 Rain 17 1012 93 10000 2.1 30 02:49 15.07.2019
5163 Rain 18 1010 68 10000 3.1 260 01:54 15.07.2019
5164 Rain 19 1010 68 10000 2.1 260 01:32 15.07.2019
5165 Drizzle 20 1010 68 10000 1 0 00:53 15.07.2019
5166 Thunderstorm 21 1009 64 10000 2.1 250 00:26 15.07.2019
5167 Clouds 21 1009 64 10000 2.1 250 23:58 14.07.2019
5168 Clouds 22 1009 60 10000 2.6 230 23:39 14.07.2019
5169 Clouds 22 1009 60 10000 2.6 230 23:19 14.07.2019
5170 Clouds 23 1009 53 10000 1.5 180 22:57 14.07.2019
5171 Rain 23 1009 53 10000 1.5 180 22:37 14.07.2019
5172 Rain 23 1009 53 10000 1.5 180 22:18 14.07.2019
5173 Rain 25 1008 47 10000 2.6 170 21:42 14.07.2019
5174 Rain 25 1008 42 10000 3.1 170 21:19 14.07.2019
5175 Rain 25 1008 42 10000 3.1 170 20:57 14.07.2019
5176 Rain 25 1008 42 10000 3.6 160 20:37 14.07.2019
5177 Rain 26 1008 42 10000 3.6 160 20:19 14.07.2019
5178 Rain 26 1008 32 10000 3.6 150 19:45 14.07.2019
5179 Clouds 27 1008 32 10000 3.6 150 19:26 14.07.2019
5180 Clouds 27 1009 34 10000 4.6 160 18:58 14.07.2019
5181 Clouds 27 1009 32 10000 5.1 160 18:39 14.07.2019
5182 Clear 28 1009 28 10000 5.1 150 18:21 14.07.2019
5183 Clear 28 1009 28 10000 4.1 130 17:49 14.07.2019
5184 Clear 28 1010 28 10000 4.1 140 17:21 14.07.2019
5185 Clear 28 1010 28 10000 3.6 150 16:47 14.07.2019
5186 Clear 29 1010 30 10000 3.6 120 16:24 14.07.2019
5187 Clear 28 1010 30 10000 3.6 120 15:56 14.07.2019
5188 Clear 28 1010 32 10000 3.1 0 15:34 14.07.2019
5189 Clouds 28 1011 37 10000 3.6 140 14:51 14.07.2019
5190 Clouds 28 1011 37 10000 3.6 140 14:22 14.07.2019
5191 Clear 27 1011 44 10000 2.6 110 13:58 14.07.2019
5192 Clear 27 1011 44 10000 2.6 110 13:38 14.07.2019
5193 Clear 27 1012 44 10000 2.6 0 13:20 14.07.2019
5194 Clear 27 1012 50 10000 2.6 0 12:43 14.07.2019
5195 Clear 26 1012 50 10000 2.6 0 12:22 14.07.2019
5196 Clear 25 1012 50 10000 2.1 0 11:55 14.07.2019
5197 Clear 25 1012 50 10000 2.1 0 11:28 14.07.2019
5198 Clear 25 1012 50 10000 2.1 150 10:59 14.07.2019
5199 Clear 24 1012 53 10000 2.6 120 10:40 14.07.2019
5200 Clear 24 1012 53 10000 2.6 120 10:19 14.07.2019
5201 Clear 23 1012 60 10000 2.6 130 09:42 14.07.2019
5202 Clear 22 1012 56 10000 2.6 120 09:23 14.07.2019
5203 Clear 21 1012 60 10000 2.1 110 08:43 14.07.2019
5204 Clouds 20 1012 60 10000 1.5 130 07:58 14.07.2019
5205 Clouds 20 1012 63 10000 2.6 120 07:38 14.07.2019
5206 Clouds 18 1012 68 10000 1 0 06:55 14.07.2019
5207 Clear 18 1012 56 10000 1.5 40 05:44 14.07.2019
5208 Clear 19 1013 56 10000 3.6 50 03:47 14.07.2019
5209 Clear 19 1013 56 10000 3.6 50 03:29 14.07.2019
5210 Clear 19 1013 63 10000 3.1 50 02:41 14.07.2019
5211 Clear 19 1013 63 10000 3.1 50 02:21 14.07.2019
5212 Clear 20 1013 60 10000 4.1 90 01:32 14.07.2019
5213 Clear 21 1013 60 10000 4.6 100 00:56 14.07.2019
5214 Clear 21 1013 60 10000 5.7 110 00:37 14.07.2019
5215 Clear 22 1012 57 10000 4.1 90 00:19 14.07.2019
5216 Clear 23 1011 61 10000 3.1 100 23:43 13.07.2019
5217 Clear 23 1011 61 10000 3.1 100 23:23 13.07.2019
5218 Clear 24 1011 57 10000 3.1 90 22:47 13.07.2019
5219 Clear 25 1010 51 10000 3.6 80 22:23 13.07.2019
5220 Clear 25 1010 47 10000 2.6 60 21:55 13.07.2019
5221 Clear 26 1009 28 10000 4.6 40 21:24 13.07.2019
5222 Clear 27 1009 23 10000 3.6 350 20:59 13.07.2019
5223 Clear 27 1008 20 10000 4.6 360 20:40 13.07.2019
5224 Clear 27 1008 20 10000 4.6 360 20:40 13.07.2019
5225 Clear 28 1008 20 10000 4.6 360 20:21 13.07.2019
5226 Clear 29 1008 38 10000 1 0 19:43 13.07.2019
5227 Clear 29 1008 38 10000 1 0 19:23 13.07.2019
5228 Clouds 30 1009 35 10000 1.5 0 18:41 13.07.2019
5229 Clouds 30 1009 35 10000 1.5 0 18:20 13.07.2019
5230 Clouds 30 1009 37 10000 3.6 190 17:38 13.07.2019
5231 Clouds 30 1009 37 10000 3.6 190 17:38 13.07.2019
5232 Clear 30 1009 40 10000 2.6 150 17:19 13.07.2019
5233 Clouds 30 1009 45 10000 3.6 160 16:45 13.07.2019
5234 Clouds 30 1009 45 10000 3.6 160 16:26 13.07.2019
5235 Clouds 30 1009 45 10000 3.6 160 16:26 13.07.2019
5236 Clouds 30 1009 42 10000 4.1 160 15:50 13.07.2019
5237 Clouds 30 1009 42 10000 4.1 160 15:50 13.07.2019
5238 Clouds 30 1009 42 10000 3.6 130 15:25 13.07.2019
5239 Clear 30 1009 42 10000 2.6 0 14:59 13.07.2019
5240 Clear 30 1010 42 10000 2.1 150 14:41 13.07.2019
5241 Clear 29 1010 51 10000 3.1 0 14:20 13.07.2019
5242 Clear 29 1010 47 10000 1 0 13:44 13.07.2019
5243 Clear 29 1010 51 10000 2.1 120 13:19 13.07.2019
5244 Clear 28 1010 51 10000 1.5 0 12:42 13.07.2019
5245 Clear 28 1010 51 10000 1.5 0 12:23 13.07.2019
5246 Clear 27 1010 57 10000 1.5 0 11:57 13.07.2019
5247 Clear 26 1010 61 10000 1.5 0 11:37 13.07.2019
5248 Clear 26 1010 64 10000 2.1 0 11:18 13.07.2019
5249 Clear 25 1010 64 10000 2.1 160 10:40 13.07.2019
5250 Clear 24 1010 64 10000 1 0 10:22 13.07.2019
5251 Clear 24 1010 69 10000 1.5 190 09:42 13.07.2019
5252 Clear 23 1010 69 10000 1.5 190 09:24 13.07.2019
5253 Clear 23 1010 69 10000 1.5 150 08:55 13.07.2019
5254 Clear 22 1010 73 10000 1.5 80 08:27 13.07.2019
5255 Clear 21 1010 77 10000 2.1 60 07:50 13.07.2019
5256 Clear 20 1009 82 10000 2.1 160 07:23 13.07.2019
5257 Clouds 19 1009 82 10000 1.5 170 06:29 13.07.2019
5258 Clouds 19 1009 93 10000 1 180 05:46 13.07.2019
5259 Clouds 20 1009 93 10000 0.5 0 04:39 13.07.2019
5260 Clouds 20 1009 93 10000 0.5 0 04:19 13.07.2019
5261 Rain 21 1009 82 10000 1.5 50 03:40 13.07.2019
5262 Clouds 21 1010 73 10000 2.1 70 02:52 13.07.2019
5263 Clouds 22 1010 77 10000 2.6 80 01:52 13.07.2019
5264 Rain 22 1010 68 10000 2.1 70 01:21 13.07.2019
5265 Clouds 23 1010 60 10000 5.1 110 00:58 13.07.2019
5266 Clouds 23 1010 60 10000 5.1 110 00:58 13.07.2019
5267 Clouds 23 1010 61 10000 6.2 120 00:20 13.07.2019
5268 Clouds 23 1010 61 10000 6.2 120 23:49 12.07.2019
5269 Clouds 24 1010 54 10000 2.1 160 23:30 12.07.2019
5270 Clouds 24 1009 57 10000 1.5 200 22:57 12.07.2019
5271 Clouds 25 1009 60 10000 2.1 190 22:38 12.07.2019
5272 Clear 25 1008 61 10000 0.5 0 22:18 12.07.2019
5273 Clear 26 1009 48 10000 0.5 210 21:41 12.07.2019
5274 Clear 27 1009 37 10000 1 0 21:19 12.07.2019
5275 Clear 27 1009 37 10000 1 0 21:19 12.07.2019
5276 Clear 28 1008 42 10000 2.1 0 20:43 12.07.2019
5277 Clear 28 1008 42 10000 2.1 0 20:22 12.07.2019
5278 Clear 29 1008 40 10000 2.1 250 19:42 12.07.2019
5279 Clear 29 1008 40 10000 2.1 250 19:24 12.07.2019
5280 Clear 30 1009 40 10000 2.1 280 18:49 12.07.2019
5281 Clear 30 1009 38 10000 3.1 230 18:22 12.07.2019
5282 Clear 30 1009 38 10000 3.1 230 17:55 12.07.2019
5283 Clear 30 1009 35 10000 3.6 220 17:37 12.07.2019
5284 Clear 30 1009 35 10000 3.6 220 17:19 12.07.2019
5285 Clear 30 1010 42 10000 2.6 230 16:36 12.07.2019
5286 Clear 29 1010 45 10000 2.6 250 16:18 12.07.2019
5287 Clear 29 1011 45 10000 2.6 230 15:38 12.07.2019
5288 Clear 29 1011 42 10000 3.1 210 15:19 12.07.2019
5289 Clear 29 1011 48 10000 2.1 0 14:44 12.07.2019
5290 Clear 28 1011 48 10000 2.1 0 14:21 12.07.2019
5291 Clear 28 1012 51 10000 2.1 0 13:47 12.07.2019
5292 Clear 27 1012 51 10000 2.1 0 13:23 12.07.2019
5293 Clear 27 1012 47 10000 1 0 12:43 12.07.2019
5294 Clear 26 1012 47 10000 1 0 12:23 12.07.2019
5295 Clear 26 1013 53 10000 1.5 0 11:47 12.07.2019
5296 Clear 25 1013 53 10000 1.5 0 11:24 12.07.2019
5297 Clear 25 1013 53 10000 1.5 0 11:24 12.07.2019
5298 Clear 25 1013 57 10000 2.1 150 10:59 12.07.2019
5299 Clear 24 1013 57 10000 2.1 130 10:41 12.07.2019
5300 Clear 24 1013 57 10000 2.1 130 10:23 12.07.2019
5301 Clear 23 1013 60 10000 2.1 0 09:53 12.07.2019
5302 Clouds 22 1014 68 10000 1.5 130 09:27 12.07.2019
5303 Clouds 21 1014 68 10000 2.1 70 08:50 12.07.2019
5304 Clouds 20 1013 68 10000 2.6 80 08:24 12.07.2019
5305 Clouds 20 1013 68 10000 2.6 80 07:51 12.07.2019
5306 Clouds 19 1013 68 10000 2.6 80 07:29 12.07.2019
5307 Clouds 18 1013 77 10000 2.1 60 06:32 12.07.2019
5308 Clouds 18 1013 77 10000 2.1 80 05:52 12.07.2019
5309 Clouds 18 1012 73 10000 3.1 80 04:52 12.07.2019
5310 Clouds 20 1013 64 10000 3.1 60 01:52 12.07.2019
5311 Clouds 20 1013 64 10000 2.1 60 01:34 12.07.2019
5312 Clouds 20 1012 68 10000 1 0 00:36 12.07.2019
5313 Clouds 21 1012 78 10000 1 200 23:57 11.07.2019
5314 Clouds 21 1012 78 10000 1 200 23:57 11.07.2019
5315 Clouds 21 1012 73 10000 1 0 23:38 11.07.2019
5316 Clouds 21 1012 73 10000 1 0 23:19 11.07.2019
5317 Clouds 22 1012 50 10000 1.5 80 22:43 11.07.2019
5318 Clouds 22 1012 50 10000 1.5 80 22:24 11.07.2019
5319 Clouds 23 1012 50 10000 1.5 70 21:44 11.07.2019
5320 Clouds 24 1012 50 10000 3.1 50 21:20 11.07.2019
5321 Clouds 24 1012 50 10000 3.1 50 20:59 11.07.2019
5322 Clouds 24 1011 50 10000 1 0 20:41 11.07.2019
5323 Clouds 25 1011 50 10000 1 0 20:22 11.07.2019
5324 Clouds 25 1011 50 10000 1.5 0 19:55 11.07.2019
5325 Clouds 25 1011 50 10000 2.1 110 19:37 11.07.2019
5326 Clouds 25 1011 50 10000 2.1 110 19:19 11.07.2019
5327 Clouds 25 1012 50 10000 2.1 170 18:39 11.07.2019
5328 Clouds 25 1012 50 10000 2.1 170 18:21 11.07.2019
5329 Clouds 26 1012 44 10000 1.5 0 17:46 11.07.2019
5330 Clouds 25 1012 44 10000 1.5 0 17:28 11.07.2019
5331 Clouds 26 1012 44 10000 2.6 140 16:52 11.07.2019
5332 Clouds 26 1012 42 10000 3.1 160 16:24 11.07.2019
5333 Clouds 26 1013 44 10000 2.6 170 15:55 11.07.2019
5334 Clouds 26 1013 42 10000 2.6 0 15:37 11.07.2019
5335 Clouds 26 1013 42 10000 2.6 0 15:37 11.07.2019
5336 Clouds 25 1013 42 10000 3.1 130 15:19 11.07.2019
5337 Clouds 25 1014 44 10000 2.6 150 14:43 11.07.2019
5338 Clouds 25 1014 44 10000 2.6 150 14:22 11.07.2019
5339 Clouds 25 1014 44 10000 3.6 120 13:47 11.07.2019
5340 Clouds 25 1014 44 10000 3.6 120 13:28 11.07.2019
5341 Clouds 24 1014 47 10000 3.6 120 12:46 11.07.2019
5342 Clouds 24 1014 47 10000 3.6 120 12:28 11.07.2019
5343 Clouds 24 1015 50 10000 3.1 90 11:58 11.07.2019
5344 Clouds 23 1015 53 10000 3.6 80 11:39 11.07.2019
5345 Clouds 23 1014 53 10000 4.1 80 11:21 11.07.2019
5346 Clouds 23 1015 57 10000 4.1 90 10:45 11.07.2019
5347 Clouds 23 1015 56 10000 4.1 80 10:19 11.07.2019
5348 Clouds 22 1014 64 10000 3.6 100 09:47 11.07.2019
5349 Clouds 22 1014 64 10000 3.6 100 09:28 11.07.2019
5350 Clouds 22 1014 64 10000 4.1 100 08:52 11.07.2019
5351 Clouds 21 1014 64 10000 3.6 100 08:26 11.07.2019
5352 Clouds 21 1014 64 10000 3.6 100 07:52 11.07.2019
5353 Clouds 21 1013 73 10000 2.6 40 07:34 11.07.2019
5354 Clouds 20 1014 73 10000 2.6 90 06:41 11.07.2019
5355 Clouds 20 1015 88 10000 1 0 05:51 11.07.2019
5356 Clear 20 1014 77 10000 0.5 0 05:29 11.07.2019
5357 Clouds 20 1014 82 10000 1.5 10 04:54 11.07.2019
5358 Clear 21 1015 82 10000 2.1 20 02:41 11.07.2019
5359 Clear 21 1014 73 10000 1.5 120 01:27 11.07.2019
5360 Clear 22 1014 73 10000 1.5 120 00:27 11.07.2019
5361 Clear 23 1013 64 10000 3.1 130 23:37 10.07.2019
5362 Clear 23 1013 61 10000 3.6 130 23:18 10.07.2019
5363 Clouds 23 1013 61 10000 3.6 130 22:44 10.07.2019
5364 Clouds 24 1012 54 10000 3.1 110 22:20 10.07.2019
5365 Clouds 24 1012 44 10000 3.1 130 21:45 10.07.2019
5366 Clouds 25 1012 44 10000 3.1 130 21:26 10.07.2019
5367 Clear 25 1012 44 10000 3.6 140 20:56 10.07.2019
5368 Clear 25 1012 44 10000 3.6 140 20:56 10.07.2019
5369 Clear 26 1012 44 10000 4.6 140 20:38 10.07.2019
5370 Clear 26 1012 44 10000 4.6 140 20:18 10.07.2019
5371 Clouds 27 1011 45 10000 4.6 130 19:45 10.07.2019
5372 Clouds 27 1011 45 10000 4.1 140 19:22 10.07.2019
5373 Clouds 27 1011 45 10000 4.1 140 18:55 10.07.2019
5374 Clouds 27 1011 48 10000 3.6 130 18:37 10.07.2019
5375 Clouds 27 1011 48 10000 3.6 130 18:19 10.07.2019
5376 Clouds 27 1011 45 10000 4.1 100 17:41 10.07.2019
5377 Clouds 27 1011 48 10000 4.1 140 17:20 10.07.2019
5378 Clouds 27 1011 48 10000 4.1 140 16:22 10.07.2019
5379 Clouds 27 1012 45 10000 4.1 110 15:59 10.07.2019
5380 Clouds 27 1012 48 10000 3.6 0 15:41 10.07.2019
5381 Clouds 27 1012 48 10000 3.6 0 15:19 10.07.2019
5382 Clouds 27 1012 51 10000 4.1 140 14:40 10.07.2019
5383 Clouds 27 1012 51 10000 4.1 140 14:22 10.07.2019
5384 Clouds 26 1012 50 10000 4.1 130 13:44 10.07.2019
5385 Clouds 26 1012 50 10000 4.1 130 13:19 10.07.2019
5386 Clouds 26 1012 50 10000 4.1 160 12:55 10.07.2019
5387 Clouds 26 1012 50 10000 5.1 140 12:37 10.07.2019
5388 Clouds 25 1012 54 10000 4.6 170 12:18 10.07.2019
5389 Clouds 25 1012 53 10000 3.6 150 11:43 10.07.2019
5390 Clouds 25 1012 53 10000 3.6 150 11:21 10.07.2019
5391 Clouds 24 1012 60 10000 5.1 120 10:41 10.07.2019
5392 Clouds 24 1012 64 10000 3.1 140 10:20 10.07.2019
5393 Clouds 23 1011 69 10000 3.6 140 09:44 10.07.2019
5394 Clouds 23 1011 73 10000 3.1 150 09:21 10.07.2019
5395 Clouds 22 1011 73 10000 2.6 120 08:50 10.07.2019
5396 Clouds 22 1011 73 10000 2.6 120 08:29 10.07.2019
5397 Clouds 21 1011 73 10000 2.1 80 07:54 10.07.2019
5398 Clouds 21 1011 78 10000 2.1 70 07:31 10.07.2019
5399 Clouds 20 1010 78 10000 2.1 80 06:42 10.07.2019
5400 Clouds 20 1010 78 10000 2.1 90 05:44 10.07.2019
5401 Clouds 20 1010 78 10000 2.6 80 04:35 10.07.2019
5402 Clouds 21 1011 78 10000 2.6 80 03:20 10.07.2019
5403 Clear 21 1010 78 10000 3.1 80 00:45 10.07.2019
5404 Clear 21 1010 78 10000 2.1 80 23:58 09.07.2019
5405 Clear 21 1010 78 10000 2.1 70 23:39 09.07.2019
5406 Clouds 21 1010 78 10000 2.1 80 23:20 09.07.2019
5407 Clouds 21 1010 73 10000 2.1 50 22:40 09.07.2019
5408 Clouds 22 1010 73 10000 2.1 50 22:22 09.07.2019
5409 Clouds 22 1010 69 10000 2.1 70 21:47 09.07.2019
5410 Clouds 22 1009 64 10000 3.1 30 21:27 09.07.2019
5411 Clouds 23 1009 64 10000 3.1 30 20:57 09.07.2019
5412 Clouds 23 1009 60 10000 3.6 50 20:39 09.07.2019
5413 Clouds 23 1009 60 10000 3.6 50 20:21 09.07.2019
5414 Rain 23 1010 54 10000 6.7 40 19:39 09.07.2019
5415 Rain 23 1010 54 10000 6.7 40 19:19 09.07.2019
5416 Thunderstorm 25 1008 54 10000 4.1 220 18:40 09.07.2019
5417 Thunderstorm 26 1008 54 10000 4.1 220 18:22 09.07.2019
5418 Rain 26 1010 61 10000 5.1 160 17:44 09.07.2019
5419 Rain 26 1010 61 10000 5.1 160 17:22 09.07.2019
5420 Clouds 28 1010 58 10000 5.7 160 16:59 09.07.2019
5421 Clouds 28 1010 58 10000 3.6 160 16:41 09.07.2019
5422 Clouds 28 1010 58 10000 3.6 160 16:22 09.07.2019
5423 Clouds 28 1010 58 10000 3.1 160 15:44 09.07.2019
5424 Clouds 28 1010 58 10000 3.1 160 15:25 09.07.2019
5425 Clouds 28 1010 54 10000 2.6 130 14:46 09.07.2019
5426 Clouds 28 1011 54 10000 2.1 0 14:24 09.07.2019
5427 Clouds 28 1011 58 10000 3.1 110 13:57 09.07.2019
5428 Clouds 28 1011 58 10000 3.1 110 13:39 09.07.2019
5429 Clouds 28 1011 57 10000 3.1 140 13:20 09.07.2019
5430 Clouds 27 1012 57 10000 4.1 140 12:39 09.07.2019
5431 Clouds 27 1012 57 10000 4.1 130 12:19 09.07.2019
5432 Clouds 26 1012 57 10000 4.1 130 11:56 09.07.2019
5433 Clouds 26 1012 61 10000 4.1 140 11:37 09.07.2019
5434 Clouds 26 1012 61 10000 4.1 140 11:19 09.07.2019
5435 Clouds 25 1012 61 10000 4.1 120 10:47 09.07.2019
5436 Clouds 25 1012 61 10000 4.1 120 10:26 09.07.2019
5437 Clouds 24 1012 60 10000 4.6 110 09:39 09.07.2019
5438 Clouds 24 1012 60 10000 4.6 110 09:20 09.07.2019
5439 Clouds 23 1012 64 10000 3.6 100 08:45 09.07.2019
5440 Clouds 23 1012 64 10000 3.6 100 08:45 09.07.2019
5441 Clouds 23 1012 69 10000 3.1 80 08:21 09.07.2019
5442 Clear 22 1017 73 9000 1 0 03:52 05.07.2019
5443 Clear 22 1017 73 9000 1 0 03:24 05.07.2019
5444 Clear 22 1017 78 9000 1 0 02:53 05.07.2019
5445 Clear 22 1017 73 8000 0.5 0 02:34 05.07.2019
5446 Clear 23 1017 73 9000 0.5 0 01:37 05.07.2019
5447 Clear 23 1017 73 9000 0.5 0 00:52 05.07.2019
5448 Clear 23 1017 78 10000 1 320 00:32 05.07.2019
5449 Clouds 24 1017 65 9000 0.5 0 23:47 04.07.2019
5450 Clouds 25 1017 73 10000 1 0 23:19 04.07.2019
5451 Rain 26 1017 54 10000 1.5 140 22:43 04.07.2019
5452 Rain 26 1017 54 10000 1.5 140 22:24 04.07.2019
5453 Rain 26 1016 54 10000 1.5 150 21:45 04.07.2019
5454 Rain 27 1016 54 10000 1.5 150 21:26 04.07.2019
5455 Clouds 27 1016 51 10000 2.6 160 20:59 04.07.2019
5456 Clear 28 1016 51 10000 3.1 130 20:38 04.07.2019
5457 Clear 28 1016 48 10000 3.6 150 20:20 04.07.2019
5458 Rain 29 1016 43 10000 3.1 140 19:42 04.07.2019
5459 Clear 30 1016 38 10000 3.1 90 19:22 04.07.2019
5460 Rain 29 1016 38 10000 3.1 90 19:22 04.07.2019
5461 Clear 30 1016 38 10000 3.1 90 18:56 04.07.2019
5462 Clear 30 1016 38 10000 3.1 70 18:37 04.07.2019
5463 Clear 30 1016 38 10000 3.6 70 18:18 04.07.2019
5464 Clear 30 1016 43 10000 2.6 130 17:43 04.07.2019
5465 Clear 30 1016 43 10000 2.6 130 17:19 04.07.2019
5466 Clear 30 1017 42 10000 2.6 150 15:57 04.07.2019
5467 Clear 30 1017 42 10000 2.6 190 15:39 04.07.2019
5468 Clear 30 1017 42 10000 2.6 190 15:18 04.07.2019
5469 Clear 30 1017 42 10000 2.6 190 15:18 04.07.2019
5470 Clear 29 1018 42 10000 2.6 50 14:41 04.07.2019
5471 Clear 29 1018 42 10000 2.6 50 14:22 04.07.2019
5472 Clear 29 1018 48 10000 2.6 170 13:58 04.07.2019
5473 Clear 29 1018 48 10000 2.6 170 13:39 04.07.2019
5474 Clear 28 1018 51 10000 2.1 0 13:21 04.07.2019
5475 Clear 28 1018 57 10000 2.1 0 12:40 04.07.2019
5476 Clear 27 1018 57 10000 2.1 0 12:21 04.07.2019
5477 Clear 27 1018 57 10000 1.5 0 11:57 04.07.2019
5478 Clear 27 1018 57 10000 1.5 0 11:37 04.07.2019
5479 Clear 26 1018 57 10000 1.5 0 11:18 04.07.2019
5480 Clear 25 1018 65 10000 1 0 10:39 04.07.2019
5481 Clear 25 1018 65 10000 1 0 10:19 04.07.2019
5482 Clear 24 1018 69 10000 1.5 70 09:39 04.07.2019
5483 Clear 23 1018 69 10000 1.5 70 09:20 04.07.2019
5484 Clear 22 1018 73 10000 1 0 08:55 04.07.2019
5485 Clear 22 1018 83 10000 1.5 190 08:19 04.07.2019
5486 Clear 20 1018 88 10000 0.5 0 07:43 04.07.2019
5487 Clear 20 1018 88 10000 0.5 0 07:21 04.07.2019
5488 Clear 19 1017 88 10000 1.5 10 06:38 04.07.2019
5489 Clear 19 1017 82 10000 2.6 50 05:50 04.07.2019
5490 Clear 18 1017 82 10000 2.1 30 05:31 04.07.2019
5491 Clear 19 1017 82 10000 2.1 80 02:41 04.07.2019
5492 Clouds 20 1017 82 10000 1.5 170 01:28 04.07.2019
5493 Clouds 20 1018 88 10000 2.1 150 00:57 04.07.2019
5494 Rain 21 1018 77 10000 3.6 50 23:56 03.07.2019
5495 Rain 21 1018 77 10000 3.1 90 23:21 03.07.2019
5496 Thunderstorm 21 1016 83 10000 3.1 70 22:59 03.07.2019
5497 Rain 21 1016 83 10000 4.1 50 22:39 03.07.2019
5498 Rain 21 1016 83 10000 4.1 50 22:21 03.07.2019
5499 Rain 21 1017 94 10000 3.1 20 21:56 03.07.2019
5500 Rain 21 1016 88 5000 4.1 310 21:37 03.07.2019
5501 Thunderstorm 24 1014 44 10000 5.7 180 20:57 03.07.2019
5502 Thunderstorm 25 1013 45 10000 6.7 40 20:39 03.07.2019
5503 Thunderstorm 26 1014 43 10000 2.6 0 20:19 03.07.2019
5504 Thunderstorm 27 1014 43 10000 2.6 0 19:48 03.07.2019
5505 Rain 28 1013 43 10000 2.6 140 19:29 03.07.2019
5506 Thunderstorm 30 1013 41 10000 2.6 170 18:46 03.07.2019
5507 Rain 30 1013 41 10000 2.6 170 18:24 03.07.2019
5508 Rain 31 1013 41 10000 3.1 160 17:54 03.07.2019
5509 Clouds 31 1013 43 10000 2.1 0 17:20 03.07.2019
5510 Clouds 32 1013 43 10000 2.1 0 16:59 03.07.2019
5511 Clouds 31 1013 46 10000 2.6 110 16:40 03.07.2019
5512 Clear 32 1014 46 10000 2.1 0 16:19 03.07.2019
5513 Clear 32 1014 46 10000 2.1 0 15:47 03.07.2019
5514 Clear 32 1014 46 10000 2.1 0 15:27 03.07.2019
5515 Clear 31 1015 43 10000 2.6 110 14:51 03.07.2019
5516 Clear 31 1015 43 10000 3.6 190 14:23 03.07.2019
5517 Clear 31 1015 48 10000 3.1 160 13:50 03.07.2019
5518 Clear 31 1015 45 10000 2.6 200 13:31 03.07.2019
5519 Clear 30 1015 48 10000 2.6 210 12:54 03.07.2019
5520 Clear 30 1015 45 10000 2.6 180 12:20 03.07.2019
5521 Clear 29 1016 48 10000 3.6 140 11:57 03.07.2019
5522 Clear 29 1016 48 10000 3.6 140 11:39 03.07.2019
5523 Clear 29 1016 48 10000 3.6 140 11:19 03.07.2019
5524 Clear 28 1016 51 10000 2.6 110 10:40 03.07.2019
5525 Clear 28 1016 51 10000 2.6 110 10:21 03.07.2019
5526 Clouds 27 1015 54 10000 5.1 140 09:42 03.07.2019
5527 Clouds 26 1015 57 10000 3.6 110 09:21 03.07.2019
5528 Clouds 26 1015 57 10000 3.6 110 08:53 03.07.2019
5529 Clouds 25 1015 57 10000 2.1 80 08:31 03.07.2019
5530 Clouds 24 1015 61 10000 2.1 90 07:51 03.07.2019
5531 Clouds 23 1015 61 10000 2.1 90 07:33 03.07.2019
5532 Clouds 23 1015 64 10000 1 0 06:42 03.07.2019
5533 Clouds 23 1014 73 10000 2.6 60 05:42 03.07.2019
5534 Clouds 23 1015 69 10000 3.1 70 04:52 03.07.2019
5535 Clear 24 1014 65 10000 4.6 120 03:28 03.07.2019
5536 Clear 24 1014 69 10000 4.1 140 02:37 03.07.2019
5537 Clear 25 1014 65 10000 2.1 170 01:22 03.07.2019
5538 Clear 25 1014 65 10000 1.5 180 00:52 03.07.2019
5539 Clear 25 1014 65 10000 1.5 180 00:33 03.07.2019
5540 Clear 26 1013 51 10000 2.1 250 23:39 02.07.2019
5541 Smoke 26 1013 61 10000 1 0 23:20 02.07.2019
5542 Smoke 26 1013 61 10000 1 0 23:20 02.07.2019
5543 Smoke 27 1013 61 10000 1 0 22:57 02.07.2019
5544 Smoke 27 1013 61 10000 1 0 22:57 02.07.2019
5545 Smoke 27 1013 61 10000 1 0 22:57 02.07.2019
5546 Clear 27 1012 54 10000 1.5 30 22:39 02.07.2019
5547 Clear 27 1012 48 10000 1 0 22:20 02.07.2019
5548 Clouds 28 1012 35 10000 1.5 280 21:47 02.07.2019
5549 Clouds 28 1012 35 10000 1.5 280 21:25 02.07.2019
5550 Clouds 29 1012 31 10000 3.1 300 20:59 02.07.2019
5551 Clouds 29 1012 31 10000 3.1 300 20:40 02.07.2019
5552 Clouds 30 1012 33 10000 1.5 280 20:22 02.07.2019
5553 Rain 30 1012 29 10000 3.1 280 19:44 02.07.2019
5554 Clear 31 1013 29 10000 3.1 270 19:24 02.07.2019
5555 Clouds 31 1013 31 10000 3.6 250 18:58 02.07.2019
5556 Clear 33 1012 30 10000 2.6 270 18:19 02.07.2019
5557 Clear 33 1013 32 10000 2.6 240 17:46 02.07.2019
5558 Clear 33 1013 30 10000 2.6 240 17:25 02.07.2019
5559 Clear 33 1013 30 10000 2.6 240 16:57 02.07.2019
5560 Clear 33 1013 32 10000 2.6 220 16:39 02.07.2019
5561 Clear 33 1013 32 10000 2.6 220 16:21 02.07.2019
5562 Clear 33 1014 34 10000 2.6 230 15:40 02.07.2019
5563 Clear 33 1014 34 10000 2.6 230 15:21 02.07.2019
5564 Clear 32 1014 40 10000 2.6 0 14:45 02.07.2019
5565 Clear 32 1014 40 10000 2.6 0 14:25 02.07.2019
5566 Clear 31 1015 40 10000 3.1 230 13:43 02.07.2019
5567 Clear 31 1015 40 10000 3.1 230 13:19 02.07.2019
5568 Clear 30 1015 40 10000 2.6 250 12:45 02.07.2019
5569 Clear 30 1015 40 10000 2.1 250 12:23 02.07.2019
5570 Clear 29 1015 45 10000 2.6 270 11:45 02.07.2019
5571 Clear 28 1015 45 10000 2.6 270 11:25 02.07.2019
5572 Clear 28 1016 45 10000 2.6 280 10:59 02.07.2019
5573 Clear 28 1016 45 10000 2.6 280 10:37 02.07.2019
5574 Clear 27 1016 51 10000 2.6 280 10:19 02.07.2019
5575 Clear 26 1016 47 10000 3.6 300 09:37 02.07.2019
5576 Clear 26 1016 47 10000 4.1 320 09:19 02.07.2019
5577 Clear 24 1015 53 10000 3.1 330 08:40 02.07.2019
5578 Clear 24 1015 53 10000 3.6 340 08:20 02.07.2019
5579 Clear 23 1015 53 10000 3.6 340 07:47 02.07.2019
5580 Clouds 22 1015 53 10000 2.6 310 07:20 02.07.2019
5581 Clouds 22 1015 53 10000 2.6 290 06:40 02.07.2019
5582 Clear 22 1015 68 10000 0.5 0 05:55 02.07.2019
5583 Rain 23 1018 69 10000 1 0 02:43 02.07.2019
5584 Thunderstorm 22 1018 61 10000 3.1 250 00:41 02.07.2019
5585 Clear 23 1016 61 10000 2.1 10 23:40 01.07.2019
5586 Clear 23 1016 57 10000 2.6 10 23:19 01.07.2019
5587 Clouds 23 1016 57 10000 0.5 0 22:44 01.07.2019
5588 Clear 23 1015 54 10000 1.5 270 22:26 01.07.2019
5589 Clouds 24 1015 51 10000 2.1 250 21:45 01.07.2019
5590 Clouds 24 1015 51 10000 2.1 250 21:45 01.07.2019
5591 Clouds 24 1015 51 10000 2.1 250 21:25 01.07.2019
5592 Clear 25 1015 54 10000 1 0 20:51 01.07.2019
5593 Clouds 25 1015 42 10000 0.5 0 20:21 01.07.2019
5594 Clouds 26 1015 42 10000 2.1 320 19:56 01.07.2019
5595 Clouds 25 1015 42 10000 2.1 320 19:37 01.07.2019
5596 Clouds 26 1015 45 10000 3.1 0 19:18 01.07.2019
5597 Clouds 25 1014 33 10000 2.6 360 18:44 01.07.2019
5598 Clouds 26 1014 33 10000 2.6 360 18:26 01.07.2019
5599 Thunderstorm 27 1016 40 10000 8.7 350 17:47 01.07.2019
5600 Thunderstorm 28 1016 40 10000 8.7 350 17:26 01.07.2019
5601 Thunderstorm 30 1016 40 10000 9.3 320 16:57 01.07.2019
5602 Thunderstorm 31 1016 40 10000 9.3 320 16:39 01.07.2019
5603 Thunderstorm 30 1015 41 10000 3.1 0 16:21 01.07.2019
5604 Thunderstorm 32 1015 41 10000 2.6 250 15:44 01.07.2019
5605 Thunderstorm 32 1016 41 10000 2.6 250 15:23 01.07.2019
5606 Thunderstorm 33 1016 41 10000 2.1 0 14:44 01.07.2019
5607 Thunderstorm 33 1016 41 10000 3.1 160 14:20 01.07.2019
5608 Rain 33 1017 43 10000 2.6 140 13:47 01.07.2019
5609 Clear 33 1017 41 10000 2.6 130 13:24 01.07.2019
5610 Clear 32 1017 43 10000 2.1 170 12:57 01.07.2019
5611 Clear 32 1018 45 10000 2.1 0 12:38 01.07.2019
5612 Clear 32 1018 45 10000 2.1 0 12:19 01.07.2019
5613 Clear 31 1018 45 10000 2.1 150 11:44 01.07.2019
5614 Clear 31 1018 48 10000 1.5 140 11:22 01.07.2019
5615 Clear 30 1018 45 10000 2.1 0 10:48 01.07.2019
5616 Clear 29 1018 51 10000 2.6 130 10:24 01.07.2019
5617 Clear 29 1018 51 10000 2.6 160 09:58 01.07.2019
5618 Clear 28 1018 51 10000 2.6 160 09:40 01.07.2019
5619 Clear 28 1018 51 10000 3.6 130 09:21 01.07.2019
5620 Clear 27 1018 54 10000 3.1 120 08:38 01.07.2019
5621 Clear 25 1018 73 10000 0.5 270 07:57 01.07.2019
5622 Clouds 24 1018 78 10000 1 260 07:27 01.07.2019
5623 Clouds 23 1018 73 8000 1.5 80 06:27 01.07.2019
5624 Clouds 25 1018 73 10000 1.5 30 01:43 01.07.2019
5625 Clouds 26 1018 69 10000 0.5 0 00:49 01.07.2019
5626 Clouds 26 1018 73 10000 0.5 0 00:29 01.07.2019
5627 Clouds 26 1018 58 10000 1 0 23:56 30.06.2019
5628 Clear 27 1018 61 10000 1 0 23:21 30.06.2019
5629 Clear 27 1018 61 10000 1 0 22:49 30.06.2019
5630 Clear 28 1018 69 10000 1 0 22:21 30.06.2019
5631 Clear 29 1017 58 10000 0.5 190 21:42 30.06.2019
5632 Clear 29 1017 48 10000 1.5 190 21:20 30.06.2019
5633 Clear 30 1017 43 10000 2.1 190 20:56 30.06.2019
5634 Clear 31 1017 43 10000 2.6 180 20:38 30.06.2019
5635 Clear 31 1017 43 10000 2.6 180 20:18 30.06.2019
5636 Clear 32 1017 41 10000 2.6 170 19:44 30.06.2019
5637 Clear 32 1017 38 10000 1.5 220 19:24 30.06.2019
5638 Clear 33 1018 38 10000 2.1 200 18:26 30.06.2019
5639 Clear 33 1018 36 10000 2.6 180 17:59 30.06.2019
5640 Clear 33 1018 38 10000 2.1 0 17:39 30.06.2019
5641 Clear 33 1018 38 10000 2.1 0 17:18 30.06.2019
5642 Clear 33 1018 38 10000 3.1 180 16:48 30.06.2019
5643 Clear 33 1018 36 10000 2.1 0 16:26 30.06.2019
5644 Clear 33 1019 41 10000 2.6 230 15:38 30.06.2019
5645 Clear 33 1019 41 10000 2.6 230 15:19 30.06.2019
5646 Clear 33 1019 38 10000 2.6 220 14:53 30.06.2019
5647 Clear 32 1019 38 10000 2.6 220 14:35 30.06.2019
5648 Clear 32 1019 43 10000 2.6 0 13:49 30.06.2019
5649 Clear 32 1020 40 10000 1 0 13:29 30.06.2019
5650 Clear 31 1020 38 10000 2.1 170 12:55 30.06.2019
5651 Clear 31 1020 38 10000 2.6 170 12:31 30.06.2019
5652 Clear 31 1020 40 10000 1.5 260 11:59 30.06.2019
5653 Clear 31 1020 40 10000 1.5 260 11:59 30.06.2019
5654 Clear 30 1020 40 10000 1.5 260 11:41 30.06.2019
5655 Clear 30 1020 38 10000 1.5 0 11:20 30.06.2019
5656 Clear 30 1020 38 10000 1.5 0 11:20 30.06.2019
5657 Clear 30 1020 38 10000 1.5 220 10:54 30.06.2019
5658 Clear 29 1020 38 10000 1.5 220 10:36 30.06.2019
5659 Clear 29 1020 35 10000 1.5 60 10:18 30.06.2019
5660 Clear 28 1020 42 10000 2.1 60 09:42 30.06.2019
5661 Clear 28 1020 45 10000 2.6 70 09:20 30.06.2019
5662 Clear 26 1020 54 10000 2.1 50 08:40 30.06.2019
5663 Clear 26 1020 57 10000 2.6 60 08:21 30.06.2019
5664 Clear 25 1020 61 10000 2.6 50 07:47 30.06.2019
5665 Clear 24 1020 64 10000 2.1 50 07:24 30.06.2019
5666 Clear 23 1019 68 10000 1 0 06:37 30.06.2019
5667 Clear 24 1019 61 10000 2.6 50 03:32 30.06.2019
5668 Clear 24 1019 61 10000 2.6 50 03:32 30.06.2019
5669 Clear 25 1019 57 10000 2.1 70 01:53 30.06.2019
5670 Clear 25 1019 54 10000 2.1 110 00:46 30.06.2019
5671 Clear 26 1018 54 10000 2.1 140 00:24 30.06.2019
5672 Clear 26 1018 48 10000 2.6 130 23:48 29.06.2019
5673 Clear 26 1018 51 10000 3.1 130 23:22 29.06.2019
5674 Clear 27 1018 45 10000 3.6 140 22:47 29.06.2019
5675 Clear 28 1017 45 10000 3.1 120 22:23 29.06.2019
5676 Clear 28 1017 43 10000 3.1 120 21:55 29.06.2019
5677 Clear 29 1017 43 10000 3.1 130 21:25 29.06.2019
5678 Clear 30 1017 40 10000 4.1 120 20:47 29.06.2019
5679 Clear 31 1017 40 10000 3.1 120 20:29 29.06.2019
5680 Clear 31 1017 38 10000 2.6 130 19:59 29.06.2019
5681 Clear 32 1017 38 10000 2.6 130 19:41 29.06.2019
5682 Clear 32 1017 36 10000 2.6 170 19:20 29.06.2019
5683 Clear 32 1017 36 10000 2.6 170 19:20 29.06.2019
5684 Clear 32 1017 36 10000 2.6 0 18:47 29.06.2019
5685 Clear 32 1017 36 10000 3.1 130 18:24 29.06.2019
5686 Clear 33 1017 36 10000 3.1 190 17:38 29.06.2019
5687 Clear 33 1017 34 10000 2.1 130 17:19 29.06.2019
5688 Clear 32 1017 36 10000 2.6 160 16:43 29.06.2019
5689 Clear 32 1018 36 10000 3.1 0 16:00 29.06.2019
5690 Clear 32 1018 38 10000 2.6 160 15:32 29.06.2019
5691 Clear 32 1018 38 10000 3.1 150 14:46 29.06.2019
5692 Clear 32 1018 38 10000 4.1 150 14:27 29.06.2019
5693 Clear 31 1018 40 10000 4.1 110 13:56 29.06.2019
5694 Clear 31 1018 40 10000 4.1 110 13:37 29.06.2019
5695 Clear 31 1019 38 10000 3.6 110 13:18 29.06.2019
5696 Clear 30 1019 38 10000 5.1 120 12:40 29.06.2019
5697 Clear 30 1019 38 10000 5.1 120 12:21 29.06.2019
5698 Clouds 30 1019 43 10000 4.6 90 11:43 29.06.2019
5699 Clouds 29 1019 42 10000 5.7 100 11:25 29.06.2019
5700 Clear 29 1019 48 10000 5.7 120 10:49 29.06.2019
5701 Clear 28 1019 45 10000 5.1 120 10:21 29.06.2019
5702 Clear 28 1019 45 10000 6.2 90 09:57 29.06.2019
5703 Clear 28 1019 45 10000 6.2 90 09:57 29.06.2019
5704 Clear 27 1018 57 10000 4.6 100 08:55 29.06.2019
5705 Clouds 27 1018 54 10000 5.1 100 08:31 29.06.2019
5706 Clouds 26 1018 51 10000 5.1 90 07:45 29.06.2019
5707 Clouds 25 1018 54 10000 3.1 100 06:49 29.06.2019
5708 Clouds 25 1017 54 10000 4.6 90 06:26 29.06.2019
5709 Clouds 26 1018 47 10000 1 0 05:18 29.06.2019
5710 Clear 27 1016 58 10000 3.6 90 01:42 29.06.2019
5711 Clear 28 1016 54 10000 4.1 120 00:49 29.06.2019
5712 Clouds 29 1015 55 10000 3.1 120 23:48 28.06.2019
5713 Clear 29 1015 52 10000 3.6 120 23:21 28.06.2019
5714 Clear 29 1015 55 10000 3.6 110 22:47 28.06.2019
5715 Clear 30 1014 55 10000 3.1 90 22:19 28.06.2019
5716 Clear 31 1014 55 10000 3.1 90 21:45 28.06.2019
5717 Clear 31 1013 52 10000 3.1 90 21:19 28.06.2019
5718 Clear 32 1013 49 10000 3.6 100 20:41 28.06.2019
5719 Clear 33 1013 49 10000 4.1 110 20:19 28.06.2019
5720 Clear 34 1013 47 10000 4.6 120 19:40 28.06.2019
5721 Clear 34 1013 50 10000 4.6 110 19:21 28.06.2019
5722 Clear 34 1013 53 10000 3.6 130 18:41 28.06.2019
5723 Clouds 35 1013 53 10000 3.1 120 18:21 28.06.2019
5724 Clouds 35 1013 50 10000 3.6 140 17:44 28.06.2019
5725 Clouds 35 1013 53 10000 2.6 0 17:25 28.06.2019
5726 Clouds 35 1013 50 10000 2.1 130 16:46 28.06.2019
5727 Clouds 35 1014 53 10000 2.6 150 16:19 28.06.2019
5728 Clouds 35 1014 53 10000 3.6 150 15:44 28.06.2019
5729 Clear 35 1014 53 10000 3.1 130 15:18 28.06.2019
5730 Clear 35 1014 53 10000 4.6 140 14:40 28.06.2019
5731 Clear 34 1014 53 10000 3.6 140 14:21 28.06.2019
5732 Clear 34 1015 52 7000 4.1 120 13:47 28.06.2019
5733 Clear 34 1015 52 10000 4.6 110 13:28 28.06.2019
5734 Clear 34 1015 63 6000 3.1 150 12:52 28.06.2019
5735 Clear 33 1015 59 10000 4.1 130 12:33 28.06.2019
5736 Clear 33 1015 59 10000 4.6 120 11:40 28.06.2019
5737 Clear 32 1015 55 10000 5.7 120 11:18 28.06.2019
5738 Clear 32 1015 59 10000 5.1 110 10:41 28.06.2019
5739 Clear 31 1015 59 10000 5.1 110 10:18 28.06.2019
5740 Clear 31 1015 58 10000 4.1 90 09:44 28.06.2019
5741 Clear 30 1015 58 10000 4.1 90 09:25 28.06.2019
5742 Clear 29 1014 74 10000 2.1 90 08:43 28.06.2019
5743 Clear 28 1014 74 10000 2.1 90 08:24 28.06.2019
5744 Clear 27 1014 83 10000 1 180 07:42 28.06.2019
5745 Clear 26 1014 78 10000 1 0 06:54 28.06.2019
5746 Clear 25 1014 88 10000 1 190 04:35 28.06.2019
5747 Clear 28 1014 83 10000 0.5 0 00:48 28.06.2019
5748 Clear 29 1014 66 10000 1.5 120 00:20 28.06.2019
5749 Clear 29 1014 59 10000 2.1 0 23:46 27.06.2019
5750 Clear 29 1014 59 10000 2.6 290 23:24 27.06.2019
5751 Clear 30 1014 59 10000 3.1 280 22:44 27.06.2019
5752 Clear 31 1014 59 10000 2.6 280 22:25 27.06.2019
5753 Clear 32 1013 59 10000 2.1 260 21:58 27.06.2019
5754 Clear 32 1013 59 10000 2.1 260 21:39 27.06.2019
5755 Clear 33 1013 59 10000 2.6 260 21:20 27.06.2019
5756 Clear 34 1014 53 10000 2.1 260 20:48 27.06.2019
5757 Clear 34 1014 53 10000 3.1 270 20:30 27.06.2019
5758 Clear 35 1014 50 10000 3.6 250 19:49 27.06.2019
5759 Clear 36 1014 50 10000 3.6 260 19:29 27.06.2019
5760 Clear 36 1014 47 10000 3.6 250 18:52 27.06.2019
5761 Clear 36 1015 47 10000 3.6 260 18:30 27.06.2019
5762 Clear 37 1015 44 10000 3.6 250 17:55 27.06.2019
5763 Clear 37 1016 44 10000 4.1 230 17:36 27.06.2019
5764 Clear 36 1016 44 10000 4.1 230 17:18 27.06.2019
5765 Clear 36 1016 50 10000 3.6 260 16:38 27.06.2019
5766 Clear 36 1016 50 10000 3.6 260 16:19 27.06.2019
5767 Clear 36 1017 50 10000 3.1 250 15:45 27.06.2019
5768 Clear 36 1017 50 10000 3.6 240 15:22 27.06.2019
5769 Clear 35 1017 53 10000 3.1 240 14:46 27.06.2019
5770 Clear 35 1018 50 10000 3.6 230 14:28 27.06.2019
5771 Clear 35 1018 52 10000 3.6 230 13:49 27.06.2019
5772 Clear 34 1019 52 10000 3.1 230 13:31 27.06.2019
5773 Clear 34 1019 55 10000 3.6 240 12:55 27.06.2019
5774 Clear 34 1019 55 10000 3.6 240 12:35 27.06.2019
5775 Clear 33 1019 55 10000 3.1 250 11:59 27.06.2019
5776 Clear 32 1019 55 10000 3.1 250 11:39 27.06.2019
5777 Clear 32 1020 59 10000 2.6 280 11:20 27.06.2019
5778 Clear 31 1020 62 9000 2.1 270 10:45 27.06.2019
5779 Clear 30 1020 66 6000 2.1 230 10:22 27.06.2019
5780 Haze 30 1020 66 4000 1.5 240 09:54 27.06.2019
5781 Haze 29 1020 66 4000 1 0 09:22 27.06.2019
5782 Haze 28 1020 70 4000 0.5 0 08:52 27.06.2019
5783 Haze 27 1020 74 4000 0.5 0 08:31 27.06.2019
5784 Haze 26 1020 78 4000 0.5 190 07:57 27.06.2019
5785 Haze 25 1021 83 4000 1 170 07:30 27.06.2019
5786 Haze 25 1021 88 5000 0.5 0 06:51 27.06.2019
5787 Clear 25 1021 88 10000 1.06 272.693 04:27 27.06.2019
5788 Clear 25 1021 83 10000 0.5 0 02:44 27.06.2019
5789 Clear 25 1022 83 10000 0.5 0 01:48 27.06.2019
5790 Clear 26 1022 78 10000 0.5 0 00:57 27.06.2019
5791 Clear 27 1022 78 10000 0.5 340 00:38 27.06.2019
5792 Clear 26 1022 78 10000 0.5 340 00:18 27.06.2019
5793 Clear 27 1022 78 10000 0.5 0 23:38 26.06.2019
5794 Clear 27 1022 74 10000 1 290 23:19 26.06.2019
5795 Clear 29 1022 69 10000 0.5 0 22:41 26.06.2019
5796 Clear 29 1021 52 10000 2.1 130 22:23 26.06.2019
5797 Clear 30 1021 49 10000 2.1 120 21:55 26.06.2019
5798 Clear 30 1021 46 10000 2.1 120 21:37 26.06.2019
5799 Clear 31 1021 46 10000 2.1 120 21:18 26.06.2019
5800 Clear 32 1021 44 10000 3.1 120 20:40 26.06.2019
5801 Clear 32 1021 44 10000 3.1 120 20:40 26.06.2019
5802 Clear 32 1021 44 10000 3.1 120 20:22 26.06.2019
5803 Clear 33 1021 44 10000 2.6 180 19:44 26.06.2019
5804 Clear 33 1021 44 10000 3.6 140 19:25 26.06.2019
5805 Clear 33 1021 46 10000 2.6 150 18:48 26.06.2019
5806 Clear 34 1021 44 10000 2.6 160 18:24 26.06.2019
5807 Clear 34 1021 41 10000 2.6 200 17:59 26.06.2019
5808 Clear 34 1021 41 10000 2.6 200 17:38 26.06.2019
5809 Clear 34 1021 41 10000 1.5 0 17:19 26.06.2019
5810 Clear 34 1021 44 10000 2.6 190 16:46 26.06.2019
5811 Clear 34 1022 41 10000 2.6 0 16:24 26.06.2019
5812 Clear 34 1022 44 10000 2.1 170 15:42 26.06.2019
5813 Clear 34 1022 41 10000 1.5 0 15:23 26.06.2019
5814 Clear 34 1022 41 10000 1.5 0 15:23 26.06.2019
5815 Clear 33 1022 44 10000 3.1 210 14:38 26.06.2019
5816 Clear 33 1022 44 10000 3.1 210 14:19 26.06.2019
5817 Clear 33 1022 46 10000 2.6 170 13:44 26.06.2019
5818 Clear 33 1023 46 10000 2.1 160 13:20 26.06.2019
5819 Clear 32 1023 46 10000 3.1 180 12:42 26.06.2019
5820 Clear 32 1023 52 10000 2.1 180 12:23 26.06.2019
5821 Clear 31 1023 49 10000 2.1 200 11:51 26.06.2019
5822 Clear 31 1023 52 10000 1.5 0 11:23 26.06.2019
5823 Clear 30 1023 52 10000 1.5 170 10:47 26.06.2019
5824 Clear 30 1023 55 10000 1.5 180 10:28 26.06.2019
5825 Clear 29 1023 58 10000 1 0 09:49 26.06.2019
5826 Clear 28 1023 61 10000 1 0 09:24 26.06.2019
5827 Clear 27 1023 61 10000 1.5 120 08:49 26.06.2019
5828 Clear 26 1023 65 10000 1 0 08:20 26.06.2019
5829 Clear 25 1023 74 10000 0.5 0 07:46 26.06.2019
5830 Clear 25 1023 78 10000 1 360 07:25 26.06.2019
5831 Clear 24 1023 78 6000 1 0 06:32 26.06.2019
5832 Clear 24 1023 73 10000 1 10 01:31 26.06.2019
5833 Clear 25 1023 73 10000 0.5 0 00:25 26.06.2019
5834 Clear 26 1022 65 10000 0.5 0 23:47 25.06.2019
5835 Clear 26 1022 69 10000 1 20 23:28 25.06.2019
5836 Clear 27 1022 74 10000 0.5 330 22:57 25.06.2019
5837 Clear 27 1022 74 10000 0.5 330 22:39 25.06.2019
5838 Clear 28 1022 69 10000 0.5 0 22:20 25.06.2019
5839 Clear 29 1021 58 10000 0.5 0 21:44 25.06.2019
5840 Clear 29 1021 51 10000 1 0 21:22 25.06.2019
5841 Clear 30 1021 43 10000 2.1 170 20:46 25.06.2019
5842 Clear 30 1021 43 10000 2.1 170 20:46 25.06.2019
5843 Clear 31 1021 43 10000 3.6 130 20:23 25.06.2019
5844 Clear 31 1021 43 10000 3.1 160 19:54 25.06.2019
5845 Clear 32 1021 41 10000 3.6 140 19:36 25.06.2019
5846 Clear 32 1021 41 10000 3.6 140 19:18 25.06.2019
5847 Clear 32 1021 41 10000 3.1 150 18:40 25.06.2019
5848 Clear 32 1021 41 10000 3.1 150 18:21 25.06.2019
5849 -273 0 0 0 0 0 17:32 25.06.2019
5850 -273 0 0 0 0 0 17:32 25.06.2019
5851 Clear 33 1021 38 10000 2.6 0 16:59 25.06.2019
5852 Clear 33 1021 41 10000 2.6 200 16:40 25.06.2019
5853 Clear 33 1021 41 10000 2.6 200 16:22 25.06.2019
5854 Clear 33 1021 41 10000 1.5 0 15:42 25.06.2019
5855 Clear 32 1021 41 10000 2.1 0 15:24 25.06.2019
5856 Clear 32 1021 41 10000 2.1 0 14:55 25.06.2019
5857 Clear 32 1021 41 10000 2.1 0 14:35 25.06.2019
5858 Clear 32 1021 43 10000 2.6 230 13:47 25.06.2019
5859 Clear 32 1021 43 10000 2.6 230 13:47 25.06.2019
5860 Clear 32 1021 43 10000 2.6 230 13:47 25.06.2019
5861 Clear 31 1021 46 10000 1.5 0 13:29 25.06.2019
5862 Clear 31 1022 43 10000 1 0 12:55 25.06.2019
5863 Clear 31 1022 43 10000 1.5 0 12:37 25.06.2019
5864 Clear 30 1022 43 10000 1.5 0 12:18 25.06.2019
5865 Clear 30 1022 45 10000 2.1 200 11:43 25.06.2019
5866 Clear 29 1022 51 10000 1.5 0 11:21 25.06.2019
5867 Clear 29 1022 51 10000 1.5 0 10:45 25.06.2019
5868 Clear 28 1022 54 10000 1.5 0 10:23 25.06.2019
5869 Clear 27 1022 54 10000 1.5 120 09:55 25.06.2019
5870 Clear 27 1022 57 10000 2.1 70 09:37 25.06.2019
5871 Clear 26 1022 57 10000 2.1 70 09:18 25.06.2019
5872 Clear 25 1021 61 10000 1.5 50 08:42 25.06.2019
5873 Clear 25 1021 61 10000 1.5 50 08:23 25.06.2019
5874 Clear 23 1021 65 10000 1.5 40 07:39 25.06.2019
5875 Clear 22 1021 78 10000 1 40 06:54 25.06.2019
5876 Clear 22 1021 83 10000 1.5 30 06:36 25.06.2019
5877 Clear 22 1020 83 10000 1 0 02:46 25.06.2019
5878 Clear 24 1020 61 10000 2.1 70 01:40 25.06.2019
5879 Clear 24 1020 65 10000 0.5 0 00:36 25.06.2019
5880 Clear 24 1020 69 10000 1 0 23:56 24.06.2019
5881 Clear 24 1020 69 10000 1 0 23:37 24.06.2019
5882 Clear 24 1020 69 10000 1 0 23:37 24.06.2019
5883 Clear 25 1020 73 10000 0.56 119.48 23:19 24.06.2019
5884 Clear 26 1019 73 10000 0.5 0 22:40 24.06.2019
5885 Clear 26 1019 69 10000 1 0 22:19 24.06.2019
5886 Clear 27 1018 42 10000 1.5 110 21:39 24.06.2019
5887 Clear 28 1018 42 10000 1.5 110 21:19 24.06.2019
5888 Clear 29 1018 40 10000 2.6 130 20:56 24.06.2019
5889 Clear 29 1018 40 10000 2.6 130 20:37 24.06.2019
5890 Clear 30 1018 43 10000 3.6 130 20:19 24.06.2019
5891 Clear 30 1018 40 10000 4.1 130 19:43 24.06.2019
5892 Clear 31 1018 40 10000 4.1 120 19:21 24.06.2019
5893 Clear 31 1018 36 10000 3.1 180 18:44 24.06.2019
5894 Clear 31 1018 36 10000 2.6 160 18:25 24.06.2019
5895 Clear 32 1017 36 10000 2.1 190 17:46 24.06.2019
5896 Clear 32 1017 38 10000 2.6 0 17:25 24.06.2019
5897 Clear 32 1017 36 10000 2.6 190 16:46 24.06.2019
5898 Clear 31 1018 38 10000 1.5 0 16:20 24.06.2019
5899 Clear 31 1018 38 10000 2.1 0 15:47 24.06.2019
5900 Clear 31 1018 40 10000 1.5 0 15:29 24.06.2019
5901 Clear 31 1018 43 10000 3.1 200 14:43 24.06.2019
5902 Clear 31 1018 43 10000 1.5 0 14:24 24.06.2019
5903 Clear 30 1018 48 10000 1.5 310 13:45 24.06.2019
5904 Clear 30 1018 45 10000 1 0 13:23 24.06.2019
5905 Clear 29 1018 45 10000 1 0 12:42 24.06.2019
5906 Clear 29 1019 48 10000 1.5 0 12:21 24.06.2019
5907 Clear 28 1019 54 10000 1.5 120 11:46 24.06.2019
5908 Clear 28 1019 54 10000 1.5 170 11:27 24.06.2019
5909 Clear 27 1019 57 10000 2.1 170 10:55 24.06.2019
5910 Clear 27 1019 57 10000 2.1 160 10:34 24.06.2019
5911 Clear 26 1019 61 10000 2.1 110 09:59 24.06.2019
5912 Clear 25 1019 61 10000 2.1 110 09:41 24.06.2019
5913 Clear 25 1019 65 10000 2.1 120 09:19 24.06.2019
5914 Clear 23 1018 64 10000 0.5 0 08:41 24.06.2019
5915 Clear 22 1018 78 10000 0.5 0 07:59 24.06.2019
5916 Clear 21 1018 78 10000 0.5 0 07:40 24.06.2019
5917 Clear 21 1018 83 10000 0.5 0 07:21 24.06.2019
5918 Clear 18 1018 88 10000 1 70 06:23 24.06.2019
5919 Clear 19 1017 88 10000 0.5 0 05:41 24.06.2019
5920 Clear 19 1017 88 10000 0.5 0 04:43 24.06.2019
5921 Clear 19 1017 83 10000 1 0 03:48 24.06.2019
5922 Clear 20 1017 88 10000 1 20 02:47 24.06.2019
5923 Clear 21 1017 77 10000 1.5 60 01:55 24.06.2019
5924 Clear 21 1017 82 10000 0.5 0 01:33 24.06.2019
5925 Clear 21 1016 77 10000 1 200 00:50 24.06.2019
5926 Clear 21 1016 78 10000 1 0 00:20 24.06.2019
5927 Clear 21 1016 73 10000 0.5 0 23:48 23.06.2019
5928 Clear 22 1016 64 10000 1 0 23:28 23.06.2019
5929 Clear 23 1015 69 10000 0.5 290 22:58 23.06.2019
5930 Clear 24 1015 57 10000 1 270 22:39 23.06.2019
5931 Clear 24 1015 57 10000 1 270 22:19 23.06.2019
5932 Clear 26 1015 47 10000 1.5 250 21:41 23.06.2019
5933 Clear 26 1014 45 10000 1 0 21:22 23.06.2019
5934 Clear 27 1014 37 10000 1.5 260 20:51 23.06.2019
5935 Clear 28 1014 37 10000 2.1 230 20:29 23.06.2019
5936 Clear 29 1014 38 10000 1.5 210 19:54 23.06.2019
5937 Clear 30 1014 40 10000 1.5 260 19:36 23.06.2019
5938 Clear 30 1014 40 10000 1.5 260 19:18 23.06.2019
5939 Clear 30 1014 40 10000 1 0 18:41 23.06.2019
5940 Clear 30 1014 43 10000 1.5 0 18:19 23.06.2019
5941 Clear 30 1014 40 10000 1.5 0 17:41 23.06.2019
5942 Clear 29 1014 40 10000 1.5 250 17:21 23.06.2019
5943 Clear 29 1014 45 10000 1.5 0 16:44 23.06.2019
5944 Clear 29 1014 45 10000 1.5 0 16:44 23.06.2019
5945 Clear 29 1014 45 10000 2.6 230 16:24 23.06.2019
5946 Clear 29 1015 45 10000 2.1 230 15:43 23.06.2019
5947 Clear 28 1015 51 10000 1.5 0 15:24 23.06.2019
5948 Clear 28 1015 48 10000 2.1 220 14:59 23.06.2019
5949 Clear 28 1015 54 10000 2.6 240 14:37 23.06.2019
5950 Clear 28 1015 54 10000 2.6 240 14:19 23.06.2019
5951 Clear 27 1015 51 10000 1.5 0 13:42 23.06.2019
5952 Clear 27 1015 51 10000 1.5 0 13:42 23.06.2019
5953 Clear 27 1015 51 10000 1 0 13:20 23.06.2019
5954 Clear 26 1002 51 10000 2.6 170 12:56 23.06.2019
5955 Clear 26 1015 57 10000 1 0 12:37 23.06.2019
5956 Clear 26 1015 57 10000 1 0 12:18 23.06.2019
5957 Clear 25 1015 57 10000 1 0 11:44 23.06.2019
5958 Clear 24 1015 61 10000 1.5 310 11:24 23.06.2019
5959 Clear 24 1015 64 10000 1 0 10:47 23.06.2019
5960 Clear 23 1015 64 10000 1 0 10:20 23.06.2019
5961 Clear 22 1015 68 10000 1 0 09:54 23.06.2019
5962 Clear 21 1015 73 10000 1 0 09:22 23.06.2019
5963 Clear 20 1015 82 10000 1.5 60 08:46 23.06.2019
5964 Clear 19 1015 82 10000 1.5 60 08:27 23.06.2019
5965 Clear 19 1014 82 10000 1.5 0 07:55 23.06.2019
5966 Clear 17 1014 93 10000 0.5 0 07:25 23.06.2019
5967 Clear 16 1014 93 10000 0.5 0 06:55 23.06.2019
5968 Clear 16 1014 100 10000 0.5 0 05:59 23.06.2019
5969 Clear 16 1014 100 10000 0.5 0 04:38 23.06.2019
5970 Clear 17 1015 88 10000 1.5 250 02:20 23.06.2019
5971 Clear 18 1015 88 10000 2.1 270 01:37 23.06.2019
5972 Clear 18 1015 88 10000 1.5 260 00:37 23.06.2019
5973 Clear 18 1014 88 10000 1 0 23:57 22.06.2019
5974 Clear 19 1014 82 10000 1.5 200 23:38 22.06.2019
5975 Clear 19 1014 82 10000 1.5 200 23:20 22.06.2019
5976 Clear 20 1014 88 10000 1 0 22:44 22.06.2019
5977 Clear 20 1014 82 10000 1 0 22:22 22.06.2019
5978 Clear 21 1014 73 10000 1 0 21:39 22.06.2019
5979 Clear 22 1014 64 10000 0.5 0 21:20 22.06.2019
5980 Clouds 23 1014 57 10000 1 0 20:50 22.06.2019
5981 Rain 23 1014 60 10000 1 0 20:25 22.06.2019
5982 Rain 23 1014 60 10000 1 0 20:25 22.06.2019
5983 Rain 23 1014 53 10000 0.5 0 19:50 22.06.2019
5984 Clouds 23 1014 57 10000 1.5 60 19:28 22.06.2019
5985 Clouds 24 1014 57 10000 2.1 70 18:55 22.06.2019
5986 Rain 24 1015 53 10000 1.5 60 18:33 22.06.2019
5987 Clouds 24 1014 53 10000 3.1 40 17:57 22.06.2019
5988 Clouds 24 1015 60 10000 3.6 50 17:36 22.06.2019
5989 Clouds 24 1015 60 10000 3.6 50 17:18 22.06.2019
5990 Clouds 24 1014 60 10000 4.6 90 16:39 22.06.2019
5991 Clouds 23 1015 64 10000 5.1 50 16:20 22.06.2019
5992 Rain 22 1015 77 10000 4.6 50 15:40 22.06.2019
5993 Rain 22 1015 77 10000 4.6 50 15:22 22.06.2019
5994 Rain 21 1016 82 10000 4.1 60 14:37 22.06.2019
5995 Rain 21 1016 82 10000 3.1 60 14:18 22.06.2019
5996 Rain 20 1016 77 10000 4.6 40 13:42 22.06.2019
5997 Thunderstorm 20 1016 72 10000 5.7 70 13:22 22.06.2019
5998 Thunderstorm 19 1016 82 10000 4.6 40 12:52 22.06.2019
5999 Thunderstorm 19 1016 82 10000 4.6 40 12:33 22.06.2019
6000 Rain 18 1016 93 10000 7.2 20 11:58 22.06.2019
6001 Rain 18 1016 93 10000 7.2 20 11:33 22.06.2019
6002 Rain 18 1014 88 7000 3.1 10 10:50 22.06.2019
6003 Rain 18 1014 93 4000 4.6 10 10:21 22.06.2019
6004 Rain 19 1014 94 8000 1.5 320 09:49 22.06.2019
6005 Rain 19 1014 88 8000 2.6 280 09:22 22.06.2019
6006 Rain 20 1014 83 10000 2.6 170 08:43 22.06.2019
6007 Rain 20 1014 83 10000 1.5 190 08:22 22.06.2019
6008 Thunderstorm 20 1013 77 10000 2.6 90 07:31 22.06.2019
6009 Thunderstorm 19 1013 77 10000 1.5 40 06:47 22.06.2019
6010 Clouds 19 1014 73 10000 1 0 05:22 22.06.2019
6011 Clouds 21 1014 68 10000 1 0 02:33 22.06.2019
6012 Clouds 22 1014 64 10000 1.5 240 01:18 22.06.2019
6013 Clouds 22 1015 57 10000 1.5 220 00:38 22.06.2019
6014 Rain 22 1014 61 10000 1 0 23:59 21.06.2019
6015 Clouds 22 1014 61 10000 1 0 23:39 21.06.2019
6016 Clouds 22 1014 61 10000 1 0 23:19 21.06.2019
6017 Clouds 22 1014 61 10000 1 0 23:19 21.06.2019
6018 Clouds 23 1014 57 10000 2.1 290 22:43 21.06.2019
6019 Clouds 23 1014 51 10000 2.1 320 22:23 21.06.2019
6020 Clouds 24 1014 47 10000 2.1 320 21:40 21.06.2019
6021 Clouds 24 1014 51 10000 2.1 320 21:22 21.06.2019
6022 Clouds 25 1014 47 10000 3.6 330 20:53 21.06.2019
6023 Clouds 25 1013 47 10000 1.5 270 20:27 21.06.2019
6024 Clouds 26 1013 45 10000 1.5 260 19:58 21.06.2019
6025 Rain 26 1013 42 10000 2.1 260 19:30 21.06.2019
6026 Rain 27 1013 39 10000 1.5 260 18:46 21.06.2019
6027 Rain 27 1013 39 10000 2.6 260 18:28 21.06.2019
6028 Rain 28 1014 39 10000 2.1 250 17:45 21.06.2019
6029 Clouds 28 1014 37 10000 1.5 0 17:27 21.06.2019
6030 Clear 29 1014 35 10000 2.1 0 16:38 21.06.2019
6031 Clear 29 1014 35 10000 2.1 0 16:19 21.06.2019
6032 Clear 29 1014 33 10000 1.5 0 15:39 21.06.2019
6033 Clear 29 1014 37 10000 3.6 190 15:19 21.06.2019
6034 Clear 29 1014 35 10000 2.1 0 14:45 21.06.2019
6035 Clear 29 1015 42 10000 1.5 0 14:25 21.06.2019
6036 Clear 28 1015 42 10000 1.5 0 13:44 21.06.2019
6037 Clouds 28 1015 45 10000 2.1 230 13:25 21.06.2019
6038 Clear 28 1015 45 10000 2.1 0 12:54 21.06.2019
6039 Clear 27 1015 51 10000 2.1 170 12:23 21.06.2019
6040 Clouds 26 1015 51 10000 2.1 190 11:58 21.06.2019
6041 Clouds 26 1015 54 10000 1.5 0 11:40 21.06.2019
6042 Clouds 25 1015 54 10000 1.5 0 11:22 21.06.2019
6043 Clouds 24 1015 57 10000 1 0 10:44 21.06.2019
6044 Clouds 24 1015 57 10000 1 0 10:44 21.06.2019
6045 Drizzle 23 1015 57 10000 1 0 10:21 21.06.2019
6046 Drizzle 23 1015 57 10000 1 0 09:43 21.06.2019
6047 Rain 22 1015 60 10000 2.1 170 09:25 21.06.2019
6048 Clouds 22 1015 60 10000 2.1 170 08:58 21.06.2019
6049 Clouds 22 1015 60 10000 2.1 170 08:58 21.06.2019
6050 Clouds 22 1014 60 10000 1 0 08:40 21.06.2019
6051 Clouds 21 1014 60 10000 1 0 08:19 21.06.2019
6052 Clear 20 1014 68 10000 1.5 180 07:45 21.06.2019
6053 Clear 20 1014 68 10000 1.5 180 07:45 21.06.2019
6054 Clouds 20 1014 68 10000 1 190 07:22 21.06.2019
6055 Clear 19 1014 82 10000 2.1 20 06:29 21.06.2019
6056 Clear 18 1014 56 10000 1 0 05:55 21.06.2019
6057 Clear 18 1014 60 10000 1.5 270 04:49 21.06.2019
6058 Clear 19 1014 64 10000 2.1 260 03:48 21.06.2019
6059 Clear 19 1013 60 10000 2.6 260 03:28 21.06.2019
6060 Clear 19 1013 56 10000 2.6 250 02:34 21.06.2019
6061 Clear 20 1013 53 10000 2.1 260 01:32 21.06.2019
6062 Clear 21 1013 49 10000 2.6 250 00:36 21.06.2019
6063 Clear 21 1013 49 10000 2.1 250 23:57 20.06.2019
6064 Clear 21 1012 56 10000 2.1 270 23:39 20.06.2019
6065 Clear 22 1012 56 10000 2.1 270 23:19 20.06.2019
6066 Clouds 22 1012 47 10000 2.1 240 22:41 20.06.2019
6067 Clouds 23 1012 44 10000 2.6 250 22:23 20.06.2019
6068 Clouds 23 1012 44 10000 2.6 250 22:23 20.06.2019
6069 Clouds 24 1012 41 10000 2.6 230 21:56 20.06.2019
6070 Clouds 24 1012 41 10000 3.6 230 21:37 20.06.2019
6071 Clouds 25 1012 41 10000 3.6 230 21:19 20.06.2019
6072 Clear 26 1011 42 10000 2.6 240 20:41 20.06.2019
6073 Clear 26 1011 51 10000 1 0 20:22 20.06.2019
6074 Clear 26 1011 48 10000 1.5 360 19:45 20.06.2019
6075 Clouds 27 1011 47 10000 3.1 350 19:19 20.06.2019
6076 Clear 27 1011 47 10000 3.6 350 18:57 20.06.2019
6077 Clouds 27 1011 33 10000 2.1 0 18:38 20.06.2019
6078 Clouds 27 1011 33 10000 2.1 0 18:20 20.06.2019
6079 Clouds 27 1011 27 10000 2.6 0 17:46 20.06.2019
6080 Clouds 27 1011 25 10000 3.6 210 17:25 20.06.2019
6081 Rain 26 1011 29 10000 3.1 250 16:42 20.06.2019
6082 Rain 27 1011 30 10000 3.1 250 16:19 20.06.2019
6083 Rain 28 1011 28 10000 3.6 190 15:44 20.06.2019
6084 Rain 28 1012 30 10000 2.6 250 15:24 20.06.2019
6085 Rain 28 1012 35 10000 2.6 210 14:58 20.06.2019
6086 Clear 28 1012 32 10000 2.6 200 14:39 20.06.2019
6087 Clear 28 1012 32 10000 2.6 200 14:19 20.06.2019
6088 Clear 28 1012 34 10000 2.1 0 13:39 20.06.2019
6089 Clear 28 1012 34 10000 2.1 0 13:19 20.06.2019
6090 Clear 28 1012 32 10000 2.6 200 12:43 20.06.2019
6091 Clear 27 1012 36 10000 2.6 270 12:22 20.06.2019
6092 Clear 27 1012 36 10000 2.1 220 11:43 20.06.2019
6093 Clear 26 1012 39 10000 1.5 0 11:23 20.06.2019
6094 Clear 25 1012 47 10000 1 0 10:45 20.06.2019
6095 Clear 25 1012 47 10000 1 0 10:45 20.06.2019
6096 Clear 25 1012 47 10000 1 0 10:45 20.06.2019
6097 Clear 25 1013 44 10000 1 0 10:24 20.06.2019
6098 Clear 24 1013 50 10000 1 0 09:57 20.06.2019
6099 Clear 23 1013 50 10000 1 0 09:38 20.06.2019
6100 Clear 23 1013 50 10000 1 0 09:20 20.06.2019
6101 Clear 22 1012 53 10000 1.5 260 08:44 20.06.2019
6102 Clear 22 1012 60 10000 1 0 08:25 20.06.2019
6103 Clear 21 1012 60 10000 0.5 0 07:50 20.06.2019
6104 Clear 20 1012 68 10000 1.5 260 07:25 20.06.2019
6105 Clear 18 1012 68 10000 2.1 290 06:22 20.06.2019
6106 Clear 19 1012 40 10000 3.1 280 03:41 20.06.2019
6107 Clear 20 1013 72 10000 1.5 20 02:28 20.06.2019
6108 Clear 22 1011 38 10000 3.1 260 00:33 20.06.2019
6109 Clear 22 1011 38 10000 3.1 260 23:48 19.06.2019
6110 Clear 23 1011 41 10000 3.1 280 23:29 19.06.2019
6111 Clear 24 1011 41 10000 2.6 280 22:49 19.06.2019
6112 Clear 24 1011 41 10000 2.6 270 22:25 19.06.2019
6113 Clear 25 1011 39 10000 2.6 270 21:58 19.06.2019
6114 Clear 25 1011 39 10000 2.1 0 21:39 19.06.2019
6115 Clear 25 1011 39 10000 2.1 0 21:20 19.06.2019
6116 Clear 26 1011 37 10000 2.6 220 20:41 19.06.2019
6117 Clear 27 1010 35 10000 2.6 230 20:21 19.06.2019
6118 Clear 28 1010 37 10000 3.1 220 19:46 19.06.2019
6119 Clear 28 1010 42 10000 2.6 260 19:26 19.06.2019
6120 Clear 29 1010 40 10000 2.6 250 18:56 19.06.2019
6121 Clear 29 1010 35 10000 3.1 260 18:24 19.06.2019
6122 Rain 29 1011 40 10000 4.1 270 17:48 19.06.2019
6123 Rain 29 1011 38 10000 3.1 260 17:27 19.06.2019
6124 Rain 30 1011 40 10000 3.1 220 16:56 19.06.2019
6125 Rain 30 1011 38 10000 3.1 0 16:37 19.06.2019
6126 Rain 30 1011 38 10000 3.1 0 16:19 19.06.2019
6127 Clouds 30 1011 43 10000 4.1 200 15:45 19.06.2019
6128 Clouds 30 1012 38 10000 4.1 190 15:24 19.06.2019
6129 Clouds 30 1012 38 10000 3.6 190 14:44 19.06.2019
6130 Clear 30 1012 40 10000 2.1 240 14:26 19.06.2019
6131 Clouds 30 1013 42 10000 2.6 270 13:48 19.06.2019
6132 Clear 29 1013 42 10000 3.6 210 13:29 19.06.2019
6133 Clouds 29 1013 45 10000 2.6 250 12:59 19.06.2019
6134 Clouds 29 1013 45 10000 2.6 250 12:41 19.06.2019
6135 Clear 28 1013 48 10000 2.1 0 12:19 19.06.2019
6136 Clear 28 1013 54 10000 1.5 240 11:43 19.06.2019
6137 Clear 27 1013 61 10000 1.5 0 11:21 19.06.2019
6138 Clear 26 1013 57 10000 1.5 0 10:49 19.06.2019
6139 Clear 26 1013 61 10000 2.1 0 10:28 19.06.2019
6140 Clear 25 1013 61 10000 1 0 09:56 19.06.2019
6141 Clear 25 1013 61 10000 1 0 09:38 19.06.2019
6142 Clear 25 1013 61 10000 1 0 09:38 19.06.2019
6143 Clear 24 1013 61 10000 1.5 0 09:18 19.06.2019
6144 Clear 23 1013 65 10000 2.6 120 08:43 19.06.2019
6145 Clear 23 1013 65 10000 1.5 0 08:25 19.06.2019
6146 Clear 22 1013 69 10000 0.5 0 07:44 19.06.2019
6147 Clear 21 1013 68 10000 1 0 07:23 19.06.2019
6148 Clouds 20 1013 77 10000 1.5 270 06:42 19.06.2019
6149 Clear 20 1013 77 10000 1 270 06:19 19.06.2019
6150 Clouds 20 1013 69 10000 1 0 05:32 19.06.2019
6151 Clouds 21 1013 68 10000 2.6 20 03:54 19.06.2019
6152 Clouds 22 1013 53 10000 2.1 320 02:51 19.06.2019
6153 Clouds 22 1013 54 10000 3.6 280 01:41 19.06.2019
6154 Clear 23 1013 73 10000 0.5 0 00:55 19.06.2019
6155 Clear 23 1013 64 10000 0.5 0 00:36 19.06.2019
6156 Clear 24 1013 64 10000 0.5 0 00:18 19.06.2019
6157 Clear 24 1013 65 10000 1 300 23:42 18.06.2019
6158 Clear 24 1013 69 10000 1 290 23:23 18.06.2019
6159 Clouds 24 1013 50 10000 1.5 170 22:41 18.06.2019
6160 Clouds 25 1013 50 10000 1.5 170 22:22 18.06.2019
6161 Clear 26 1013 54 10000 0.5 210 21:44 18.06.2019
6162 Clear 26 1012 40 10000 2.1 220 21:23 18.06.2019
6163 Clouds 27 1013 38 10000 2.1 210 20:59 18.06.2019
6164 Clouds 28 1013 38 10000 2.6 190 20:40 18.06.2019
6165 Clouds 28 1013 38 10000 2.6 190 20:21 18.06.2019
6166 Clouds 29 1012 40 10000 2.6 190 19:39 18.06.2019
6167 Clouds 30 1012 40 10000 2.6 190 19:21 18.06.2019
6168 Clouds 30 1012 35 10000 3.1 190 18:51 18.06.2019
6169 Clouds 30 1012 38 10000 3.6 180 18:25 18.06.2019
6170 Clouds 30 1013 33 10000 3.1 180 17:48 18.06.2019
6171 Clouds 31 1013 33 10000 2.6 220 17:22 18.06.2019
6172 Clouds 31 1013 35 10000 2.1 0 16:58 18.06.2019
6173 Clouds 31 1013 38 10000 2.1 0 16:39 18.06.2019
6174 Clouds 31 1013 38 10000 2.1 0 16:21 18.06.2019
6175 Clear 30 1014 40 10000 2.6 180 15:39 18.06.2019
6176 Clear 30 1014 40 10000 2.6 180 15:20 18.06.2019
6177 Clouds 30 1014 40 10000 1.5 0 14:56 18.06.2019
6178 Clouds 30 1014 40 10000 1.5 0 14:37 18.06.2019
6179 Clouds 30 1015 42 10000 1.5 0 14:18 18.06.2019
6180 Clouds 30 1015 42 10000 1.5 0 14:18 18.06.2019
6181 Clouds 29 1015 42 10000 2.1 120 13:43 18.06.2019
6182 Clouds 29 1015 45 10000 2.1 200 13:22 18.06.2019
6183 Clear 29 1015 45 10000 2.6 190 12:45 18.06.2019
6184 Clouds 28 1016 48 10000 2.6 200 12:27 18.06.2019
6185 Clear 28 1016 51 10000 2.1 160 11:49 18.06.2019
6186 Clear 27 1016 51 10000 2.1 160 11:23 18.06.2019
6187 Clear 27 1016 57 10000 1 0 10:58 18.06.2019
6188 Clear 26 1016 54 10000 2.1 130 10:38 18.06.2019
6189 Clear 26 1016 54 10000 2.1 130 10:20 18.06.2019
6190 Clear 25 1016 57 10000 2.6 80 09:51 18.06.2019
6191 Clear 24 1016 61 10000 2.1 70 09:24 18.06.2019
6192 Clear 22 1016 69 10000 1.5 50 08:47 18.06.2019
6193 Clear 21 1016 64 10000 2.1 80 08:22 18.06.2019
6194 Clouds 21 1016 64 10000 2.6 70 07:45 18.06.2019
6195 Clouds 21 1016 64 10000 2.1 50 07:24 18.06.2019
6196 Rain 20 1016 73 10000 1 0 06:45 18.06.2019
6197 Thunderstorm 21 1015 73 10000 1.5 50 05:21 18.06.2019
6198 Clouds 22 1015 73 10000 0.5 0 03:59 18.06.2019
6199 Clear 22 1016 64 10000 2.1 60 02:27 18.06.2019
6200 Clear 23 1015 61 10000 2.1 100 01:25 18.06.2019
6201 Clear 23 1015 57 10000 2.1 110 00:57 18.06.2019
6202 Clear 23 1015 69 10000 1 170 00:30 18.06.2019
6203 Clear 23 1015 69 10000 1 170 00:30 18.06.2019
6204 Clear 24 1015 57 10000 2.6 140 23:42 17.06.2019
6205 Clear 24 1015 57 10000 2.1 160 23:20 17.06.2019
6206 Clear 24 1014 54 10000 2.6 160 22:58 17.06.2019
6207 Clear 24 1014 54 10000 2.6 160 22:38 17.06.2019
6208 Clear 25 1014 51 10000 3.1 140 22:20 17.06.2019
6209 Clear 26 1014 48 10000 2.6 140 21:42 17.06.2019
6210 Clear 27 1014 42 10000 2.6 160 21:21 17.06.2019
6211 Clear 28 1013 37 10000 3.1 140 20:38 17.06.2019
6212 Clear 28 1013 37 10000 3.1 140 20:20 17.06.2019
6213 Clouds 29 1014 35 10000 3.6 100 19:43 17.06.2019
6214 Clouds 29 1014 35 10000 2.6 130 19:24 17.06.2019
6215 Clouds 30 1013 35 10000 2.6 110 18:58 17.06.2019
6216 Clouds 30 1014 35 10000 2.6 80 18:38 17.06.2019
6217 Clouds 30 1014 35 10000 3.1 90 18:18 17.06.2019
6218 Clouds 30 1014 35 10000 3.1 90 17:47 17.06.2019
6219 Clouds 31 1014 35 10000 3.1 90 17:29 17.06.2019
6220 Clouds 30 1014 38 10000 3.1 90 16:55 17.06.2019
6221 Clouds 30 1015 37 10000 2.6 0 16:36 17.06.2019
6222 Clouds 30 1015 38 10000 2.1 0 16:18 17.06.2019
6223 Clouds 30 1015 37 10000 2.1 0 15:40 17.06.2019
6224 Clouds 30 1016 35 10000 4.1 90 15:20 17.06.2019
6225 Clouds 30 1016 40 10000 3.1 100 14:55 17.06.2019
6226 Clouds 29 1016 40 10000 3.1 100 14:34 17.06.2019
6227 Clouds 29 1016 37 10000 4.1 110 13:57 17.06.2019
6228 Clear 29 1016 40 10000 3.1 130 13:39 17.06.2019
6229 Clear 29 1016 42 10000 5.1 120 13:20 17.06.2019
6230 Clear 28 1017 45 10000 4.6 130 12:33 17.06.2019
6231 -273 0 0 0 0 0 11:59 17.06.2019
6232 Clear 27 1017 47 10000 4.1 140 11:39 17.06.2019
6233 Clear 27 1017 51 10000 2.6 130 11:18 17.06.2019
6234 Clear 26 1017 54 10000 2.1 100 10:46 17.06.2019
6235 Clear 26 1017 54 10000 2.1 100 10:28 17.06.2019
6236 Clear 25 1016 64 10000 1 0 09:56 17.06.2019
6237 Clear 24 1016 64 10000 1 0 09:32 17.06.2019
6238 Clear 23 1016 68 10000 0.5 0 08:46 17.06.2019
6239 Clear 22 1016 68 10000 0.5 0 08:24 17.06.2019
6240 Clear 21 1016 72 10000 1.5 150 07:52 17.06.2019
6241 Clear 20 1015 77 10000 1.5 110 07:32 17.06.2019
6242 Clear 19 1015 72 10000 3.1 90 06:50 17.06.2019
6243 Clear 18 1014 77 10000 1.5 60 06:18 17.06.2019
6244 Haze 18 1014 72 10000 1 70 05:20 17.06.2019
6245 Clear 19 1014 68 10000 1.5 60 04:23 17.06.2019
6246 Clear 19 1014 77 10000 1 0 03:30 17.06.2019
6247 Clear 19 1014 73 10000 1.5 260 02:43 17.06.2019
6248 Clear 20 1013 64 10000 2.1 250 02:24 17.06.2019
6249 Clear 20 1013 56 10000 1 0 01:35 17.06.2019
6250 Clear 21 1013 50 10000 2.1 260 00:48 17.06.2019
6251 Clear 21 1013 50 10000 2.1 260 00:28 17.06.2019
6252 Clear 22 1013 50 10000 1.5 250 23:58 16.06.2019
6253 Clear 22 1013 50 10000 1.5 250 23:39 16.06.2019
6254 Clear 23 1013 44 10000 1.5 240 23:19 16.06.2019
6255 Clear 24 1013 44 10000 1 0 22:44 16.06.2019
6256 Clear 25 1012 42 10000 2.1 260 22:19 16.06.2019
6257 Clear 25 1012 42 10000 2.1 260 21:57 16.06.2019
6258 Clear 26 1012 39 10000 2.1 260 21:39 16.06.2019
6259 Clear 27 1012 37 10000 2.1 250 21:20 16.06.2019
6260 Clear 28 1012 33 10000 3.1 250 20:38 16.06.2019
6261 Clear 28 1012 33 10000 2.6 240 20:19 16.06.2019
6262 Clear 29 1012 33 10000 2.6 240 19:58 16.06.2019
6263 Clear 29 1012 31 10000 3.1 210 19:39 16.06.2019
6264 Clear 30 1012 31 10000 3.1 220 19:19 16.06.2019
6265 Clouds 30 1012 33 10000 3.6 230 18:41 16.06.2019
6266 Clouds 30 1012 33 10000 2.6 230 18:21 16.06.2019
6267 Clouds 30 1013 33 10000 3.1 240 17:49 16.06.2019
6268 Clouds 30 1013 35 10000 3.6 250 17:25 16.06.2019
6269 Clouds 30 1013 35 10000 3.6 250 16:58 16.06.2019
6270 Clouds 30 1013 35 10000 3.6 250 16:58 16.06.2019
6271 Clouds 30 1013 35 10000 3.6 230 16:40 16.06.2019
6272 Clouds 30 1013 35 10000 3.6 230 16:21 16.06.2019
6273 Clear 30 1013 35 10000 4.1 240 15:45 16.06.2019
6274 Clear 30 1013 35 10000 4.1 240 15:26 16.06.2019
6275 Clear 29 1014 39 10000 3.1 230 14:56 16.06.2019
6276 Clear 29 1014 37 10000 3.6 240 14:37 16.06.2019
6277 Clear 29 1014 42 10000 3.6 270 14:19 16.06.2019
6278 Clear 29 1014 45 10000 3.6 240 13:45 16.06.2019
6279 Clear 28 1014 45 10000 3.6 240 13:25 16.06.2019
6280 Clear 28 1015 50 10000 3.1 270 12:44 16.06.2019
6281 Clear 27 1015 50 10000 3.1 270 12:22 16.06.2019
6282 Clear 26 1015 50 10000 2.6 270 11:56 16.06.2019
6283 Clear 25 1015 53 10000 3.6 250 11:37 16.06.2019
6284 Clear 25 1015 53 10000 3.1 250 11:18 16.06.2019
6285 Clear 25 1015 60 10000 2.6 260 10:44 16.06.2019
6286 Rain 24 1015 60 10000 3.1 250 10:19 16.06.2019
6287 Clear 23 1015 64 10000 2.6 250 09:42 16.06.2019
6288 Clear 22 1014 68 10000 3.1 280 09:23 16.06.2019
6289 Clear 21 1014 72 10000 2.6 270 08:46 16.06.2019
6290 Clear 20 1014 82 10000 2.6 270 08:20 16.06.2019
6291 Clear 18 1014 82 10000 2.6 260 07:45 16.06.2019
6292 Clear 18 1014 88 10000 2.1 250 07:27 16.06.2019
6293 Clear 17 1014 88 10000 2.1 250 06:52 16.06.2019
6294 Fog 16 1015 87 10000 1.5 0 05:55 16.06.2019
6295 Fog 17 1013 88 10000 2.1 230 05:20 16.06.2019
6296 Fog 17 1014 88 10000 2.1 240 04:21 16.06.2019
6297 Clear 18 1014 82 10000 2.6 250 03:38 16.06.2019
6298 Clear 18 1014 82 10000 1 0 03:18 16.06.2019
6299 Clouds 19 1014 73 10000 3.1 270 01:48 16.06.2019
6300 Clouds 19 1014 73 10000 3.1 270 01:28 16.06.2019
6301 Thunderstorm 20 1014 64 10000 3.1 210 00:43 16.06.2019
6302 Thunderstorm 20 1014 64 10000 3.1 210 00:23 16.06.2019
6303 Thunderstorm 20 1014 64 10000 2.1 200 23:55 15.06.2019
6304 Rain 21 1014 64 10000 3.6 270 23:37 15.06.2019
6305 Rain 21 1014 60 10000 3.6 260 23:18 15.06.2019
6306 Rain 22 1014 60 10000 4.1 260 22:43 15.06.2019
6307 Thunderstorm 23 1013 64 10000 3.1 260 22:24 15.06.2019
6308 Rain 24 1013 61 10000 3.1 250 21:43 15.06.2019
6309 Rain 24 1012 61 10000 2.6 230 21:20 15.06.2019
6310 Clouds 25 1012 57 10000 3.6 220 20:45 15.06.2019
6311 Clouds 26 1012 54 10000 3.1 210 20:22 15.06.2019
6312 Rain 27 1012 51 10000 2.1 0 19:47 15.06.2019
6313 Rain 27 1012 51 10000 2.1 0 19:26 15.06.2019
6314 Rain 28 1012 51 10000 2.6 210 18:44 15.06.2019
6315 Rain 28 1012 51 10000 2.6 210 18:25 15.06.2019
6316 Rain 28 1013 48 10000 2.6 230 17:45 15.06.2019
6317 Clouds 28 1013 48 10000 2.6 230 17:27 15.06.2019
6318 Clouds 28 1013 48 10000 2.6 0 16:49 15.06.2019
6319 Clouds 28 1013 51 10000 2.6 230 16:49 15.06.2019
6320 Clouds 28 1013 51 10000 2.6 230 16:49 15.06.2019
6321 Clouds 28 1013 48 10000 2.6 0 16:21 15.06.2019
6322 Clouds 28 1014 54 10000 3.6 230 15:45 15.06.2019
6323 Clouds 28 1014 54 10000 3.6 230 15:25 15.06.2019
6324 Clouds 28 1014 51 10000 2.6 0 14:56 15.06.2019
6325 Clouds 28 1014 51 10000 3.6 260 14:37 15.06.2019
6326 Clouds 27 1014 51 10000 3.1 230 14:18 15.06.2019
6327 Clouds 27 1014 54 10000 2.1 0 13:42 15.06.2019
6328 Clouds 27 1015 57 10000 3.1 240 13:20 15.06.2019
6329 Clouds 26 1015 57 10000 2.6 0 12:52 15.06.2019
6330 Clouds 26 1015 57 10000 2.6 0 12:52 15.06.2019
6331 -273 0 0 0 0 0 12:27 15.06.2019
6332 Clear 26 1015 65 10000 2.6 270 11:54 15.06.2019
6333 Clear 25 1015 65 10000 2.6 270 11:34 15.06.2019
6334 Clear 25 1015 65 10000 3.1 260 10:55 15.06.2019
6335 Clouds 24 1015 69 9000 3.1 260 10:37 15.06.2019
6336 Clouds 24 1015 69 9000 3.1 260 10:18 15.06.2019
6337 Clouds 23 1015 78 6000 2.6 260 09:43 15.06.2019
6338 Mist 22 1014 78 5000 2.6 260 09:21 15.06.2019
6339 Mist 22 1014 78 5000 2.6 260 08:48 15.06.2019
6340 Mist 21 1014 83 5000 2.1 220 08:29 15.06.2019
6341 Fog 20 1014 88 5000 0.5 0 07:43 15.06.2019
6342 Fog 19 1014 88 5000 0.5 0 07:21 15.06.2019
6343 Fog 19 1014 88 5000 0.5 0 07:21 15.06.2019
6344 Mist 18 1014 93 10000 0.5 0 06:39 15.06.2019
6345 Mist 18 1014 93 10000 1.5 200 05:59 15.06.2019
6346 Clear 18 1014 82 10000 1 0 05:24 15.06.2019
6347 Mist 19 1013 83 10000 2.1 100 04:41 15.06.2019
6348 Mist 19 1013 83 10000 2.1 100 04:41 15.06.2019
6349 Clear 19 1014 73 10000 1.5 200 03:42 15.06.2019
6350 Clear 19 1014 60 10000 2.1 90 02:49 15.06.2019
6351 Clear 20 1014 73 10000 2.1 20 02:20 15.06.2019
6352 Rain 20 1014 73 10000 0.5 0 01:42 15.06.2019
6353 Rain 20 1015 64 10000 1 0 00:47 15.06.2019
6354 Rain 21 1015 64 10000 1 0 00:28 15.06.2019
6355 Rain 21 1015 60 10000 1 0 23:53 14.06.2019
6356 Rain 21 1015 57 10000 1.5 230 23:25 14.06.2019
6357 Rain 21 1015 73 10000 4.6 340 22:43 14.06.2019
6358 Rain 22 1013 54 10000 2.6 60 22:23 14.06.2019
6359 Rain 22 1014 61 10000 3.1 110 22:23 14.06.2019
6360 Rain 22 1014 61 10000 3.1 110 22:23 14.06.2019
6361 Rain 22 1014 61 10000 3.1 110 22:23 14.06.2019
6362 Rain 23 1014 61 10000 3.1 110 21:57 14.06.2019
6363 Thunderstorm 23 1014 54 10000 4.6 70 21:38 14.06.2019
6364 Thunderstorm 24 1016 51 10000 1.5 230 21:20 14.06.2019
6365 Clouds 26 1015 51 10000 1.5 170 20:42 14.06.2019
6366 Clouds 26 1015 51 10000 1.5 170 20:18 14.06.2019
6367 Clear 27 1015 42 10000 2.1 200 19:44 14.06.2019
6368 Clear 28 1015 42 10000 2.1 200 19:23 14.06.2019
6369 Clear 28 1015 45 10000 2.6 170 18:58 14.06.2019
6370 Clouds 29 1015 40 10000 3.6 150 18:40 14.06.2019
6371 Clear 29 1015 40 10000 3.1 150 18:21 14.06.2019
6372 Clouds 29 1016 39 10000 2.6 190 17:46 14.06.2019
6373 Rain 29 1016 39 10000 2.6 190 17:25 14.06.2019
6374 Rain 29 1016 37 10000 3.1 130 16:55 14.06.2019
6375 Clouds 29 1016 35 10000 4.6 140 16:37 14.06.2019
6376 Clouds 29 1016 33 10000 3.6 120 16:18 14.06.2019
6377 Clear 29 1017 33 10000 2.6 110 15:39 14.06.2019
6378 Clear 29 1017 33 10000 2.6 110 15:20 14.06.2019
6379 Clear 29 1017 33 10000 3.1 80 15:20 14.06.2019
6380 Clear 29 1017 33 10000 3.1 80 15:20 14.06.2019
6381 Clear 29 1017 33 10000 2.6 110 15:20 14.06.2019
6382 Clear 29 1017 35 10000 3.6 100 14:50 14.06.2019
6383 Clear 29 1017 35 10000 3.6 100 14:31 14.06.2019
6384 Clear 29 1018 32 10000 2.6 100 13:49 14.06.2019
6385 Clear 28 1018 34 10000 3.1 80 13:30 14.06.2019
6386 Clear 28 1018 39 10000 2.1 0 13:00 14.06.2019
6387 Clear 27 1018 34 10000 2.1 90 12:40 14.06.2019
6388 Clear 27 1018 34 10000 2.1 90 12:22 14.06.2019
6389 Clear 26 1018 39 10000 2.1 100 11:43 14.06.2019
6390 Clear 26 1018 44 10000 2.6 80 11:24 14.06.2019
6391 Clear 25 1018 47 10000 2.6 90 10:50 14.06.2019
6392 Clear 24 1018 46 10000 2.1 80 10:22 14.06.2019
6393 Clear 23 1018 46 10000 2.1 80 09:56 14.06.2019
6394 Clear 23 1018 49 10000 1 0 09:34 14.06.2019
6395 Clear 21 1018 64 10000 1.5 200 08:56 14.06.2019
6396 Clear 21 1018 64 10000 1.5 200 08:38 14.06.2019
6397 Clear 20 1018 72 10000 1 260 08:18 14.06.2019
6398 Clear 18 1018 82 10000 1.5 270 07:43 14.06.2019
6399 Clear 17 1018 82 10000 1 0 07:19 14.06.2019
6400 Clear 16 1017 77 10000 0.5 0 06:27 14.06.2019
6401 Clear 16 1017 77 10000 0.5 0 06:27 14.06.2019
6402 Clear 16 1017 77 10000 1 0 05:53 14.06.2019
6403 Clear 17 1017 77 10000 3.6 20 04:56 14.06.2019
6404 Clear 17 1018 77 10000 4.1 360 04:31 14.06.2019
6405 Clear 17 1018 72 10000 2.6 10 03:41 14.06.2019
6406 Clear 17 1018 72 10000 2.6 10 03:23 14.06.2019
6407 Clear 17 1018 72 10000 0.5 60 02:43 14.06.2019
6408 Clear 17 1018 63 10000 1 260 01:53 14.06.2019
6409 Clear 18 1018 52 10000 1 0 00:45 14.06.2019
6410 Clear 19 1017 49 10000 1.5 260 00:22 14.06.2019
6411 Clear 19 1017 40 10000 1.5 280 23:51 13.06.2019
6412 Clear 19 1017 40 10000 1.5 280 23:26 13.06.2019
6413 Clear 20 1017 37 10000 2.1 260 22:58 13.06.2019
6414 Clear 21 1016 49 10000 2.1 270 22:38 13.06.2019
6415 Clear 21 1016 36 10000 1 0 22:19 13.06.2019
6416 Clear 22 1016 41 10000 0.5 0 21:38 13.06.2019
6417 Clear 22 1016 41 10000 0.5 0 21:38 13.06.2019
6418 Clear 23 1015 39 10000 1.5 180 21:19 13.06.2019
6419 Clear 24 1015 32 10000 1 0 20:45 13.06.2019
6420 Clear 25 1015 28 10000 2.1 190 20:20 13.06.2019
6421 Clear 26 1015 30 10000 1.5 0 19:55 13.06.2019
6422 Clear 27 1015 30 10000 1.5 0 19:36 13.06.2019
6423 Clear 27 1015 30 10000 2.6 250 19:18 13.06.2019
6424 Clear 27 1015 28 10000 2.6 250 18:42 13.06.2019
6425 Clear 27 1015 28 10000 2.6 250 18:23 13.06.2019
6426 Clear 27 1015 28 10000 2.6 260 17:56 13.06.2019
6427 Clear 27 1015 25 10000 2.1 0 17:36 13.06.2019
6428 Clear 27 1015 24 10000 2.6 230 17:18 13.06.2019
6429 Clear 27 1015 30 10000 2.1 0 16:41 13.06.2019
6430 Clear 27 1015 30 10000 2.1 0 16:20 13.06.2019
6431 Clear 26 1015 34 10000 2.6 0 15:43 13.06.2019
6432 Clear 26 1015 34 10000 2.6 0 15:24 13.06.2019
6433 Clear 26 1015 41 10000 2.6 0 14:54 13.06.2019
6434 Clear 26 1015 41 10000 2.6 0 14:31 13.06.2019
6435 Clear 25 1016 41 10000 1.5 0 13:59 13.06.2019
6436 Clear 25 1016 38 10000 2.6 250 13:39 13.06.2019
6437 Clear 25 1016 44 10000 2.6 0 13:21 13.06.2019
6438 Clear 24 1016 44 10000 2.6 230 12:41 13.06.2019
6439 Clear 23 1016 44 10000 2.1 0 12:22 13.06.2019
6440 Clear 23 1016 53 10000 2.1 230 11:47 13.06.2019
6441 Clear 23 1016 53 10000 2.1 230 11:29 13.06.2019
6442 Clear 22 1015 56 10000 2.6 260 10:51 13.06.2019
6443 Clear 21 1015 56 10000 2.6 260 10:32 13.06.2019
6444 -273 0 0 0 0 0 09:58 13.06.2019
6445 -273 0 0 0 0 0 09:58 13.06.2019
6446 Clear 20 1015 60 10000 2.6 270 09:40 13.06.2019
6447 Clear 20 1015 60 10000 2.6 270 09:22 13.06.2019
6448 Clear 19 1014 56 10000 1.5 280 08:43 13.06.2019
6449 Clear 18 1014 63 10000 2.1 320 08:23 13.06.2019
6450 Clear 17 1014 72 10000 1.5 340 07:42 13.06.2019
6451 Clear 16 1014 72 10000 1 0 07:24 13.06.2019
6452 Clear 14 1013 67 10000 2.1 310 06:45 13.06.2019
6453 Clear 14 1013 67 10000 2.6 290 06:22 13.06.2019
6454 Clear 14 1013 63 10000 2.6 280 05:53 13.06.2019
6455 Clear 14 1013 63 10000 2.6 280 05:35 13.06.2019
6456 Clear 15 1013 48 10000 3.6 290 03:57 13.06.2019
6457 Clear 15 1013 55 10000 2.6 290 02:23 13.06.2019
6458 Clear 17 1012 48 10000 1.5 340 00:46 13.06.2019
6459 Clear 18 1012 45 10000 2.1 270 23:47 12.06.2019
6460 Clear 19 1012 37 10000 2.1 290 23:21 12.06.2019
6461 Clear 19 1011 37 10000 1.5 310 22:42 12.06.2019
6462 Clear 20 1011 37 10000 1.5 310 22:24 12.06.2019
6463 Clear 21 1010 41 10000 2.1 290 21:48 12.06.2019
6464 Clear 22 1010 41 10000 2.1 290 21:29 12.06.2019
6465 Clear 23 1010 36 10000 4.1 270 20:57 12.06.2019
6466 Clear 23 1010 36 10000 4.1 270 20:37 12.06.2019
6467 Clear 23 1010 36 10000 4.1 270 20:19 12.06.2019
6468 Rain 24 1009 36 10000 3.1 260 19:42 12.06.2019
6469 Rain 25 1009 36 10000 3.1 260 19:22 12.06.2019
6470 Rain 26 1009 39 10000 3.1 250 18:51 12.06.2019
6471 Rain 26 1009 39 10000 3.1 250 18:29 12.06.2019
6472 Clouds 27 1009 44 10000 3.6 270 17:58 12.06.2019
6473 Clouds 27 1009 51 10000 1 0 17:40 12.06.2019
6474 Rain 27 1009 39 10000 2.1 260 17:19 12.06.2019
6475 Clouds 27 1009 42 10000 1.5 0 16:42 12.06.2019
6476 Clouds 27 1009 42 10000 1.5 0 16:23 12.06.2019
6477 Clouds 27 1009 44 10000 2.1 290 15:48 12.06.2019
6478 Clouds 27 1009 44 10000 2.1 290 15:29 12.06.2019
6479 Clouds 27 1010 44 10000 2.1 0 14:45 12.06.2019
6480 Clouds 27 1010 44 10000 2.1 0 14:26 12.06.2019
6481 Clouds 26 1010 47 10000 1 0 13:42 12.06.2019
6482 Clouds 26 1010 47 10000 1 0 13:20 12.06.2019
6483 Clouds 26 1009 50 10000 2.6 220 12:58 12.06.2019
6484 Clouds 26 1009 47 10000 2.1 0 12:38 12.06.2019
6485 Clouds 26 1009 47 10000 2.1 0 12:38 12.06.2019
6486 Clouds 25 1009 54 10000 1.5 0 12:19 12.06.2019
6487 Clouds 25 1009 54 10000 1.5 0 12:19 12.06.2019
6488 Clouds 24 1009 61 10000 1 0 11:45 12.06.2019
6489 Clouds 24 1009 61 10000 1 0 11:27 12.06.2019
6490 Clouds 24 1009 65 10000 1.5 0 10:50 12.06.2019
6491 Rain 23 1009 69 10000 2.1 50 10:26 12.06.2019
6492 Rain 22 1008 78 10000 1.5 20 09:45 12.06.2019
6493 Rain 22 1008 78 10000 1.5 20 09:23 12.06.2019
6494 Mist 21 1008 78 10000 1 0 08:55 12.06.2019
6495 Mist 20 1008 83 10000 0.5 0 08:21 12.06.2019
6496 Rain 19 1008 94 8000 0.5 0 07:46 12.06.2019
6497 Rain 19 1008 94 8000 0.5 0 06:54 12.06.2019
6498 Rain 19 1007 88 10000 1.5 160 05:27 12.06.2019
6499 Rain 19 1007 94 10000 0.5 0 04:54 12.06.2019
6500 Rain 20 1008 83 10000 1.5 80 01:44 12.06.2019
6501 Rain 20 1008 83 10000 2.1 60 00:40 12.06.2019
6502 Thunderstorm 21 1009 94 10000 0.5 0 23:48 11.06.2019
6503 Thunderstorm 21 1009 94 10000 0.5 0 23:30 11.06.2019
6504 Rain 21 1009 64 8000 1.5 220 22:44 11.06.2019
6505 Thunderstorm 22 1008 54 10000 1.5 110 22:21 11.06.2019
6506 Thunderstorm 22 1008 54 10000 1.5 110 21:58 11.06.2019
6507 Clouds 22 1007 57 10000 3.1 300 21:39 11.06.2019
6508 Clouds 23 1007 57 10000 2.1 350 21:20 11.06.2019
6509 Clouds 23 1007 57 10000 2.6 330 20:49 11.06.2019
6510 Clouds 23 1007 57 10000 2.6 330 20:26 11.06.2019
6511 Clouds 24 1007 54 10000 2.6 310 19:56 11.06.2019
6512 Clouds 24 1007 54 10000 2.6 310 19:37 11.06.2019
6513 Clouds 24 1007 54 10000 2.6 310 19:37 11.06.2019
6514 -273 0 0 0 0 0 19:37 11.06.2019
6515 Clouds 24 1007 54 10000 2.6 310 19:36 11.06.2019
6516 Clouds 24 1007 54 10000 3.1 300 18:58 11.06.2019
6517 -273 0 0 0 0 0 18:57 11.06.2019
6518 Clouds 24 1007 54 10000 3.1 300 18:56 11.06.2019
6519 Clear 25 1008 51 10000 2.6 280 18:22 11.06.2019
6520 Clouds 25 1008 51 10000 2.6 270 17:42 11.06.2019
6521 Clouds 25 1008 48 10000 2.6 200 17:22 11.06.2019
6522 Clouds 26 1008 48 10000 2.6 200 16:57 11.06.2019
6523 Clouds 26 1008 39 10000 1 0 16:39 11.06.2019
6524 Clouds 27 1008 45 10000 1.5 10 16:21 11.06.2019
6525 Clouds 27 1009 48 10000 1.5 0 15:42 11.06.2019
6526 Clouds 27 1009 54 10000 2.1 240 15:23 11.06.2019
6527 Clouds 26 1009 54 10000 2.1 0 14:49 11.06.2019
6528 Clouds 26 1009 57 10000 1.5 0 14:21 11.06.2019
6529 Clouds 25 1009 57 10000 1.5 0 13:51 11.06.2019
6530 Clouds 25 1009 57 10000 2.1 0 13:24 11.06.2019
6531 Clouds 25 1009 57 10000 2.1 0 12:55 11.06.2019
6532 Clouds 24 1009 61 10000 1.5 0 12:55 11.06.2019
6533 Clouds 24 1009 61 10000 1.5 0 12:37 11.06.2019
6534 Clouds 24 1009 61 10000 1.5 0 12:37 11.06.2019
6535 Clouds 24 1009 65 10000 2.1 250 12:18 11.06.2019
6536 Clouds 23 1009 60 10000 1.5 0 11:39 11.06.2019
6537 Clouds 23 1009 64 10000 1.5 300 11:19 11.06.2019
6538 Clouds 22 1009 64 10000 1.5 280 10:45 11.06.2019
6539 Clouds 22 1009 69 10000 2.6 270 10:25 11.06.2019
6540 Clear 22 1009 69 10000 2.1 280 09:48 11.06.2019
6541 Clear 22 1009 69 10000 2.1 280 09:24 11.06.2019
6542 Clear 22 1009 69 10000 2.1 280 09:24 11.06.2019
6543 Clouds 21 1008 77 10000 1.5 270 08:45 11.06.2019
6544 Clouds 20 1008 77 10000 1.5 270 08:25 11.06.2019
6545 Clouds 19 1008 88 8000 0.5 0 07:38 11.06.2019
6546 Rain 18 1008 82 9000 1 0 06:56 11.06.2019
6547 Mist 18 1008 82 9000 1 0 06:30 11.06.2019
6548 Rain 18 1008 88 10000 0.5 0 04:53 11.06.2019
6549 Thunderstorm 20 1009 77 9000 1.5 210 02:54 11.06.2019
6550 Thunderstorm 20 1007 73 10000 3.1 190 01:33 11.06.2019
6551 Clouds 20 1007 64 10000 4.1 170 00:46 11.06.2019
6552 Thunderstorm 21 1006 57 10000 5.1 140 23:47 10.06.2019
6553 Thunderstorm 21 1007 54 10000 4.1 140 23:22 10.06.2019
6554 Thunderstorm 21 1007 54 10000 4.1 140 22:55 10.06.2019
6555 Thunderstorm 21 1007 54 10000 4.1 140 22:36 10.06.2019
6556 Clouds 21 1008 93 8000 0.5 0 22:18 10.06.2019
6557 Clouds 22 1007 57 10000 2.6 150 21:40 10.06.2019
6558 Thunderstorm 22 1007 61 10000 2.6 160 21:22 10.06.2019
6559 Thunderstorm 23 1007 58 10000 2.6 120 20:46 10.06.2019
6560 Clear 23 1008 58 10000 2.6 110 20:23 10.06.2019
6561 Clear 23 1008 58 10000 2.6 110 19:54 10.06.2019
6562 Clear 24 1008 58 10000 2.6 80 19:27 10.06.2019
6563 Rain 24 1009 58 10000 2.6 90 18:59 10.06.2019
6564 Rain 24 1009 54 10000 2.6 60 18:40 10.06.2019
6565 Rain 24 1009 54 10000 2.6 60 18:20 10.06.2019
6566 Rain 24 1009 61 10000 3.6 50 17:54 10.06.2019
6567 Rain 24 1010 65 10000 4.1 40 17:36 10.06.2019
6568 Rain 24 1010 65 10000 3.6 40 17:18 10.06.2019
6569 Rain 23 1011 65 8000 1 0 16:42 10.06.2019
6570 Rain 23 1012 73 8000 2.6 270 16:22 10.06.2019
6571 Rain 23 1011 78 8000 2.1 30 15:42 10.06.2019
6572 Rain 23 1011 78 8000 2.1 30 15:23 10.06.2019
6573 Rain 23 1012 73 7000 2.1 140 14:49 10.06.2019
6574 Rain 23 1013 65 10000 3.1 210 14:31 10.06.2019
6575 Rain 24 1012 61 10000 4.1 180 13:58 10.06.2019
6576 Rain 24 1012 61 10000 4.1 170 13:39 10.06.2019
6577 Thunderstorm 25 1012 54 10000 5.1 140 13:20 10.06.2019
6578 Rain 26 1012 57 10000 4.6 160 12:40 10.06.2019
6579 Rain 25 1013 65 10000 4.1 130 12:22 10.06.2019
6580 Rain 25 1013 65 10000 3.6 120 11:43 10.06.2019
6581 Rain 25 1014 69 10000 3.6 100 11:19 10.06.2019
6582 Clouds 23 1014 78 10000 2.6 70 10:42 10.06.2019
6583 Clouds 23 1014 78 10000 2.6 70 10:20 10.06.2019
6584 Clouds 22 1014 78 10000 2.6 80 09:55 10.06.2019
6585 Clouds 22 1015 78 10000 2.1 70 09:33 10.06.2019
6586 Clouds 21 1014 83 10000 0.5 0 08:50 10.06.2019
6587 Clouds 20 1014 83 10000 0.5 0 08:28 10.06.2019
6588 Clouds 20 1014 83 10000 0.5 0 07:59 10.06.2019
6589 Clouds 19 1014 82 10000 1.5 180 06:33 10.06.2019
6590 Rain 19 1016 82 10000 3.6 360 03:59 10.06.2019
6591 Rain 20 1016 78 10000 0.5 0 01:57 10.06.2019
6592 Thunderstorm 20 1016 78 10000 1 0 01:23 10.06.2019
6593 Rain 20 1017 69 10000 1 0 00:48 10.06.2019
6594 Thunderstorm 20 1017 69 10000 1 0 23:58 09.06.2019
6595 Thunderstorm 20 1017 64 10000 1.5 340 23:38 09.06.2019
6596 Rain 20 1017 64 10000 2.6 350 23:18 09.06.2019
6597 Clouds 21 1017 69 10000 1.5 310 22:41 09.06.2019
6598 Clouds 21 1017 69 10000 1.5 310 22:21 09.06.2019
6599 Rain 21 1018 64 10000 3.1 350 21:40 09.06.2019
6600 Rain 21 1018 61 10000 2.6 350 21:22 09.06.2019
6601 Rain 21 1018 61 10000 3.1 340 20:42 09.06.2019
6602 Thunderstorm 22 1018 57 10000 1.5 10 20:22 09.06.2019
6603 Rain 23 1018 57 10000 1 0 19:46 09.06.2019
6604 Rain 23 1018 57 10000 1 0 19:46 09.06.2019
6605 Rain 23 1018 54 10000 1.5 0 19:19 09.06.2019
6606 Rain 23 1018 54 10000 1.5 0 18:56 09.06.2019
6607 Rain 23 1018 61 10000 3.6 40 18:37 09.06.2019
6608 Rain 23 1020 61 8000 1 0 18:19 09.06.2019
6609 Rain 23 1020 61 8000 1.5 240 17:43 09.06.2019
6610 Rain 23 1020 61 8000 1.5 240 17:24 09.06.2019
6611 Rain 24 1020 57 8000 2.1 90 16:41 09.06.2019
6612 Rain 24 1019 61 8000 4.1 60 16:21 09.06.2019
6613 Clouds 24 1019 61 8000 4.1 60 15:56 09.06.2019
6614 Rain 24 1020 61 9000 3.1 180 15:38 09.06.2019
6615 Rain 24 1020 61 9000 3.1 180 15:20 09.06.2019
6616 Rain 25 1020 54 9000 4.6 110 14:42 09.06.2019
6617 Clouds 24 1021 57 8000 2.6 80 14:21 09.06.2019
6618 Clouds 25 1021 61 8000 2.1 70 13:50 09.06.2019
6619 Clouds 24 1021 69 9000 3.6 30 13:19 09.06.2019
6620 Rain 24 1022 69 9000 2.6 110 12:40 09.06.2019
6621 Rain 23 1022 69 9000 2.6 110 12:21 09.06.2019
6622 Clouds 23 1022 69 10000 2.6 140 11:39 09.06.2019
6623 Rain 22 1022 60 10000 3.1 100 11:20 09.06.2019
6624 Rain 22 1022 64 10000 3.1 60 10:44 09.06.2019
6625 Clouds 21 1022 64 10000 3.1 70 10:22 09.06.2019
6626 Rain 20 1021 68 10000 5.1 80 09:40 09.06.2019
6627 Rain 20 1021 68 10000 5.1 80 09:40 09.06.2019
6628 Rain 20 1023 64 10000 0.5 0 09:21 09.06.2019
6629 Rain 19 1023 60 10000 1.5 240 08:46 09.06.2019
6630 Clouds 19 1022 72 10000 1 0 08:27 09.06.2019
6631 Clouds 19 1022 77 10000 0.5 0 07:21 09.06.2019
6632 Clear 18 1021 77 10000 0.5 0 06:30 09.06.2019
6633 Clear 18 1021 77 10000 0.5 0 06:30 09.06.2019
6634 Clear 18 1021 68 10000 0.5 0 04:34 09.06.2019
6635 Clouds 19 1021 46 10000 1 0 01:38 09.06.2019
6636 Clouds 19 1021 43 10000 1.5 290 01:19 09.06.2019
6637 Clouds 20 1021 43 10000 1.5 290 00:58 09.06.2019
6638 Clouds 20 1021 43 10000 2.1 280 23:43 08.06.2019
6639 Clouds 21 1021 43 10000 2.1 280 23:24 08.06.2019
6640 Clear 22 1021 43 10000 2.1 280 22:56 08.06.2019
6641 Clear 22 1020 43 10000 2.1 270 22:38 08.06.2019
6642 Clear 22 1020 38 10000 1.5 230 22:19 08.06.2019
6643 Clear 23 1020 39 10000 2.6 210 21:50 08.06.2019
6644 Clear 24 1020 39 10000 2.6 210 21:26 08.06.2019
6645 Clear 25 1019 37 10000 2.1 200 20:47 08.06.2019
6646 Clear 26 1019 37 10000 2.1 200 20:26 08.06.2019
6647 Clear 27 1019 35 10000 1.5 300 19:58 08.06.2019
6648 Clear 27 1019 35 10000 2.6 190 19:39 08.06.2019
6649 Clear 28 1019 32 10000 1 0 19:19 08.06.2019
6650 Clear 28 1019 34 10000 2.1 180 18:51 08.06.2019
6651 Clear 28 1019 34 10000 2.1 180 18:32 08.06.2019
6652 Clouds 28 1019 35 10000 2.6 0 17:48 08.06.2019
6653 Clouds 28 1019 35 10000 2.6 0 17:23 08.06.2019
6654 Clouds 28 1019 39 10000 2.6 220 16:54 08.06.2019
6655 Clouds 28 1020 37 10000 3.6 190 16:35 08.06.2019
6656 Clouds 28 1020 45 10000 2.1 180 15:54 08.06.2019
6657 Clouds 27 1020 45 10000 2.1 180 15:35 08.06.2019
6658 Clouds 27 1020 45 10000 2.6 0 14:49 08.06.2019
6659 Clouds 27 1020 47 10000 2.1 0 14:31 08.06.2019
6660 Clouds 26 1020 47 10000 2.1 270 13:51 08.06.2019
6661 Clouds 25 1020 53 10000 1.5 0 12:54 08.06.2019
6662 Clouds 25 1020 53 10000 1.5 0 12:35 08.06.2019
6663 Clouds 24 1020 61 10000 1.5 0 11:56 08.06.2019
6664 Clouds 24 1020 61 10000 1.5 0 11:37 08.06.2019
6665 Clouds 24 1020 64 10000 2.6 220 11:19 08.06.2019
6666 Clouds 23 1020 60 10000 1.5 0 10:42 08.06.2019
6667 Clouds 23 1020 64 10000 1 0 10:19 08.06.2019
6668 Clouds 22 1020 68 10000 1 0 09:33 08.06.2019
6669 Clouds 21 1020 73 10000 0.5 0 08:52 08.06.2019
6670 Clouds 20 1019 77 10000 0.5 0 08:22 08.06.2019
6671 Clouds 19 1019 88 10000 1 0 07:27 08.06.2019
6672 Clouds 18 1018 88 10000 1 160 06:45 08.06.2019
6673 Clouds 19 1017 77 10000 2.6 170 03:37 08.06.2019
6674 Clouds 20 1017 60 10000 3.6 110 02:20 08.06.2019
6675 Clouds 21 1017 50 10000 2.6 110 00:31 08.06.2019
6676 Clouds 21 1017 50 10000 1 0 23:59 07.06.2019
6677 Clouds 21 1017 44 10000 2.1 60 23:21 07.06.2019
6678 Clouds 21 1017 44 10000 2.1 60 22:52 07.06.2019
6679 Clouds 22 1017 47 10000 1.5 50 22:33 07.06.2019
6680 Clouds 22 1016 50 10000 1.5 360 21:55 07.06.2019
6681 Clouds 22 1016 50 10000 1 0 21:37 07.06.2019
6682 Clouds 22 1016 47 10000 1 0 21:19 07.06.2019
6683 Clouds 23 1016 41 10000 0.5 0 20:42 07.06.2019
6684 Clouds 23 1016 41 10000 0.5 0 20:22 07.06.2019
6685 Clouds 24 1016 38 10000 2.1 160 19:41 07.06.2019
6686 Clouds 24 1016 36 10000 3.1 160 19:19 07.06.2019
6687 Clouds 25 1016 36 10000 2.1 110 18:43 07.06.2019
6688 Clouds 25 1016 36 10000 2.1 110 18:25 07.06.2019
6689 Clouds 25 1017 34 10000 3.1 160 17:44 07.06.2019
6690 Clouds 25 1016 36 10000 2.6 120 17:21 07.06.2019
6691 Clouds 25 1016 34 10000 2.6 0 16:41 07.06.2019
6692 Clouds 26 1016 39 10000 1.5 0 16:20 07.06.2019
6693 Clear 25 1016 36 10000 2.1 0 15:47 07.06.2019
6694 Clear 25 1017 31 10000 1.5 0 15:20 07.06.2019
6695 Clear 25 1017 36 10000 3.1 150 14:42 07.06.2019
6696 Clear 25 1017 33 10000 2.1 310 14:21 07.06.2019
6697 Clear 25 1017 31 10000 1.5 0 13:28 07.06.2019
6698 Clear 24 1017 38 10000 2.1 30 12:54 07.06.2019
6699 Clear 23 1017 44 10000 1.5 340 12:30 07.06.2019
6700 Clear 23 1017 47 10000 1 0 11:58 07.06.2019
6701 Clear 22 1017 44 10000 1.5 0 11:38 07.06.2019
6702 Clear 22 1017 49 10000 2.6 350 11:20 07.06.2019
6703 Clear 21 1017 49 10